<?xml version="1.0" encoding="UTF-8"?>
<gpx version="1.1" creator="https://www.youtrack.es" xsi:schemaLocation="http://www.topografix.com/GPX/1/1 http://www.topografix.com/GPX/1/1/gpx.xsd http://www.garmin.com/xmlschemas/GpxExtensions/v3 http://www.garmin.com/xmlschemas/GpxExtensionsv3.xsd http://www.garmin.com/xmlschemas/TrackPointExtension/v1 http://www.garmin.com/xmlschemas/TrackPointExtensionv1.xsd" xmlns:gpxtpx="http://www.garmin.com/xmlschemas/TrackPointExtension/v1" xmlns:gpxx="http://www.garmin.com/xmlschemas/GpxExtensions/v3" xmlns:xsi="http://www.w3.org/2001/XMLSchema-instance">
  <metadata>
    <link href="https://www.youtrack.es">
      <text>YouTrack.es</text>
    </link>
    <time>2026-05-09T06:35:26Z</time>
  </metadata>
  <trk>
    <src>https://www.youtrack.es</src>
    <link href="https://www.youtrack.es/ruta/39814-burguillos">
      <text>YouTrack.es</text>
    </link>
    <trkseg>
      <trkpt lat="37.378044" lon="-5.979946">
        <ele>11.90</ele>
        <time>2021-08-28T06:05:14Z</time>
      </trkpt>
      <trkpt lat="37.378089" lon="-5.979927">
        <ele>11.81</ele>
        <time>2021-08-28T06:05:14.33Z</time>
      </trkpt>
      <trkpt lat="37.378131" lon="-5.979907">
        <ele>11.74</ele>
        <time>2021-08-28T06:05:14.57Z</time>
      </trkpt>
      <trkpt lat="37.378178" lon="-5.979890">
        <ele>11.63</ele>
        <time>2021-08-28T06:05:14.98Z</time>
      </trkpt>
      <trkpt lat="37.378242" lon="-5.979864">
        <ele>11.50</ele>
        <time>2021-08-28T06:05:15.45Z</time>
      </trkpt>
      <trkpt lat="37.378279" lon="-5.979849">
        <ele>11.43</ele>
        <time>2021-08-28T06:05:15.72Z</time>
      </trkpt>
      <trkpt lat="37.378366" lon="-5.979814">
        <ele>11.26</ele>
        <time>2021-08-28T06:05:16.35Z</time>
      </trkpt>
      <trkpt lat="37.378420" lon="-5.979791">
        <ele>11.15</ele>
        <time>2021-08-28T06:05:16.75Z</time>
      </trkpt>
      <trkpt lat="37.378472" lon="-5.979823">
        <ele>11.00</ele>
        <time>2021-08-28T06:05:17.29Z</time>
      </trkpt>
      <trkpt lat="37.378532" lon="-5.979859">
        <ele>10.83</ele>
        <time>2021-08-28T06:05:17.91Z</time>
      </trkpt>
      <trkpt lat="37.378589" lon="-5.979894">
        <ele>10.67</ele>
        <time>2021-08-28T06:05:18.50Z</time>
      </trkpt>
      <trkpt lat="37.378637" lon="-5.979923">
        <ele>10.53</ele>
        <time>2021-08-28T06:05:19Z</time>
      </trkpt>
      <trkpt lat="37.378705" lon="-5.979965">
        <ele>10.34</ele>
        <time>2021-08-28T06:05:19.70Z</time>
      </trkpt>
      <trkpt lat="37.378747" lon="-5.979991">
        <ele>10.22</ele>
        <time>2021-08-28T06:05:20.15Z</time>
      </trkpt>
      <trkpt lat="37.378888" lon="-5.980663">
        <ele>6.71</ele>
        <time>2021-08-28T06:05:33Z</time>
      </trkpt>
      <trkpt lat="37.378971" lon="-5.981094">
        <ele>5.92</ele>
        <time>2021-08-28T06:05:41Z</time>
      </trkpt>
      <trkpt lat="37.379045" lon="-5.981328">
        <ele>10.13</ele>
        <time>2021-08-28T06:05:48Z</time>
      </trkpt>
      <trkpt lat="37.379104" lon="-5.981546">
        <ele>15.07</ele>
        <time>2021-08-28T06:05:53Z</time>
      </trkpt>
      <trkpt lat="37.379185" lon="-5.981767">
        <ele>17.70</ele>
        <time>2021-08-28T06:05:58Z</time>
      </trkpt>
      <trkpt lat="37.379247" lon="-5.982028">
        <ele>17.02</ele>
        <time>2021-08-28T06:06:03Z</time>
      </trkpt>
      <trkpt lat="37.379304" lon="-5.982256">
        <ele>16.59</ele>
        <time>2021-08-28T06:06:08Z</time>
      </trkpt>
      <trkpt lat="37.379390" lon="-5.982568">
        <ele>17.22</ele>
        <time>2021-08-28T06:06:14Z</time>
      </trkpt>
      <trkpt lat="37.379443" lon="-5.982776">
        <ele>19.57</ele>
        <time>2021-08-28T06:06:19Z</time>
      </trkpt>
      <trkpt lat="37.379455" lon="-5.982929">
        <ele>14.03</ele>
        <time>2021-08-28T06:06:25Z</time>
      </trkpt>
      <trkpt lat="37.379334" lon="-5.983119">
        <ele>16.43</ele>
        <time>2021-08-28T06:06:47Z</time>
      </trkpt>
      <trkpt lat="37.379378" lon="-5.983267">
        <ele>16.18</ele>
        <time>2021-08-28T06:06:50.09Z</time>
      </trkpt>
      <trkpt lat="37.379492" lon="-5.983265">
        <ele>15.94</ele>
        <time>2021-08-28T06:06:53Z</time>
      </trkpt>
      <trkpt lat="37.379638" lon="-5.983434">
        <ele>17.30</ele>
        <time>2021-08-28T06:06:58Z</time>
      </trkpt>
      <trkpt lat="37.379705" lon="-5.983680">
        <ele>14.77</ele>
        <time>2021-08-28T06:07:02Z</time>
      </trkpt>
      <trkpt lat="37.379783" lon="-5.983907">
        <ele>16.71</ele>
        <time>2021-08-28T06:07:06Z</time>
      </trkpt>
      <trkpt lat="37.379830" lon="-5.984132">
        <ele>15.48</ele>
        <time>2021-08-28T06:07:10Z</time>
      </trkpt>
      <trkpt lat="37.379899" lon="-5.984403">
        <ele>11.90</ele>
        <time>2021-08-28T06:07:15Z</time>
      </trkpt>
      <trkpt lat="37.379932" lon="-5.984637">
        <ele>5.75</ele>
        <time>2021-08-28T06:07:20Z</time>
      </trkpt>
      <trkpt lat="37.379981" lon="-5.984858">
        <ele>4.47</ele>
        <time>2021-08-28T06:07:25Z</time>
      </trkpt>
      <trkpt lat="37.380034" lon="-5.985100">
        <ele>5.83</ele>
        <time>2021-08-28T06:07:29Z</time>
      </trkpt>
      <trkpt lat="37.380094" lon="-5.985365">
        <ele>10.36</ele>
        <time>2021-08-28T06:07:34Z</time>
      </trkpt>
      <trkpt lat="37.380153" lon="-5.985633">
        <ele>15.55</ele>
        <time>2021-08-28T06:07:39Z</time>
      </trkpt>
      <trkpt lat="37.380235" lon="-5.985847">
        <ele>10.55</ele>
        <time>2021-08-28T06:07:43Z</time>
      </trkpt>
      <trkpt lat="37.380286" lon="-5.986083">
        <ele>10.30</ele>
        <time>2021-08-28T06:07:47Z</time>
      </trkpt>
      <trkpt lat="37.380327" lon="-5.986310">
        <ele>11.76</ele>
        <time>2021-08-28T06:07:51Z</time>
      </trkpt>
      <trkpt lat="37.380398" lon="-5.986554">
        <ele>13.32</ele>
        <time>2021-08-28T06:07:55Z</time>
      </trkpt>
      <trkpt lat="37.380468" lon="-5.986790">
        <ele>15.88</ele>
        <time>2021-08-28T06:07:59Z</time>
      </trkpt>
      <trkpt lat="37.380533" lon="-5.987041">
        <ele>15.35</ele>
        <time>2021-08-28T06:08:03Z</time>
      </trkpt>
      <trkpt lat="37.380610" lon="-5.987285">
        <ele>13.62</ele>
        <time>2021-08-28T06:08:07Z</time>
      </trkpt>
      <trkpt lat="37.380684" lon="-5.987502">
        <ele>13.72</ele>
        <time>2021-08-28T06:08:11Z</time>
      </trkpt>
      <trkpt lat="37.380757" lon="-5.987761">
        <ele>12.99</ele>
        <time>2021-08-28T06:08:15Z</time>
      </trkpt>
      <trkpt lat="37.380810" lon="-5.987978">
        <ele>9.57</ele>
        <time>2021-08-28T06:08:19Z</time>
      </trkpt>
      <trkpt lat="37.380759" lon="-5.988202">
        <ele>5.10</ele>
        <time>2021-08-28T06:08:26Z</time>
      </trkpt>
      <trkpt lat="37.380735" lon="-5.988434">
        <ele>5.19</ele>
        <time>2021-08-28T06:08:32Z</time>
      </trkpt>
      <trkpt lat="37.380785" lon="-5.988696">
        <ele>5.74</ele>
        <time>2021-08-28T06:08:38Z</time>
      </trkpt>
      <trkpt lat="37.380843" lon="-5.988960">
        <ele>4.81</ele>
        <time>2021-08-28T06:08:43Z</time>
      </trkpt>
      <trkpt lat="37.381000" lon="-5.989112">
        <ele>6.33</ele>
        <time>2021-08-28T06:08:50Z</time>
      </trkpt>
      <trkpt lat="37.381180" lon="-5.989058">
        <ele>10.89</ele>
        <time>2021-08-28T06:08:55Z</time>
      </trkpt>
      <trkpt lat="37.381275" lon="-5.989251">
        <ele>10.92</ele>
        <time>2021-08-28T06:09:01Z</time>
      </trkpt>
      <trkpt lat="37.381448" lon="-5.989167">
        <ele>8.90</ele>
        <time>2021-08-28T06:09:09Z</time>
      </trkpt>
      <trkpt lat="37.381518" lon="-5.988921">
        <ele>8.25</ele>
        <time>2021-08-28T06:09:14Z</time>
      </trkpt>
      <trkpt lat="37.381626" lon="-5.988685">
        <ele>7.35</ele>
        <time>2021-08-28T06:09:19Z</time>
      </trkpt>
      <trkpt lat="37.381802" lon="-5.988586">
        <ele>6.39</ele>
        <time>2021-08-28T06:09:23Z</time>
      </trkpt>
      <trkpt lat="37.381992" lon="-5.988459">
        <ele>6.17</ele>
        <time>2021-08-28T06:09:27Z</time>
      </trkpt>
      <trkpt lat="37.382194" lon="-5.988356">
        <ele>7.06</ele>
        <time>2021-08-28T06:09:32Z</time>
      </trkpt>
      <trkpt lat="37.382379" lon="-5.988251">
        <ele>7.06</ele>
        <time>2021-08-28T06:09:36Z</time>
      </trkpt>
      <trkpt lat="37.382563" lon="-5.988143">
        <ele>7.45</ele>
        <time>2021-08-28T06:09:40Z</time>
      </trkpt>
      <trkpt lat="37.382744" lon="-5.988041">
        <ele>8.47</ele>
        <time>2021-08-28T06:09:44Z</time>
      </trkpt>
      <trkpt lat="37.382927" lon="-5.987933">
        <ele>8.37</ele>
        <time>2021-08-28T06:09:48Z</time>
      </trkpt>
      <trkpt lat="37.383135" lon="-5.987819">
        <ele>7.88</ele>
        <time>2021-08-28T06:09:52Z</time>
      </trkpt>
      <trkpt lat="37.383283" lon="-5.987671">
        <ele>9.42</ele>
        <time>2021-08-28T06:09:56Z</time>
      </trkpt>
      <trkpt lat="37.383463" lon="-5.987577">
        <ele>8.42</ele>
        <time>2021-08-28T06:10:00Z</time>
      </trkpt>
      <trkpt lat="37.383646" lon="-5.987507">
        <ele>10.60</ele>
        <time>2021-08-28T06:10:07Z</time>
      </trkpt>
      <trkpt lat="37.383824" lon="-5.987400">
        <ele>10.46</ele>
        <time>2021-08-28T06:10:12Z</time>
      </trkpt>
      <trkpt lat="37.383988" lon="-5.987291">
        <ele>11.12</ele>
        <time>2021-08-28T06:10:16Z</time>
      </trkpt>
      <trkpt lat="37.384162" lon="-5.987191">
        <ele>10.17</ele>
        <time>2021-08-28T06:10:20Z</time>
      </trkpt>
      <trkpt lat="37.384350" lon="-5.987099">
        <ele>8.77</ele>
        <time>2021-08-28T06:10:24Z</time>
      </trkpt>
      <trkpt lat="37.384532" lon="-5.986991">
        <ele>7.95</ele>
        <time>2021-08-28T06:10:28Z</time>
      </trkpt>
      <trkpt lat="37.384706" lon="-5.986897">
        <ele>8.92</ele>
        <time>2021-08-28T06:10:32Z</time>
      </trkpt>
      <trkpt lat="37.384883" lon="-5.986810">
        <ele>6.56</ele>
        <time>2021-08-28T06:10:36Z</time>
      </trkpt>
      <trkpt lat="37.385065" lon="-5.986709">
        <ele>8.52</ele>
        <time>2021-08-28T06:10:43Z</time>
      </trkpt>
      <trkpt lat="37.385180" lon="-5.986502">
        <ele>8.46</ele>
        <time>2021-08-28T06:10:50Z</time>
      </trkpt>
      <trkpt lat="37.385336" lon="-5.986372">
        <ele>8.35</ele>
        <time>2021-08-28T06:10:55Z</time>
      </trkpt>
      <trkpt lat="37.385531" lon="-5.986254">
        <ele>8.57</ele>
        <time>2021-08-28T06:11:00Z</time>
      </trkpt>
      <trkpt lat="37.385733" lon="-5.986146">
        <ele>9.50</ele>
        <time>2021-08-28T06:11:05Z</time>
      </trkpt>
      <trkpt lat="37.385933" lon="-5.986036">
        <ele>11.43</ele>
        <time>2021-08-28T06:11:10Z</time>
      </trkpt>
      <trkpt lat="37.386128" lon="-5.985915">
        <ele>12.06</ele>
        <time>2021-08-28T06:11:15Z</time>
      </trkpt>
      <trkpt lat="37.386296" lon="-5.985824">
        <ele>13.40</ele>
        <time>2021-08-28T06:11:19Z</time>
      </trkpt>
      <trkpt lat="37.386507" lon="-5.985731">
        <ele>15.60</ele>
        <time>2021-08-28T06:11:24Z</time>
      </trkpt>
      <trkpt lat="37.386683" lon="-5.985637">
        <ele>15.76</ele>
        <time>2021-08-28T06:11:28Z</time>
      </trkpt>
      <trkpt lat="37.386876" lon="-5.985536">
        <ele>14.55</ele>
        <time>2021-08-28T06:11:32Z</time>
      </trkpt>
      <trkpt lat="37.387056" lon="-5.985435">
        <ele>15.80</ele>
        <time>2021-08-28T06:11:36Z</time>
      </trkpt>
      <trkpt lat="37.387261" lon="-5.985312">
        <ele>16.08</ele>
        <time>2021-08-28T06:11:40Z</time>
      </trkpt>
      <trkpt lat="37.387456" lon="-5.985201">
        <ele>17.11</ele>
        <time>2021-08-28T06:11:44Z</time>
      </trkpt>
      <trkpt lat="37.387668" lon="-5.985086">
        <ele>16.74</ele>
        <time>2021-08-28T06:11:48Z</time>
      </trkpt>
      <trkpt lat="37.387882" lon="-5.985014">
        <ele>16.13</ele>
        <time>2021-08-28T06:11:52Z</time>
      </trkpt>
      <trkpt lat="37.388093" lon="-5.984952">
        <ele>14.65</ele>
        <time>2021-08-28T06:11:56Z</time>
      </trkpt>
      <trkpt lat="37.388290" lon="-5.984884">
        <ele>16.90</ele>
        <time>2021-08-28T06:12:00Z</time>
      </trkpt>
      <trkpt lat="37.388474" lon="-5.984812">
        <ele>16.10</ele>
        <time>2021-08-28T06:12:04Z</time>
      </trkpt>
      <trkpt lat="37.388680" lon="-5.984741">
        <ele>12.71</ele>
        <time>2021-08-28T06:12:09Z</time>
      </trkpt>
      <trkpt lat="37.388861" lon="-5.984679">
        <ele>12.29</ele>
        <time>2021-08-28T06:12:14Z</time>
      </trkpt>
      <trkpt lat="37.389039" lon="-5.984603">
        <ele>11.30</ele>
        <time>2021-08-28T06:12:21Z</time>
      </trkpt>
      <trkpt lat="37.389221" lon="-5.984641">
        <ele>6.93</ele>
        <time>2021-08-28T06:12:39Z</time>
      </trkpt>
      <trkpt lat="37.389404" lon="-5.984514">
        <ele>7.80</ele>
        <time>2021-08-28T06:12:45Z</time>
      </trkpt>
      <trkpt lat="37.389570" lon="-5.984421">
        <ele>6.81</ele>
        <time>2021-08-28T06:12:49Z</time>
      </trkpt>
      <trkpt lat="37.389732" lon="-5.984317">
        <ele>5.32</ele>
        <time>2021-08-28T06:12:53Z</time>
      </trkpt>
      <trkpt lat="37.389908" lon="-5.984221">
        <ele>7.50</ele>
        <time>2021-08-28T06:12:58Z</time>
      </trkpt>
      <trkpt lat="37.390094" lon="-5.984182">
        <ele>10.33</ele>
        <time>2021-08-28T06:13:02Z</time>
      </trkpt>
      <trkpt lat="37.390276" lon="-5.984120">
        <ele>12.02</ele>
        <time>2021-08-28T06:13:06Z</time>
      </trkpt>
      <trkpt lat="37.390485" lon="-5.984127">
        <ele>15.16</ele>
        <time>2021-08-28T06:13:11Z</time>
      </trkpt>
      <trkpt lat="37.390694" lon="-5.984087">
        <ele>15.21</ele>
        <time>2021-08-28T06:13:15Z</time>
      </trkpt>
      <trkpt lat="37.390918" lon="-5.984092">
        <ele>13.63</ele>
        <time>2021-08-28T06:13:20Z</time>
      </trkpt>
      <trkpt lat="37.391124" lon="-5.984114">
        <ele>14.76</ele>
        <time>2021-08-28T06:13:25Z</time>
      </trkpt>
      <trkpt lat="37.391351" lon="-5.984101">
        <ele>14.35</ele>
        <time>2021-08-28T06:13:31Z</time>
      </trkpt>
      <trkpt lat="37.391568" lon="-5.984092">
        <ele>14.79</ele>
        <time>2021-08-28T06:13:35Z</time>
      </trkpt>
      <trkpt lat="37.391763" lon="-5.984122">
        <ele>11.26</ele>
        <time>2021-08-28T06:13:39Z</time>
      </trkpt>
      <trkpt lat="37.391965" lon="-5.984121">
        <ele>11.74</ele>
        <time>2021-08-28T06:13:43Z</time>
      </trkpt>
      <trkpt lat="37.392196" lon="-5.984136">
        <ele>11.84</ele>
        <time>2021-08-28T06:13:48Z</time>
      </trkpt>
      <trkpt lat="37.392393" lon="-5.984141">
        <ele>16.66</ele>
        <time>2021-08-28T06:13:52Z</time>
      </trkpt>
      <trkpt lat="37.392574" lon="-5.984145">
        <ele>17.05</ele>
        <time>2021-08-28T06:13:56Z</time>
      </trkpt>
      <trkpt lat="37.392758" lon="-5.984135">
        <ele>17.63</ele>
        <time>2021-08-28T06:13:59Z</time>
      </trkpt>
      <trkpt lat="37.392964" lon="-5.984087">
        <ele>16.98</ele>
        <time>2021-08-28T06:14:03Z</time>
      </trkpt>
      <trkpt lat="37.393167" lon="-5.984055">
        <ele>13.63</ele>
        <time>2021-08-28T06:14:07Z</time>
      </trkpt>
      <trkpt lat="37.393364" lon="-5.983991">
        <ele>12.97</ele>
        <time>2021-08-28T06:14:11Z</time>
      </trkpt>
      <trkpt lat="37.393548" lon="-5.983917">
        <ele>14.21</ele>
        <time>2021-08-28T06:14:15Z</time>
      </trkpt>
      <trkpt lat="37.393754" lon="-5.983859">
        <ele>13.45</ele>
        <time>2021-08-28T06:14:19Z</time>
      </trkpt>
      <trkpt lat="37.393960" lon="-5.983809">
        <ele>13.21</ele>
        <time>2021-08-28T06:14:23Z</time>
      </trkpt>
      <trkpt lat="37.394148" lon="-5.983724">
        <ele>13.28</ele>
        <time>2021-08-28T06:14:27Z</time>
      </trkpt>
      <trkpt lat="37.394345" lon="-5.983627">
        <ele>13.75</ele>
        <time>2021-08-28T06:14:31Z</time>
      </trkpt>
      <trkpt lat="37.394530" lon="-5.983503">
        <ele>12.16</ele>
        <time>2021-08-28T06:14:35Z</time>
      </trkpt>
      <trkpt lat="37.394704" lon="-5.983393">
        <ele>10.84</ele>
        <time>2021-08-28T06:14:39Z</time>
      </trkpt>
      <trkpt lat="37.394893" lon="-5.983276">
        <ele>10.14</ele>
        <time>2021-08-28T06:14:43Z</time>
      </trkpt>
      <trkpt lat="37.395085" lon="-5.983139">
        <ele>8.99</ele>
        <time>2021-08-28T06:14:47Z</time>
      </trkpt>
      <trkpt lat="37.395263" lon="-5.983004">
        <ele>8.33</ele>
        <time>2021-08-28T06:14:51Z</time>
      </trkpt>
      <trkpt lat="37.395451" lon="-5.982860">
        <ele>7.53</ele>
        <time>2021-08-28T06:14:55Z</time>
      </trkpt>
      <trkpt lat="37.395644" lon="-5.982730">
        <ele>7.78</ele>
        <time>2021-08-28T06:14:59Z</time>
      </trkpt>
      <trkpt lat="37.395845" lon="-5.982582">
        <ele>7.21</ele>
        <time>2021-08-28T06:15:03Z</time>
      </trkpt>
      <trkpt lat="37.396037" lon="-5.982441">
        <ele>7.91</ele>
        <time>2021-08-28T06:15:07Z</time>
      </trkpt>
      <trkpt lat="37.396232" lon="-5.982300">
        <ele>8.20</ele>
        <time>2021-08-28T06:15:11Z</time>
      </trkpt>
      <trkpt lat="37.396403" lon="-5.982173">
        <ele>8.78</ele>
        <time>2021-08-28T06:15:15Z</time>
      </trkpt>
      <trkpt lat="37.396568" lon="-5.982042">
        <ele>10.40</ele>
        <time>2021-08-28T06:15:19Z</time>
      </trkpt>
      <trkpt lat="37.396729" lon="-5.981900">
        <ele>12.59</ele>
        <time>2021-08-28T06:15:23Z</time>
      </trkpt>
      <trkpt lat="37.396908" lon="-5.981800">
        <ele>11.62</ele>
        <time>2021-08-28T06:15:27Z</time>
      </trkpt>
      <trkpt lat="37.397083" lon="-5.981673">
        <ele>10.04</ele>
        <time>2021-08-28T06:15:31Z</time>
      </trkpt>
      <trkpt lat="37.397265" lon="-5.981558">
        <ele>9.94</ele>
        <time>2021-08-28T06:15:35Z</time>
      </trkpt>
      <trkpt lat="37.397489" lon="-5.981547">
        <ele>10.19</ele>
        <time>2021-08-28T06:15:39Z</time>
      </trkpt>
      <trkpt lat="37.397699" lon="-5.981589">
        <ele>9.87</ele>
        <time>2021-08-28T06:15:43Z</time>
      </trkpt>
      <trkpt lat="37.397923" lon="-5.981627">
        <ele>7.42</ele>
        <time>2021-08-28T06:15:47Z</time>
      </trkpt>
      <trkpt lat="37.398131" lon="-5.981663">
        <ele>7.33</ele>
        <time>2021-08-28T06:15:51Z</time>
      </trkpt>
      <trkpt lat="37.398339" lon="-5.981706">
        <ele>11.41</ele>
        <time>2021-08-28T06:15:55Z</time>
      </trkpt>
      <trkpt lat="37.398556" lon="-5.981820">
        <ele>12.52</ele>
        <time>2021-08-28T06:15:59Z</time>
      </trkpt>
      <trkpt lat="37.398741" lon="-5.981975">
        <ele>11.47</ele>
        <time>2021-08-28T06:16:03Z</time>
      </trkpt>
      <trkpt lat="37.398907" lon="-5.982165">
        <ele>14.40</ele>
        <time>2021-08-28T06:16:07Z</time>
      </trkpt>
      <trkpt lat="37.399037" lon="-5.982375">
        <ele>14.73</ele>
        <time>2021-08-28T06:16:11Z</time>
      </trkpt>
      <trkpt lat="37.399169" lon="-5.982604">
        <ele>15.29</ele>
        <time>2021-08-28T06:16:15Z</time>
      </trkpt>
      <trkpt lat="37.399247" lon="-5.982820">
        <ele>13.18</ele>
        <time>2021-08-28T06:16:19Z</time>
      </trkpt>
      <trkpt lat="37.399386" lon="-5.982975">
        <ele>12.14</ele>
        <time>2021-08-28T06:16:25Z</time>
      </trkpt>
      <trkpt lat="37.399577" lon="-5.982894">
        <ele>9.21</ele>
        <time>2021-08-28T06:16:30Z</time>
      </trkpt>
      <trkpt lat="37.399760" lon="-5.982808">
        <ele>7.59</ele>
        <time>2021-08-28T06:16:35Z</time>
      </trkpt>
      <trkpt lat="37.399925" lon="-5.982716">
        <ele>6.57</ele>
        <time>2021-08-28T06:16:39Z</time>
      </trkpt>
      <trkpt lat="37.400110" lon="-5.982622">
        <ele>6.73</ele>
        <time>2021-08-28T06:16:44Z</time>
      </trkpt>
      <trkpt lat="37.400314" lon="-5.982521">
        <ele>7.54</ele>
        <time>2021-08-28T06:16:49Z</time>
      </trkpt>
      <trkpt lat="37.400478" lon="-5.982426">
        <ele>8.31</ele>
        <time>2021-08-28T06:16:54Z</time>
      </trkpt>
      <trkpt lat="37.400650" lon="-5.982331">
        <ele>5.35</ele>
        <time>2021-08-28T06:17:05Z</time>
      </trkpt>
      <trkpt lat="37.400824" lon="-5.982239">
        <ele>6.71</ele>
        <time>2021-08-28T06:17:10Z</time>
      </trkpt>
      <trkpt lat="37.400993" lon="-5.982141">
        <ele>8.45</ele>
        <time>2021-08-28T06:17:14Z</time>
      </trkpt>
      <trkpt lat="37.401186" lon="-5.982035">
        <ele>9.46</ele>
        <time>2021-08-28T06:17:18Z</time>
      </trkpt>
      <trkpt lat="37.401363" lon="-5.981935">
        <ele>10.82</ele>
        <time>2021-08-28T06:17:22Z</time>
      </trkpt>
      <trkpt lat="37.401557" lon="-5.981853">
        <ele>11.75</ele>
        <time>2021-08-28T06:17:26Z</time>
      </trkpt>
      <trkpt lat="37.401764" lon="-5.981765">
        <ele>10.86</ele>
        <time>2021-08-28T06:17:30Z</time>
      </trkpt>
      <trkpt lat="37.401948" lon="-5.981663">
        <ele>12.92</ele>
        <time>2021-08-28T06:17:34Z</time>
      </trkpt>
      <trkpt lat="37.402144" lon="-5.981567">
        <ele>10.27</ele>
        <time>2021-08-28T06:17:38Z</time>
      </trkpt>
      <trkpt lat="37.402334" lon="-5.981471">
        <ele>11.63</ele>
        <time>2021-08-28T06:17:42Z</time>
      </trkpt>
      <trkpt lat="37.402515" lon="-5.981396">
        <ele>10.41</ele>
        <time>2021-08-28T06:17:46Z</time>
      </trkpt>
      <trkpt lat="37.402746" lon="-5.981333">
        <ele>10.23</ele>
        <time>2021-08-28T06:17:50Z</time>
      </trkpt>
      <trkpt lat="37.402935" lon="-5.981260">
        <ele>10.77</ele>
        <time>2021-08-28T06:17:54Z</time>
      </trkpt>
      <trkpt lat="37.403152" lon="-5.981176">
        <ele>13.95</ele>
        <time>2021-08-28T06:17:58Z</time>
      </trkpt>
      <trkpt lat="37.403316" lon="-5.981069">
        <ele>11.68</ele>
        <time>2021-08-28T06:18:03Z</time>
      </trkpt>
      <trkpt lat="37.403497" lon="-5.980996">
        <ele>10.67</ele>
        <time>2021-08-28T06:18:08Z</time>
      </trkpt>
      <trkpt lat="37.403676" lon="-5.981156">
        <ele>8.39</ele>
        <time>2021-08-28T06:18:13Z</time>
      </trkpt>
      <trkpt lat="37.403785" lon="-5.981369">
        <ele>8.41</ele>
        <time>2021-08-28T06:18:17Z</time>
      </trkpt>
      <trkpt lat="37.404002" lon="-5.981332">
        <ele>7.32</ele>
        <time>2021-08-28T06:18:23Z</time>
      </trkpt>
      <trkpt lat="37.404221" lon="-5.981376">
        <ele>5.78</ele>
        <time>2021-08-28T06:18:28Z</time>
      </trkpt>
      <trkpt lat="37.404431" lon="-5.981414">
        <ele>6.30</ele>
        <time>2021-08-28T06:18:34Z</time>
      </trkpt>
      <trkpt lat="37.404623" lon="-5.981445">
        <ele>7.27</ele>
        <time>2021-08-28T06:18:39Z</time>
      </trkpt>
      <trkpt lat="37.404823" lon="-5.981457">
        <ele>9.48</ele>
        <time>2021-08-28T06:18:43Z</time>
      </trkpt>
      <trkpt lat="37.405014" lon="-5.981475">
        <ele>10.68</ele>
        <time>2021-08-28T06:18:47Z</time>
      </trkpt>
      <trkpt lat="37.405225" lon="-5.981495">
        <ele>10.76</ele>
        <time>2021-08-28T06:18:51Z</time>
      </trkpt>
      <trkpt lat="37.405407" lon="-5.981532">
        <ele>10.39</ele>
        <time>2021-08-28T06:18:55Z</time>
      </trkpt>
      <trkpt lat="37.405599" lon="-5.981580">
        <ele>10.25</ele>
        <time>2021-08-28T06:18:59Z</time>
      </trkpt>
      <trkpt lat="37.405797" lon="-5.981619">
        <ele>11.72</ele>
        <time>2021-08-28T06:19:03Z</time>
      </trkpt>
      <trkpt lat="37.405995" lon="-5.981650">
        <ele>11.18</ele>
        <time>2021-08-28T06:19:07Z</time>
      </trkpt>
      <trkpt lat="37.406176" lon="-5.981744">
        <ele>9.78</ele>
        <time>2021-08-28T06:19:11Z</time>
      </trkpt>
      <trkpt lat="37.406345" lon="-5.981862">
        <ele>9.47</ele>
        <time>2021-08-28T06:19:15Z</time>
      </trkpt>
      <trkpt lat="37.406518" lon="-5.981996">
        <ele>11.00</ele>
        <time>2021-08-28T06:19:19Z</time>
      </trkpt>
      <trkpt lat="37.406674" lon="-5.982166">
        <ele>12.51</ele>
        <time>2021-08-28T06:19:24Z</time>
      </trkpt>
      <trkpt lat="37.406841" lon="-5.982310">
        <ele>11.09</ele>
        <time>2021-08-28T06:19:28Z</time>
      </trkpt>
      <trkpt lat="37.407033" lon="-5.982408">
        <ele>11.43</ele>
        <time>2021-08-28T06:19:33Z</time>
      </trkpt>
      <trkpt lat="37.407234" lon="-5.982359">
        <ele>10.07</ele>
        <time>2021-08-28T06:19:45Z</time>
      </trkpt>
      <trkpt lat="37.407358" lon="-5.982534">
        <ele>8.15</ele>
        <time>2021-08-28T06:19:50Z</time>
      </trkpt>
      <trkpt lat="37.407476" lon="-5.982732">
        <ele>7.63</ele>
        <time>2021-08-28T06:19:55Z</time>
      </trkpt>
      <trkpt lat="37.407651" lon="-5.982880">
        <ele>8.55</ele>
        <time>2021-08-28T06:20:00Z</time>
      </trkpt>
      <trkpt lat="37.407858" lon="-5.982998">
        <ele>7.95</ele>
        <time>2021-08-28T06:20:05Z</time>
      </trkpt>
      <trkpt lat="37.408032" lon="-5.983108">
        <ele>7.40</ele>
        <time>2021-08-28T06:20:09Z</time>
      </trkpt>
      <trkpt lat="37.408213" lon="-5.983204">
        <ele>7.24</ele>
        <time>2021-08-28T06:20:13Z</time>
      </trkpt>
      <trkpt lat="37.408397" lon="-5.983261">
        <ele>5.75</ele>
        <time>2021-08-28T06:20:17Z</time>
      </trkpt>
      <trkpt lat="37.408623" lon="-5.983260">
        <ele>7.53</ele>
        <time>2021-08-28T06:20:22Z</time>
      </trkpt>
      <trkpt lat="37.408840" lon="-5.983197">
        <ele>7.71</ele>
        <time>2021-08-28T06:20:26Z</time>
      </trkpt>
      <trkpt lat="37.409039" lon="-5.983135">
        <ele>8.11</ele>
        <time>2021-08-28T06:20:30Z</time>
      </trkpt>
      <trkpt lat="37.409243" lon="-5.983071">
        <ele>8.30</ele>
        <time>2021-08-28T06:20:34Z</time>
      </trkpt>
      <trkpt lat="37.409447" lon="-5.983012">
        <ele>6.76</ele>
        <time>2021-08-28T06:20:38Z</time>
      </trkpt>
      <trkpt lat="37.409683" lon="-5.982974">
        <ele>7.36</ele>
        <time>2021-08-28T06:20:42Z</time>
      </trkpt>
      <trkpt lat="37.409887" lon="-5.982998">
        <ele>8.89</ele>
        <time>2021-08-28T06:20:45Z</time>
      </trkpt>
      <trkpt lat="37.410098" lon="-5.983088">
        <ele>9.21</ele>
        <time>2021-08-28T06:20:49Z</time>
      </trkpt>
      <trkpt lat="37.410308" lon="-5.983173">
        <ele>10.91</ele>
        <time>2021-08-28T06:20:53Z</time>
      </trkpt>
      <trkpt lat="37.410509" lon="-5.983233">
        <ele>11.15</ele>
        <time>2021-08-28T06:20:57Z</time>
      </trkpt>
      <trkpt lat="37.410684" lon="-5.983302">
        <ele>13.27</ele>
        <time>2021-08-28T06:21:01Z</time>
      </trkpt>
      <trkpt lat="37.410865" lon="-5.983392">
        <ele>13.93</ele>
        <time>2021-08-28T06:21:06Z</time>
      </trkpt>
      <trkpt lat="37.411053" lon="-5.983473">
        <ele>15.37</ele>
        <time>2021-08-28T06:21:12Z</time>
      </trkpt>
      <trkpt lat="37.411243" lon="-5.983551">
        <ele>17.03</ele>
        <time>2021-08-28T06:21:19Z</time>
      </trkpt>
      <trkpt lat="37.411428" lon="-5.983607">
        <ele>11.37</ele>
        <time>2021-08-28T06:21:28Z</time>
      </trkpt>
      <trkpt lat="37.411450" lon="-5.983607">
        <ele>8.93</ele>
        <time>2021-08-28T06:21:57Z</time>
      </trkpt>
      <trkpt lat="37.411643" lon="-5.983674">
        <ele>7.62</ele>
        <time>2021-08-28T06:22:05Z</time>
      </trkpt>
      <trkpt lat="37.411823" lon="-5.983727">
        <ele>6.83</ele>
        <time>2021-08-28T06:22:10Z</time>
      </trkpt>
      <trkpt lat="37.412037" lon="-5.983722">
        <ele>9.09</ele>
        <time>2021-08-28T06:22:16Z</time>
      </trkpt>
      <trkpt lat="37.412245" lon="-5.983666">
        <ele>9.57</ele>
        <time>2021-08-28T06:22:21Z</time>
      </trkpt>
      <trkpt lat="37.412433" lon="-5.983615">
        <ele>6.71</ele>
        <time>2021-08-28T06:22:25Z</time>
      </trkpt>
      <trkpt lat="37.412637" lon="-5.983564">
        <ele>6.01</ele>
        <time>2021-08-28T06:22:29Z</time>
      </trkpt>
      <trkpt lat="37.412825" lon="-5.983526">
        <ele>6.82</ele>
        <time>2021-08-28T06:22:33Z</time>
      </trkpt>
      <trkpt lat="37.413002" lon="-5.983399">
        <ele>6.13</ele>
        <time>2021-08-28T06:22:37Z</time>
      </trkpt>
      <trkpt lat="37.413159" lon="-5.983261">
        <ele>4.63</ele>
        <time>2021-08-28T06:22:41Z</time>
      </trkpt>
      <trkpt lat="37.413368" lon="-5.983132">
        <ele>3.36</ele>
        <time>2021-08-28T06:22:55Z</time>
      </trkpt>
      <trkpt lat="37.413573" lon="-5.983180">
        <ele>4.29</ele>
        <time>2021-08-28T06:22:59Z</time>
      </trkpt>
      <trkpt lat="37.413755" lon="-5.983351">
        <ele>3.74</ele>
        <time>2021-08-28T06:23:03Z</time>
      </trkpt>
      <trkpt lat="37.413942" lon="-5.983312">
        <ele>4.04</ele>
        <time>2021-08-28T06:23:07Z</time>
      </trkpt>
      <trkpt lat="37.414147" lon="-5.983275">
        <ele>4.09</ele>
        <time>2021-08-28T06:23:12Z</time>
      </trkpt>
      <trkpt lat="37.414216" lon="-5.983242">
        <ele>5.99</ele>
        <time>2021-08-28T06:24:56Z</time>
      </trkpt>
      <trkpt lat="37.414203" lon="-5.983337">
        <ele>13.92</ele>
        <time>2021-08-28T06:26:29Z</time>
      </trkpt>
      <trkpt lat="37.414229" lon="-5.983319">
        <ele>18.78</ele>
        <time>2021-08-28T06:27:55Z</time>
      </trkpt>
      <trkpt lat="37.414263" lon="-5.983294">
        <ele>11.92</ele>
        <time>2021-08-28T06:28:13Z</time>
      </trkpt>
      <trkpt lat="37.414446" lon="-5.983286">
        <ele>7.65</ele>
        <time>2021-08-28T06:28:23Z</time>
      </trkpt>
      <trkpt lat="37.414633" lon="-5.983252">
        <ele>8.03</ele>
        <time>2021-08-28T06:28:32Z</time>
      </trkpt>
      <trkpt lat="37.414823" lon="-5.983219">
        <ele>7.29</ele>
        <time>2021-08-28T06:28:39Z</time>
      </trkpt>
      <trkpt lat="37.415006" lon="-5.983186">
        <ele>7.50</ele>
        <time>2021-08-28T06:28:45Z</time>
      </trkpt>
      <trkpt lat="37.415187" lon="-5.983156">
        <ele>5.26</ele>
        <time>2021-08-28T06:28:50Z</time>
      </trkpt>
      <trkpt lat="37.415388" lon="-5.983134">
        <ele>5.00</ele>
        <time>2021-08-28T06:28:55Z</time>
      </trkpt>
      <trkpt lat="37.415602" lon="-5.983125">
        <ele>5.85</ele>
        <time>2021-08-28T06:29:00Z</time>
      </trkpt>
      <trkpt lat="37.415815" lon="-5.983110">
        <ele>6.04</ele>
        <time>2021-08-28T06:29:05Z</time>
      </trkpt>
      <trkpt lat="37.416028" lon="-5.983089">
        <ele>7.17</ele>
        <time>2021-08-28T06:29:10Z</time>
      </trkpt>
      <trkpt lat="37.416248" lon="-5.983075">
        <ele>6.15</ele>
        <time>2021-08-28T06:29:15Z</time>
      </trkpt>
      <trkpt lat="37.416461" lon="-5.983058">
        <ele>6.62</ele>
        <time>2021-08-28T06:29:20Z</time>
      </trkpt>
      <trkpt lat="37.416660" lon="-5.983041">
        <ele>6.72</ele>
        <time>2021-08-28T06:29:25Z</time>
      </trkpt>
      <trkpt lat="37.416862" lon="-5.983033">
        <ele>6.67</ele>
        <time>2021-08-28T06:29:30Z</time>
      </trkpt>
      <trkpt lat="37.417074" lon="-5.983012">
        <ele>6.91</ele>
        <time>2021-08-28T06:29:35Z</time>
      </trkpt>
      <trkpt lat="37.417290" lon="-5.982994">
        <ele>7.53</ele>
        <time>2021-08-28T06:29:40Z</time>
      </trkpt>
      <trkpt lat="37.417470" lon="-5.982979">
        <ele>6.79</ele>
        <time>2021-08-28T06:29:44Z</time>
      </trkpt>
      <trkpt lat="37.417684" lon="-5.982965">
        <ele>7.51</ele>
        <time>2021-08-28T06:29:49Z</time>
      </trkpt>
      <trkpt lat="37.417900" lon="-5.982955">
        <ele>7.88</ele>
        <time>2021-08-28T06:29:54Z</time>
      </trkpt>
      <trkpt lat="37.418115" lon="-5.982938">
        <ele>8.36</ele>
        <time>2021-08-28T06:29:59Z</time>
      </trkpt>
      <trkpt lat="37.418319" lon="-5.982924">
        <ele>9.06</ele>
        <time>2021-08-28T06:30:04Z</time>
      </trkpt>
      <trkpt lat="37.418528" lon="-5.982908">
        <ele>9.12</ele>
        <time>2021-08-28T06:30:09Z</time>
      </trkpt>
      <trkpt lat="37.418734" lon="-5.982886">
        <ele>8.76</ele>
        <time>2021-08-28T06:30:14Z</time>
      </trkpt>
      <trkpt lat="37.418936" lon="-5.982866">
        <ele>9.48</ele>
        <time>2021-08-28T06:30:19Z</time>
      </trkpt>
      <trkpt lat="37.419141" lon="-5.982847">
        <ele>9.99</ele>
        <time>2021-08-28T06:30:24Z</time>
      </trkpt>
      <trkpt lat="37.419351" lon="-5.982819">
        <ele>9.66</ele>
        <time>2021-08-28T06:30:29Z</time>
      </trkpt>
      <trkpt lat="37.419562" lon="-5.982800">
        <ele>9.21</ele>
        <time>2021-08-28T06:30:34Z</time>
      </trkpt>
      <trkpt lat="37.419780" lon="-5.982790">
        <ele>8.69</ele>
        <time>2021-08-28T06:30:39Z</time>
      </trkpt>
      <trkpt lat="37.420007" lon="-5.982778">
        <ele>7.56</ele>
        <time>2021-08-28T06:30:44Z</time>
      </trkpt>
      <trkpt lat="37.420198" lon="-5.982759">
        <ele>6.73</ele>
        <time>2021-08-28T06:30:48Z</time>
      </trkpt>
      <trkpt lat="37.420388" lon="-5.982748">
        <ele>7.45</ele>
        <time>2021-08-28T06:30:52Z</time>
      </trkpt>
      <trkpt lat="37.420577" lon="-5.982737">
        <ele>7.32</ele>
        <time>2021-08-28T06:30:56Z</time>
      </trkpt>
      <trkpt lat="37.420775" lon="-5.982712">
        <ele>7.40</ele>
        <time>2021-08-28T06:31:00Z</time>
      </trkpt>
      <trkpt lat="37.420976" lon="-5.982708">
        <ele>7.12</ele>
        <time>2021-08-28T06:31:04Z</time>
      </trkpt>
      <trkpt lat="37.421169" lon="-5.982679">
        <ele>7.54</ele>
        <time>2021-08-28T06:31:08Z</time>
      </trkpt>
      <trkpt lat="37.421362" lon="-5.982679">
        <ele>7.82</ele>
        <time>2021-08-28T06:31:12Z</time>
      </trkpt>
      <trkpt lat="37.421557" lon="-5.982628">
        <ele>7.28</ele>
        <time>2021-08-28T06:31:16Z</time>
      </trkpt>
      <trkpt lat="37.421712" lon="-5.982507">
        <ele>7.35</ele>
        <time>2021-08-28T06:31:20Z</time>
      </trkpt>
      <trkpt lat="37.421904" lon="-5.982370">
        <ele>8.69</ele>
        <time>2021-08-28T06:31:25Z</time>
      </trkpt>
      <trkpt lat="37.422104" lon="-5.982248">
        <ele>8.47</ele>
        <time>2021-08-28T06:31:30Z</time>
      </trkpt>
      <trkpt lat="37.422281" lon="-5.982125">
        <ele>8.50</ele>
        <time>2021-08-28T06:31:34Z</time>
      </trkpt>
      <trkpt lat="37.422465" lon="-5.982003">
        <ele>7.74</ele>
        <time>2021-08-28T06:31:38Z</time>
      </trkpt>
      <trkpt lat="37.422647" lon="-5.981892">
        <ele>7.07</ele>
        <time>2021-08-28T06:31:42Z</time>
      </trkpt>
      <trkpt lat="37.422826" lon="-5.981778">
        <ele>7.30</ele>
        <time>2021-08-28T06:31:46Z</time>
      </trkpt>
      <trkpt lat="37.422995" lon="-5.981655">
        <ele>7.25</ele>
        <time>2021-08-28T06:31:50Z</time>
      </trkpt>
      <trkpt lat="37.423178" lon="-5.981548">
        <ele>7.78</ele>
        <time>2021-08-28T06:31:54Z</time>
      </trkpt>
      <trkpt lat="37.423347" lon="-5.981430">
        <ele>8.66</ele>
        <time>2021-08-28T06:31:58Z</time>
      </trkpt>
      <trkpt lat="37.423512" lon="-5.981316">
        <ele>9.81</ele>
        <time>2021-08-28T06:32:02Z</time>
      </trkpt>
      <trkpt lat="37.423686" lon="-5.981219">
        <ele>10.31</ele>
        <time>2021-08-28T06:32:06Z</time>
      </trkpt>
      <trkpt lat="37.423851" lon="-5.981113">
        <ele>10.64</ele>
        <time>2021-08-28T06:32:10Z</time>
      </trkpt>
      <trkpt lat="37.424033" lon="-5.980982">
        <ele>11.48</ele>
        <time>2021-08-28T06:32:14Z</time>
      </trkpt>
      <trkpt lat="37.424218" lon="-5.980859">
        <ele>11.83</ele>
        <time>2021-08-28T06:32:18Z</time>
      </trkpt>
      <trkpt lat="37.424392" lon="-5.980725">
        <ele>11.35</ele>
        <time>2021-08-28T06:32:22Z</time>
      </trkpt>
      <trkpt lat="37.424556" lon="-5.980590">
        <ele>11.03</ele>
        <time>2021-08-28T06:32:26Z</time>
      </trkpt>
      <trkpt lat="37.424723" lon="-5.980478">
        <ele>11.18</ele>
        <time>2021-08-28T06:32:30Z</time>
      </trkpt>
      <trkpt lat="37.424902" lon="-5.980351">
        <ele>12.62</ele>
        <time>2021-08-28T06:32:34Z</time>
      </trkpt>
      <trkpt lat="37.425075" lon="-5.980228">
        <ele>13.10</ele>
        <time>2021-08-28T06:32:38Z</time>
      </trkpt>
      <trkpt lat="37.425246" lon="-5.980104">
        <ele>12.96</ele>
        <time>2021-08-28T06:32:42Z</time>
      </trkpt>
      <trkpt lat="37.425450" lon="-5.979983">
        <ele>13.78</ele>
        <time>2021-08-28T06:32:46Z</time>
      </trkpt>
      <trkpt lat="37.425630" lon="-5.979858">
        <ele>14.47</ele>
        <time>2021-08-28T06:32:50Z</time>
      </trkpt>
      <trkpt lat="37.425808" lon="-5.979738">
        <ele>14.63</ele>
        <time>2021-08-28T06:32:54Z</time>
      </trkpt>
      <trkpt lat="37.425998" lon="-5.979603">
        <ele>15.01</ele>
        <time>2021-08-28T06:32:58Z</time>
      </trkpt>
      <trkpt lat="37.426178" lon="-5.979471">
        <ele>14.80</ele>
        <time>2021-08-28T06:33:02Z</time>
      </trkpt>
      <trkpt lat="37.426338" lon="-5.979362">
        <ele>11.49</ele>
        <time>2021-08-28T06:33:05Z</time>
      </trkpt>
      <trkpt lat="37.426531" lon="-5.979249">
        <ele>10.96</ele>
        <time>2021-08-28T06:33:09Z</time>
      </trkpt>
      <trkpt lat="37.426739" lon="-5.979136">
        <ele>10.26</ele>
        <time>2021-08-28T06:33:13Z</time>
      </trkpt>
      <trkpt lat="37.426919" lon="-5.979012">
        <ele>9.98</ele>
        <time>2021-08-28T06:33:17Z</time>
      </trkpt>
      <trkpt lat="37.427091" lon="-5.978866">
        <ele>10.03</ele>
        <time>2021-08-28T06:33:21Z</time>
      </trkpt>
      <trkpt lat="37.427208" lon="-5.978654">
        <ele>9.42</ele>
        <time>2021-08-28T06:33:25Z</time>
      </trkpt>
      <trkpt lat="37.427238" lon="-5.978392">
        <ele>8.97</ele>
        <time>2021-08-28T06:33:29Z</time>
      </trkpt>
      <trkpt lat="37.427311" lon="-5.978158">
        <ele>9.24</ele>
        <time>2021-08-28T06:33:33Z</time>
      </trkpt>
      <trkpt lat="37.427484" lon="-5.977998">
        <ele>8.77</ele>
        <time>2021-08-28T06:33:37Z</time>
      </trkpt>
      <trkpt lat="37.427691" lon="-5.977972">
        <ele>9.18</ele>
        <time>2021-08-28T06:33:41Z</time>
      </trkpt>
      <trkpt lat="37.427884" lon="-5.978051">
        <ele>8.75</ele>
        <time>2021-08-28T06:33:45Z</time>
      </trkpt>
      <trkpt lat="37.428091" lon="-5.978105">
        <ele>9.24</ele>
        <time>2021-08-28T06:33:49Z</time>
      </trkpt>
      <trkpt lat="37.428315" lon="-5.978064">
        <ele>10.01</ele>
        <time>2021-08-28T06:33:53Z</time>
      </trkpt>
      <trkpt lat="37.428509" lon="-5.977985">
        <ele>9.53</ele>
        <time>2021-08-28T06:33:57Z</time>
      </trkpt>
      <trkpt lat="37.428696" lon="-5.977882">
        <ele>10.26</ele>
        <time>2021-08-28T06:34:01Z</time>
      </trkpt>
      <trkpt lat="37.428876" lon="-5.977784">
        <ele>10.78</ele>
        <time>2021-08-28T06:34:05Z</time>
      </trkpt>
      <trkpt lat="37.429052" lon="-5.977670">
        <ele>10.72</ele>
        <time>2021-08-28T06:34:09Z</time>
      </trkpt>
      <trkpt lat="37.429231" lon="-5.977561">
        <ele>10.24</ele>
        <time>2021-08-28T06:34:13Z</time>
      </trkpt>
      <trkpt lat="37.429408" lon="-5.977444">
        <ele>9.88</ele>
        <time>2021-08-28T06:34:17Z</time>
      </trkpt>
      <trkpt lat="37.429594" lon="-5.977313">
        <ele>9.40</ele>
        <time>2021-08-28T06:34:21Z</time>
      </trkpt>
      <trkpt lat="37.429784" lon="-5.977188">
        <ele>9.69</ele>
        <time>2021-08-28T06:34:25Z</time>
      </trkpt>
      <trkpt lat="37.429972" lon="-5.977065">
        <ele>9.81</ele>
        <time>2021-08-28T06:34:29Z</time>
      </trkpt>
      <trkpt lat="37.430152" lon="-5.976942">
        <ele>9.37</ele>
        <time>2021-08-28T06:34:33Z</time>
      </trkpt>
      <trkpt lat="37.430323" lon="-5.976832">
        <ele>9.30</ele>
        <time>2021-08-28T06:34:37Z</time>
      </trkpt>
      <trkpt lat="37.430509" lon="-5.976712">
        <ele>7.36</ele>
        <time>2021-08-28T06:34:41Z</time>
      </trkpt>
      <trkpt lat="37.430704" lon="-5.976596">
        <ele>7.37</ele>
        <time>2021-08-28T06:34:45Z</time>
      </trkpt>
      <trkpt lat="37.430896" lon="-5.976466">
        <ele>6.74</ele>
        <time>2021-08-28T06:34:49Z</time>
      </trkpt>
      <trkpt lat="37.431090" lon="-5.976336">
        <ele>6.51</ele>
        <time>2021-08-28T06:34:53Z</time>
      </trkpt>
      <trkpt lat="37.431290" lon="-5.976221">
        <ele>5.96</ele>
        <time>2021-08-28T06:34:57Z</time>
      </trkpt>
      <trkpt lat="37.431488" lon="-5.976093">
        <ele>6.55</ele>
        <time>2021-08-28T06:35:01Z</time>
      </trkpt>
      <trkpt lat="37.431695" lon="-5.975955">
        <ele>7.24</ele>
        <time>2021-08-28T06:35:05Z</time>
      </trkpt>
      <trkpt lat="37.431884" lon="-5.975806">
        <ele>7.29</ele>
        <time>2021-08-28T06:35:09Z</time>
      </trkpt>
      <trkpt lat="37.432071" lon="-5.975652">
        <ele>7.47</ele>
        <time>2021-08-28T06:35:13Z</time>
      </trkpt>
      <trkpt lat="37.432263" lon="-5.975506">
        <ele>8.15</ele>
        <time>2021-08-28T06:35:17Z</time>
      </trkpt>
      <trkpt lat="37.432453" lon="-5.975360">
        <ele>7.88</ele>
        <time>2021-08-28T06:35:21Z</time>
      </trkpt>
      <trkpt lat="37.432640" lon="-5.975232">
        <ele>7.61</ele>
        <time>2021-08-28T06:35:25Z</time>
      </trkpt>
      <trkpt lat="37.432829" lon="-5.975110">
        <ele>7.62</ele>
        <time>2021-08-28T06:35:29Z</time>
      </trkpt>
      <trkpt lat="37.433008" lon="-5.974979">
        <ele>7.51</ele>
        <time>2021-08-28T06:35:33Z</time>
      </trkpt>
      <trkpt lat="37.433187" lon="-5.974860">
        <ele>7.18</ele>
        <time>2021-08-28T06:35:37Z</time>
      </trkpt>
      <trkpt lat="37.433355" lon="-5.974751">
        <ele>7.87</ele>
        <time>2021-08-28T06:35:41Z</time>
      </trkpt>
      <trkpt lat="37.433518" lon="-5.974635">
        <ele>8.81</ele>
        <time>2021-08-28T06:35:45Z</time>
      </trkpt>
      <trkpt lat="37.433670" lon="-5.974512">
        <ele>9.29</ele>
        <time>2021-08-28T06:35:49Z</time>
      </trkpt>
      <trkpt lat="37.433858" lon="-5.974373">
        <ele>10.20</ele>
        <time>2021-08-28T06:35:54Z</time>
      </trkpt>
      <trkpt lat="37.434047" lon="-5.974249">
        <ele>10.46</ele>
        <time>2021-08-28T06:35:59Z</time>
      </trkpt>
      <trkpt lat="37.434218" lon="-5.974156">
        <ele>10.88</ele>
        <time>2021-08-28T06:36:03Z</time>
      </trkpt>
      <trkpt lat="37.434393" lon="-5.974031">
        <ele>10.70</ele>
        <time>2021-08-28T06:36:07Z</time>
      </trkpt>
      <trkpt lat="37.434548" lon="-5.973885">
        <ele>10.97</ele>
        <time>2021-08-28T06:36:11Z</time>
      </trkpt>
      <trkpt lat="37.434711" lon="-5.973733">
        <ele>10.98</ele>
        <time>2021-08-28T06:36:15Z</time>
      </trkpt>
      <trkpt lat="37.434867" lon="-5.973590">
        <ele>9.76</ele>
        <time>2021-08-28T06:36:19Z</time>
      </trkpt>
      <trkpt lat="37.435027" lon="-5.973421">
        <ele>9.20</ele>
        <time>2021-08-28T06:36:23Z</time>
      </trkpt>
      <trkpt lat="37.435172" lon="-5.973283">
        <ele>9.13</ele>
        <time>2021-08-28T06:36:26Z</time>
      </trkpt>
      <trkpt lat="37.435359" lon="-5.973147">
        <ele>9.45</ele>
        <time>2021-08-28T06:36:30Z</time>
      </trkpt>
      <trkpt lat="37.435542" lon="-5.973014">
        <ele>9.26</ele>
        <time>2021-08-28T06:36:34Z</time>
      </trkpt>
      <trkpt lat="37.435673" lon="-5.972821">
        <ele>10.03</ele>
        <time>2021-08-28T06:36:37Z</time>
      </trkpt>
      <trkpt lat="37.435818" lon="-5.972636">
        <ele>9.79</ele>
        <time>2021-08-28T06:36:40Z</time>
      </trkpt>
      <trkpt lat="37.435988" lon="-5.972516">
        <ele>10.91</ele>
        <time>2021-08-28T06:36:43Z</time>
      </trkpt>
      <trkpt lat="37.436170" lon="-5.972468">
        <ele>11.66</ele>
        <time>2021-08-28T06:36:46Z</time>
      </trkpt>
      <trkpt lat="37.436359" lon="-5.972483">
        <ele>11.64</ele>
        <time>2021-08-28T06:36:49Z</time>
      </trkpt>
      <trkpt lat="37.436551" lon="-5.972651">
        <ele>12.13</ele>
        <time>2021-08-28T06:36:53Z</time>
      </trkpt>
      <trkpt lat="37.436641" lon="-5.972886">
        <ele>12.56</ele>
        <time>2021-08-28T06:36:57Z</time>
      </trkpt>
      <trkpt lat="37.436627" lon="-5.973177">
        <ele>11.20</ele>
        <time>2021-08-28T06:37:01Z</time>
      </trkpt>
      <trkpt lat="37.436551" lon="-5.973430">
        <ele>11.37</ele>
        <time>2021-08-28T06:37:05Z</time>
      </trkpt>
      <trkpt lat="37.436437" lon="-5.973649">
        <ele>10.99</ele>
        <time>2021-08-28T06:37:09Z</time>
      </trkpt>
      <trkpt lat="37.436420" lon="-5.973819">
        <ele>10.07</ele>
        <time>2021-08-28T06:37:13.44Z</time>
      </trkpt>
      <trkpt lat="37.436614" lon="-5.973688">
        <ele>8.71</ele>
        <time>2021-08-28T06:37:20Z</time>
      </trkpt>
      <trkpt lat="37.436762" lon="-5.973558">
        <ele>9.20</ele>
        <time>2021-08-28T06:37:23Z</time>
      </trkpt>
      <trkpt lat="37.436930" lon="-5.973403">
        <ele>10.34</ele>
        <time>2021-08-28T06:37:27Z</time>
      </trkpt>
      <trkpt lat="37.437081" lon="-5.973270">
        <ele>11.88</ele>
        <time>2021-08-28T06:37:31Z</time>
      </trkpt>
      <trkpt lat="37.437224" lon="-5.973130">
        <ele>13.42</ele>
        <time>2021-08-28T06:37:35Z</time>
      </trkpt>
      <trkpt lat="37.437371" lon="-5.972998">
        <ele>14.13</ele>
        <time>2021-08-28T06:37:39Z</time>
      </trkpt>
      <trkpt lat="37.437518" lon="-5.972861">
        <ele>14.79</ele>
        <time>2021-08-28T06:37:43Z</time>
      </trkpt>
      <trkpt lat="37.437693" lon="-5.972709">
        <ele>16.77</ele>
        <time>2021-08-28T06:37:48Z</time>
      </trkpt>
      <trkpt lat="37.437881" lon="-5.972560">
        <ele>16.79</ele>
        <time>2021-08-28T06:37:53Z</time>
      </trkpt>
      <trkpt lat="37.438067" lon="-5.972435">
        <ele>17.94</ele>
        <time>2021-08-28T06:37:58Z</time>
      </trkpt>
      <trkpt lat="37.438268" lon="-5.972332">
        <ele>17.98</ele>
        <time>2021-08-28T06:38:03Z</time>
      </trkpt>
      <trkpt lat="37.438470" lon="-5.972249">
        <ele>18.36</ele>
        <time>2021-08-28T06:38:08Z</time>
      </trkpt>
      <trkpt lat="37.438652" lon="-5.972185">
        <ele>17.83</ele>
        <time>2021-08-28T06:38:12Z</time>
      </trkpt>
      <trkpt lat="37.438840" lon="-5.972137">
        <ele>16.64</ele>
        <time>2021-08-28T06:38:16Z</time>
      </trkpt>
      <trkpt lat="37.439034" lon="-5.972107">
        <ele>16.40</ele>
        <time>2021-08-28T06:38:20Z</time>
      </trkpt>
      <trkpt lat="37.439241" lon="-5.972090">
        <ele>15.45</ele>
        <time>2021-08-28T06:38:24Z</time>
      </trkpt>
      <trkpt lat="37.439462" lon="-5.972090">
        <ele>14.33</ele>
        <time>2021-08-28T06:38:28Z</time>
      </trkpt>
      <trkpt lat="37.439648" lon="-5.972093">
        <ele>13.22</ele>
        <time>2021-08-28T06:38:31Z</time>
      </trkpt>
      <trkpt lat="37.439858" lon="-5.972096">
        <ele>11.86</ele>
        <time>2021-08-28T06:38:34Z</time>
      </trkpt>
      <trkpt lat="37.440084" lon="-5.972098">
        <ele>10.06</ele>
        <time>2021-08-28T06:38:37Z</time>
      </trkpt>
      <trkpt lat="37.440333" lon="-5.972089">
        <ele>8.78</ele>
        <time>2021-08-28T06:38:40Z</time>
      </trkpt>
      <trkpt lat="37.440557" lon="-5.972060">
        <ele>9.37</ele>
        <time>2021-08-28T06:38:43Z</time>
      </trkpt>
      <trkpt lat="37.440772" lon="-5.972124">
        <ele>9.03</ele>
        <time>2021-08-28T06:38:46Z</time>
      </trkpt>
      <trkpt lat="37.440983" lon="-5.972179">
        <ele>9.37</ele>
        <time>2021-08-28T06:38:49Z</time>
      </trkpt>
      <trkpt lat="37.441187" lon="-5.972158">
        <ele>9.26</ele>
        <time>2021-08-28T06:38:52Z</time>
      </trkpt>
      <trkpt lat="37.441369" lon="-5.972138">
        <ele>8.90</ele>
        <time>2021-08-28T06:38:55Z</time>
      </trkpt>
      <trkpt lat="37.441603" lon="-5.972112">
        <ele>8.84</ele>
        <time>2021-08-28T06:38:59Z</time>
      </trkpt>
      <trkpt lat="37.441834" lon="-5.972089">
        <ele>8.67</ele>
        <time>2021-08-28T06:39:03Z</time>
      </trkpt>
      <trkpt lat="37.442075" lon="-5.972072">
        <ele>8.25</ele>
        <time>2021-08-28T06:39:07Z</time>
      </trkpt>
      <trkpt lat="37.442255" lon="-5.972056">
        <ele>7.59</ele>
        <time>2021-08-28T06:39:10Z</time>
      </trkpt>
      <trkpt lat="37.442496" lon="-5.972031">
        <ele>7.80</ele>
        <time>2021-08-28T06:39:14Z</time>
      </trkpt>
      <trkpt lat="37.442676" lon="-5.972017">
        <ele>7.94</ele>
        <time>2021-08-28T06:39:17Z</time>
      </trkpt>
      <trkpt lat="37.442863" lon="-5.971996">
        <ele>7.43</ele>
        <time>2021-08-28T06:39:20Z</time>
      </trkpt>
      <trkpt lat="37.443044" lon="-5.971971">
        <ele>7.55</ele>
        <time>2021-08-28T06:39:23Z</time>
      </trkpt>
      <trkpt lat="37.443224" lon="-5.971957">
        <ele>7.44</ele>
        <time>2021-08-28T06:39:26Z</time>
      </trkpt>
      <trkpt lat="37.443404" lon="-5.971942">
        <ele>7.14</ele>
        <time>2021-08-28T06:39:29Z</time>
      </trkpt>
      <trkpt lat="37.443590" lon="-5.971926">
        <ele>7.14</ele>
        <time>2021-08-28T06:39:32Z</time>
      </trkpt>
      <trkpt lat="37.443777" lon="-5.971906">
        <ele>6.93</ele>
        <time>2021-08-28T06:39:35Z</time>
      </trkpt>
      <trkpt lat="37.443958" lon="-5.971889">
        <ele>6.84</ele>
        <time>2021-08-28T06:39:38Z</time>
      </trkpt>
      <trkpt lat="37.444142" lon="-5.971869">
        <ele>6.70</ele>
        <time>2021-08-28T06:39:41Z</time>
      </trkpt>
      <trkpt lat="37.444331" lon="-5.971855">
        <ele>6.69</ele>
        <time>2021-08-28T06:39:44Z</time>
      </trkpt>
      <trkpt lat="37.444511" lon="-5.971836">
        <ele>6.56</ele>
        <time>2021-08-28T06:39:47Z</time>
      </trkpt>
      <trkpt lat="37.444744" lon="-5.971807">
        <ele>7.15</ele>
        <time>2021-08-28T06:39:51Z</time>
      </trkpt>
      <trkpt lat="37.444978" lon="-5.971778">
        <ele>7.17</ele>
        <time>2021-08-28T06:39:55Z</time>
      </trkpt>
      <trkpt lat="37.445170" lon="-5.971757">
        <ele>6.81</ele>
        <time>2021-08-28T06:39:58Z</time>
      </trkpt>
      <trkpt lat="37.445352" lon="-5.971743">
        <ele>6.73</ele>
        <time>2021-08-28T06:40:01Z</time>
      </trkpt>
      <trkpt lat="37.445533" lon="-5.971724">
        <ele>7.00</ele>
        <time>2021-08-28T06:40:04Z</time>
      </trkpt>
      <trkpt lat="37.445765" lon="-5.971707">
        <ele>7.19</ele>
        <time>2021-08-28T06:40:08Z</time>
      </trkpt>
      <trkpt lat="37.445990" lon="-5.971686">
        <ele>7.75</ele>
        <time>2021-08-28T06:40:12Z</time>
      </trkpt>
      <trkpt lat="37.446220" lon="-5.971667">
        <ele>7.70</ele>
        <time>2021-08-28T06:40:16Z</time>
      </trkpt>
      <trkpt lat="37.446442" lon="-5.971639">
        <ele>7.73</ele>
        <time>2021-08-28T06:40:20Z</time>
      </trkpt>
      <trkpt lat="37.446666" lon="-5.971610">
        <ele>7.89</ele>
        <time>2021-08-28T06:40:24Z</time>
      </trkpt>
      <trkpt lat="37.446885" lon="-5.971585">
        <ele>8.06</ele>
        <time>2021-08-28T06:40:28Z</time>
      </trkpt>
      <trkpt lat="37.447115" lon="-5.971570">
        <ele>7.89</ele>
        <time>2021-08-28T06:40:32Z</time>
      </trkpt>
      <trkpt lat="37.447348" lon="-5.971547">
        <ele>7.95</ele>
        <time>2021-08-28T06:40:36Z</time>
      </trkpt>
      <trkpt lat="37.447577" lon="-5.971529">
        <ele>7.44</ele>
        <time>2021-08-28T06:40:40Z</time>
      </trkpt>
      <trkpt lat="37.447811" lon="-5.971511">
        <ele>7.85</ele>
        <time>2021-08-28T06:40:44Z</time>
      </trkpt>
      <trkpt lat="37.448031" lon="-5.971484">
        <ele>7.99</ele>
        <time>2021-08-28T06:40:48Z</time>
      </trkpt>
      <trkpt lat="37.448249" lon="-5.971461">
        <ele>7.74</ele>
        <time>2021-08-28T06:40:52Z</time>
      </trkpt>
      <trkpt lat="37.448456" lon="-5.971445">
        <ele>7.58</ele>
        <time>2021-08-28T06:40:56Z</time>
      </trkpt>
      <trkpt lat="37.448659" lon="-5.971417">
        <ele>7.52</ele>
        <time>2021-08-28T06:41:00Z</time>
      </trkpt>
      <trkpt lat="37.448856" lon="-5.971386">
        <ele>7.45</ele>
        <time>2021-08-28T06:41:04Z</time>
      </trkpt>
      <trkpt lat="37.449056" lon="-5.971367">
        <ele>7.46</ele>
        <time>2021-08-28T06:41:08Z</time>
      </trkpt>
      <trkpt lat="37.449267" lon="-5.971354">
        <ele>7.62</ele>
        <time>2021-08-28T06:41:12Z</time>
      </trkpt>
      <trkpt lat="37.449497" lon="-5.971336">
        <ele>7.65</ele>
        <time>2021-08-28T06:41:16Z</time>
      </trkpt>
      <trkpt lat="37.449714" lon="-5.971325">
        <ele>7.42</ele>
        <time>2021-08-28T06:41:20Z</time>
      </trkpt>
      <trkpt lat="37.449930" lon="-5.971306">
        <ele>7.17</ele>
        <time>2021-08-28T06:41:24Z</time>
      </trkpt>
      <trkpt lat="37.450140" lon="-5.971285">
        <ele>6.95</ele>
        <time>2021-08-28T06:41:28Z</time>
      </trkpt>
      <trkpt lat="37.450343" lon="-5.971254">
        <ele>7.21</ele>
        <time>2021-08-28T06:41:32Z</time>
      </trkpt>
      <trkpt lat="37.450556" lon="-5.971228">
        <ele>7.45</ele>
        <time>2021-08-28T06:41:36Z</time>
      </trkpt>
      <trkpt lat="37.450762" lon="-5.971184">
        <ele>8.06</ele>
        <time>2021-08-28T06:41:40Z</time>
      </trkpt>
      <trkpt lat="37.450967" lon="-5.971160">
        <ele>8.46</ele>
        <time>2021-08-28T06:41:44Z</time>
      </trkpt>
      <trkpt lat="37.451183" lon="-5.971125">
        <ele>8.48</ele>
        <time>2021-08-28T06:41:48Z</time>
      </trkpt>
      <trkpt lat="37.451400" lon="-5.971090">
        <ele>8.79</ele>
        <time>2021-08-28T06:41:52Z</time>
      </trkpt>
      <trkpt lat="37.451599" lon="-5.971051">
        <ele>9.38</ele>
        <time>2021-08-28T06:41:56Z</time>
      </trkpt>
      <trkpt lat="37.451800" lon="-5.971003">
        <ele>9.17</ele>
        <time>2021-08-28T06:42:00Z</time>
      </trkpt>
      <trkpt lat="37.452005" lon="-5.970971">
        <ele>8.53</ele>
        <time>2021-08-28T06:42:04Z</time>
      </trkpt>
      <trkpt lat="37.452231" lon="-5.970960">
        <ele>7.86</ele>
        <time>2021-08-28T06:42:08Z</time>
      </trkpt>
      <trkpt lat="37.452464" lon="-5.970961">
        <ele>7.18</ele>
        <time>2021-08-28T06:42:12Z</time>
      </trkpt>
      <trkpt lat="37.452694" lon="-5.970995">
        <ele>6.85</ele>
        <time>2021-08-28T06:42:16Z</time>
      </trkpt>
      <trkpt lat="37.452910" lon="-5.971079">
        <ele>7.04</ele>
        <time>2021-08-28T06:42:20Z</time>
      </trkpt>
      <trkpt lat="37.453111" lon="-5.971187">
        <ele>7.66</ele>
        <time>2021-08-28T06:42:24Z</time>
      </trkpt>
      <trkpt lat="37.453284" lon="-5.971333">
        <ele>7.69</ele>
        <time>2021-08-28T06:42:28Z</time>
      </trkpt>
      <trkpt lat="37.453465" lon="-5.971501">
        <ele>8.06</ele>
        <time>2021-08-28T06:42:32Z</time>
      </trkpt>
      <trkpt lat="37.453614" lon="-5.971706">
        <ele>8.62</ele>
        <time>2021-08-28T06:42:36Z</time>
      </trkpt>
      <trkpt lat="37.453738" lon="-5.971949">
        <ele>8.74</ele>
        <time>2021-08-28T06:42:40Z</time>
      </trkpt>
      <trkpt lat="37.453842" lon="-5.972209">
        <ele>9.21</ele>
        <time>2021-08-28T06:42:44Z</time>
      </trkpt>
      <trkpt lat="37.453954" lon="-5.972417">
        <ele>9.45</ele>
        <time>2021-08-28T06:42:48Z</time>
      </trkpt>
      <trkpt lat="37.454144" lon="-5.972527">
        <ele>10.33</ele>
        <time>2021-08-28T06:42:53Z</time>
      </trkpt>
      <trkpt lat="37.454341" lon="-5.972527">
        <ele>11.10</ele>
        <time>2021-08-28T06:42:59Z</time>
      </trkpt>
      <trkpt lat="37.454532" lon="-5.972421">
        <ele>9.96</ele>
        <time>2021-08-28T06:43:04Z</time>
      </trkpt>
      <trkpt lat="37.454681" lon="-5.972262">
        <ele>9.98</ele>
        <time>2021-08-28T06:43:08Z</time>
      </trkpt>
      <trkpt lat="37.454762" lon="-5.972022">
        <ele>9.03</ele>
        <time>2021-08-28T06:43:12Z</time>
      </trkpt>
      <trkpt lat="37.454777" lon="-5.971769">
        <ele>8.85</ele>
        <time>2021-08-28T06:43:16Z</time>
      </trkpt>
      <trkpt lat="37.454808" lon="-5.971500">
        <ele>8.87</ele>
        <time>2021-08-28T06:43:21Z</time>
      </trkpt>
      <trkpt lat="37.454860" lon="-5.971243">
        <ele>9.28</ele>
        <time>2021-08-28T06:43:26Z</time>
      </trkpt>
      <trkpt lat="37.454945" lon="-5.971031">
        <ele>8.94</ele>
        <time>2021-08-28T06:43:30Z</time>
      </trkpt>
      <trkpt lat="37.455086" lon="-5.970815">
        <ele>8.73</ele>
        <time>2021-08-28T06:43:34Z</time>
      </trkpt>
      <trkpt lat="37.455257" lon="-5.970628">
        <ele>8.89</ele>
        <time>2021-08-28T06:43:38Z</time>
      </trkpt>
      <trkpt lat="37.455427" lon="-5.970490">
        <ele>8.51</ele>
        <time>2021-08-28T06:43:42Z</time>
      </trkpt>
      <trkpt lat="37.455598" lon="-5.970399">
        <ele>8.16</ele>
        <time>2021-08-28T06:43:46Z</time>
      </trkpt>
      <trkpt lat="37.455805" lon="-5.970345">
        <ele>8.58</ele>
        <time>2021-08-28T06:43:50Z</time>
      </trkpt>
      <trkpt lat="37.456010" lon="-5.970308">
        <ele>9.08</ele>
        <time>2021-08-28T06:43:54Z</time>
      </trkpt>
      <trkpt lat="37.456218" lon="-5.970273">
        <ele>9.11</ele>
        <time>2021-08-28T06:43:58Z</time>
      </trkpt>
      <trkpt lat="37.456427" lon="-5.970237">
        <ele>8.64</ele>
        <time>2021-08-28T06:44:02Z</time>
      </trkpt>
      <trkpt lat="37.456636" lon="-5.970200">
        <ele>8.67</ele>
        <time>2021-08-28T06:44:06Z</time>
      </trkpt>
      <trkpt lat="37.456856" lon="-5.970160">
        <ele>8.50</ele>
        <time>2021-08-28T06:44:10Z</time>
      </trkpt>
      <trkpt lat="37.457078" lon="-5.970120">
        <ele>8.34</ele>
        <time>2021-08-28T06:44:14Z</time>
      </trkpt>
      <trkpt lat="37.457304" lon="-5.970077">
        <ele>8.27</ele>
        <time>2021-08-28T06:44:18Z</time>
      </trkpt>
      <trkpt lat="37.457529" lon="-5.970030">
        <ele>7.94</ele>
        <time>2021-08-28T06:44:22Z</time>
      </trkpt>
      <trkpt lat="37.457756" lon="-5.969987">
        <ele>7.43</ele>
        <time>2021-08-28T06:44:26Z</time>
      </trkpt>
      <trkpt lat="37.457985" lon="-5.969945">
        <ele>6.98</ele>
        <time>2021-08-28T06:44:30Z</time>
      </trkpt>
      <trkpt lat="37.458222" lon="-5.969905">
        <ele>6.59</ele>
        <time>2021-08-28T06:44:34Z</time>
      </trkpt>
      <trkpt lat="37.458454" lon="-5.969866">
        <ele>6.52</ele>
        <time>2021-08-28T06:44:38Z</time>
      </trkpt>
      <trkpt lat="37.458683" lon="-5.969817">
        <ele>6.79</ele>
        <time>2021-08-28T06:44:42Z</time>
      </trkpt>
      <trkpt lat="37.458915" lon="-5.969775">
        <ele>6.57</ele>
        <time>2021-08-28T06:44:46Z</time>
      </trkpt>
      <trkpt lat="37.459130" lon="-5.969731">
        <ele>6.46</ele>
        <time>2021-08-28T06:44:50Z</time>
      </trkpt>
      <trkpt lat="37.459360" lon="-5.969693">
        <ele>6.11</ele>
        <time>2021-08-28T06:44:54Z</time>
      </trkpt>
      <trkpt lat="37.459572" lon="-5.969668">
        <ele>5.92</ele>
        <time>2021-08-28T06:44:58Z</time>
      </trkpt>
      <trkpt lat="37.459789" lon="-5.969634">
        <ele>6.01</ele>
        <time>2021-08-28T06:45:02Z</time>
      </trkpt>
      <trkpt lat="37.459998" lon="-5.969555">
        <ele>5.79</ele>
        <time>2021-08-28T06:45:06Z</time>
      </trkpt>
      <trkpt lat="37.460214" lon="-5.969540">
        <ele>5.78</ele>
        <time>2021-08-28T06:45:10Z</time>
      </trkpt>
      <trkpt lat="37.460418" lon="-5.969496">
        <ele>5.82</ele>
        <time>2021-08-28T06:45:14Z</time>
      </trkpt>
      <trkpt lat="37.460604" lon="-5.969437">
        <ele>5.68</ele>
        <time>2021-08-28T06:45:18Z</time>
      </trkpt>
      <trkpt lat="37.460800" lon="-5.969395">
        <ele>5.80</ele>
        <time>2021-08-28T06:45:22Z</time>
      </trkpt>
      <trkpt lat="37.460991" lon="-5.969341">
        <ele>5.75</ele>
        <time>2021-08-28T06:45:26Z</time>
      </trkpt>
      <trkpt lat="37.461207" lon="-5.969307">
        <ele>5.87</ele>
        <time>2021-08-28T06:45:30Z</time>
      </trkpt>
      <trkpt lat="37.461435" lon="-5.969256">
        <ele>5.94</ele>
        <time>2021-08-28T06:45:34Z</time>
      </trkpt>
      <trkpt lat="37.461633" lon="-5.969213">
        <ele>6.74</ele>
        <time>2021-08-28T06:45:38Z</time>
      </trkpt>
      <trkpt lat="37.461852" lon="-5.969164">
        <ele>6.26</ele>
        <time>2021-08-28T06:45:43Z</time>
      </trkpt>
      <trkpt lat="37.462071" lon="-5.969113">
        <ele>7.08</ele>
        <time>2021-08-28T06:45:48Z</time>
      </trkpt>
      <trkpt lat="37.462254" lon="-5.969066">
        <ele>7.08</ele>
        <time>2021-08-28T06:45:52Z</time>
      </trkpt>
      <trkpt lat="37.462444" lon="-5.969023">
        <ele>7.14</ele>
        <time>2021-08-28T06:45:56Z</time>
      </trkpt>
      <trkpt lat="37.462621" lon="-5.968958">
        <ele>7.36</ele>
        <time>2021-08-28T06:46:00Z</time>
      </trkpt>
      <trkpt lat="37.462787" lon="-5.968842">
        <ele>7.27</ele>
        <time>2021-08-28T06:46:04Z</time>
      </trkpt>
      <trkpt lat="37.462982" lon="-5.968725">
        <ele>7.11</ele>
        <time>2021-08-28T06:46:09Z</time>
      </trkpt>
      <trkpt lat="37.463159" lon="-5.968667">
        <ele>7.31</ele>
        <time>2021-08-28T06:46:13Z</time>
      </trkpt>
      <trkpt lat="37.463342" lon="-5.968611">
        <ele>7.02</ele>
        <time>2021-08-28T06:46:17Z</time>
      </trkpt>
      <trkpt lat="37.463554" lon="-5.968562">
        <ele>7.79</ele>
        <time>2021-08-28T06:46:22Z</time>
      </trkpt>
      <trkpt lat="37.463767" lon="-5.968511">
        <ele>8.46</ele>
        <time>2021-08-28T06:46:27Z</time>
      </trkpt>
      <trkpt lat="37.463955" lon="-5.968476">
        <ele>9.31</ele>
        <time>2021-08-28T06:46:31Z</time>
      </trkpt>
      <trkpt lat="37.464168" lon="-5.968505">
        <ele>8.33</ele>
        <time>2021-08-28T06:46:35Z</time>
      </trkpt>
      <trkpt lat="37.464380" lon="-5.968484">
        <ele>8.49</ele>
        <time>2021-08-28T06:46:39Z</time>
      </trkpt>
      <trkpt lat="37.464586" lon="-5.968441">
        <ele>8.62</ele>
        <time>2021-08-28T06:46:43Z</time>
      </trkpt>
      <trkpt lat="37.464801" lon="-5.968389">
        <ele>8.18</ele>
        <time>2021-08-28T06:46:47Z</time>
      </trkpt>
      <trkpt lat="37.465025" lon="-5.968333">
        <ele>7.03</ele>
        <time>2021-08-28T06:46:51Z</time>
      </trkpt>
      <trkpt lat="37.465252" lon="-5.968279">
        <ele>6.54</ele>
        <time>2021-08-28T06:46:55Z</time>
      </trkpt>
      <trkpt lat="37.465459" lon="-5.968229">
        <ele>6.10</ele>
        <time>2021-08-28T06:46:59Z</time>
      </trkpt>
      <trkpt lat="37.465647" lon="-5.968183">
        <ele>5.86</ele>
        <time>2021-08-28T06:47:03Z</time>
      </trkpt>
      <trkpt lat="37.465830" lon="-5.968140">
        <ele>5.67</ele>
        <time>2021-08-28T06:47:07Z</time>
      </trkpt>
      <trkpt lat="37.466027" lon="-5.968093">
        <ele>5.16</ele>
        <time>2021-08-28T06:47:11Z</time>
      </trkpt>
      <trkpt lat="37.466247" lon="-5.968048">
        <ele>4.90</ele>
        <time>2021-08-28T06:47:15Z</time>
      </trkpt>
      <trkpt lat="37.466450" lon="-5.968001">
        <ele>5.17</ele>
        <time>2021-08-28T06:47:19Z</time>
      </trkpt>
      <trkpt lat="37.466636" lon="-5.967983">
        <ele>4.95</ele>
        <time>2021-08-28T06:47:23Z</time>
      </trkpt>
      <trkpt lat="37.466831" lon="-5.968032">
        <ele>5.06</ele>
        <time>2021-08-28T06:47:27Z</time>
      </trkpt>
      <trkpt lat="37.467002" lon="-5.968147">
        <ele>5.17</ele>
        <time>2021-08-28T06:47:31Z</time>
      </trkpt>
      <trkpt lat="37.467114" lon="-5.968338">
        <ele>4.94</ele>
        <time>2021-08-28T06:47:35Z</time>
      </trkpt>
      <trkpt lat="37.467158" lon="-5.968576">
        <ele>4.51</ele>
        <time>2021-08-28T06:47:39Z</time>
      </trkpt>
      <trkpt lat="37.467193" lon="-5.968832">
        <ele>4.33</ele>
        <time>2021-08-28T06:47:43Z</time>
      </trkpt>
      <trkpt lat="37.467225" lon="-5.969086">
        <ele>4.79</ele>
        <time>2021-08-28T06:47:47Z</time>
      </trkpt>
      <trkpt lat="37.467253" lon="-5.969333">
        <ele>4.30</ele>
        <time>2021-08-28T06:47:51Z</time>
      </trkpt>
      <trkpt lat="37.467279" lon="-5.969559">
        <ele>4.45</ele>
        <time>2021-08-28T06:47:55Z</time>
      </trkpt>
      <trkpt lat="37.467332" lon="-5.969814">
        <ele>4.08</ele>
        <time>2021-08-28T06:48:00Z</time>
      </trkpt>
      <trkpt lat="37.467397" lon="-5.970058">
        <ele>4.81</ele>
        <time>2021-08-28T06:48:05Z</time>
      </trkpt>
      <trkpt lat="37.467470" lon="-5.970279">
        <ele>4.50</ele>
        <time>2021-08-28T06:48:11Z</time>
      </trkpt>
      <trkpt lat="37.467613" lon="-5.970421">
        <ele>4.87</ele>
        <time>2021-08-28T06:48:28Z</time>
      </trkpt>
      <trkpt lat="37.467606" lon="-5.970648">
        <ele>4.47</ele>
        <time>2021-08-28T06:48:32Z</time>
      </trkpt>
      <trkpt lat="37.467624" lon="-5.970902">
        <ele>4.25</ele>
        <time>2021-08-28T06:48:36Z</time>
      </trkpt>
      <trkpt lat="37.467694" lon="-5.971144">
        <ele>4.49</ele>
        <time>2021-08-28T06:48:40Z</time>
      </trkpt>
      <trkpt lat="37.467796" lon="-5.971333">
        <ele>4.64</ele>
        <time>2021-08-28T06:48:44Z</time>
      </trkpt>
      <trkpt lat="37.467972" lon="-5.971378">
        <ele>4.85</ele>
        <time>2021-08-28T06:48:48Z</time>
      </trkpt>
      <trkpt lat="37.468155" lon="-5.971342">
        <ele>5.48</ele>
        <time>2021-08-28T06:48:52Z</time>
      </trkpt>
      <trkpt lat="37.468345" lon="-5.971307">
        <ele>5.20</ele>
        <time>2021-08-28T06:48:56Z</time>
      </trkpt>
      <trkpt lat="37.468534" lon="-5.971270">
        <ele>4.74</ele>
        <time>2021-08-28T06:49:00Z</time>
      </trkpt>
      <trkpt lat="37.468743" lon="-5.971262">
        <ele>4.62</ele>
        <time>2021-08-28T06:49:04Z</time>
      </trkpt>
      <trkpt lat="37.468958" lon="-5.971262">
        <ele>4.72</ele>
        <time>2021-08-28T06:49:08Z</time>
      </trkpt>
      <trkpt lat="37.469161" lon="-5.971280">
        <ele>4.78</ele>
        <time>2021-08-28T06:49:12Z</time>
      </trkpt>
      <trkpt lat="37.469368" lon="-5.971305">
        <ele>4.51</ele>
        <time>2021-08-28T06:49:16Z</time>
      </trkpt>
      <trkpt lat="37.469582" lon="-5.971350">
        <ele>4.33</ele>
        <time>2021-08-28T06:49:20Z</time>
      </trkpt>
      <trkpt lat="37.469788" lon="-5.971409">
        <ele>4.37</ele>
        <time>2021-08-28T06:49:24Z</time>
      </trkpt>
      <trkpt lat="37.470005" lon="-5.971484">
        <ele>4.15</ele>
        <time>2021-08-28T06:49:28Z</time>
      </trkpt>
      <trkpt lat="37.470233" lon="-5.971574">
        <ele>4.07</ele>
        <time>2021-08-28T06:49:32Z</time>
      </trkpt>
      <trkpt lat="37.470449" lon="-5.971682">
        <ele>4.05</ele>
        <time>2021-08-28T06:49:36Z</time>
      </trkpt>
      <trkpt lat="37.470666" lon="-5.971796">
        <ele>4.01</ele>
        <time>2021-08-28T06:49:40Z</time>
      </trkpt>
      <trkpt lat="37.470872" lon="-5.971938">
        <ele>3.77</ele>
        <time>2021-08-28T06:49:44Z</time>
      </trkpt>
      <trkpt lat="37.471075" lon="-5.972082">
        <ele>4.63</ele>
        <time>2021-08-28T06:49:48Z</time>
      </trkpt>
      <trkpt lat="37.471278" lon="-5.972232">
        <ele>4.41</ele>
        <time>2021-08-28T06:49:52Z</time>
      </trkpt>
      <trkpt lat="37.471436" lon="-5.972348">
        <ele>4.41</ele>
        <time>2021-08-28T06:49:55Z</time>
      </trkpt>
      <trkpt lat="37.471630" lon="-5.972489">
        <ele>4.14</ele>
        <time>2021-08-28T06:49:59Z</time>
      </trkpt>
      <trkpt lat="37.471817" lon="-5.972634">
        <ele>4.00</ele>
        <time>2021-08-28T06:50:03Z</time>
      </trkpt>
      <trkpt lat="37.472008" lon="-5.972784">
        <ele>4.11</ele>
        <time>2021-08-28T06:50:07Z</time>
      </trkpt>
      <trkpt lat="37.472203" lon="-5.972936">
        <ele>4.21</ele>
        <time>2021-08-28T06:50:11Z</time>
      </trkpt>
      <trkpt lat="37.472401" lon="-5.973083">
        <ele>4.67</ele>
        <time>2021-08-28T06:50:15Z</time>
      </trkpt>
      <trkpt lat="37.472593" lon="-5.973227">
        <ele>5.05</ele>
        <time>2021-08-28T06:50:19Z</time>
      </trkpt>
      <trkpt lat="37.472782" lon="-5.973373">
        <ele>5.09</ele>
        <time>2021-08-28T06:50:23Z</time>
      </trkpt>
      <trkpt lat="37.472966" lon="-5.973524">
        <ele>5.54</ele>
        <time>2021-08-28T06:50:27Z</time>
      </trkpt>
      <trkpt lat="37.473157" lon="-5.973675">
        <ele>4.97</ele>
        <time>2021-08-28T06:50:31Z</time>
      </trkpt>
      <trkpt lat="37.473337" lon="-5.973841">
        <ele>4.43</ele>
        <time>2021-08-28T06:50:35Z</time>
      </trkpt>
      <trkpt lat="37.473524" lon="-5.974015">
        <ele>3.98</ele>
        <time>2021-08-28T06:50:39Z</time>
      </trkpt>
      <trkpt lat="37.473698" lon="-5.974202">
        <ele>4.27</ele>
        <time>2021-08-28T06:50:43Z</time>
      </trkpt>
      <trkpt lat="37.473854" lon="-5.974424">
        <ele>4.24</ele>
        <time>2021-08-28T06:50:47Z</time>
      </trkpt>
      <trkpt lat="37.474013" lon="-5.974646">
        <ele>4.19</ele>
        <time>2021-08-28T06:50:51Z</time>
      </trkpt>
      <trkpt lat="37.474173" lon="-5.974863">
        <ele>4.54</ele>
        <time>2021-08-28T06:50:55Z</time>
      </trkpt>
      <trkpt lat="37.474333" lon="-5.975077">
        <ele>4.02</ele>
        <time>2021-08-28T06:50:59Z</time>
      </trkpt>
      <trkpt lat="37.474488" lon="-5.975288">
        <ele>4.68</ele>
        <time>2021-08-28T06:51:03Z</time>
      </trkpt>
      <trkpt lat="37.474649" lon="-5.975496">
        <ele>4.35</ele>
        <time>2021-08-28T06:51:07Z</time>
      </trkpt>
      <trkpt lat="37.474812" lon="-5.975706">
        <ele>4.41</ele>
        <time>2021-08-28T06:51:11Z</time>
      </trkpt>
      <trkpt lat="37.474978" lon="-5.975921">
        <ele>5.48</ele>
        <time>2021-08-28T06:51:15Z</time>
      </trkpt>
      <trkpt lat="37.475137" lon="-5.976122">
        <ele>5.29</ele>
        <time>2021-08-28T06:51:19Z</time>
      </trkpt>
      <trkpt lat="37.475301" lon="-5.976319">
        <ele>5.31</ele>
        <time>2021-08-28T06:51:23Z</time>
      </trkpt>
      <trkpt lat="37.475469" lon="-5.976513">
        <ele>5.46</ele>
        <time>2021-08-28T06:51:27Z</time>
      </trkpt>
      <trkpt lat="37.475649" lon="-5.976697">
        <ele>4.95</ele>
        <time>2021-08-28T06:51:31Z</time>
      </trkpt>
      <trkpt lat="37.475834" lon="-5.976878">
        <ele>4.73</ele>
        <time>2021-08-28T06:51:35Z</time>
      </trkpt>
      <trkpt lat="37.475980" lon="-5.977015">
        <ele>5.02</ele>
        <time>2021-08-28T06:51:38Z</time>
      </trkpt>
      <trkpt lat="37.476131" lon="-5.977145">
        <ele>4.93</ele>
        <time>2021-08-28T06:51:41Z</time>
      </trkpt>
      <trkpt lat="37.476319" lon="-5.977316">
        <ele>4.81</ele>
        <time>2021-08-28T06:51:45Z</time>
      </trkpt>
      <trkpt lat="37.476473" lon="-5.977435">
        <ele>4.57</ele>
        <time>2021-08-28T06:51:48Z</time>
      </trkpt>
      <trkpt lat="37.476677" lon="-5.977588">
        <ele>4.23</ele>
        <time>2021-08-28T06:51:52Z</time>
      </trkpt>
      <trkpt lat="37.476838" lon="-5.977698">
        <ele>4.10</ele>
        <time>2021-08-28T06:51:55Z</time>
      </trkpt>
      <trkpt lat="37.477002" lon="-5.977801">
        <ele>4.22</ele>
        <time>2021-08-28T06:51:58Z</time>
      </trkpt>
      <trkpt lat="37.477166" lon="-5.977900">
        <ele>3.98</ele>
        <time>2021-08-28T06:52:01Z</time>
      </trkpt>
      <trkpt lat="37.477333" lon="-5.977988">
        <ele>3.77</ele>
        <time>2021-08-28T06:52:04Z</time>
      </trkpt>
      <trkpt lat="37.477511" lon="-5.978080">
        <ele>3.33</ele>
        <time>2021-08-28T06:52:07Z</time>
      </trkpt>
      <trkpt lat="37.477684" lon="-5.978164">
        <ele>3.35</ele>
        <time>2021-08-28T06:52:10Z</time>
      </trkpt>
      <trkpt lat="37.477856" lon="-5.978238">
        <ele>3.03</ele>
        <time>2021-08-28T06:52:13Z</time>
      </trkpt>
      <trkpt lat="37.478079" lon="-5.978326">
        <ele>2.96</ele>
        <time>2021-08-28T06:52:17Z</time>
      </trkpt>
      <trkpt lat="37.478311" lon="-5.978386">
        <ele>3.36</ele>
        <time>2021-08-28T06:52:21Z</time>
      </trkpt>
      <trkpt lat="37.478550" lon="-5.978341">
        <ele>3.46</ele>
        <time>2021-08-28T06:52:25Z</time>
      </trkpt>
      <trkpt lat="37.478763" lon="-5.978301">
        <ele>2.66</ele>
        <time>2021-08-28T06:52:29Z</time>
      </trkpt>
      <trkpt lat="37.478957" lon="-5.978457">
        <ele>2.84</ele>
        <time>2021-08-28T06:52:33Z</time>
      </trkpt>
      <trkpt lat="37.479129" lon="-5.978635">
        <ele>3.30</ele>
        <time>2021-08-28T06:52:37Z</time>
      </trkpt>
      <trkpt lat="37.479357" lon="-5.978687">
        <ele>3.56</ele>
        <time>2021-08-28T06:52:41Z</time>
      </trkpt>
      <trkpt lat="37.479587" lon="-5.978704">
        <ele>3.75</ele>
        <time>2021-08-28T06:52:45Z</time>
      </trkpt>
      <trkpt lat="37.479810" lon="-5.978712">
        <ele>4.36</ele>
        <time>2021-08-28T06:52:49Z</time>
      </trkpt>
      <trkpt lat="37.480033" lon="-5.978713">
        <ele>4.66</ele>
        <time>2021-08-28T06:52:53Z</time>
      </trkpt>
      <trkpt lat="37.480252" lon="-5.978698">
        <ele>5.49</ele>
        <time>2021-08-28T06:52:57Z</time>
      </trkpt>
      <trkpt lat="37.480465" lon="-5.978698">
        <ele>5.50</ele>
        <time>2021-08-28T06:53:01Z</time>
      </trkpt>
      <trkpt lat="37.480687" lon="-5.978721">
        <ele>5.12</ele>
        <time>2021-08-28T06:53:05Z</time>
      </trkpt>
      <trkpt lat="37.480891" lon="-5.978724">
        <ele>4.54</ele>
        <time>2021-08-28T06:53:09Z</time>
      </trkpt>
      <trkpt lat="37.481020" lon="-5.978728">
        <ele>5.21</ele>
        <time>2021-08-28T06:53:36Z</time>
      </trkpt>
      <trkpt lat="37.481222" lon="-5.978730">
        <ele>5.25</ele>
        <time>2021-08-28T06:53:43Z</time>
      </trkpt>
      <trkpt lat="37.481432" lon="-5.978731">
        <ele>6.68</ele>
        <time>2021-08-28T06:53:48Z</time>
      </trkpt>
      <trkpt lat="37.481621" lon="-5.978731">
        <ele>6.82</ele>
        <time>2021-08-28T06:53:52Z</time>
      </trkpt>
      <trkpt lat="37.481822" lon="-5.978739">
        <ele>7.03</ele>
        <time>2021-08-28T06:53:56Z</time>
      </trkpt>
      <trkpt lat="37.482032" lon="-5.978745">
        <ele>7.52</ele>
        <time>2021-08-28T06:54:01Z</time>
      </trkpt>
      <trkpt lat="37.482235" lon="-5.978755">
        <ele>7.68</ele>
        <time>2021-08-28T06:54:06Z</time>
      </trkpt>
      <trkpt lat="37.482444" lon="-5.978763">
        <ele>7.73</ele>
        <time>2021-08-28T06:54:11Z</time>
      </trkpt>
      <trkpt lat="37.482666" lon="-5.978763">
        <ele>7.45</ele>
        <time>2021-08-28T06:54:16Z</time>
      </trkpt>
      <trkpt lat="37.482854" lon="-5.978756">
        <ele>7.05</ele>
        <time>2021-08-28T06:54:20Z</time>
      </trkpt>
      <trkpt lat="37.483037" lon="-5.978743">
        <ele>6.58</ele>
        <time>2021-08-28T06:54:24Z</time>
      </trkpt>
      <trkpt lat="37.483223" lon="-5.978726">
        <ele>5.98</ele>
        <time>2021-08-28T06:54:28Z</time>
      </trkpt>
      <trkpt lat="37.483423" lon="-5.978728">
        <ele>6.05</ele>
        <time>2021-08-28T06:54:33Z</time>
      </trkpt>
      <trkpt lat="37.483618" lon="-5.978729">
        <ele>6.41</ele>
        <time>2021-08-28T06:54:39Z</time>
      </trkpt>
      <trkpt lat="37.483818" lon="-5.978699">
        <ele>5.29</ele>
        <time>2021-08-28T06:54:47Z</time>
      </trkpt>
      <trkpt lat="37.483998" lon="-5.978669">
        <ele>5.01</ele>
        <time>2021-08-28T06:54:57Z</time>
      </trkpt>
      <trkpt lat="37.484196" lon="-5.978643">
        <ele>4.89</ele>
        <time>2021-08-28T06:55:04Z</time>
      </trkpt>
      <trkpt lat="37.484404" lon="-5.978617">
        <ele>5.09</ele>
        <time>2021-08-28T06:55:10Z</time>
      </trkpt>
      <trkpt lat="37.484610" lon="-5.978577">
        <ele>3.96</ele>
        <time>2021-08-28T06:55:15Z</time>
      </trkpt>
      <trkpt lat="37.484834" lon="-5.978552">
        <ele>4.52</ele>
        <time>2021-08-28T06:55:20Z</time>
      </trkpt>
      <trkpt lat="37.485030" lon="-5.978537">
        <ele>5.31</ele>
        <time>2021-08-28T06:55:24Z</time>
      </trkpt>
      <trkpt lat="37.485230" lon="-5.978507">
        <ele>5.18</ele>
        <time>2021-08-28T06:55:28Z</time>
      </trkpt>
      <trkpt lat="37.485422" lon="-5.978470">
        <ele>6.16</ele>
        <time>2021-08-28T06:55:32Z</time>
      </trkpt>
      <trkpt lat="37.485609" lon="-5.978379">
        <ele>6.89</ele>
        <time>2021-08-28T06:55:36Z</time>
      </trkpt>
      <trkpt lat="37.485733" lon="-5.978181">
        <ele>7.11</ele>
        <time>2021-08-28T06:55:40Z</time>
      </trkpt>
      <trkpt lat="37.485846" lon="-5.977987">
        <ele>7.16</ele>
        <time>2021-08-28T06:55:44Z</time>
      </trkpt>
      <trkpt lat="37.486064" lon="-5.977966">
        <ele>6.36</ele>
        <time>2021-08-28T06:55:49Z</time>
      </trkpt>
      <trkpt lat="37.486242" lon="-5.978056">
        <ele>6.71</ele>
        <time>2021-08-28T06:55:53Z</time>
      </trkpt>
      <trkpt lat="37.486449" lon="-5.978059">
        <ele>7.36</ele>
        <time>2021-08-28T06:55:57Z</time>
      </trkpt>
      <trkpt lat="37.486666" lon="-5.978067">
        <ele>9.31</ele>
        <time>2021-08-28T06:56:01Z</time>
      </trkpt>
      <trkpt lat="37.486892" lon="-5.978047">
        <ele>8.95</ele>
        <time>2021-08-28T06:56:05Z</time>
      </trkpt>
      <trkpt lat="37.487102" lon="-5.978010">
        <ele>9.23</ele>
        <time>2021-08-28T06:56:09Z</time>
      </trkpt>
      <trkpt lat="37.487325" lon="-5.977976">
        <ele>9.33</ele>
        <time>2021-08-28T06:56:13Z</time>
      </trkpt>
      <trkpt lat="37.487545" lon="-5.977937">
        <ele>8.12</ele>
        <time>2021-08-28T06:56:17Z</time>
      </trkpt>
      <trkpt lat="37.487761" lon="-5.977887">
        <ele>7.40</ele>
        <time>2021-08-28T06:56:21Z</time>
      </trkpt>
      <trkpt lat="37.487972" lon="-5.977848">
        <ele>8.14</ele>
        <time>2021-08-28T06:56:25Z</time>
      </trkpt>
      <trkpt lat="37.488191" lon="-5.977808">
        <ele>7.61</ele>
        <time>2021-08-28T06:56:29Z</time>
      </trkpt>
      <trkpt lat="37.488406" lon="-5.977803">
        <ele>7.25</ele>
        <time>2021-08-28T06:56:33Z</time>
      </trkpt>
      <trkpt lat="37.488617" lon="-5.977812">
        <ele>6.79</ele>
        <time>2021-08-28T06:56:37Z</time>
      </trkpt>
      <trkpt lat="37.488846" lon="-5.977806">
        <ele>6.33</ele>
        <time>2021-08-28T06:56:41Z</time>
      </trkpt>
      <trkpt lat="37.489059" lon="-5.977775">
        <ele>7.76</ele>
        <time>2021-08-28T06:56:45Z</time>
      </trkpt>
      <trkpt lat="37.489252" lon="-5.977697">
        <ele>8.76</ele>
        <time>2021-08-28T06:56:51Z</time>
      </trkpt>
      <trkpt lat="37.489424" lon="-5.977788">
        <ele>9.39</ele>
        <time>2021-08-28T06:56:56Z</time>
      </trkpt>
      <trkpt lat="37.489620" lon="-5.977847">
        <ele>7.74</ele>
        <time>2021-08-28T06:57:01Z</time>
      </trkpt>
      <trkpt lat="37.489817" lon="-5.977876">
        <ele>7.78</ele>
        <time>2021-08-28T06:57:05Z</time>
      </trkpt>
      <trkpt lat="37.490046" lon="-5.977905">
        <ele>6.45</ele>
        <time>2021-08-28T06:57:10Z</time>
      </trkpt>
      <trkpt lat="37.490250" lon="-5.977918">
        <ele>7.07</ele>
        <time>2021-08-28T06:57:14Z</time>
      </trkpt>
      <trkpt lat="37.490450" lon="-5.977949">
        <ele>7.99</ele>
        <time>2021-08-28T06:57:18Z</time>
      </trkpt>
      <trkpt lat="37.490648" lon="-5.977981">
        <ele>8.42</ele>
        <time>2021-08-28T06:57:22Z</time>
      </trkpt>
      <trkpt lat="37.490844" lon="-5.978010">
        <ele>9.20</ele>
        <time>2021-08-28T06:57:26Z</time>
      </trkpt>
      <trkpt lat="37.491062" lon="-5.978045">
        <ele>10.22</ele>
        <time>2021-08-28T06:57:30Z</time>
      </trkpt>
      <trkpt lat="37.491295" lon="-5.978069">
        <ele>10.11</ele>
        <time>2021-08-28T06:57:34Z</time>
      </trkpt>
      <trkpt lat="37.491492" lon="-5.978109">
        <ele>10.85</ele>
        <time>2021-08-28T06:57:38Z</time>
      </trkpt>
      <trkpt lat="37.491702" lon="-5.978134">
        <ele>10.98</ele>
        <time>2021-08-28T06:57:42Z</time>
      </trkpt>
      <trkpt lat="37.491932" lon="-5.978149">
        <ele>9.95</ele>
        <time>2021-08-28T06:57:46Z</time>
      </trkpt>
      <trkpt lat="37.492172" lon="-5.978158">
        <ele>8.57</ele>
        <time>2021-08-28T06:57:50Z</time>
      </trkpt>
      <trkpt lat="37.492398" lon="-5.978216">
        <ele>10.64</ele>
        <time>2021-08-28T06:57:54Z</time>
      </trkpt>
      <trkpt lat="37.492627" lon="-5.978247">
        <ele>12.50</ele>
        <time>2021-08-28T06:57:58Z</time>
      </trkpt>
      <trkpt lat="37.492807" lon="-5.978244">
        <ele>10.76</ele>
        <time>2021-08-28T06:58:01Z</time>
      </trkpt>
      <trkpt lat="37.493045" lon="-5.978270">
        <ele>9.46</ele>
        <time>2021-08-28T06:58:05Z</time>
      </trkpt>
      <trkpt lat="37.493235" lon="-5.978289">
        <ele>9.08</ele>
        <time>2021-08-28T06:58:08Z</time>
      </trkpt>
      <trkpt lat="37.493423" lon="-5.978313">
        <ele>8.37</ele>
        <time>2021-08-28T06:58:11Z</time>
      </trkpt>
      <trkpt lat="37.493608" lon="-5.978332">
        <ele>8.20</ele>
        <time>2021-08-28T06:58:14Z</time>
      </trkpt>
      <trkpt lat="37.493792" lon="-5.978360">
        <ele>8.14</ele>
        <time>2021-08-28T06:58:17Z</time>
      </trkpt>
      <trkpt lat="37.493976" lon="-5.978383">
        <ele>8.22</ele>
        <time>2021-08-28T06:58:20Z</time>
      </trkpt>
      <trkpt lat="37.494156" lon="-5.978402">
        <ele>8.43</ele>
        <time>2021-08-28T06:58:23Z</time>
      </trkpt>
      <trkpt lat="37.494340" lon="-5.978428">
        <ele>8.58</ele>
        <time>2021-08-28T06:58:26Z</time>
      </trkpt>
      <trkpt lat="37.494575" lon="-5.978449">
        <ele>7.71</ele>
        <time>2021-08-28T06:58:30Z</time>
      </trkpt>
      <trkpt lat="37.494817" lon="-5.978471">
        <ele>7.69</ele>
        <time>2021-08-28T06:58:34Z</time>
      </trkpt>
      <trkpt lat="37.495000" lon="-5.978481">
        <ele>7.11</ele>
        <time>2021-08-28T06:58:37Z</time>
      </trkpt>
      <trkpt lat="37.495238" lon="-5.978512">
        <ele>7.30</ele>
        <time>2021-08-28T06:58:41Z</time>
      </trkpt>
      <trkpt lat="37.495472" lon="-5.978542">
        <ele>6.68</ele>
        <time>2021-08-28T06:58:45Z</time>
      </trkpt>
      <trkpt lat="37.495656" lon="-5.978567">
        <ele>6.28</ele>
        <time>2021-08-28T06:58:48Z</time>
      </trkpt>
      <trkpt lat="37.495840" lon="-5.978591">
        <ele>6.32</ele>
        <time>2021-08-28T06:58:51Z</time>
      </trkpt>
      <trkpt lat="37.496026" lon="-5.978601">
        <ele>5.82</ele>
        <time>2021-08-28T06:58:54Z</time>
      </trkpt>
      <trkpt lat="37.496208" lon="-5.978622">
        <ele>5.33</ele>
        <time>2021-08-28T06:58:57Z</time>
      </trkpt>
      <trkpt lat="37.496440" lon="-5.978646">
        <ele>4.69</ele>
        <time>2021-08-28T06:59:01Z</time>
      </trkpt>
      <trkpt lat="37.496621" lon="-5.978666">
        <ele>4.64</ele>
        <time>2021-08-28T06:59:04Z</time>
      </trkpt>
      <trkpt lat="37.496859" lon="-5.978703">
        <ele>5.61</ele>
        <time>2021-08-28T06:59:08Z</time>
      </trkpt>
      <trkpt lat="37.497052" lon="-5.978731">
        <ele>5.59</ele>
        <time>2021-08-28T06:59:11Z</time>
      </trkpt>
      <trkpt lat="37.497292" lon="-5.978756">
        <ele>5.30</ele>
        <time>2021-08-28T06:59:15Z</time>
      </trkpt>
      <trkpt lat="37.497472" lon="-5.978767">
        <ele>5.45</ele>
        <time>2021-08-28T06:59:18Z</time>
      </trkpt>
      <trkpt lat="37.497712" lon="-5.978800">
        <ele>6.64</ele>
        <time>2021-08-28T06:59:22Z</time>
      </trkpt>
      <trkpt lat="37.497902" lon="-5.978811">
        <ele>6.00</ele>
        <time>2021-08-28T06:59:25Z</time>
      </trkpt>
      <trkpt lat="37.498093" lon="-5.978833">
        <ele>6.38</ele>
        <time>2021-08-28T06:59:28Z</time>
      </trkpt>
      <trkpt lat="37.498281" lon="-5.978850">
        <ele>6.84</ele>
        <time>2021-08-28T06:59:31Z</time>
      </trkpt>
      <trkpt lat="37.498475" lon="-5.978871">
        <ele>7.18</ele>
        <time>2021-08-28T06:59:34Z</time>
      </trkpt>
      <trkpt lat="37.498668" lon="-5.978886">
        <ele>7.05</ele>
        <time>2021-08-28T06:59:37Z</time>
      </trkpt>
      <trkpt lat="37.498861" lon="-5.978884">
        <ele>6.79</ele>
        <time>2021-08-28T06:59:40Z</time>
      </trkpt>
      <trkpt lat="37.499053" lon="-5.978863">
        <ele>6.02</ele>
        <time>2021-08-28T06:59:43Z</time>
      </trkpt>
      <trkpt lat="37.499246" lon="-5.978835">
        <ele>5.46</ele>
        <time>2021-08-28T06:59:46Z</time>
      </trkpt>
      <trkpt lat="37.499430" lon="-5.978801">
        <ele>4.94</ele>
        <time>2021-08-28T06:59:49Z</time>
      </trkpt>
      <trkpt lat="37.499614" lon="-5.978765">
        <ele>4.57</ele>
        <time>2021-08-28T06:59:52Z</time>
      </trkpt>
      <trkpt lat="37.499796" lon="-5.978721">
        <ele>4.26</ele>
        <time>2021-08-28T06:59:55Z</time>
      </trkpt>
      <trkpt lat="37.499980" lon="-5.978671">
        <ele>4.04</ele>
        <time>2021-08-28T06:59:58Z</time>
      </trkpt>
      <trkpt lat="37.500163" lon="-5.978622">
        <ele>3.59</ele>
        <time>2021-08-28T07:00:01Z</time>
      </trkpt>
      <trkpt lat="37.500355" lon="-5.978573">
        <ele>3.76</ele>
        <time>2021-08-28T07:00:04Z</time>
      </trkpt>
      <trkpt lat="37.500541" lon="-5.978539">
        <ele>4.33</ele>
        <time>2021-08-28T07:00:07Z</time>
      </trkpt>
      <trkpt lat="37.500730" lon="-5.978491">
        <ele>4.67</ele>
        <time>2021-08-28T07:00:10Z</time>
      </trkpt>
      <trkpt lat="37.500907" lon="-5.978445">
        <ele>4.90</ele>
        <time>2021-08-28T07:00:13Z</time>
      </trkpt>
      <trkpt lat="37.501086" lon="-5.978391">
        <ele>5.22</ele>
        <time>2021-08-28T07:00:16Z</time>
      </trkpt>
      <trkpt lat="37.501266" lon="-5.978349">
        <ele>5.34</ele>
        <time>2021-08-28T07:00:19Z</time>
      </trkpt>
      <trkpt lat="37.501494" lon="-5.978294">
        <ele>5.43</ele>
        <time>2021-08-28T07:00:23Z</time>
      </trkpt>
      <trkpt lat="37.501720" lon="-5.978263">
        <ele>6.26</ele>
        <time>2021-08-28T07:00:27Z</time>
      </trkpt>
      <trkpt lat="37.501950" lon="-5.978219">
        <ele>6.52</ele>
        <time>2021-08-28T07:00:31Z</time>
      </trkpt>
      <trkpt lat="37.502131" lon="-5.978202">
        <ele>6.88</ele>
        <time>2021-08-28T07:00:34Z</time>
      </trkpt>
      <trkpt lat="37.502363" lon="-5.978177">
        <ele>6.87</ele>
        <time>2021-08-28T07:00:38Z</time>
      </trkpt>
      <trkpt lat="37.502599" lon="-5.978161">
        <ele>7.20</ele>
        <time>2021-08-28T07:00:42Z</time>
      </trkpt>
      <trkpt lat="37.502819" lon="-5.978143">
        <ele>7.42</ele>
        <time>2021-08-28T07:00:46Z</time>
      </trkpt>
      <trkpt lat="37.502996" lon="-5.978099">
        <ele>7.15</ele>
        <time>2021-08-28T07:00:49Z</time>
      </trkpt>
      <trkpt lat="37.503215" lon="-5.977982">
        <ele>6.46</ele>
        <time>2021-08-28T07:00:53Z</time>
      </trkpt>
      <trkpt lat="37.503415" lon="-5.977842">
        <ele>6.65</ele>
        <time>2021-08-28T07:00:57Z</time>
      </trkpt>
      <trkpt lat="37.503619" lon="-5.977778">
        <ele>6.54</ele>
        <time>2021-08-28T07:01:01Z</time>
      </trkpt>
      <trkpt lat="37.503796" lon="-5.977732">
        <ele>6.11</ele>
        <time>2021-08-28T07:01:05Z</time>
      </trkpt>
      <trkpt lat="37.503997" lon="-5.977685">
        <ele>6.25</ele>
        <time>2021-08-28T07:01:10Z</time>
      </trkpt>
      <trkpt lat="37.504199" lon="-5.977626">
        <ele>5.53</ele>
        <time>2021-08-28T07:01:16Z</time>
      </trkpt>
      <trkpt lat="37.504384" lon="-5.977581">
        <ele>6.15</ele>
        <time>2021-08-28T07:01:21Z</time>
      </trkpt>
      <trkpt lat="37.504582" lon="-5.977531">
        <ele>6.19</ele>
        <time>2021-08-28T07:01:26Z</time>
      </trkpt>
      <trkpt lat="37.504778" lon="-5.977493">
        <ele>6.19</ele>
        <time>2021-08-28T07:01:31Z</time>
      </trkpt>
      <trkpt lat="37.504982" lon="-5.977441">
        <ele>6.28</ele>
        <time>2021-08-28T07:01:36Z</time>
      </trkpt>
      <trkpt lat="37.505191" lon="-5.977383">
        <ele>5.81</ele>
        <time>2021-08-28T07:01:41Z</time>
      </trkpt>
      <trkpt lat="37.505401" lon="-5.977331">
        <ele>5.89</ele>
        <time>2021-08-28T07:01:46Z</time>
      </trkpt>
      <trkpt lat="37.505613" lon="-5.977271">
        <ele>5.71</ele>
        <time>2021-08-28T07:01:51Z</time>
      </trkpt>
      <trkpt lat="37.505797" lon="-5.977228">
        <ele>5.24</ele>
        <time>2021-08-28T07:01:55Z</time>
      </trkpt>
      <trkpt lat="37.505984" lon="-5.977179">
        <ele>5.18</ele>
        <time>2021-08-28T07:01:59Z</time>
      </trkpt>
      <trkpt lat="37.506178" lon="-5.977132">
        <ele>5.71</ele>
        <time>2021-08-28T07:02:03Z</time>
      </trkpt>
      <trkpt lat="37.506367" lon="-5.977076">
        <ele>5.54</ele>
        <time>2021-08-28T07:02:07Z</time>
      </trkpt>
      <trkpt lat="37.506566" lon="-5.977033">
        <ele>5.86</ele>
        <time>2021-08-28T07:02:11Z</time>
      </trkpt>
      <trkpt lat="37.506753" lon="-5.976990">
        <ele>5.70</ele>
        <time>2021-08-28T07:02:15Z</time>
      </trkpt>
      <trkpt lat="37.506939" lon="-5.976935">
        <ele>5.14</ele>
        <time>2021-08-28T07:02:19Z</time>
      </trkpt>
      <trkpt lat="37.507127" lon="-5.976894">
        <ele>4.87</ele>
        <time>2021-08-28T07:02:23Z</time>
      </trkpt>
      <trkpt lat="37.507318" lon="-5.976843">
        <ele>4.62</ele>
        <time>2021-08-28T07:02:27Z</time>
      </trkpt>
      <trkpt lat="37.507520" lon="-5.976801">
        <ele>5.96</ele>
        <time>2021-08-28T07:02:31Z</time>
      </trkpt>
      <trkpt lat="37.507718" lon="-5.976750">
        <ele>6.27</ele>
        <time>2021-08-28T07:02:35Z</time>
      </trkpt>
      <trkpt lat="37.507913" lon="-5.976700">
        <ele>6.28</ele>
        <time>2021-08-28T07:02:39Z</time>
      </trkpt>
      <trkpt lat="37.508110" lon="-5.976651">
        <ele>5.94</ele>
        <time>2021-08-28T07:02:43Z</time>
      </trkpt>
      <trkpt lat="37.508311" lon="-5.976610">
        <ele>6.54</ele>
        <time>2021-08-28T07:02:47Z</time>
      </trkpt>
      <trkpt lat="37.508507" lon="-5.976561">
        <ele>6.19</ele>
        <time>2021-08-28T07:02:51Z</time>
      </trkpt>
      <trkpt lat="37.508701" lon="-5.976494">
        <ele>6.26</ele>
        <time>2021-08-28T07:02:55Z</time>
      </trkpt>
      <trkpt lat="37.508890" lon="-5.976435">
        <ele>5.98</ele>
        <time>2021-08-28T07:02:59Z</time>
      </trkpt>
      <trkpt lat="37.509084" lon="-5.976385">
        <ele>5.15</ele>
        <time>2021-08-28T07:03:03Z</time>
      </trkpt>
      <trkpt lat="37.509284" lon="-5.976331">
        <ele>5.42</ele>
        <time>2021-08-28T07:03:07Z</time>
      </trkpt>
      <trkpt lat="37.509473" lon="-5.976282">
        <ele>5.24</ele>
        <time>2021-08-28T07:03:11Z</time>
      </trkpt>
      <trkpt lat="37.509665" lon="-5.976233">
        <ele>5.11</ele>
        <time>2021-08-28T07:03:15Z</time>
      </trkpt>
      <trkpt lat="37.509857" lon="-5.976190">
        <ele>5.07</ele>
        <time>2021-08-28T07:03:19Z</time>
      </trkpt>
      <trkpt lat="37.510039" lon="-5.976139">
        <ele>4.81</ele>
        <time>2021-08-28T07:03:23Z</time>
      </trkpt>
      <trkpt lat="37.510231" lon="-5.976090">
        <ele>4.63</ele>
        <time>2021-08-28T07:03:27Z</time>
      </trkpt>
      <trkpt lat="37.510416" lon="-5.976043">
        <ele>4.57</ele>
        <time>2021-08-28T07:03:31Z</time>
      </trkpt>
      <trkpt lat="37.510609" lon="-5.975991">
        <ele>4.88</ele>
        <time>2021-08-28T07:03:35Z</time>
      </trkpt>
      <trkpt lat="37.510794" lon="-5.975942">
        <ele>5.22</ele>
        <time>2021-08-28T07:03:39Z</time>
      </trkpt>
      <trkpt lat="37.510978" lon="-5.975905">
        <ele>5.57</ele>
        <time>2021-08-28T07:03:43Z</time>
      </trkpt>
      <trkpt lat="37.511169" lon="-5.975859">
        <ele>5.82</ele>
        <time>2021-08-28T07:03:47Z</time>
      </trkpt>
      <trkpt lat="37.511365" lon="-5.975811">
        <ele>5.88</ele>
        <time>2021-08-28T07:03:51Z</time>
      </trkpt>
      <trkpt lat="37.511555" lon="-5.975764">
        <ele>5.72</ele>
        <time>2021-08-28T07:03:55Z</time>
      </trkpt>
      <trkpt lat="37.511735" lon="-5.975722">
        <ele>5.73</ele>
        <time>2021-08-28T07:03:59Z</time>
      </trkpt>
      <trkpt lat="37.511922" lon="-5.975666">
        <ele>6.60</ele>
        <time>2021-08-28T07:04:03Z</time>
      </trkpt>
      <trkpt lat="37.512106" lon="-5.975617">
        <ele>6.28</ele>
        <time>2021-08-28T07:04:07Z</time>
      </trkpt>
      <trkpt lat="37.512287" lon="-5.975578">
        <ele>6.36</ele>
        <time>2021-08-28T07:04:11Z</time>
      </trkpt>
      <trkpt lat="37.512501" lon="-5.975513">
        <ele>5.85</ele>
        <time>2021-08-28T07:04:16Z</time>
      </trkpt>
      <trkpt lat="37.512714" lon="-5.975460">
        <ele>5.74</ele>
        <time>2021-08-28T07:04:21Z</time>
      </trkpt>
      <trkpt lat="37.512900" lon="-5.975420">
        <ele>5.13</ele>
        <time>2021-08-28T07:04:25Z</time>
      </trkpt>
      <trkpt lat="37.513086" lon="-5.975381">
        <ele>5.14</ele>
        <time>2021-08-28T07:04:29Z</time>
      </trkpt>
      <trkpt lat="37.513264" lon="-5.975334">
        <ele>5.85</ele>
        <time>2021-08-28T07:04:33Z</time>
      </trkpt>
      <trkpt lat="37.513443" lon="-5.975292">
        <ele>5.61</ele>
        <time>2021-08-28T07:04:37Z</time>
      </trkpt>
      <trkpt lat="37.513650" lon="-5.975222">
        <ele>5.27</ele>
        <time>2021-08-28T07:04:42Z</time>
      </trkpt>
      <trkpt lat="37.513832" lon="-5.975167">
        <ele>5.00</ele>
        <time>2021-08-28T07:04:46Z</time>
      </trkpt>
      <trkpt lat="37.514011" lon="-5.975116">
        <ele>5.65</ele>
        <time>2021-08-28T07:04:50Z</time>
      </trkpt>
      <trkpt lat="37.514189" lon="-5.975060">
        <ele>6.02</ele>
        <time>2021-08-28T07:04:54Z</time>
      </trkpt>
      <trkpt lat="37.514367" lon="-5.974996">
        <ele>5.99</ele>
        <time>2021-08-28T07:04:58Z</time>
      </trkpt>
      <trkpt lat="37.514551" lon="-5.974936">
        <ele>5.53</ele>
        <time>2021-08-28T07:05:02Z</time>
      </trkpt>
      <trkpt lat="37.514733" lon="-5.974871">
        <ele>5.85</ele>
        <time>2021-08-28T07:05:06Z</time>
      </trkpt>
      <trkpt lat="37.514904" lon="-5.974797">
        <ele>5.78</ele>
        <time>2021-08-28T07:05:10Z</time>
      </trkpt>
      <trkpt lat="37.515080" lon="-5.974732">
        <ele>6.23</ele>
        <time>2021-08-28T07:05:14Z</time>
      </trkpt>
      <trkpt lat="37.515256" lon="-5.974638">
        <ele>5.69</ele>
        <time>2021-08-28T07:05:18Z</time>
      </trkpt>
      <trkpt lat="37.515433" lon="-5.974557">
        <ele>6.29</ele>
        <time>2021-08-28T07:05:22Z</time>
      </trkpt>
      <trkpt lat="37.515624" lon="-5.974465">
        <ele>6.68</ele>
        <time>2021-08-28T07:05:27Z</time>
      </trkpt>
      <trkpt lat="37.515813" lon="-5.974369">
        <ele>7.13</ele>
        <time>2021-08-28T07:05:32Z</time>
      </trkpt>
      <trkpt lat="37.516007" lon="-5.974268">
        <ele>7.18</ele>
        <time>2021-08-28T07:05:37Z</time>
      </trkpt>
      <trkpt lat="37.516186" lon="-5.974169">
        <ele>6.96</ele>
        <time>2021-08-28T07:05:42Z</time>
      </trkpt>
      <trkpt lat="37.516366" lon="-5.974075">
        <ele>7.46</ele>
        <time>2021-08-28T07:05:47Z</time>
      </trkpt>
      <trkpt lat="37.516553" lon="-5.973976">
        <ele>6.81</ele>
        <time>2021-08-28T07:05:52Z</time>
      </trkpt>
      <trkpt lat="37.516739" lon="-5.973882">
        <ele>7.74</ele>
        <time>2021-08-28T07:05:57Z</time>
      </trkpt>
      <trkpt lat="37.516922" lon="-5.973792">
        <ele>8.61</ele>
        <time>2021-08-28T07:06:02Z</time>
      </trkpt>
      <trkpt lat="37.517117" lon="-5.973684">
        <ele>8.35</ele>
        <time>2021-08-28T07:06:08Z</time>
      </trkpt>
      <trkpt lat="37.517305" lon="-5.973606">
        <ele>8.87</ele>
        <time>2021-08-28T07:06:13Z</time>
      </trkpt>
      <trkpt lat="37.517514" lon="-5.973555">
        <ele>9.04</ele>
        <time>2021-08-28T07:06:19Z</time>
      </trkpt>
      <trkpt lat="37.517707" lon="-5.973542">
        <ele>8.98</ele>
        <time>2021-08-28T07:06:24Z</time>
      </trkpt>
      <trkpt lat="37.517888" lon="-5.973577">
        <ele>9.03</ele>
        <time>2021-08-28T07:06:29Z</time>
      </trkpt>
      <trkpt lat="37.518057" lon="-5.973668">
        <ele>9.83</ele>
        <time>2021-08-28T07:06:34Z</time>
      </trkpt>
      <trkpt lat="37.518206" lon="-5.973797">
        <ele>9.33</ele>
        <time>2021-08-28T07:06:39Z</time>
      </trkpt>
      <trkpt lat="37.518341" lon="-5.973978">
        <ele>9.41</ele>
        <time>2021-08-28T07:06:45Z</time>
      </trkpt>
      <trkpt lat="37.518441" lon="-5.974202">
        <ele>8.88</ele>
        <time>2021-08-28T07:06:52Z</time>
      </trkpt>
      <trkpt lat="37.518503" lon="-5.974458">
        <ele>9.31</ele>
        <time>2021-08-28T07:06:58Z</time>
      </trkpt>
      <trkpt lat="37.518525" lon="-5.974696">
        <ele>9.73</ele>
        <time>2021-08-28T07:07:03Z</time>
      </trkpt>
      <trkpt lat="37.518531" lon="-5.974932">
        <ele>9.73</ele>
        <time>2021-08-28T07:07:08Z</time>
      </trkpt>
      <trkpt lat="37.518534" lon="-5.975161">
        <ele>9.65</ele>
        <time>2021-08-28T07:07:13Z</time>
      </trkpt>
      <trkpt lat="37.518542" lon="-5.975394">
        <ele>9.91</ele>
        <time>2021-08-28T07:07:18Z</time>
      </trkpt>
      <trkpt lat="37.518545" lon="-5.975626">
        <ele>9.49</ele>
        <time>2021-08-28T07:07:23Z</time>
      </trkpt>
      <trkpt lat="37.518549" lon="-5.975877">
        <ele>8.91</ele>
        <time>2021-08-28T07:07:29Z</time>
      </trkpt>
      <trkpt lat="37.518560" lon="-5.976124">
        <ele>8.38</ele>
        <time>2021-08-28T07:07:35Z</time>
      </trkpt>
      <trkpt lat="37.518567" lon="-5.976379">
        <ele>7.79</ele>
        <time>2021-08-28T07:07:41Z</time>
      </trkpt>
      <trkpt lat="37.518577" lon="-5.976608">
        <ele>8.00</ele>
        <time>2021-08-28T07:07:46Z</time>
      </trkpt>
      <trkpt lat="37.518581" lon="-5.976869">
        <ele>6.58</ele>
        <time>2021-08-28T07:07:51Z</time>
      </trkpt>
      <trkpt lat="37.518587" lon="-5.977135">
        <ele>6.71</ele>
        <time>2021-08-28T07:07:56Z</time>
      </trkpt>
      <trkpt lat="37.518594" lon="-5.977408">
        <ele>6.97</ele>
        <time>2021-08-28T07:08:01Z</time>
      </trkpt>
      <trkpt lat="37.518592" lon="-5.977653">
        <ele>8.62</ele>
        <time>2021-08-28T07:08:06Z</time>
      </trkpt>
      <trkpt lat="37.518405" lon="-5.977772">
        <ele>10.68</ele>
        <time>2021-08-28T07:08:12Z</time>
      </trkpt>
      <trkpt lat="37.518208" lon="-5.977727">
        <ele>12.32</ele>
        <time>2021-08-28T07:08:17Z</time>
      </trkpt>
      <trkpt lat="37.517991" lon="-5.977693">
        <ele>13.32</ele>
        <time>2021-08-28T07:08:22Z</time>
      </trkpt>
      <trkpt lat="37.517814" lon="-5.977735">
        <ele>15.14</ele>
        <time>2021-08-28T07:08:26Z</time>
      </trkpt>
      <trkpt lat="37.517653" lon="-5.977856">
        <ele>17.20</ele>
        <time>2021-08-28T07:08:31Z</time>
      </trkpt>
      <trkpt lat="37.517663" lon="-5.978083">
        <ele>17.64</ele>
        <time>2021-08-28T07:08:37Z</time>
      </trkpt>
      <trkpt lat="37.517855" lon="-5.978180">
        <ele>18.15</ele>
        <time>2021-08-28T07:08:43Z</time>
      </trkpt>
      <trkpt lat="37.518024" lon="-5.978287">
        <ele>19.95</ele>
        <time>2021-08-28T07:08:49Z</time>
      </trkpt>
      <trkpt lat="37.518166" lon="-5.978432">
        <ele>23.06</ele>
        <time>2021-08-28T07:08:57Z</time>
      </trkpt>
      <trkpt lat="37.518352" lon="-5.978390">
        <ele>26.14</ele>
        <time>2021-08-28T07:09:05Z</time>
      </trkpt>
      <trkpt lat="37.518482" lon="-5.978227">
        <ele>28.39</ele>
        <time>2021-08-28T07:09:11Z</time>
      </trkpt>
      <trkpt lat="37.518673" lon="-5.978214">
        <ele>28.90</ele>
        <time>2021-08-28T07:09:28Z</time>
      </trkpt>
      <trkpt lat="37.518850" lon="-5.978352">
        <ele>29.32</ele>
        <time>2021-08-28T07:09:36Z</time>
      </trkpt>
      <trkpt lat="37.519020" lon="-5.978484">
        <ele>30.56</ele>
        <time>2021-08-28T07:09:43Z</time>
      </trkpt>
      <trkpt lat="37.519179" lon="-5.978651">
        <ele>32.04</ele>
        <time>2021-08-28T07:09:50Z</time>
      </trkpt>
      <trkpt lat="37.519345" lon="-5.978774">
        <ele>34.32</ele>
        <time>2021-08-28T07:09:57Z</time>
      </trkpt>
      <trkpt lat="37.519510" lon="-5.978912">
        <ele>36.56</ele>
        <time>2021-08-28T07:10:05Z</time>
      </trkpt>
      <trkpt lat="37.519664" lon="-5.979036">
        <ele>34.70</ele>
        <time>2021-08-28T07:10:12Z</time>
      </trkpt>
      <trkpt lat="37.519863" lon="-5.979094">
        <ele>31.13</ele>
        <time>2021-08-28T07:10:19Z</time>
      </trkpt>
      <trkpt lat="37.520012" lon="-5.979223">
        <ele>32.17</ele>
        <time>2021-08-28T07:10:26Z</time>
      </trkpt>
      <trkpt lat="37.520202" lon="-5.979334">
        <ele>32.59</ele>
        <time>2021-08-28T07:10:33Z</time>
      </trkpt>
      <trkpt lat="37.520369" lon="-5.979458">
        <ele>34.24</ele>
        <time>2021-08-28T07:10:39Z</time>
      </trkpt>
      <trkpt lat="37.520550" lon="-5.979591">
        <ele>34.70</ele>
        <time>2021-08-28T07:10:45Z</time>
      </trkpt>
      <trkpt lat="37.520744" lon="-5.979650">
        <ele>39.00</ele>
        <time>2021-08-28T07:10:51Z</time>
      </trkpt>
      <trkpt lat="37.520935" lon="-5.979641">
        <ele>39.10</ele>
        <time>2021-08-28T07:10:56Z</time>
      </trkpt>
      <trkpt lat="37.521107" lon="-5.979540">
        <ele>38.74</ele>
        <time>2021-08-28T07:11:03Z</time>
      </trkpt>
      <trkpt lat="37.521236" lon="-5.979380">
        <ele>34.73</ele>
        <time>2021-08-28T07:11:09Z</time>
      </trkpt>
      <trkpt lat="37.521352" lon="-5.979169">
        <ele>33.03</ele>
        <time>2021-08-28T07:11:15Z</time>
      </trkpt>
      <trkpt lat="37.521456" lon="-5.978983">
        <ele>32.20</ele>
        <time>2021-08-28T07:11:20Z</time>
      </trkpt>
      <trkpt lat="37.521573" lon="-5.978791">
        <ele>31.47</ele>
        <time>2021-08-28T07:11:25Z</time>
      </trkpt>
      <trkpt lat="37.521715" lon="-5.978641">
        <ele>30.49</ele>
        <time>2021-08-28T07:11:30Z</time>
      </trkpt>
      <trkpt lat="37.521913" lon="-5.978542">
        <ele>29.54</ele>
        <time>2021-08-28T07:11:37Z</time>
      </trkpt>
      <trkpt lat="37.522094" lon="-5.978501">
        <ele>29.51</ele>
        <time>2021-08-28T07:11:42Z</time>
      </trkpt>
      <trkpt lat="37.522287" lon="-5.978453">
        <ele>30.17</ele>
        <time>2021-08-28T07:11:47Z</time>
      </trkpt>
      <trkpt lat="37.522486" lon="-5.978393">
        <ele>31.85</ele>
        <time>2021-08-28T07:11:52Z</time>
      </trkpt>
      <trkpt lat="37.522659" lon="-5.978328">
        <ele>32.85</ele>
        <time>2021-08-28T07:11:56Z</time>
      </trkpt>
      <trkpt lat="37.522869" lon="-5.978248">
        <ele>31.55</ele>
        <time>2021-08-28T07:12:01Z</time>
      </trkpt>
      <trkpt lat="37.523063" lon="-5.978173">
        <ele>31.56</ele>
        <time>2021-08-28T07:12:06Z</time>
      </trkpt>
      <trkpt lat="37.523259" lon="-5.978103">
        <ele>31.74</ele>
        <time>2021-08-28T07:12:11Z</time>
      </trkpt>
      <trkpt lat="37.523452" lon="-5.978038">
        <ele>31.53</ele>
        <time>2021-08-28T07:12:16Z</time>
      </trkpt>
      <trkpt lat="37.523648" lon="-5.977995">
        <ele>30.93</ele>
        <time>2021-08-28T07:12:21Z</time>
      </trkpt>
      <trkpt lat="37.523850" lon="-5.977934">
        <ele>29.28</ele>
        <time>2021-08-28T07:12:26Z</time>
      </trkpt>
      <trkpt lat="37.524040" lon="-5.977822">
        <ele>30.42</ele>
        <time>2021-08-28T07:12:31Z</time>
      </trkpt>
      <trkpt lat="37.524243" lon="-5.977870">
        <ele>30.94</ele>
        <time>2021-08-28T07:12:36Z</time>
      </trkpt>
      <trkpt lat="37.524451" lon="-5.977908">
        <ele>31.59</ele>
        <time>2021-08-28T07:12:41Z</time>
      </trkpt>
      <trkpt lat="37.524653" lon="-5.977959">
        <ele>32.59</ele>
        <time>2021-08-28T07:12:46Z</time>
      </trkpt>
      <trkpt lat="37.524847" lon="-5.978042">
        <ele>33.34</ele>
        <time>2021-08-28T07:12:51Z</time>
      </trkpt>
      <trkpt lat="37.525040" lon="-5.978109">
        <ele>34.75</ele>
        <time>2021-08-28T07:12:56Z</time>
      </trkpt>
      <trkpt lat="37.525245" lon="-5.978090">
        <ele>34.99</ele>
        <time>2021-08-28T07:13:02Z</time>
      </trkpt>
      <trkpt lat="37.525408" lon="-5.977956">
        <ele>34.65</ele>
        <time>2021-08-28T07:13:07Z</time>
      </trkpt>
      <trkpt lat="37.525528" lon="-5.977784">
        <ele>34.27</ele>
        <time>2021-08-28T07:13:11Z</time>
      </trkpt>
      <trkpt lat="37.525646" lon="-5.977587">
        <ele>34.60</ele>
        <time>2021-08-28T07:13:16Z</time>
      </trkpt>
      <trkpt lat="37.525758" lon="-5.977387">
        <ele>35.36</ele>
        <time>2021-08-28T07:13:22Z</time>
      </trkpt>
      <trkpt lat="37.525931" lon="-5.977260">
        <ele>36.00</ele>
        <time>2021-08-28T07:13:32Z</time>
      </trkpt>
      <trkpt lat="37.526133" lon="-5.977336">
        <ele>35.47</ele>
        <time>2021-08-28T07:13:38Z</time>
      </trkpt>
      <trkpt lat="37.526259" lon="-5.977515">
        <ele>35.47</ele>
        <time>2021-08-28T07:13:43Z</time>
      </trkpt>
      <trkpt lat="37.526425" lon="-5.977680">
        <ele>36.05</ele>
        <time>2021-08-28T07:13:49Z</time>
      </trkpt>
      <trkpt lat="37.526596" lon="-5.977754">
        <ele>37.05</ele>
        <time>2021-08-28T07:13:54Z</time>
      </trkpt>
      <trkpt lat="37.526777" lon="-5.977767">
        <ele>37.80</ele>
        <time>2021-08-28T07:13:59Z</time>
      </trkpt>
      <trkpt lat="37.526966" lon="-5.977765">
        <ele>39.45</ele>
        <time>2021-08-28T07:14:04Z</time>
      </trkpt>
      <trkpt lat="37.527158" lon="-5.977756">
        <ele>40.24</ele>
        <time>2021-08-28T07:14:09Z</time>
      </trkpt>
      <trkpt lat="37.527348" lon="-5.977750">
        <ele>41.03</ele>
        <time>2021-08-28T07:14:14Z</time>
      </trkpt>
      <trkpt lat="37.527539" lon="-5.977743">
        <ele>42.00</ele>
        <time>2021-08-28T07:14:19Z</time>
      </trkpt>
      <trkpt lat="37.527753" lon="-5.977736">
        <ele>43.02</ele>
        <time>2021-08-28T07:14:25Z</time>
      </trkpt>
      <trkpt lat="37.527950" lon="-5.977724">
        <ele>43.64</ele>
        <time>2021-08-28T07:14:31Z</time>
      </trkpt>
      <trkpt lat="37.528137" lon="-5.977713">
        <ele>44.11</ele>
        <time>2021-08-28T07:14:37Z</time>
      </trkpt>
      <trkpt lat="37.528270" lon="-5.977718">
        <ele>43.78</ele>
        <time>2021-08-28T07:15:05Z</time>
      </trkpt>
      <trkpt lat="37.528407" lon="-5.977882">
        <ele>42.34</ele>
        <time>2021-08-28T07:15:15Z</time>
      </trkpt>
      <trkpt lat="37.528607" lon="-5.977898">
        <ele>43.12</ele>
        <time>2021-08-28T07:15:24Z</time>
      </trkpt>
      <trkpt lat="37.528798" lon="-5.977870">
        <ele>43.22</ele>
        <time>2021-08-28T07:15:33Z</time>
      </trkpt>
      <trkpt lat="37.528981" lon="-5.977893">
        <ele>42.57</ele>
        <time>2021-08-28T07:15:47Z</time>
      </trkpt>
      <trkpt lat="37.529049" lon="-5.977899">
        <ele>41.23</ele>
        <time>2021-08-28T07:16:30Z</time>
      </trkpt>
      <trkpt lat="37.529250" lon="-5.977937">
        <ele>40.77</ele>
        <time>2021-08-28T07:16:38Z</time>
      </trkpt>
      <trkpt lat="37.529429" lon="-5.977973">
        <ele>39.87</ele>
        <time>2021-08-28T07:16:43Z</time>
      </trkpt>
      <trkpt lat="37.529628" lon="-5.978029">
        <ele>39.66</ele>
        <time>2021-08-28T07:16:48Z</time>
      </trkpt>
      <trkpt lat="37.529836" lon="-5.978089">
        <ele>39.11</ele>
        <time>2021-08-28T07:16:53Z</time>
      </trkpt>
      <trkpt lat="37.530048" lon="-5.978165">
        <ele>38.86</ele>
        <time>2021-08-28T07:16:58Z</time>
      </trkpt>
      <trkpt lat="37.530250" lon="-5.978246">
        <ele>38.98</ele>
        <time>2021-08-28T07:17:03Z</time>
      </trkpt>
      <trkpt lat="37.530453" lon="-5.978336">
        <ele>39.00</ele>
        <time>2021-08-28T07:17:08Z</time>
      </trkpt>
      <trkpt lat="37.530634" lon="-5.978400">
        <ele>38.74</ele>
        <time>2021-08-28T07:17:12Z</time>
      </trkpt>
      <trkpt lat="37.530809" lon="-5.978467">
        <ele>38.80</ele>
        <time>2021-08-28T07:17:16Z</time>
      </trkpt>
      <trkpt lat="37.531020" lon="-5.978553">
        <ele>38.39</ele>
        <time>2021-08-28T07:17:21Z</time>
      </trkpt>
      <trkpt lat="37.531233" lon="-5.978640">
        <ele>37.91</ele>
        <time>2021-08-28T07:17:26Z</time>
      </trkpt>
      <trkpt lat="37.531409" lon="-5.978712">
        <ele>37.27</ele>
        <time>2021-08-28T07:17:30Z</time>
      </trkpt>
      <trkpt lat="37.531592" lon="-5.978763">
        <ele>36.44</ele>
        <time>2021-08-28T07:17:36Z</time>
      </trkpt>
      <trkpt lat="37.531692" lon="-5.978815">
        <ele>36.11</ele>
        <time>2021-08-28T07:18:15Z</time>
      </trkpt>
      <trkpt lat="37.531709" lon="-5.978811">
        <ele>36.58</ele>
        <time>2021-08-28T07:19:44Z</time>
      </trkpt>
      <trkpt lat="37.531907" lon="-5.978840">
        <ele>35.61</ele>
        <time>2021-08-28T07:19:52Z</time>
      </trkpt>
      <trkpt lat="37.532115" lon="-5.978873">
        <ele>34.51</ele>
        <time>2021-08-28T07:19:58Z</time>
      </trkpt>
      <trkpt lat="37.532301" lon="-5.978905">
        <ele>33.22</ele>
        <time>2021-08-28T07:20:03Z</time>
      </trkpt>
      <trkpt lat="37.532500" lon="-5.978928">
        <ele>32.74</ele>
        <time>2021-08-28T07:20:08Z</time>
      </trkpt>
      <trkpt lat="37.532692" lon="-5.978949">
        <ele>32.45</ele>
        <time>2021-08-28T07:20:13Z</time>
      </trkpt>
      <trkpt lat="37.532887" lon="-5.978977">
        <ele>31.78</ele>
        <time>2021-08-28T07:20:18Z</time>
      </trkpt>
      <trkpt lat="37.533091" lon="-5.979004">
        <ele>31.21</ele>
        <time>2021-08-28T07:20:23Z</time>
      </trkpt>
      <trkpt lat="37.533316" lon="-5.979028">
        <ele>30.31</ele>
        <time>2021-08-28T07:20:28Z</time>
      </trkpt>
      <trkpt lat="37.533522" lon="-5.979069">
        <ele>30.61</ele>
        <time>2021-08-28T07:20:33Z</time>
      </trkpt>
      <trkpt lat="37.533728" lon="-5.979113">
        <ele>31.31</ele>
        <time>2021-08-28T07:20:38Z</time>
      </trkpt>
      <trkpt lat="37.533930" lon="-5.979156">
        <ele>31.11</ele>
        <time>2021-08-28T07:20:43Z</time>
      </trkpt>
      <trkpt lat="37.534150" lon="-5.979187">
        <ele>30.53</ele>
        <time>2021-08-28T07:20:48Z</time>
      </trkpt>
      <trkpt lat="37.534332" lon="-5.979221">
        <ele>30.15</ele>
        <time>2021-08-28T07:20:52Z</time>
      </trkpt>
      <trkpt lat="37.534521" lon="-5.979257">
        <ele>30.19</ele>
        <time>2021-08-28T07:20:56Z</time>
      </trkpt>
      <trkpt lat="37.534744" lon="-5.979296">
        <ele>29.65</ele>
        <time>2021-08-28T07:21:01Z</time>
      </trkpt>
      <trkpt lat="37.534943" lon="-5.979347">
        <ele>29.39</ele>
        <time>2021-08-28T07:21:05Z</time>
      </trkpt>
      <trkpt lat="37.535147" lon="-5.979403">
        <ele>29.19</ele>
        <time>2021-08-28T07:21:09Z</time>
      </trkpt>
      <trkpt lat="37.535327" lon="-5.979451">
        <ele>28.27</ele>
        <time>2021-08-28T07:21:13Z</time>
      </trkpt>
      <trkpt lat="37.535519" lon="-5.979490">
        <ele>27.67</ele>
        <time>2021-08-28T07:21:17Z</time>
      </trkpt>
      <trkpt lat="37.535738" lon="-5.979519">
        <ele>27.14</ele>
        <time>2021-08-28T07:21:22Z</time>
      </trkpt>
      <trkpt lat="37.535950" lon="-5.979554">
        <ele>27.07</ele>
        <time>2021-08-28T07:21:27Z</time>
      </trkpt>
      <trkpt lat="37.536130" lon="-5.979573">
        <ele>26.61</ele>
        <time>2021-08-28T07:21:31Z</time>
      </trkpt>
      <trkpt lat="37.536313" lon="-5.979591">
        <ele>27.42</ele>
        <time>2021-08-28T07:21:35Z</time>
      </trkpt>
      <trkpt lat="37.536493" lon="-5.979612">
        <ele>27.96</ele>
        <time>2021-08-28T07:21:39Z</time>
      </trkpt>
      <trkpt lat="37.536713" lon="-5.979650">
        <ele>28.18</ele>
        <time>2021-08-28T07:21:44Z</time>
      </trkpt>
      <trkpt lat="37.536935" lon="-5.979677">
        <ele>27.46</ele>
        <time>2021-08-28T07:21:49Z</time>
      </trkpt>
      <trkpt lat="37.537156" lon="-5.979713">
        <ele>27.02</ele>
        <time>2021-08-28T07:21:54Z</time>
      </trkpt>
      <trkpt lat="37.537335" lon="-5.979747">
        <ele>25.86</ele>
        <time>2021-08-28T07:21:58Z</time>
      </trkpt>
      <trkpt lat="37.537522" lon="-5.979848">
        <ele>25.76</ele>
        <time>2021-08-28T07:22:03Z</time>
      </trkpt>
      <trkpt lat="37.537693" lon="-5.979978">
        <ele>26.55</ele>
        <time>2021-08-28T07:22:08Z</time>
      </trkpt>
      <trkpt lat="37.537899" lon="-5.980001">
        <ele>27.29</ele>
        <time>2021-08-28T07:22:13Z</time>
      </trkpt>
      <trkpt lat="37.538080" lon="-5.980014">
        <ele>27.17</ele>
        <time>2021-08-28T07:22:17Z</time>
      </trkpt>
      <trkpt lat="37.538268" lon="-5.980033">
        <ele>27.13</ele>
        <time>2021-08-28T07:22:21Z</time>
      </trkpt>
      <trkpt lat="37.538449" lon="-5.980054">
        <ele>28.20</ele>
        <time>2021-08-28T07:22:25Z</time>
      </trkpt>
      <trkpt lat="37.538643" lon="-5.980077">
        <ele>28.53</ele>
        <time>2021-08-28T07:22:29Z</time>
      </trkpt>
      <trkpt lat="37.538832" lon="-5.980099">
        <ele>29.66</ele>
        <time>2021-08-28T07:22:33Z</time>
      </trkpt>
      <trkpt lat="37.539022" lon="-5.980126">
        <ele>29.63</ele>
        <time>2021-08-28T07:22:37Z</time>
      </trkpt>
      <trkpt lat="37.539211" lon="-5.980153">
        <ele>29.64</ele>
        <time>2021-08-28T07:22:41Z</time>
      </trkpt>
      <trkpt lat="37.539400" lon="-5.980196">
        <ele>29.26</ele>
        <time>2021-08-28T07:22:45Z</time>
      </trkpt>
      <trkpt lat="37.539595" lon="-5.980227">
        <ele>29.56</ele>
        <time>2021-08-28T07:22:49Z</time>
      </trkpt>
      <trkpt lat="37.539777" lon="-5.980263">
        <ele>29.61</ele>
        <time>2021-08-28T07:22:53Z</time>
      </trkpt>
      <trkpt lat="37.539960" lon="-5.980301">
        <ele>29.79</ele>
        <time>2021-08-28T07:22:57Z</time>
      </trkpt>
      <trkpt lat="37.540145" lon="-5.980358">
        <ele>30.42</ele>
        <time>2021-08-28T07:23:01Z</time>
      </trkpt>
      <trkpt lat="37.540330" lon="-5.980407">
        <ele>30.73</ele>
        <time>2021-08-28T07:23:05Z</time>
      </trkpt>
      <trkpt lat="37.540508" lon="-5.980462">
        <ele>31.28</ele>
        <time>2021-08-28T07:23:09Z</time>
      </trkpt>
      <trkpt lat="37.540713" lon="-5.980540">
        <ele>32.18</ele>
        <time>2021-08-28T07:23:14Z</time>
      </trkpt>
      <trkpt lat="37.540916" lon="-5.980616">
        <ele>31.71</ele>
        <time>2021-08-28T07:23:19Z</time>
      </trkpt>
      <trkpt lat="37.541123" lon="-5.980693">
        <ele>31.78</ele>
        <time>2021-08-28T07:23:24Z</time>
      </trkpt>
      <trkpt lat="37.541335" lon="-5.980774">
        <ele>31.71</ele>
        <time>2021-08-28T07:23:29Z</time>
      </trkpt>
      <trkpt lat="37.541518" lon="-5.980839">
        <ele>30.97</ele>
        <time>2021-08-28T07:23:33Z</time>
      </trkpt>
      <trkpt lat="37.541709" lon="-5.980900">
        <ele>30.99</ele>
        <time>2021-08-28T07:23:37Z</time>
      </trkpt>
      <trkpt lat="37.541896" lon="-5.980952">
        <ele>30.91</ele>
        <time>2021-08-28T07:23:41Z</time>
      </trkpt>
      <trkpt lat="37.542086" lon="-5.980995">
        <ele>31.08</ele>
        <time>2021-08-28T07:23:45Z</time>
      </trkpt>
      <trkpt lat="37.542292" lon="-5.981070">
        <ele>31.94</ele>
        <time>2021-08-28T07:23:50Z</time>
      </trkpt>
      <trkpt lat="37.542511" lon="-5.981134">
        <ele>31.80</ele>
        <time>2021-08-28T07:23:55Z</time>
      </trkpt>
      <trkpt lat="37.542691" lon="-5.981190">
        <ele>32.68</ele>
        <time>2021-08-28T07:23:59Z</time>
      </trkpt>
      <trkpt lat="37.542868" lon="-5.981241">
        <ele>33.16</ele>
        <time>2021-08-28T07:24:03Z</time>
      </trkpt>
      <trkpt lat="37.543086" lon="-5.981303">
        <ele>33.26</ele>
        <time>2021-08-28T07:24:08Z</time>
      </trkpt>
      <trkpt lat="37.543293" lon="-5.981358">
        <ele>33.13</ele>
        <time>2021-08-28T07:24:13Z</time>
      </trkpt>
      <trkpt lat="37.543512" lon="-5.981422">
        <ele>32.58</ele>
        <time>2021-08-28T07:24:18Z</time>
      </trkpt>
      <trkpt lat="37.543721" lon="-5.981494">
        <ele>32.04</ele>
        <time>2021-08-28T07:24:23Z</time>
      </trkpt>
      <trkpt lat="37.543898" lon="-5.981548">
        <ele>32.50</ele>
        <time>2021-08-28T07:24:27Z</time>
      </trkpt>
      <trkpt lat="37.544075" lon="-5.981592">
        <ele>32.98</ele>
        <time>2021-08-28T07:24:31Z</time>
      </trkpt>
      <trkpt lat="37.544260" lon="-5.981640">
        <ele>33.02</ele>
        <time>2021-08-28T07:24:35Z</time>
      </trkpt>
      <trkpt lat="37.544469" lon="-5.981679">
        <ele>32.85</ele>
        <time>2021-08-28T07:24:40Z</time>
      </trkpt>
      <trkpt lat="37.544692" lon="-5.981719">
        <ele>32.81</ele>
        <time>2021-08-28T07:24:45Z</time>
      </trkpt>
      <trkpt lat="37.544911" lon="-5.981762">
        <ele>32.02</ele>
        <time>2021-08-28T07:24:50Z</time>
      </trkpt>
      <trkpt lat="37.545093" lon="-5.981792">
        <ele>32.33</ele>
        <time>2021-08-28T07:24:54Z</time>
      </trkpt>
      <trkpt lat="37.545275" lon="-5.981821">
        <ele>32.71</ele>
        <time>2021-08-28T07:24:58Z</time>
      </trkpt>
      <trkpt lat="37.545461" lon="-5.981861">
        <ele>32.18</ele>
        <time>2021-08-28T07:25:02Z</time>
      </trkpt>
      <trkpt lat="37.545640" lon="-5.981906">
        <ele>32.57</ele>
        <time>2021-08-28T07:25:06Z</time>
      </trkpt>
      <trkpt lat="37.545815" lon="-5.981961">
        <ele>32.95</ele>
        <time>2021-08-28T07:25:10Z</time>
      </trkpt>
      <trkpt lat="37.545993" lon="-5.982022">
        <ele>33.18</ele>
        <time>2021-08-28T07:25:14Z</time>
      </trkpt>
      <trkpt lat="37.546204" lon="-5.982081">
        <ele>33.12</ele>
        <time>2021-08-28T07:25:19Z</time>
      </trkpt>
      <trkpt lat="37.546407" lon="-5.982130">
        <ele>32.85</ele>
        <time>2021-08-28T07:25:24Z</time>
      </trkpt>
      <trkpt lat="37.546612" lon="-5.982166">
        <ele>32.96</ele>
        <time>2021-08-28T07:25:29Z</time>
      </trkpt>
      <trkpt lat="37.546822" lon="-5.982214">
        <ele>33.28</ele>
        <time>2021-08-28T07:25:34Z</time>
      </trkpt>
      <trkpt lat="37.547027" lon="-5.982256">
        <ele>33.86</ele>
        <time>2021-08-28T07:25:39Z</time>
      </trkpt>
      <trkpt lat="37.547225" lon="-5.982299">
        <ele>34.35</ele>
        <time>2021-08-28T07:25:44Z</time>
      </trkpt>
      <trkpt lat="37.547413" lon="-5.982329">
        <ele>34.52</ele>
        <time>2021-08-28T07:25:49Z</time>
      </trkpt>
      <trkpt lat="37.547598" lon="-5.982367">
        <ele>34.07</ele>
        <time>2021-08-28T07:25:54Z</time>
      </trkpt>
      <trkpt lat="37.547797" lon="-5.982405">
        <ele>33.32</ele>
        <time>2021-08-28T07:25:59Z</time>
      </trkpt>
      <trkpt lat="37.547984" lon="-5.982440">
        <ele>33.05</ele>
        <time>2021-08-28T07:26:04Z</time>
      </trkpt>
      <trkpt lat="37.548177" lon="-5.982472">
        <ele>34.32</ele>
        <time>2021-08-28T07:26:09Z</time>
      </trkpt>
      <trkpt lat="37.548382" lon="-5.982510">
        <ele>35.19</ele>
        <time>2021-08-28T07:26:14Z</time>
      </trkpt>
      <trkpt lat="37.548584" lon="-5.982552">
        <ele>35.80</ele>
        <time>2021-08-28T07:26:19Z</time>
      </trkpt>
      <trkpt lat="37.548788" lon="-5.982609">
        <ele>35.63</ele>
        <time>2021-08-28T07:26:24Z</time>
      </trkpt>
      <trkpt lat="37.548992" lon="-5.982660">
        <ele>35.13</ele>
        <time>2021-08-28T07:26:29Z</time>
      </trkpt>
      <trkpt lat="37.549212" lon="-5.982692">
        <ele>35.17</ele>
        <time>2021-08-28T07:26:34Z</time>
      </trkpt>
      <trkpt lat="37.549425" lon="-5.982749">
        <ele>34.89</ele>
        <time>2021-08-28T07:26:39Z</time>
      </trkpt>
      <trkpt lat="37.549616" lon="-5.982833">
        <ele>34.65</ele>
        <time>2021-08-28T07:26:44Z</time>
      </trkpt>
      <trkpt lat="37.549799" lon="-5.982885">
        <ele>35.43</ele>
        <time>2021-08-28T07:26:49Z</time>
      </trkpt>
      <trkpt lat="37.550000" lon="-5.982933">
        <ele>35.04</ele>
        <time>2021-08-28T07:26:55Z</time>
      </trkpt>
      <trkpt lat="37.550175" lon="-5.983026">
        <ele>35.31</ele>
        <time>2021-08-28T07:27:03Z</time>
      </trkpt>
      <trkpt lat="37.550372" lon="-5.983086">
        <ele>34.75</ele>
        <time>2021-08-28T07:27:09Z</time>
      </trkpt>
      <trkpt lat="37.550548" lon="-5.983132">
        <ele>34.72</ele>
        <time>2021-08-28T07:27:14Z</time>
      </trkpt>
      <trkpt lat="37.550735" lon="-5.983198">
        <ele>34.92</ele>
        <time>2021-08-28T07:27:19Z</time>
      </trkpt>
      <trkpt lat="37.550921" lon="-5.983260">
        <ele>35.59</ele>
        <time>2021-08-28T07:27:24Z</time>
      </trkpt>
      <trkpt lat="37.551117" lon="-5.983328">
        <ele>35.95</ele>
        <time>2021-08-28T07:27:30Z</time>
      </trkpt>
      <trkpt lat="37.551324" lon="-5.983396">
        <ele>35.83</ele>
        <time>2021-08-28T07:27:36Z</time>
      </trkpt>
      <trkpt lat="37.551496" lon="-5.983468">
        <ele>35.85</ele>
        <time>2021-08-28T07:27:41Z</time>
      </trkpt>
      <trkpt lat="37.551676" lon="-5.983551">
        <ele>35.59</ele>
        <time>2021-08-28T07:27:46Z</time>
      </trkpt>
      <trkpt lat="37.551868" lon="-5.983616">
        <ele>35.33</ele>
        <time>2021-08-28T07:27:51Z</time>
      </trkpt>
      <trkpt lat="37.552054" lon="-5.983657">
        <ele>35.13</ele>
        <time>2021-08-28T07:27:56Z</time>
      </trkpt>
      <trkpt lat="37.552256" lon="-5.983725">
        <ele>33.58</ele>
        <time>2021-08-28T07:28:01Z</time>
      </trkpt>
      <trkpt lat="37.552447" lon="-5.983777">
        <ele>33.07</ele>
        <time>2021-08-28T07:28:05Z</time>
      </trkpt>
      <trkpt lat="37.552641" lon="-5.983805">
        <ele>32.27</ele>
        <time>2021-08-28T07:28:09Z</time>
      </trkpt>
      <trkpt lat="37.552822" lon="-5.983832">
        <ele>32.62</ele>
        <time>2021-08-28T07:28:13Z</time>
      </trkpt>
      <trkpt lat="37.553045" lon="-5.983841">
        <ele>32.07</ele>
        <time>2021-08-28T07:28:18Z</time>
      </trkpt>
      <trkpt lat="37.553231" lon="-5.983845">
        <ele>32.38</ele>
        <time>2021-08-28T07:28:22Z</time>
      </trkpt>
      <trkpt lat="37.553451" lon="-5.983861">
        <ele>31.89</ele>
        <time>2021-08-28T07:28:27Z</time>
      </trkpt>
      <trkpt lat="37.553669" lon="-5.983904">
        <ele>32.97</ele>
        <time>2021-08-28T07:28:32Z</time>
      </trkpt>
      <trkpt lat="37.553887" lon="-5.983943">
        <ele>33.36</ele>
        <time>2021-08-28T07:28:37Z</time>
      </trkpt>
      <trkpt lat="37.554098" lon="-5.983982">
        <ele>33.60</ele>
        <time>2021-08-28T07:28:42Z</time>
      </trkpt>
      <trkpt lat="37.554311" lon="-5.984018">
        <ele>34.38</ele>
        <time>2021-08-28T07:28:47Z</time>
      </trkpt>
      <trkpt lat="37.554526" lon="-5.984052">
        <ele>34.97</ele>
        <time>2021-08-28T07:28:52Z</time>
      </trkpt>
      <trkpt lat="37.554730" lon="-5.984089">
        <ele>36.12</ele>
        <time>2021-08-28T07:28:57Z</time>
      </trkpt>
      <trkpt lat="37.554938" lon="-5.984124">
        <ele>36.64</ele>
        <time>2021-08-28T07:29:02Z</time>
      </trkpt>
      <trkpt lat="37.555143" lon="-5.984159">
        <ele>37.45</ele>
        <time>2021-08-28T07:29:07Z</time>
      </trkpt>
      <trkpt lat="37.555346" lon="-5.984189">
        <ele>38.28</ele>
        <time>2021-08-28T07:29:12Z</time>
      </trkpt>
      <trkpt lat="37.555535" lon="-5.984211">
        <ele>38.67</ele>
        <time>2021-08-28T07:29:17Z</time>
      </trkpt>
      <trkpt lat="37.555729" lon="-5.984222">
        <ele>39.63</ele>
        <time>2021-08-28T07:29:23Z</time>
      </trkpt>
      <trkpt lat="37.555922" lon="-5.984248">
        <ele>39.55</ele>
        <time>2021-08-28T07:29:29Z</time>
      </trkpt>
      <trkpt lat="37.556112" lon="-5.984289">
        <ele>39.48</ele>
        <time>2021-08-28T07:29:35Z</time>
      </trkpt>
      <trkpt lat="37.556291" lon="-5.984317">
        <ele>40.13</ele>
        <time>2021-08-28T07:29:40Z</time>
      </trkpt>
      <trkpt lat="37.556472" lon="-5.984327">
        <ele>40.47</ele>
        <time>2021-08-28T07:29:45Z</time>
      </trkpt>
      <trkpt lat="37.556675" lon="-5.984339">
        <ele>40.99</ele>
        <time>2021-08-28T07:29:51Z</time>
      </trkpt>
      <trkpt lat="37.556863" lon="-5.984344">
        <ele>40.92</ele>
        <time>2021-08-28T07:29:57Z</time>
      </trkpt>
      <trkpt lat="37.557080" lon="-5.984355">
        <ele>40.80</ele>
        <time>2021-08-28T07:30:03Z</time>
      </trkpt>
      <trkpt lat="37.557258" lon="-5.984382">
        <ele>41.12</ele>
        <time>2021-08-28T07:30:08Z</time>
      </trkpt>
      <trkpt lat="37.557438" lon="-5.984425">
        <ele>41.08</ele>
        <time>2021-08-28T07:30:13Z</time>
      </trkpt>
      <trkpt lat="37.557623" lon="-5.984488">
        <ele>41.60</ele>
        <time>2021-08-28T07:30:18Z</time>
      </trkpt>
      <trkpt lat="37.557802" lon="-5.984549">
        <ele>41.32</ele>
        <time>2021-08-28T07:30:23Z</time>
      </trkpt>
      <trkpt lat="37.557991" lon="-5.984611">
        <ele>41.50</ele>
        <time>2021-08-28T07:30:28Z</time>
      </trkpt>
      <trkpt lat="37.558172" lon="-5.984673">
        <ele>42.04</ele>
        <time>2021-08-28T07:30:33Z</time>
      </trkpt>
      <trkpt lat="37.558363" lon="-5.984733">
        <ele>41.98</ele>
        <time>2021-08-28T07:30:38Z</time>
      </trkpt>
      <trkpt lat="37.558555" lon="-5.984802">
        <ele>42.17</ele>
        <time>2021-08-28T07:30:43Z</time>
      </trkpt>
      <trkpt lat="37.558752" lon="-5.984868">
        <ele>43.18</ele>
        <time>2021-08-28T07:30:48Z</time>
      </trkpt>
      <trkpt lat="37.558939" lon="-5.984933">
        <ele>43.08</ele>
        <time>2021-08-28T07:30:53Z</time>
      </trkpt>
      <trkpt lat="37.559127" lon="-5.984996">
        <ele>42.73</ele>
        <time>2021-08-28T07:30:58Z</time>
      </trkpt>
      <trkpt lat="37.559303" lon="-5.985063">
        <ele>42.56</ele>
        <time>2021-08-28T07:31:03Z</time>
      </trkpt>
      <trkpt lat="37.559476" lon="-5.985144">
        <ele>42.64</ele>
        <time>2021-08-28T07:31:08Z</time>
      </trkpt>
      <trkpt lat="37.559643" lon="-5.985252">
        <ele>43.36</ele>
        <time>2021-08-28T07:31:13Z</time>
      </trkpt>
      <trkpt lat="37.559802" lon="-5.985401">
        <ele>42.61</ele>
        <time>2021-08-28T07:31:18Z</time>
      </trkpt>
      <trkpt lat="37.559972" lon="-5.985558">
        <ele>42.08</ele>
        <time>2021-08-28T07:31:23Z</time>
      </trkpt>
      <trkpt lat="37.560172" lon="-5.985659">
        <ele>42.36</ele>
        <time>2021-08-28T07:31:28Z</time>
      </trkpt>
      <trkpt lat="37.560366" lon="-5.985745">
        <ele>42.61</ele>
        <time>2021-08-28T07:31:33Z</time>
      </trkpt>
      <trkpt lat="37.560559" lon="-5.985844">
        <ele>42.16</ele>
        <time>2021-08-28T07:31:38Z</time>
      </trkpt>
      <trkpt lat="37.560759" lon="-5.985937">
        <ele>43.40</ele>
        <time>2021-08-28T07:31:43Z</time>
      </trkpt>
      <trkpt lat="37.560955" lon="-5.986030">
        <ele>43.46</ele>
        <time>2021-08-28T07:31:48Z</time>
      </trkpt>
      <trkpt lat="37.561142" lon="-5.986116">
        <ele>43.69</ele>
        <time>2021-08-28T07:31:53Z</time>
      </trkpt>
      <trkpt lat="37.561317" lon="-5.986200">
        <ele>44.43</ele>
        <time>2021-08-28T07:31:58Z</time>
      </trkpt>
      <trkpt lat="37.561499" lon="-5.986266">
        <ele>44.56</ele>
        <time>2021-08-28T07:32:03Z</time>
      </trkpt>
      <trkpt lat="37.561704" lon="-5.986296">
        <ele>43.69</ele>
        <time>2021-08-28T07:32:08Z</time>
      </trkpt>
      <trkpt lat="37.561901" lon="-5.986293">
        <ele>43.24</ele>
        <time>2021-08-28T07:32:13Z</time>
      </trkpt>
      <trkpt lat="37.562103" lon="-5.986262">
        <ele>42.56</ele>
        <time>2021-08-28T07:32:18Z</time>
      </trkpt>
      <trkpt lat="37.562307" lon="-5.986232">
        <ele>42.85</ele>
        <time>2021-08-28T07:32:23Z</time>
      </trkpt>
      <trkpt lat="37.562507" lon="-5.986228">
        <ele>42.31</ele>
        <time>2021-08-28T07:32:28Z</time>
      </trkpt>
      <trkpt lat="37.562703" lon="-5.986229">
        <ele>41.83</ele>
        <time>2021-08-28T07:32:33Z</time>
      </trkpt>
      <trkpt lat="37.562916" lon="-5.986259">
        <ele>41.84</ele>
        <time>2021-08-28T07:32:38Z</time>
      </trkpt>
      <trkpt lat="37.563111" lon="-5.986310">
        <ele>41.62</ele>
        <time>2021-08-28T07:32:43Z</time>
      </trkpt>
      <trkpt lat="37.563310" lon="-5.986367">
        <ele>41.98</ele>
        <time>2021-08-28T07:32:48Z</time>
      </trkpt>
      <trkpt lat="37.563508" lon="-5.986423">
        <ele>42.20</ele>
        <time>2021-08-28T07:32:53Z</time>
      </trkpt>
      <trkpt lat="37.563703" lon="-5.986482">
        <ele>41.93</ele>
        <time>2021-08-28T07:32:58Z</time>
      </trkpt>
      <trkpt lat="37.563901" lon="-5.986554">
        <ele>42.75</ele>
        <time>2021-08-28T07:33:03Z</time>
      </trkpt>
      <trkpt lat="37.564103" lon="-5.986632">
        <ele>43.01</ele>
        <time>2021-08-28T07:33:08Z</time>
      </trkpt>
      <trkpt lat="37.564298" lon="-5.986704">
        <ele>43.13</ele>
        <time>2021-08-28T07:33:13Z</time>
      </trkpt>
      <trkpt lat="37.564490" lon="-5.986771">
        <ele>43.12</ele>
        <time>2021-08-28T07:33:18Z</time>
      </trkpt>
      <trkpt lat="37.564690" lon="-5.986841">
        <ele>44.00</ele>
        <time>2021-08-28T07:33:23Z</time>
      </trkpt>
      <trkpt lat="37.564891" lon="-5.986910">
        <ele>44.07</ele>
        <time>2021-08-28T07:33:28Z</time>
      </trkpt>
      <trkpt lat="37.565092" lon="-5.986978">
        <ele>44.86</ele>
        <time>2021-08-28T07:33:33Z</time>
      </trkpt>
      <trkpt lat="37.565295" lon="-5.987043">
        <ele>44.61</ele>
        <time>2021-08-28T07:33:38Z</time>
      </trkpt>
      <trkpt lat="37.565492" lon="-5.987111">
        <ele>44.51</ele>
        <time>2021-08-28T07:33:43Z</time>
      </trkpt>
      <trkpt lat="37.565686" lon="-5.987178">
        <ele>44.76</ele>
        <time>2021-08-28T07:33:48Z</time>
      </trkpt>
      <trkpt lat="37.565879" lon="-5.987242">
        <ele>44.94</ele>
        <time>2021-08-28T07:33:53Z</time>
      </trkpt>
      <trkpt lat="37.566069" lon="-5.987285">
        <ele>45.00</ele>
        <time>2021-08-28T07:33:58Z</time>
      </trkpt>
      <trkpt lat="37.566246" lon="-5.987346">
        <ele>45.86</ele>
        <time>2021-08-28T07:34:03Z</time>
      </trkpt>
      <trkpt lat="37.566423" lon="-5.987406">
        <ele>45.83</ele>
        <time>2021-08-28T07:34:09Z</time>
      </trkpt>
      <trkpt lat="37.566620" lon="-5.987465">
        <ele>45.65</ele>
        <time>2021-08-28T07:34:15Z</time>
      </trkpt>
      <trkpt lat="37.566824" lon="-5.987514">
        <ele>46.12</ele>
        <time>2021-08-28T07:34:21Z</time>
      </trkpt>
      <trkpt lat="37.567022" lon="-5.987546">
        <ele>45.99</ele>
        <time>2021-08-28T07:34:27Z</time>
      </trkpt>
      <trkpt lat="37.567230" lon="-5.987602">
        <ele>46.68</ele>
        <time>2021-08-28T07:34:33Z</time>
      </trkpt>
      <trkpt lat="37.567433" lon="-5.987672">
        <ele>46.91</ele>
        <time>2021-08-28T07:34:39Z</time>
      </trkpt>
      <trkpt lat="37.567625" lon="-5.987753">
        <ele>48.80</ele>
        <time>2021-08-28T07:34:45Z</time>
      </trkpt>
      <trkpt lat="37.567799" lon="-5.987838">
        <ele>49.93</ele>
        <time>2021-08-28T07:34:51Z</time>
      </trkpt>
      <trkpt lat="37.567995" lon="-5.987861">
        <ele>51.48</ele>
        <time>2021-08-28T07:34:58Z</time>
      </trkpt>
      <trkpt lat="37.568177" lon="-5.987788">
        <ele>50.02</ele>
        <time>2021-08-28T07:35:05Z</time>
      </trkpt>
      <trkpt lat="37.568321" lon="-5.987937">
        <ele>49.52</ele>
        <time>2021-08-28T07:35:12Z</time>
      </trkpt>
      <trkpt lat="37.568461" lon="-5.988100">
        <ele>49.72</ele>
        <time>2021-08-28T07:35:18Z</time>
      </trkpt>
      <trkpt lat="37.568628" lon="-5.988251">
        <ele>49.11</ele>
        <time>2021-08-28T07:35:24Z</time>
      </trkpt>
      <trkpt lat="37.568803" lon="-5.988399">
        <ele>50.09</ele>
        <time>2021-08-28T07:35:30Z</time>
      </trkpt>
      <trkpt lat="37.568988" lon="-5.988526">
        <ele>50.36</ele>
        <time>2021-08-28T07:35:36Z</time>
      </trkpt>
      <trkpt lat="37.569149" lon="-5.988638">
        <ele>50.42</ele>
        <time>2021-08-28T07:35:41Z</time>
      </trkpt>
      <trkpt lat="37.569336" lon="-5.988770">
        <ele>51.14</ele>
        <time>2021-08-28T07:35:47Z</time>
      </trkpt>
      <trkpt lat="37.569488" lon="-5.988895">
        <ele>51.10</ele>
        <time>2021-08-28T07:35:52Z</time>
      </trkpt>
      <trkpt lat="37.569639" lon="-5.989020">
        <ele>51.35</ele>
        <time>2021-08-28T07:35:57Z</time>
      </trkpt>
      <trkpt lat="37.569808" lon="-5.989143">
        <ele>51.46</ele>
        <time>2021-08-28T07:36:03Z</time>
      </trkpt>
      <trkpt lat="37.569989" lon="-5.989242">
        <ele>51.03</ele>
        <time>2021-08-28T07:36:09Z</time>
      </trkpt>
      <trkpt lat="37.570168" lon="-5.989305">
        <ele>50.35</ele>
        <time>2021-08-28T07:36:14Z</time>
      </trkpt>
      <trkpt lat="37.570352" lon="-5.989386">
        <ele>50.52</ele>
        <time>2021-08-28T07:36:19Z</time>
      </trkpt>
      <trkpt lat="37.570509" lon="-5.989536">
        <ele>50.37</ele>
        <time>2021-08-28T07:36:24Z</time>
      </trkpt>
      <trkpt lat="37.570655" lon="-5.989709">
        <ele>50.37</ele>
        <time>2021-08-28T07:36:29Z</time>
      </trkpt>
      <trkpt lat="37.570799" lon="-5.989864">
        <ele>50.82</ele>
        <time>2021-08-28T07:36:34Z</time>
      </trkpt>
      <trkpt lat="37.570967" lon="-5.989972">
        <ele>51.49</ele>
        <time>2021-08-28T07:36:39Z</time>
      </trkpt>
      <trkpt lat="37.571147" lon="-5.990049">
        <ele>51.74</ele>
        <time>2021-08-28T07:36:44Z</time>
      </trkpt>
      <trkpt lat="37.571320" lon="-5.990128">
        <ele>51.85</ele>
        <time>2021-08-28T07:36:49Z</time>
      </trkpt>
      <trkpt lat="37.571491" lon="-5.990209">
        <ele>51.46</ele>
        <time>2021-08-28T07:36:54Z</time>
      </trkpt>
      <trkpt lat="37.571669" lon="-5.990285">
        <ele>51.12</ele>
        <time>2021-08-28T07:36:59Z</time>
      </trkpt>
      <trkpt lat="37.571842" lon="-5.990373">
        <ele>50.94</ele>
        <time>2021-08-28T07:37:04Z</time>
      </trkpt>
      <trkpt lat="37.572016" lon="-5.990462">
        <ele>50.73</ele>
        <time>2021-08-28T07:37:09Z</time>
      </trkpt>
      <trkpt lat="37.572209" lon="-5.990569">
        <ele>50.36</ele>
        <time>2021-08-28T07:37:15Z</time>
      </trkpt>
      <trkpt lat="37.572381" lon="-5.990657">
        <ele>50.21</ele>
        <time>2021-08-28T07:37:21Z</time>
      </trkpt>
      <trkpt lat="37.572562" lon="-5.990754">
        <ele>49.70</ele>
        <time>2021-08-28T07:37:28Z</time>
      </trkpt>
      <trkpt lat="37.572742" lon="-5.990846">
        <ele>49.66</ele>
        <time>2021-08-28T07:37:35Z</time>
      </trkpt>
      <trkpt lat="37.572885" lon="-5.990708">
        <ele>50.53</ele>
        <time>2021-08-28T07:38:06Z</time>
      </trkpt>
      <trkpt lat="37.572866" lon="-5.990481">
        <ele>50.52</ele>
        <time>2021-08-28T07:38:12Z</time>
      </trkpt>
      <trkpt lat="37.572844" lon="-5.990222">
        <ele>50.62</ele>
        <time>2021-08-28T07:38:18Z</time>
      </trkpt>
      <trkpt lat="37.572823" lon="-5.989960">
        <ele>51.52</ele>
        <time>2021-08-28T07:38:25Z</time>
      </trkpt>
      <trkpt lat="37.572813" lon="-5.989724">
        <ele>52.71</ele>
        <time>2021-08-28T07:38:31Z</time>
      </trkpt>
      <trkpt lat="37.572811" lon="-5.989468">
        <ele>53.24</ele>
        <time>2021-08-28T07:38:37Z</time>
      </trkpt>
      <trkpt lat="37.572818" lon="-5.989203">
        <ele>54.35</ele>
        <time>2021-08-28T07:38:43Z</time>
      </trkpt>
      <trkpt lat="37.572845" lon="-5.988932">
        <ele>55.66</ele>
        <time>2021-08-28T07:38:49Z</time>
      </trkpt>
      <trkpt lat="37.572876" lon="-5.988707">
        <ele>56.40</ele>
        <time>2021-08-28T07:38:54Z</time>
      </trkpt>
      <trkpt lat="37.572925" lon="-5.988448">
        <ele>56.65</ele>
        <time>2021-08-28T07:39:00Z</time>
      </trkpt>
      <trkpt lat="37.572981" lon="-5.988198">
        <ele>56.93</ele>
        <time>2021-08-28T07:39:06Z</time>
      </trkpt>
      <trkpt lat="37.573027" lon="-5.987956">
        <ele>57.89</ele>
        <time>2021-08-28T07:39:12Z</time>
      </trkpt>
      <trkpt lat="37.573090" lon="-5.987708">
        <ele>58.53</ele>
        <time>2021-08-28T07:39:18Z</time>
      </trkpt>
      <trkpt lat="37.573137" lon="-5.987467">
        <ele>58.67</ele>
        <time>2021-08-28T07:39:24Z</time>
      </trkpt>
      <trkpt lat="37.573190" lon="-5.987236">
        <ele>58.77</ele>
        <time>2021-08-28T07:39:29Z</time>
      </trkpt>
      <trkpt lat="37.573241" lon="-5.986993">
        <ele>58.77</ele>
        <time>2021-08-28T07:39:34Z</time>
      </trkpt>
      <trkpt lat="37.573297" lon="-5.986731">
        <ele>58.66</ele>
        <time>2021-08-28T07:39:39Z</time>
      </trkpt>
      <trkpt lat="37.573355" lon="-5.986476">
        <ele>58.58</ele>
        <time>2021-08-28T07:39:44Z</time>
      </trkpt>
      <trkpt lat="37.573414" lon="-5.986213">
        <ele>58.83</ele>
        <time>2021-08-28T07:39:49Z</time>
      </trkpt>
      <trkpt lat="37.573465" lon="-5.985946">
        <ele>59.31</ele>
        <time>2021-08-28T07:39:54Z</time>
      </trkpt>
      <trkpt lat="37.573513" lon="-5.985690">
        <ele>59.91</ele>
        <time>2021-08-28T07:39:59Z</time>
      </trkpt>
      <trkpt lat="37.573567" lon="-5.985443">
        <ele>60.25</ele>
        <time>2021-08-28T07:40:04Z</time>
      </trkpt>
      <trkpt lat="37.573630" lon="-5.985200">
        <ele>60.41</ele>
        <time>2021-08-28T07:40:09Z</time>
      </trkpt>
      <trkpt lat="37.573704" lon="-5.984942">
        <ele>60.77</ele>
        <time>2021-08-28T07:40:14Z</time>
      </trkpt>
      <trkpt lat="37.573782" lon="-5.984687">
        <ele>60.90</ele>
        <time>2021-08-28T07:40:19Z</time>
      </trkpt>
      <trkpt lat="37.573867" lon="-5.984441">
        <ele>61.63</ele>
        <time>2021-08-28T07:40:24Z</time>
      </trkpt>
      <trkpt lat="37.573953" lon="-5.984193">
        <ele>62.35</ele>
        <time>2021-08-28T07:40:29Z</time>
      </trkpt>
      <trkpt lat="37.574043" lon="-5.983946">
        <ele>62.95</ele>
        <time>2021-08-28T07:40:34Z</time>
      </trkpt>
      <trkpt lat="37.574128" lon="-5.983701">
        <ele>63.64</ele>
        <time>2021-08-28T07:40:39Z</time>
      </trkpt>
      <trkpt lat="37.574214" lon="-5.983445">
        <ele>64.17</ele>
        <time>2021-08-28T07:40:44Z</time>
      </trkpt>
      <trkpt lat="37.574302" lon="-5.983191">
        <ele>63.79</ele>
        <time>2021-08-28T07:40:49Z</time>
      </trkpt>
      <trkpt lat="37.574389" lon="-5.982943">
        <ele>64.00</ele>
        <time>2021-08-28T07:40:54Z</time>
      </trkpt>
      <trkpt lat="37.574462" lon="-5.982732">
        <ele>64.36</ele>
        <time>2021-08-28T07:40:58Z</time>
      </trkpt>
      <trkpt lat="37.574535" lon="-5.982524">
        <ele>64.39</ele>
        <time>2021-08-28T07:41:02Z</time>
      </trkpt>
      <trkpt lat="37.574625" lon="-5.982264">
        <ele>64.39</ele>
        <time>2021-08-28T07:41:07Z</time>
      </trkpt>
      <trkpt lat="37.574697" lon="-5.982045">
        <ele>63.97</ele>
        <time>2021-08-28T07:41:11Z</time>
      </trkpt>
      <trkpt lat="37.574770" lon="-5.981826">
        <ele>63.58</ele>
        <time>2021-08-28T07:41:15Z</time>
      </trkpt>
      <trkpt lat="37.574853" lon="-5.981606">
        <ele>63.15</ele>
        <time>2021-08-28T07:41:19Z</time>
      </trkpt>
      <trkpt lat="37.574931" lon="-5.981400">
        <ele>63.61</ele>
        <time>2021-08-28T07:41:23Z</time>
      </trkpt>
      <trkpt lat="37.574999" lon="-5.981189">
        <ele>64.50</ele>
        <time>2021-08-28T07:41:27Z</time>
      </trkpt>
      <trkpt lat="37.575083" lon="-5.980942">
        <ele>65.35</ele>
        <time>2021-08-28T07:41:32Z</time>
      </trkpt>
      <trkpt lat="37.575169" lon="-5.980694">
        <ele>66.27</ele>
        <time>2021-08-28T07:41:37Z</time>
      </trkpt>
      <trkpt lat="37.575262" lon="-5.980442">
        <ele>66.78</ele>
        <time>2021-08-28T07:41:42Z</time>
      </trkpt>
      <trkpt lat="37.575353" lon="-5.980190">
        <ele>66.93</ele>
        <time>2021-08-28T07:41:47Z</time>
      </trkpt>
      <trkpt lat="37.575438" lon="-5.979944">
        <ele>66.99</ele>
        <time>2021-08-28T07:41:52Z</time>
      </trkpt>
      <trkpt lat="37.575529" lon="-5.979701">
        <ele>67.06</ele>
        <time>2021-08-28T07:41:57Z</time>
      </trkpt>
      <trkpt lat="37.575616" lon="-5.979490">
        <ele>66.08</ele>
        <time>2021-08-28T07:42:01Z</time>
      </trkpt>
      <trkpt lat="37.575710" lon="-5.979261">
        <ele>65.92</ele>
        <time>2021-08-28T07:42:05Z</time>
      </trkpt>
      <trkpt lat="37.575822" lon="-5.979017">
        <ele>65.66</ele>
        <time>2021-08-28T07:42:09Z</time>
      </trkpt>
      <trkpt lat="37.575928" lon="-5.978750">
        <ele>65.72</ele>
        <time>2021-08-28T07:42:13Z</time>
      </trkpt>
      <trkpt lat="37.576021" lon="-5.978547">
        <ele>65.69</ele>
        <time>2021-08-28T07:42:16Z</time>
      </trkpt>
      <trkpt lat="37.576106" lon="-5.978342">
        <ele>65.12</ele>
        <time>2021-08-28T07:42:19Z</time>
      </trkpt>
      <trkpt lat="37.576217" lon="-5.978089">
        <ele>64.55</ele>
        <time>2021-08-28T07:42:23Z</time>
      </trkpt>
      <trkpt lat="37.576321" lon="-5.977837">
        <ele>64.47</ele>
        <time>2021-08-28T07:42:27Z</time>
      </trkpt>
      <trkpt lat="37.576432" lon="-5.977592">
        <ele>63.74</ele>
        <time>2021-08-28T07:42:31Z</time>
      </trkpt>
      <trkpt lat="37.576542" lon="-5.977355">
        <ele>63.94</ele>
        <time>2021-08-28T07:42:35Z</time>
      </trkpt>
      <trkpt lat="37.576658" lon="-5.977132">
        <ele>63.86</ele>
        <time>2021-08-28T07:42:39Z</time>
      </trkpt>
      <trkpt lat="37.576795" lon="-5.976923">
        <ele>64.06</ele>
        <time>2021-08-28T07:42:43Z</time>
      </trkpt>
      <trkpt lat="37.576949" lon="-5.976723">
        <ele>64.33</ele>
        <time>2021-08-28T07:42:47Z</time>
      </trkpt>
      <trkpt lat="37.577106" lon="-5.976531">
        <ele>64.71</ele>
        <time>2021-08-28T07:42:51Z</time>
      </trkpt>
      <trkpt lat="37.577258" lon="-5.976338">
        <ele>65.69</ele>
        <time>2021-08-28T07:42:55Z</time>
      </trkpt>
      <trkpt lat="37.577389" lon="-5.976169">
        <ele>67.31</ele>
        <time>2021-08-28T07:42:59Z</time>
      </trkpt>
      <trkpt lat="37.577548" lon="-5.975973">
        <ele>68.96</ele>
        <time>2021-08-28T07:43:04Z</time>
      </trkpt>
      <trkpt lat="37.577685" lon="-5.975808">
        <ele>69.83</ele>
        <time>2021-08-28T07:43:08Z</time>
      </trkpt>
      <trkpt lat="37.577817" lon="-5.975647">
        <ele>71.33</ele>
        <time>2021-08-28T07:43:12Z</time>
      </trkpt>
      <trkpt lat="37.577947" lon="-5.975479">
        <ele>72.34</ele>
        <time>2021-08-28T07:43:16Z</time>
      </trkpt>
      <trkpt lat="37.578088" lon="-5.975306">
        <ele>72.45</ele>
        <time>2021-08-28T07:43:20Z</time>
      </trkpt>
      <trkpt lat="37.578217" lon="-5.975145">
        <ele>72.64</ele>
        <time>2021-08-28T07:43:24Z</time>
      </trkpt>
      <trkpt lat="37.578364" lon="-5.974947">
        <ele>73.61</ele>
        <time>2021-08-28T07:43:29Z</time>
      </trkpt>
      <trkpt lat="37.578508" lon="-5.974756">
        <ele>75.55</ele>
        <time>2021-08-28T07:43:34Z</time>
      </trkpt>
      <trkpt lat="37.578655" lon="-5.974568">
        <ele>76.88</ele>
        <time>2021-08-28T07:43:39Z</time>
      </trkpt>
      <trkpt lat="37.578779" lon="-5.974399">
        <ele>78.03</ele>
        <time>2021-08-28T07:43:43Z</time>
      </trkpt>
      <trkpt lat="37.578904" lon="-5.974234">
        <ele>79.20</ele>
        <time>2021-08-28T07:43:47Z</time>
      </trkpt>
      <trkpt lat="37.579042" lon="-5.974041">
        <ele>79.86</ele>
        <time>2021-08-28T07:43:52Z</time>
      </trkpt>
      <trkpt lat="37.579186" lon="-5.973882">
        <ele>81.28</ele>
        <time>2021-08-28T07:43:57Z</time>
      </trkpt>
      <trkpt lat="37.579349" lon="-5.973725">
        <ele>82.02</ele>
        <time>2021-08-28T07:44:02Z</time>
      </trkpt>
      <trkpt lat="37.579526" lon="-5.973573">
        <ele>82.08</ele>
        <time>2021-08-28T07:44:07Z</time>
      </trkpt>
      <trkpt lat="37.579722" lon="-5.973439">
        <ele>81.33</ele>
        <time>2021-08-28T07:44:12Z</time>
      </trkpt>
      <trkpt lat="37.579877" lon="-5.973317">
        <ele>81.13</ele>
        <time>2021-08-28T07:44:16Z</time>
      </trkpt>
      <trkpt lat="37.580050" lon="-5.973205">
        <ele>80.16</ele>
        <time>2021-08-28T07:44:20Z</time>
      </trkpt>
      <trkpt lat="37.580237" lon="-5.973077">
        <ele>79.30</ele>
        <time>2021-08-28T07:44:24Z</time>
      </trkpt>
      <trkpt lat="37.580430" lon="-5.972947">
        <ele>78.16</ele>
        <time>2021-08-28T07:44:28Z</time>
      </trkpt>
      <trkpt lat="37.580627" lon="-5.972802">
        <ele>76.88</ele>
        <time>2021-08-28T07:44:32Z</time>
      </trkpt>
      <trkpt lat="37.580799" lon="-5.972695">
        <ele>76.13</ele>
        <time>2021-08-28T07:44:35Z</time>
      </trkpt>
      <trkpt lat="37.580970" lon="-5.972564">
        <ele>74.72</ele>
        <time>2021-08-28T07:44:38Z</time>
      </trkpt>
      <trkpt lat="37.581166" lon="-5.972414">
        <ele>73.80</ele>
        <time>2021-08-28T07:44:41Z</time>
      </trkpt>
      <trkpt lat="37.581370" lon="-5.972260">
        <ele>71.76</ele>
        <time>2021-08-28T07:44:44Z</time>
      </trkpt>
      <trkpt lat="37.581577" lon="-5.972060">
        <ele>69.75</ele>
        <time>2021-08-28T07:44:47Z</time>
      </trkpt>
      <trkpt lat="37.581711" lon="-5.971902">
        <ele>68.54</ele>
        <time>2021-08-28T07:44:49Z</time>
      </trkpt>
      <trkpt lat="37.581836" lon="-5.971727">
        <ele>67.77</ele>
        <time>2021-08-28T07:44:51Z</time>
      </trkpt>
      <trkpt lat="37.581943" lon="-5.971532">
        <ele>67.05</ele>
        <time>2021-08-28T07:44:53Z</time>
      </trkpt>
      <trkpt lat="37.582029" lon="-5.971317">
        <ele>66.24</ele>
        <time>2021-08-28T07:44:55Z</time>
      </trkpt>
      <trkpt lat="37.582104" lon="-5.971092">
        <ele>65.02</ele>
        <time>2021-08-28T07:44:57Z</time>
      </trkpt>
      <trkpt lat="37.582154" lon="-5.970858">
        <ele>63.76</ele>
        <time>2021-08-28T07:44:59Z</time>
      </trkpt>
      <trkpt lat="37.582182" lon="-5.970621">
        <ele>62.33</ele>
        <time>2021-08-28T07:45:01Z</time>
      </trkpt>
      <trkpt lat="37.582199" lon="-5.970370">
        <ele>60.50</ele>
        <time>2021-08-28T07:45:03Z</time>
      </trkpt>
      <trkpt lat="37.582208" lon="-5.970115">
        <ele>59.79</ele>
        <time>2021-08-28T07:45:05Z</time>
      </trkpt>
      <trkpt lat="37.582219" lon="-5.969880">
        <ele>59.19</ele>
        <time>2021-08-28T07:45:07Z</time>
      </trkpt>
      <trkpt lat="37.582250" lon="-5.969563">
        <ele>58.80</ele>
        <time>2021-08-28T07:45:10Z</time>
      </trkpt>
      <trkpt lat="37.582290" lon="-5.969301">
        <ele>58.76</ele>
        <time>2021-08-28T07:45:13Z</time>
      </trkpt>
      <trkpt lat="37.582345" lon="-5.969062">
        <ele>59.70</ele>
        <time>2021-08-28T07:45:16Z</time>
      </trkpt>
      <trkpt lat="37.582396" lon="-5.968836">
        <ele>60.62</ele>
        <time>2021-08-28T07:45:19Z</time>
      </trkpt>
      <trkpt lat="37.582474" lon="-5.968581">
        <ele>62.74</ele>
        <time>2021-08-28T07:45:23Z</time>
      </trkpt>
      <trkpt lat="37.582550" lon="-5.968362">
        <ele>64.14</ele>
        <time>2021-08-28T07:45:27Z</time>
      </trkpt>
      <trkpt lat="37.582649" lon="-5.968151">
        <ele>64.89</ele>
        <time>2021-08-28T07:45:31Z</time>
      </trkpt>
      <trkpt lat="37.582757" lon="-5.967912">
        <ele>65.54</ele>
        <time>2021-08-28T07:45:36Z</time>
      </trkpt>
      <trkpt lat="37.582843" lon="-5.967672">
        <ele>66.87</ele>
        <time>2021-08-28T07:45:41Z</time>
      </trkpt>
      <trkpt lat="37.582724" lon="-5.967482">
        <ele>68.47</ele>
        <time>2021-08-28T07:45:49Z</time>
      </trkpt>
      <trkpt lat="37.582751" lon="-5.967500">
        <ele>65.47</ele>
        <time>2021-08-28T07:46:36Z</time>
      </trkpt>
      <trkpt lat="37.582730" lon="-5.967498">
        <ele>66.90</ele>
        <time>2021-08-28T07:53:51Z</time>
      </trkpt>
      <trkpt lat="37.582546" lon="-5.967464">
        <ele>67.27</ele>
        <time>2021-08-28T07:54:09Z</time>
      </trkpt>
      <trkpt lat="37.582377" lon="-5.967553">
        <ele>66.99</ele>
        <time>2021-08-28T07:55:05Z</time>
      </trkpt>
      <trkpt lat="37.582379" lon="-5.967707">
        <ele>51.10</ele>
        <time>2021-08-28T07:56:55Z</time>
      </trkpt>
      <trkpt lat="37.582396" lon="-5.967677">
        <ele>43.79</ele>
        <time>2021-08-28T07:57:53Z</time>
      </trkpt>
      <trkpt lat="37.582380" lon="-5.967686">
        <ele>40.80</ele>
        <time>2021-08-28T07:59:07Z</time>
      </trkpt>
      <trkpt lat="37.582308" lon="-5.967464">
        <ele>51.63</ele>
        <time>2021-08-28T07:59:23Z</time>
      </trkpt>
      <trkpt lat="37.582232" lon="-5.967232">
        <ele>59.12</ele>
        <time>2021-08-28T07:59:32Z</time>
      </trkpt>
      <trkpt lat="37.582048" lon="-5.967203">
        <ele>62.38</ele>
        <time>2021-08-28T07:59:37Z</time>
      </trkpt>
      <trkpt lat="37.581843" lon="-5.967175">
        <ele>63.37</ele>
        <time>2021-08-28T07:59:42Z</time>
      </trkpt>
      <trkpt lat="37.581636" lon="-5.967145">
        <ele>66.80</ele>
        <time>2021-08-28T07:59:47Z</time>
      </trkpt>
      <trkpt lat="37.581417" lon="-5.967136">
        <ele>68.69</ele>
        <time>2021-08-28T07:59:52Z</time>
      </trkpt>
      <trkpt lat="37.581234" lon="-5.967144">
        <ele>68.83</ele>
        <time>2021-08-28T07:59:56Z</time>
      </trkpt>
      <trkpt lat="37.581046" lon="-5.967159">
        <ele>69.22</ele>
        <time>2021-08-28T08:00:00Z</time>
      </trkpt>
      <trkpt lat="37.580840" lon="-5.967184">
        <ele>68.80</ele>
        <time>2021-08-28T08:00:04Z</time>
      </trkpt>
      <trkpt lat="37.580615" lon="-5.967207">
        <ele>68.03</ele>
        <time>2021-08-28T08:00:08Z</time>
      </trkpt>
      <trkpt lat="37.580430" lon="-5.967216">
        <ele>67.76</ele>
        <time>2021-08-28T08:00:11Z</time>
      </trkpt>
      <trkpt lat="37.580240" lon="-5.967227">
        <ele>67.57</ele>
        <time>2021-08-28T08:00:14Z</time>
      </trkpt>
      <trkpt lat="37.580053" lon="-5.967230">
        <ele>66.87</ele>
        <time>2021-08-28T08:00:17Z</time>
      </trkpt>
      <trkpt lat="37.579860" lon="-5.967222">
        <ele>66.41</ele>
        <time>2021-08-28T08:00:20Z</time>
      </trkpt>
      <trkpt lat="37.579661" lon="-5.967201">
        <ele>65.85</ele>
        <time>2021-08-28T08:00:23Z</time>
      </trkpt>
      <trkpt lat="37.579441" lon="-5.967182">
        <ele>64.53</ele>
        <time>2021-08-28T08:00:26Z</time>
      </trkpt>
      <trkpt lat="37.579201" lon="-5.967159">
        <ele>63.33</ele>
        <time>2021-08-28T08:00:29Z</time>
      </trkpt>
      <trkpt lat="37.578944" lon="-5.967158">
        <ele>62.18</ele>
        <time>2021-08-28T08:00:32Z</time>
      </trkpt>
      <trkpt lat="37.578687" lon="-5.967227">
        <ele>61.10</ele>
        <time>2021-08-28T08:00:35Z</time>
      </trkpt>
      <trkpt lat="37.578453" lon="-5.967345">
        <ele>60.09</ele>
        <time>2021-08-28T08:00:38Z</time>
      </trkpt>
      <trkpt lat="37.578221" lon="-5.967485">
        <ele>58.91</ele>
        <time>2021-08-28T08:00:41Z</time>
      </trkpt>
      <trkpt lat="37.577997" lon="-5.967613">
        <ele>57.59</ele>
        <time>2021-08-28T08:00:44Z</time>
      </trkpt>
      <trkpt lat="37.577778" lon="-5.967737">
        <ele>56.09</ele>
        <time>2021-08-28T08:00:47Z</time>
      </trkpt>
      <trkpt lat="37.577558" lon="-5.967854">
        <ele>55.42</ele>
        <time>2021-08-28T08:00:50Z</time>
      </trkpt>
      <trkpt lat="37.577335" lon="-5.967939">
        <ele>54.60</ele>
        <time>2021-08-28T08:00:53Z</time>
      </trkpt>
      <trkpt lat="37.577118" lon="-5.967996">
        <ele>53.64</ele>
        <time>2021-08-28T08:00:56Z</time>
      </trkpt>
      <trkpt lat="37.576901" lon="-5.968017">
        <ele>52.94</ele>
        <time>2021-08-28T08:01:00Z</time>
      </trkpt>
      <trkpt lat="37.576756" lon="-5.967873">
        <ele>52.96</ele>
        <time>2021-08-28T08:01:04Z</time>
      </trkpt>
      <trkpt lat="37.576589" lon="-5.967763">
        <ele>53.08</ele>
        <time>2021-08-28T08:01:10Z</time>
      </trkpt>
      <trkpt lat="37.576395" lon="-5.967760">
        <ele>52.43</ele>
        <time>2021-08-28T08:01:15Z</time>
      </trkpt>
      <trkpt lat="37.576185" lon="-5.967746">
        <ele>51.71</ele>
        <time>2021-08-28T08:01:20Z</time>
      </trkpt>
      <trkpt lat="37.576002" lon="-5.967741">
        <ele>51.67</ele>
        <time>2021-08-28T08:01:24Z</time>
      </trkpt>
      <trkpt lat="37.575817" lon="-5.967719">
        <ele>50.95</ele>
        <time>2021-08-28T08:01:28Z</time>
      </trkpt>
      <trkpt lat="37.575624" lon="-5.967691">
        <ele>51.24</ele>
        <time>2021-08-28T08:01:32Z</time>
      </trkpt>
      <trkpt lat="37.575497" lon="-5.967488">
        <ele>52.26</ele>
        <time>2021-08-28T08:01:37Z</time>
      </trkpt>
      <trkpt lat="37.575417" lon="-5.967283">
        <ele>53.32</ele>
        <time>2021-08-28T08:01:42Z</time>
      </trkpt>
      <trkpt lat="37.575245" lon="-5.967128">
        <ele>52.10</ele>
        <time>2021-08-28T08:01:48Z</time>
      </trkpt>
      <trkpt lat="37.575222" lon="-5.966854">
        <ele>50.55</ele>
        <time>2021-08-28T08:01:53Z</time>
      </trkpt>
      <trkpt lat="37.575157" lon="-5.966631">
        <ele>48.97</ele>
        <time>2021-08-28T08:01:57Z</time>
      </trkpt>
      <trkpt lat="37.575015" lon="-5.966458">
        <ele>49.39</ele>
        <time>2021-08-28T08:02:02Z</time>
      </trkpt>
      <trkpt lat="37.574845" lon="-5.966302">
        <ele>50.59</ele>
        <time>2021-08-28T08:02:07Z</time>
      </trkpt>
      <trkpt lat="37.574707" lon="-5.966110">
        <ele>51.23</ele>
        <time>2021-08-28T08:02:12Z</time>
      </trkpt>
      <trkpt lat="37.574616" lon="-5.965861">
        <ele>50.64</ele>
        <time>2021-08-28T08:02:17Z</time>
      </trkpt>
      <trkpt lat="37.574528" lon="-5.965640">
        <ele>50.04</ele>
        <time>2021-08-28T08:02:21Z</time>
      </trkpt>
      <trkpt lat="37.574438" lon="-5.965420">
        <ele>49.95</ele>
        <time>2021-08-28T08:02:25Z</time>
      </trkpt>
      <trkpt lat="37.574346" lon="-5.965196">
        <ele>50.67</ele>
        <time>2021-08-28T08:02:29Z</time>
      </trkpt>
      <trkpt lat="37.574262" lon="-5.964980">
        <ele>50.99</ele>
        <time>2021-08-28T08:02:33Z</time>
      </trkpt>
      <trkpt lat="37.574178" lon="-5.964752">
        <ele>51.06</ele>
        <time>2021-08-28T08:02:37Z</time>
      </trkpt>
      <trkpt lat="37.574086" lon="-5.964534">
        <ele>51.30</ele>
        <time>2021-08-28T08:02:41Z</time>
      </trkpt>
      <trkpt lat="37.574044" lon="-5.964308">
        <ele>51.52</ele>
        <time>2021-08-28T08:02:45Z</time>
      </trkpt>
      <trkpt lat="37.574070" lon="-5.964080">
        <ele>51.87</ele>
        <time>2021-08-28T08:02:49Z</time>
      </trkpt>
      <trkpt lat="37.574197" lon="-5.963849">
        <ele>53.31</ele>
        <time>2021-08-28T08:02:54Z</time>
      </trkpt>
      <trkpt lat="37.574344" lon="-5.963691">
        <ele>52.64</ele>
        <time>2021-08-28T08:02:58Z</time>
      </trkpt>
      <trkpt lat="37.574534" lon="-5.963594">
        <ele>52.81</ele>
        <time>2021-08-28T08:03:02Z</time>
      </trkpt>
      <trkpt lat="37.574722" lon="-5.963480">
        <ele>52.52</ele>
        <time>2021-08-28T08:03:06Z</time>
      </trkpt>
      <trkpt lat="37.574854" lon="-5.963250">
        <ele>50.61</ele>
        <time>2021-08-28T08:03:10Z</time>
      </trkpt>
      <trkpt lat="37.574874" lon="-5.962958">
        <ele>50.53</ele>
        <time>2021-08-28T08:03:14Z</time>
      </trkpt>
      <trkpt lat="37.574792" lon="-5.962707">
        <ele>50.62</ele>
        <time>2021-08-28T08:03:18Z</time>
      </trkpt>
      <trkpt lat="37.574635" lon="-5.962544">
        <ele>50.47</ele>
        <time>2021-08-28T08:03:22Z</time>
      </trkpt>
      <trkpt lat="37.574468" lon="-5.962429">
        <ele>50.66</ele>
        <time>2021-08-28T08:03:26Z</time>
      </trkpt>
      <trkpt lat="37.574310" lon="-5.962302">
        <ele>50.62</ele>
        <time>2021-08-28T08:03:30Z</time>
      </trkpt>
      <trkpt lat="37.574128" lon="-5.962173">
        <ele>50.89</ele>
        <time>2021-08-28T08:03:34Z</time>
      </trkpt>
      <trkpt lat="37.573937" lon="-5.962030">
        <ele>50.84</ele>
        <time>2021-08-28T08:03:38Z</time>
      </trkpt>
      <trkpt lat="37.573758" lon="-5.961890">
        <ele>51.36</ele>
        <time>2021-08-28T08:03:42Z</time>
      </trkpt>
      <trkpt lat="37.573568" lon="-5.961741">
        <ele>51.58</ele>
        <time>2021-08-28T08:03:46Z</time>
      </trkpt>
      <trkpt lat="37.573413" lon="-5.961520">
        <ele>51.24</ele>
        <time>2021-08-28T08:03:50Z</time>
      </trkpt>
      <trkpt lat="37.573333" lon="-5.961264">
        <ele>50.88</ele>
        <time>2021-08-28T08:03:54Z</time>
      </trkpt>
      <trkpt lat="37.573238" lon="-5.960994">
        <ele>50.63</ele>
        <time>2021-08-28T08:03:58Z</time>
      </trkpt>
      <trkpt lat="37.573111" lon="-5.960749">
        <ele>50.77</ele>
        <time>2021-08-28T08:04:02Z</time>
      </trkpt>
      <trkpt lat="37.572944" lon="-5.960564">
        <ele>51.48</ele>
        <time>2021-08-28T08:04:06Z</time>
      </trkpt>
      <trkpt lat="37.572812" lon="-5.960370">
        <ele>52.46</ele>
        <time>2021-08-28T08:04:10Z</time>
      </trkpt>
      <trkpt lat="37.572744" lon="-5.960144">
        <ele>53.16</ele>
        <time>2021-08-28T08:04:14Z</time>
      </trkpt>
      <trkpt lat="37.572738" lon="-5.959895">
        <ele>54.20</ele>
        <time>2021-08-28T08:04:18Z</time>
      </trkpt>
      <trkpt lat="37.572731" lon="-5.959665">
        <ele>54.39</ele>
        <time>2021-08-28T08:04:22Z</time>
      </trkpt>
      <trkpt lat="37.572659" lon="-5.959420">
        <ele>53.33</ele>
        <time>2021-08-28T08:04:28Z</time>
      </trkpt>
      <trkpt lat="37.572467" lon="-5.959316">
        <ele>52.42</ele>
        <time>2021-08-28T08:04:34Z</time>
      </trkpt>
      <trkpt lat="37.572269" lon="-5.959259">
        <ele>52.34</ele>
        <time>2021-08-28T08:04:39Z</time>
      </trkpt>
      <trkpt lat="37.572091" lon="-5.959213">
        <ele>52.63</ele>
        <time>2021-08-28T08:04:43Z</time>
      </trkpt>
      <trkpt lat="37.571910" lon="-5.959162">
        <ele>52.31</ele>
        <time>2021-08-28T08:04:47Z</time>
      </trkpt>
      <trkpt lat="37.571708" lon="-5.959121">
        <ele>52.04</ele>
        <time>2021-08-28T08:04:51Z</time>
      </trkpt>
      <trkpt lat="37.571503" lon="-5.959064">
        <ele>52.10</ele>
        <time>2021-08-28T08:04:55Z</time>
      </trkpt>
      <trkpt lat="37.571297" lon="-5.959006">
        <ele>51.50</ele>
        <time>2021-08-28T08:04:59Z</time>
      </trkpt>
      <trkpt lat="37.571091" lon="-5.958933">
        <ele>50.99</ele>
        <time>2021-08-28T08:05:03Z</time>
      </trkpt>
      <trkpt lat="37.570891" lon="-5.958837">
        <ele>51.64</ele>
        <time>2021-08-28T08:05:07Z</time>
      </trkpt>
      <trkpt lat="37.570711" lon="-5.958699">
        <ele>52.06</ele>
        <time>2021-08-28T08:05:11Z</time>
      </trkpt>
      <trkpt lat="37.570552" lon="-5.958568">
        <ele>51.74</ele>
        <time>2021-08-28T08:05:15Z</time>
      </trkpt>
      <trkpt lat="37.570385" lon="-5.958435">
        <ele>51.72</ele>
        <time>2021-08-28T08:05:19Z</time>
      </trkpt>
      <trkpt lat="37.570201" lon="-5.958345">
        <ele>52.16</ele>
        <time>2021-08-28T08:05:23Z</time>
      </trkpt>
      <trkpt lat="37.570014" lon="-5.958315">
        <ele>51.78</ele>
        <time>2021-08-28T08:05:27Z</time>
      </trkpt>
      <trkpt lat="37.569821" lon="-5.958288">
        <ele>51.48</ele>
        <time>2021-08-28T08:05:31Z</time>
      </trkpt>
      <trkpt lat="37.569627" lon="-5.958254">
        <ele>50.97</ele>
        <time>2021-08-28T08:05:35Z</time>
      </trkpt>
      <trkpt lat="37.569436" lon="-5.958232">
        <ele>49.86</ele>
        <time>2021-08-28T08:05:39Z</time>
      </trkpt>
      <trkpt lat="37.569247" lon="-5.958209">
        <ele>49.69</ele>
        <time>2021-08-28T08:05:43Z</time>
      </trkpt>
      <trkpt lat="37.569026" lon="-5.958180">
        <ele>49.53</ele>
        <time>2021-08-28T08:05:48Z</time>
      </trkpt>
      <trkpt lat="37.568811" lon="-5.958111">
        <ele>50.71</ele>
        <time>2021-08-28T08:05:53Z</time>
      </trkpt>
      <trkpt lat="37.568646" lon="-5.958003">
        <ele>50.82</ele>
        <time>2021-08-28T08:05:57Z</time>
      </trkpt>
      <trkpt lat="37.568478" lon="-5.957889">
        <ele>50.20</ele>
        <time>2021-08-28T08:06:01Z</time>
      </trkpt>
      <trkpt lat="37.568321" lon="-5.957764">
        <ele>49.25</ele>
        <time>2021-08-28T08:06:05Z</time>
      </trkpt>
      <trkpt lat="37.568146" lon="-5.957650">
        <ele>48.05</ele>
        <time>2021-08-28T08:06:09Z</time>
      </trkpt>
      <trkpt lat="37.567958" lon="-5.957520">
        <ele>46.81</ele>
        <time>2021-08-28T08:06:13Z</time>
      </trkpt>
      <trkpt lat="37.567746" lon="-5.957381">
        <ele>45.70</ele>
        <time>2021-08-28T08:06:17Z</time>
      </trkpt>
      <trkpt lat="37.567578" lon="-5.957276">
        <ele>45.10</ele>
        <time>2021-08-28T08:06:20Z</time>
      </trkpt>
      <trkpt lat="37.567413" lon="-5.957168">
        <ele>44.63</ele>
        <time>2021-08-28T08:06:23Z</time>
      </trkpt>
      <trkpt lat="37.567242" lon="-5.957045">
        <ele>44.29</ele>
        <time>2021-08-28T08:06:26Z</time>
      </trkpt>
      <trkpt lat="37.567067" lon="-5.956929">
        <ele>43.28</ele>
        <time>2021-08-28T08:06:29Z</time>
      </trkpt>
      <trkpt lat="37.566892" lon="-5.956807">
        <ele>42.94</ele>
        <time>2021-08-28T08:06:32Z</time>
      </trkpt>
      <trkpt lat="37.566725" lon="-5.956686">
        <ele>42.13</ele>
        <time>2021-08-28T08:06:35Z</time>
      </trkpt>
      <trkpt lat="37.566556" lon="-5.956561">
        <ele>41.11</ele>
        <time>2021-08-28T08:06:38Z</time>
      </trkpt>
      <trkpt lat="37.566385" lon="-5.956443">
        <ele>40.04</ele>
        <time>2021-08-28T08:06:41Z</time>
      </trkpt>
      <trkpt lat="37.566221" lon="-5.956319">
        <ele>39.35</ele>
        <time>2021-08-28T08:06:44Z</time>
      </trkpt>
      <trkpt lat="37.566057" lon="-5.956202">
        <ele>38.59</ele>
        <time>2021-08-28T08:06:47Z</time>
      </trkpt>
      <trkpt lat="37.565894" lon="-5.956100">
        <ele>37.72</ele>
        <time>2021-08-28T08:06:50Z</time>
      </trkpt>
      <trkpt lat="37.565722" lon="-5.955994">
        <ele>37.20</ele>
        <time>2021-08-28T08:06:53Z</time>
      </trkpt>
      <trkpt lat="37.565535" lon="-5.955951">
        <ele>36.37</ele>
        <time>2021-08-28T08:06:56Z</time>
      </trkpt>
      <trkpt lat="37.565354" lon="-5.955989">
        <ele>35.52</ele>
        <time>2021-08-28T08:06:59Z</time>
      </trkpt>
      <trkpt lat="37.565183" lon="-5.956059">
        <ele>35.72</ele>
        <time>2021-08-28T08:07:02Z</time>
      </trkpt>
      <trkpt lat="37.564971" lon="-5.956134">
        <ele>35.84</ele>
        <time>2021-08-28T08:07:06Z</time>
      </trkpt>
      <trkpt lat="37.564777" lon="-5.956214">
        <ele>35.39</ele>
        <time>2021-08-28T08:07:10Z</time>
      </trkpt>
      <trkpt lat="37.564586" lon="-5.956277">
        <ele>35.50</ele>
        <time>2021-08-28T08:07:14Z</time>
      </trkpt>
      <trkpt lat="37.564393" lon="-5.956345">
        <ele>34.79</ele>
        <time>2021-08-28T08:07:18Z</time>
      </trkpt>
      <trkpt lat="37.564206" lon="-5.956408">
        <ele>34.43</ele>
        <time>2021-08-28T08:07:22Z</time>
      </trkpt>
      <trkpt lat="37.564014" lon="-5.956481">
        <ele>34.04</ele>
        <time>2021-08-28T08:07:26Z</time>
      </trkpt>
      <trkpt lat="37.563816" lon="-5.956556">
        <ele>33.55</ele>
        <time>2021-08-28T08:07:30Z</time>
      </trkpt>
      <trkpt lat="37.563604" lon="-5.956634">
        <ele>32.93</ele>
        <time>2021-08-28T08:07:34Z</time>
      </trkpt>
      <trkpt lat="37.563376" lon="-5.956680">
        <ele>32.77</ele>
        <time>2021-08-28T08:07:38Z</time>
      </trkpt>
      <trkpt lat="37.563159" lon="-5.956630">
        <ele>31.81</ele>
        <time>2021-08-28T08:07:42Z</time>
      </trkpt>
      <trkpt lat="37.562940" lon="-5.956534">
        <ele>31.39</ele>
        <time>2021-08-28T08:07:46Z</time>
      </trkpt>
      <trkpt lat="37.562746" lon="-5.956434">
        <ele>31.39</ele>
        <time>2021-08-28T08:07:50Z</time>
      </trkpt>
      <trkpt lat="37.562558" lon="-5.956346">
        <ele>31.57</ele>
        <time>2021-08-28T08:07:54Z</time>
      </trkpt>
      <trkpt lat="37.562380" lon="-5.956247">
        <ele>31.69</ele>
        <time>2021-08-28T08:07:58Z</time>
      </trkpt>
      <trkpt lat="37.562195" lon="-5.956155">
        <ele>31.79</ele>
        <time>2021-08-28T08:08:02Z</time>
      </trkpt>
      <trkpt lat="37.561995" lon="-5.956056">
        <ele>31.24</ele>
        <time>2021-08-28T08:08:06Z</time>
      </trkpt>
      <trkpt lat="37.561796" lon="-5.955959">
        <ele>30.49</ele>
        <time>2021-08-28T08:08:10Z</time>
      </trkpt>
      <trkpt lat="37.561594" lon="-5.955913">
        <ele>31.03</ele>
        <time>2021-08-28T08:08:14Z</time>
      </trkpt>
      <trkpt lat="37.561419" lon="-5.956009">
        <ele>29.20</ele>
        <time>2021-08-28T08:08:19Z</time>
      </trkpt>
      <trkpt lat="37.561283" lon="-5.956212">
        <ele>27.33</ele>
        <time>2021-08-28T08:08:23Z</time>
      </trkpt>
      <trkpt lat="37.561129" lon="-5.956429">
        <ele>26.22</ele>
        <time>2021-08-28T08:08:27Z</time>
      </trkpt>
      <trkpt lat="37.560981" lon="-5.956630">
        <ele>26.16</ele>
        <time>2021-08-28T08:08:31Z</time>
      </trkpt>
      <trkpt lat="37.560812" lon="-5.956839">
        <ele>24.54</ele>
        <time>2021-08-28T08:08:35Z</time>
      </trkpt>
      <trkpt lat="37.560651" lon="-5.957031">
        <ele>24.38</ele>
        <time>2021-08-28T08:08:39Z</time>
      </trkpt>
      <trkpt lat="37.560481" lon="-5.957152">
        <ele>24.01</ele>
        <time>2021-08-28T08:08:43Z</time>
      </trkpt>
      <trkpt lat="37.560320" lon="-5.957275">
        <ele>24.21</ele>
        <time>2021-08-28T08:08:47Z</time>
      </trkpt>
      <trkpt lat="37.560170" lon="-5.957413">
        <ele>24.23</ele>
        <time>2021-08-28T08:08:51Z</time>
      </trkpt>
      <trkpt lat="37.560032" lon="-5.957559">
        <ele>24.63</ele>
        <time>2021-08-28T08:08:55Z</time>
      </trkpt>
      <trkpt lat="37.559871" lon="-5.957699">
        <ele>25.39</ele>
        <time>2021-08-28T08:09:00Z</time>
      </trkpt>
      <trkpt lat="37.559817" lon="-5.957477">
        <ele>25.30</ele>
        <time>2021-08-28T08:09:07Z</time>
      </trkpt>
      <trkpt lat="37.559838" lon="-5.957246">
        <ele>25.29</ele>
        <time>2021-08-28T08:09:11Z</time>
      </trkpt>
      <trkpt lat="37.559815" lon="-5.956989">
        <ele>25.41</ele>
        <time>2021-08-28T08:09:15Z</time>
      </trkpt>
      <trkpt lat="37.559771" lon="-5.956716">
        <ele>24.09</ele>
        <time>2021-08-28T08:09:19Z</time>
      </trkpt>
      <trkpt lat="37.559732" lon="-5.956443">
        <ele>23.90</ele>
        <time>2021-08-28T08:09:23Z</time>
      </trkpt>
      <trkpt lat="37.559691" lon="-5.956162">
        <ele>23.23</ele>
        <time>2021-08-28T08:09:27Z</time>
      </trkpt>
      <trkpt lat="37.559648" lon="-5.955941">
        <ele>22.86</ele>
        <time>2021-08-28T08:09:30Z</time>
      </trkpt>
      <trkpt lat="37.559605" lon="-5.955648">
        <ele>22.08</ele>
        <time>2021-08-28T08:09:34Z</time>
      </trkpt>
      <trkpt lat="37.559565" lon="-5.955367">
        <ele>21.30</ele>
        <time>2021-08-28T08:09:38Z</time>
      </trkpt>
      <trkpt lat="37.559517" lon="-5.955097">
        <ele>21.21</ele>
        <time>2021-08-28T08:09:42Z</time>
      </trkpt>
      <trkpt lat="37.559474" lon="-5.954819">
        <ele>21.07</ele>
        <time>2021-08-28T08:09:46Z</time>
      </trkpt>
      <trkpt lat="37.559435" lon="-5.954545">
        <ele>21.96</ele>
        <time>2021-08-28T08:09:50Z</time>
      </trkpt>
      <trkpt lat="37.559387" lon="-5.954277">
        <ele>21.60</ele>
        <time>2021-08-28T08:09:54Z</time>
      </trkpt>
      <trkpt lat="37.559358" lon="-5.954036">
        <ele>21.59</ele>
        <time>2021-08-28T08:09:58Z</time>
      </trkpt>
      <trkpt lat="37.559307" lon="-5.953757">
        <ele>21.14</ele>
        <time>2021-08-28T08:10:03Z</time>
      </trkpt>
      <trkpt lat="37.559257" lon="-5.953539">
        <ele>20.15</ele>
        <time>2021-08-28T08:10:07Z</time>
      </trkpt>
      <trkpt lat="37.559179" lon="-5.953322">
        <ele>19.69</ele>
        <time>2021-08-28T08:10:11Z</time>
      </trkpt>
      <trkpt lat="37.559063" lon="-5.953137">
        <ele>19.69</ele>
        <time>2021-08-28T08:10:15Z</time>
      </trkpt>
      <trkpt lat="37.558922" lon="-5.952972">
        <ele>19.75</ele>
        <time>2021-08-28T08:10:19Z</time>
      </trkpt>
      <trkpt lat="37.558769" lon="-5.952843">
        <ele>19.96</ele>
        <time>2021-08-28T08:10:23Z</time>
      </trkpt>
      <trkpt lat="37.558596" lon="-5.952723">
        <ele>20.13</ele>
        <time>2021-08-28T08:10:27Z</time>
      </trkpt>
      <trkpt lat="37.558411" lon="-5.952609">
        <ele>20.33</ele>
        <time>2021-08-28T08:10:31Z</time>
      </trkpt>
      <trkpt lat="37.558222" lon="-5.952486">
        <ele>19.90</ele>
        <time>2021-08-28T08:10:35Z</time>
      </trkpt>
      <trkpt lat="37.558023" lon="-5.952381">
        <ele>20.66</ele>
        <time>2021-08-28T08:10:39Z</time>
      </trkpt>
      <trkpt lat="37.557822" lon="-5.952258">
        <ele>20.98</ele>
        <time>2021-08-28T08:10:43Z</time>
      </trkpt>
      <trkpt lat="37.557623" lon="-5.952127">
        <ele>20.54</ele>
        <time>2021-08-28T08:10:47Z</time>
      </trkpt>
      <trkpt lat="37.557408" lon="-5.952013">
        <ele>21.02</ele>
        <time>2021-08-28T08:10:51Z</time>
      </trkpt>
      <trkpt lat="37.557199" lon="-5.951889">
        <ele>20.79</ele>
        <time>2021-08-28T08:10:55Z</time>
      </trkpt>
      <trkpt lat="37.556987" lon="-5.951766">
        <ele>20.87</ele>
        <time>2021-08-28T08:10:59Z</time>
      </trkpt>
      <trkpt lat="37.556825" lon="-5.951668">
        <ele>20.58</ele>
        <time>2021-08-28T08:11:02Z</time>
      </trkpt>
      <trkpt lat="37.556662" lon="-5.951565">
        <ele>20.27</ele>
        <time>2021-08-28T08:11:05Z</time>
      </trkpt>
      <trkpt lat="37.556498" lon="-5.951461">
        <ele>20.30</ele>
        <time>2021-08-28T08:11:08Z</time>
      </trkpt>
      <trkpt lat="37.556285" lon="-5.951331">
        <ele>20.00</ele>
        <time>2021-08-28T08:11:12Z</time>
      </trkpt>
      <trkpt lat="37.556078" lon="-5.951192">
        <ele>19.76</ele>
        <time>2021-08-28T08:11:16Z</time>
      </trkpt>
      <trkpt lat="37.555876" lon="-5.951068">
        <ele>20.48</ele>
        <time>2021-08-28T08:11:20Z</time>
      </trkpt>
      <trkpt lat="37.555677" lon="-5.950946">
        <ele>20.34</ele>
        <time>2021-08-28T08:11:24Z</time>
      </trkpt>
      <trkpt lat="37.555475" lon="-5.950817">
        <ele>19.70</ele>
        <time>2021-08-28T08:11:28Z</time>
      </trkpt>
      <trkpt lat="37.555274" lon="-5.950693">
        <ele>18.86</ele>
        <time>2021-08-28T08:11:32Z</time>
      </trkpt>
      <trkpt lat="37.555076" lon="-5.950578">
        <ele>17.94</ele>
        <time>2021-08-28T08:11:36Z</time>
      </trkpt>
      <trkpt lat="37.554877" lon="-5.950454">
        <ele>18.66</ele>
        <time>2021-08-28T08:11:40Z</time>
      </trkpt>
      <trkpt lat="37.554679" lon="-5.950338">
        <ele>18.56</ele>
        <time>2021-08-28T08:11:44Z</time>
      </trkpt>
      <trkpt lat="37.554478" lon="-5.950212">
        <ele>17.99</ele>
        <time>2021-08-28T08:11:48Z</time>
      </trkpt>
      <trkpt lat="37.554313" lon="-5.950121">
        <ele>17.79</ele>
        <time>2021-08-28T08:11:51Z</time>
      </trkpt>
      <trkpt lat="37.554097" lon="-5.949992">
        <ele>17.18</ele>
        <time>2021-08-28T08:11:55Z</time>
      </trkpt>
      <trkpt lat="37.553891" lon="-5.949859">
        <ele>17.37</ele>
        <time>2021-08-28T08:11:59Z</time>
      </trkpt>
      <trkpt lat="37.553685" lon="-5.949737">
        <ele>17.54</ele>
        <time>2021-08-28T08:12:03Z</time>
      </trkpt>
      <trkpt lat="37.553496" lon="-5.949627">
        <ele>17.70</ele>
        <time>2021-08-28T08:12:07Z</time>
      </trkpt>
      <trkpt lat="37.553314" lon="-5.949508">
        <ele>17.65</ele>
        <time>2021-08-28T08:12:11Z</time>
      </trkpt>
      <trkpt lat="37.553131" lon="-5.949392">
        <ele>17.40</ele>
        <time>2021-08-28T08:12:15Z</time>
      </trkpt>
      <trkpt lat="37.552939" lon="-5.949280">
        <ele>17.20</ele>
        <time>2021-08-28T08:12:19Z</time>
      </trkpt>
      <trkpt lat="37.552759" lon="-5.949182">
        <ele>16.31</ele>
        <time>2021-08-28T08:12:23Z</time>
      </trkpt>
      <trkpt lat="37.552572" lon="-5.949058">
        <ele>16.53</ele>
        <time>2021-08-28T08:12:27Z</time>
      </trkpt>
      <trkpt lat="37.552387" lon="-5.948971">
        <ele>16.69</ele>
        <time>2021-08-28T08:12:31Z</time>
      </trkpt>
      <trkpt lat="37.552206" lon="-5.948884">
        <ele>16.38</ele>
        <time>2021-08-28T08:12:35Z</time>
      </trkpt>
      <trkpt lat="37.552035" lon="-5.948801">
        <ele>15.95</ele>
        <time>2021-08-28T08:12:39Z</time>
      </trkpt>
      <trkpt lat="37.551853" lon="-5.948698">
        <ele>15.91</ele>
        <time>2021-08-28T08:12:43Z</time>
      </trkpt>
      <trkpt lat="37.551657" lon="-5.948586">
        <ele>15.33</ele>
        <time>2021-08-28T08:12:47Z</time>
      </trkpt>
      <trkpt lat="37.551453" lon="-5.948474">
        <ele>14.79</ele>
        <time>2021-08-28T08:12:51Z</time>
      </trkpt>
      <trkpt lat="37.551248" lon="-5.948371">
        <ele>14.65</ele>
        <time>2021-08-28T08:12:55Z</time>
      </trkpt>
      <trkpt lat="37.551039" lon="-5.948266">
        <ele>15.23</ele>
        <time>2021-08-28T08:12:59Z</time>
      </trkpt>
      <trkpt lat="37.550837" lon="-5.948162">
        <ele>14.80</ele>
        <time>2021-08-28T08:13:03Z</time>
      </trkpt>
      <trkpt lat="37.550624" lon="-5.948051">
        <ele>14.73</ele>
        <time>2021-08-28T08:13:07Z</time>
      </trkpt>
      <trkpt lat="37.550415" lon="-5.947940">
        <ele>15.18</ele>
        <time>2021-08-28T08:13:11Z</time>
      </trkpt>
      <trkpt lat="37.550208" lon="-5.947826">
        <ele>15.04</ele>
        <time>2021-08-28T08:13:15Z</time>
      </trkpt>
      <trkpt lat="37.549994" lon="-5.947707">
        <ele>14.35</ele>
        <time>2021-08-28T08:13:19Z</time>
      </trkpt>
      <trkpt lat="37.549786" lon="-5.947576">
        <ele>14.49</ele>
        <time>2021-08-28T08:13:23Z</time>
      </trkpt>
      <trkpt lat="37.549589" lon="-5.947463">
        <ele>15.09</ele>
        <time>2021-08-28T08:13:27Z</time>
      </trkpt>
      <trkpt lat="37.549382" lon="-5.947362">
        <ele>15.26</ele>
        <time>2021-08-28T08:13:31Z</time>
      </trkpt>
      <trkpt lat="37.549173" lon="-5.947268">
        <ele>15.89</ele>
        <time>2021-08-28T08:13:35Z</time>
      </trkpt>
      <trkpt lat="37.548964" lon="-5.947162">
        <ele>16.66</ele>
        <time>2021-08-28T08:13:39Z</time>
      </trkpt>
      <trkpt lat="37.548765" lon="-5.947058">
        <ele>16.72</ele>
        <time>2021-08-28T08:13:43Z</time>
      </trkpt>
      <trkpt lat="37.548581" lon="-5.946966">
        <ele>16.80</ele>
        <time>2021-08-28T08:13:47Z</time>
      </trkpt>
      <trkpt lat="37.548399" lon="-5.946862">
        <ele>16.51</ele>
        <time>2021-08-28T08:13:51Z</time>
      </trkpt>
      <trkpt lat="37.548218" lon="-5.946767">
        <ele>17.05</ele>
        <time>2021-08-28T08:13:55Z</time>
      </trkpt>
      <trkpt lat="37.548022" lon="-5.946662">
        <ele>17.87</ele>
        <time>2021-08-28T08:13:59Z</time>
      </trkpt>
      <trkpt lat="37.547841" lon="-5.946564">
        <ele>18.73</ele>
        <time>2021-08-28T08:14:03Z</time>
      </trkpt>
      <trkpt lat="37.547649" lon="-5.946459">
        <ele>19.86</ele>
        <time>2021-08-28T08:14:08Z</time>
      </trkpt>
      <trkpt lat="37.547453" lon="-5.946352">
        <ele>20.96</ele>
        <time>2021-08-28T08:14:14Z</time>
      </trkpt>
      <trkpt lat="37.547263" lon="-5.946252">
        <ele>22.41</ele>
        <time>2021-08-28T08:14:20Z</time>
      </trkpt>
      <trkpt lat="37.547076" lon="-5.946131">
        <ele>23.44</ele>
        <time>2021-08-28T08:14:27Z</time>
      </trkpt>
      <trkpt lat="37.546910" lon="-5.946037">
        <ele>23.76</ele>
        <time>2021-08-28T08:14:33Z</time>
      </trkpt>
      <trkpt lat="37.546714" lon="-5.945943">
        <ele>25.32</ele>
        <time>2021-08-28T08:14:40Z</time>
      </trkpt>
      <trkpt lat="37.546517" lon="-5.945902">
        <ele>26.44</ele>
        <time>2021-08-28T08:14:47Z</time>
      </trkpt>
      <trkpt lat="37.546318" lon="-5.945827">
        <ele>28.79</ele>
        <time>2021-08-28T08:14:53Z</time>
      </trkpt>
      <trkpt lat="37.546139" lon="-5.945755">
        <ele>30.29</ele>
        <time>2021-08-28T08:14:59Z</time>
      </trkpt>
      <trkpt lat="37.545998" lon="-5.945927">
        <ele>31.28</ele>
        <time>2021-08-28T08:15:04Z</time>
      </trkpt>
      <trkpt lat="37.545893" lon="-5.946114">
        <ele>32.19</ele>
        <time>2021-08-28T08:15:08Z</time>
      </trkpt>
      <trkpt lat="37.545778" lon="-5.946295">
        <ele>32.05</ele>
        <time>2021-08-28T08:15:12Z</time>
      </trkpt>
      <trkpt lat="37.545642" lon="-5.946472">
        <ele>31.54</ele>
        <time>2021-08-28T08:15:17Z</time>
      </trkpt>
      <trkpt lat="37.545514" lon="-5.946639">
        <ele>30.97</ele>
        <time>2021-08-28T08:15:22Z</time>
      </trkpt>
      <trkpt lat="37.545352" lon="-5.946806">
        <ele>30.44</ele>
        <time>2021-08-28T08:15:27Z</time>
      </trkpt>
      <trkpt lat="37.545172" lon="-5.946938">
        <ele>30.52</ele>
        <time>2021-08-28T08:15:32Z</time>
      </trkpt>
      <trkpt lat="37.545001" lon="-5.946862">
        <ele>30.04</ele>
        <time>2021-08-28T08:15:37Z</time>
      </trkpt>
      <trkpt lat="37.544876" lon="-5.946656">
        <ele>28.96</ele>
        <time>2021-08-28T08:15:42Z</time>
      </trkpt>
      <trkpt lat="37.544741" lon="-5.946448">
        <ele>29.35</ele>
        <time>2021-08-28T08:15:47Z</time>
      </trkpt>
      <trkpt lat="37.544645" lon="-5.946236">
        <ele>29.63</ele>
        <time>2021-08-28T08:15:51Z</time>
      </trkpt>
      <trkpt lat="37.544525" lon="-5.946047">
        <ele>29.74</ele>
        <time>2021-08-28T08:15:55Z</time>
      </trkpt>
      <trkpt lat="37.544408" lon="-5.945857">
        <ele>29.74</ele>
        <time>2021-08-28T08:15:59Z</time>
      </trkpt>
      <trkpt lat="37.544267" lon="-5.945641">
        <ele>30.13</ele>
        <time>2021-08-28T08:16:04Z</time>
      </trkpt>
      <trkpt lat="37.544132" lon="-5.945440">
        <ele>29.93</ele>
        <time>2021-08-28T08:16:09Z</time>
      </trkpt>
      <trkpt lat="37.544012" lon="-5.945246">
        <ele>28.76</ele>
        <time>2021-08-28T08:16:14Z</time>
      </trkpt>
      <trkpt lat="37.543901" lon="-5.945028">
        <ele>28.58</ele>
        <time>2021-08-28T08:16:19Z</time>
      </trkpt>
      <trkpt lat="37.543728" lon="-5.944843">
        <ele>27.17</ele>
        <time>2021-08-28T08:16:24Z</time>
      </trkpt>
      <trkpt lat="37.543550" lon="-5.944731">
        <ele>24.43</ele>
        <time>2021-08-28T08:16:28Z</time>
      </trkpt>
      <trkpt lat="37.543372" lon="-5.944665">
        <ele>24.43</ele>
        <time>2021-08-28T08:16:32Z</time>
      </trkpt>
      <trkpt lat="37.543160" lon="-5.944597">
        <ele>25.25</ele>
        <time>2021-08-28T08:16:37Z</time>
      </trkpt>
      <trkpt lat="37.542978" lon="-5.944511">
        <ele>25.17</ele>
        <time>2021-08-28T08:16:43Z</time>
      </trkpt>
      <trkpt lat="37.542807" lon="-5.944413">
        <ele>23.46</ele>
        <time>2021-08-28T08:16:52Z</time>
      </trkpt>
      <trkpt lat="37.542664" lon="-5.944239">
        <ele>22.44</ele>
        <time>2021-08-28T08:16:57Z</time>
      </trkpt>
      <trkpt lat="37.542674" lon="-5.944007">
        <ele>21.85</ele>
        <time>2021-08-28T08:17:02Z</time>
      </trkpt>
      <trkpt lat="37.542832" lon="-5.943871">
        <ele>20.85</ele>
        <time>2021-08-28T08:17:07Z</time>
      </trkpt>
      <trkpt lat="37.542998" lon="-5.943779">
        <ele>21.10</ele>
        <time>2021-08-28T08:17:12Z</time>
      </trkpt>
      <trkpt lat="37.543158" lon="-5.943655">
        <ele>22.20</ele>
        <time>2021-08-28T08:17:17Z</time>
      </trkpt>
      <trkpt lat="37.543295" lon="-5.943470">
        <ele>23.06</ele>
        <time>2021-08-28T08:17:22Z</time>
      </trkpt>
      <trkpt lat="37.543433" lon="-5.943278">
        <ele>23.37</ele>
        <time>2021-08-28T08:17:27Z</time>
      </trkpt>
      <trkpt lat="37.543557" lon="-5.943065">
        <ele>24.07</ele>
        <time>2021-08-28T08:17:32Z</time>
      </trkpt>
      <trkpt lat="37.543660" lon="-5.942847">
        <ele>24.54</ele>
        <time>2021-08-28T08:17:37Z</time>
      </trkpt>
      <trkpt lat="37.543775" lon="-5.942621">
        <ele>24.21</ele>
        <time>2021-08-28T08:17:42Z</time>
      </trkpt>
      <trkpt lat="37.543883" lon="-5.942432">
        <ele>24.20</ele>
        <time>2021-08-28T08:17:46Z</time>
      </trkpt>
      <trkpt lat="37.543991" lon="-5.942232">
        <ele>24.20</ele>
        <time>2021-08-28T08:17:50Z</time>
      </trkpt>
      <trkpt lat="37.544101" lon="-5.942032">
        <ele>24.15</ele>
        <time>2021-08-28T08:17:54Z</time>
      </trkpt>
      <trkpt lat="37.544203" lon="-5.941827">
        <ele>24.22</ele>
        <time>2021-08-28T08:17:58Z</time>
      </trkpt>
      <trkpt lat="37.544314" lon="-5.941631">
        <ele>24.66</ele>
        <time>2021-08-28T08:18:02Z</time>
      </trkpt>
      <trkpt lat="37.544430" lon="-5.941445">
        <ele>24.81</ele>
        <time>2021-08-28T08:18:06Z</time>
      </trkpt>
      <trkpt lat="37.544527" lon="-5.941232">
        <ele>24.52</ele>
        <time>2021-08-28T08:18:10Z</time>
      </trkpt>
      <trkpt lat="37.544640" lon="-5.941012">
        <ele>23.52</ele>
        <time>2021-08-28T08:18:14Z</time>
      </trkpt>
      <trkpt lat="37.544753" lon="-5.940794">
        <ele>22.97</ele>
        <time>2021-08-28T08:18:18Z</time>
      </trkpt>
      <trkpt lat="37.544850" lon="-5.940577">
        <ele>22.81</ele>
        <time>2021-08-28T08:18:22Z</time>
      </trkpt>
      <trkpt lat="37.544954" lon="-5.940362">
        <ele>22.30</ele>
        <time>2021-08-28T08:18:26Z</time>
      </trkpt>
      <trkpt lat="37.545046" lon="-5.940160">
        <ele>21.94</ele>
        <time>2021-08-28T08:18:30Z</time>
      </trkpt>
      <trkpt lat="37.545156" lon="-5.939957">
        <ele>21.28</ele>
        <time>2021-08-28T08:18:34Z</time>
      </trkpt>
      <trkpt lat="37.545287" lon="-5.939743">
        <ele>20.60</ele>
        <time>2021-08-28T08:18:38Z</time>
      </trkpt>
      <trkpt lat="37.545439" lon="-5.939510">
        <ele>19.99</ele>
        <time>2021-08-28T08:18:42Z</time>
      </trkpt>
      <trkpt lat="37.545562" lon="-5.939335">
        <ele>18.91</ele>
        <time>2021-08-28T08:18:45Z</time>
      </trkpt>
      <trkpt lat="37.545688" lon="-5.939173">
        <ele>17.87</ele>
        <time>2021-08-28T08:18:48Z</time>
      </trkpt>
      <trkpt lat="37.545822" lon="-5.938970">
        <ele>16.28</ele>
        <time>2021-08-28T08:18:52Z</time>
      </trkpt>
      <trkpt lat="37.545854" lon="-5.938699">
        <ele>14.19</ele>
        <time>2021-08-28T08:18:56Z</time>
      </trkpt>
      <trkpt lat="37.545905" lon="-5.938457">
        <ele>12.62</ele>
        <time>2021-08-28T08:18:59Z</time>
      </trkpt>
      <trkpt lat="37.545980" lon="-5.938232">
        <ele>11.16</ele>
        <time>2021-08-28T08:19:02Z</time>
      </trkpt>
      <trkpt lat="37.546085" lon="-5.938022">
        <ele>9.43</ele>
        <time>2021-08-28T08:19:05Z</time>
      </trkpt>
      <trkpt lat="37.546201" lon="-5.937807">
        <ele>8.82</ele>
        <time>2021-08-28T08:19:08Z</time>
      </trkpt>
      <trkpt lat="37.546323" lon="-5.937583">
        <ele>8.84</ele>
        <time>2021-08-28T08:19:11Z</time>
      </trkpt>
      <trkpt lat="37.546445" lon="-5.937357">
        <ele>8.51</ele>
        <time>2021-08-28T08:19:14Z</time>
      </trkpt>
      <trkpt lat="37.546573" lon="-5.937131">
        <ele>8.80</ele>
        <time>2021-08-28T08:19:17Z</time>
      </trkpt>
      <trkpt lat="37.546702" lon="-5.936918">
        <ele>8.48</ele>
        <time>2021-08-28T08:19:20Z</time>
      </trkpt>
      <trkpt lat="37.546810" lon="-5.936686">
        <ele>8.24</ele>
        <time>2021-08-28T08:19:23Z</time>
      </trkpt>
      <trkpt lat="37.546917" lon="-5.936483">
        <ele>7.92</ele>
        <time>2021-08-28T08:19:26Z</time>
      </trkpt>
      <trkpt lat="37.547044" lon="-5.936235">
        <ele>7.96</ele>
        <time>2021-08-28T08:19:30Z</time>
      </trkpt>
      <trkpt lat="37.547108" lon="-5.936020">
        <ele>7.48</ele>
        <time>2021-08-28T08:19:33Z</time>
      </trkpt>
      <trkpt lat="37.547094" lon="-5.935722">
        <ele>6.89</ele>
        <time>2021-08-28T08:19:37Z</time>
      </trkpt>
      <trkpt lat="37.546978" lon="-5.935486">
        <ele>6.94</ele>
        <time>2021-08-28T08:19:41Z</time>
      </trkpt>
      <trkpt lat="37.546811" lon="-5.935309">
        <ele>7.11</ele>
        <time>2021-08-28T08:19:45Z</time>
      </trkpt>
      <trkpt lat="37.546647" lon="-5.935159">
        <ele>7.06</ele>
        <time>2021-08-28T08:19:49Z</time>
      </trkpt>
      <trkpt lat="37.546499" lon="-5.935005">
        <ele>6.98</ele>
        <time>2021-08-28T08:19:53Z</time>
      </trkpt>
      <trkpt lat="37.546350" lon="-5.934845">
        <ele>6.72</ele>
        <time>2021-08-28T08:19:57Z</time>
      </trkpt>
      <trkpt lat="37.546177" lon="-5.934700">
        <ele>6.30</ele>
        <time>2021-08-28T08:20:01Z</time>
      </trkpt>
      <trkpt lat="37.546009" lon="-5.934532">
        <ele>5.81</ele>
        <time>2021-08-28T08:20:05Z</time>
      </trkpt>
      <trkpt lat="37.545836" lon="-5.934368">
        <ele>6.11</ele>
        <time>2021-08-28T08:20:09Z</time>
      </trkpt>
      <trkpt lat="37.545652" lon="-5.934211">
        <ele>5.93</ele>
        <time>2021-08-28T08:20:13Z</time>
      </trkpt>
      <trkpt lat="37.545471" lon="-5.934041">
        <ele>6.22</ele>
        <time>2021-08-28T08:20:17Z</time>
      </trkpt>
      <trkpt lat="37.545291" lon="-5.933873">
        <ele>7.01</ele>
        <time>2021-08-28T08:20:21Z</time>
      </trkpt>
      <trkpt lat="37.545117" lon="-5.933710">
        <ele>7.64</ele>
        <time>2021-08-28T08:20:25Z</time>
      </trkpt>
      <trkpt lat="37.544942" lon="-5.933545">
        <ele>7.29</ele>
        <time>2021-08-28T08:20:29Z</time>
      </trkpt>
      <trkpt lat="37.544764" lon="-5.933386">
        <ele>7.32</ele>
        <time>2021-08-28T08:20:33Z</time>
      </trkpt>
      <trkpt lat="37.544588" lon="-5.933227">
        <ele>7.68</ele>
        <time>2021-08-28T08:20:37Z</time>
      </trkpt>
      <trkpt lat="37.544401" lon="-5.933066">
        <ele>7.36</ele>
        <time>2021-08-28T08:20:41Z</time>
      </trkpt>
      <trkpt lat="37.544214" lon="-5.932897">
        <ele>7.07</ele>
        <time>2021-08-28T08:20:45Z</time>
      </trkpt>
      <trkpt lat="37.544037" lon="-5.932722">
        <ele>7.29</ele>
        <time>2021-08-28T08:20:49Z</time>
      </trkpt>
      <trkpt lat="37.543870" lon="-5.932553">
        <ele>6.85</ele>
        <time>2021-08-28T08:20:53Z</time>
      </trkpt>
      <trkpt lat="37.543701" lon="-5.932382">
        <ele>6.42</ele>
        <time>2021-08-28T08:20:57Z</time>
      </trkpt>
      <trkpt lat="37.543514" lon="-5.932218">
        <ele>7.02</ele>
        <time>2021-08-28T08:21:01Z</time>
      </trkpt>
      <trkpt lat="37.543335" lon="-5.932049">
        <ele>7.38</ele>
        <time>2021-08-28T08:21:05Z</time>
      </trkpt>
      <trkpt lat="37.543148" lon="-5.931869">
        <ele>7.28</ele>
        <time>2021-08-28T08:21:09Z</time>
      </trkpt>
      <trkpt lat="37.542969" lon="-5.931701">
        <ele>6.79</ele>
        <time>2021-08-28T08:21:13Z</time>
      </trkpt>
      <trkpt lat="37.542787" lon="-5.931532">
        <ele>6.91</ele>
        <time>2021-08-28T08:21:17Z</time>
      </trkpt>
      <trkpt lat="37.542610" lon="-5.931368">
        <ele>6.66</ele>
        <time>2021-08-28T08:21:21Z</time>
      </trkpt>
      <trkpt lat="37.542439" lon="-5.931209">
        <ele>7.24</ele>
        <time>2021-08-28T08:21:25Z</time>
      </trkpt>
      <trkpt lat="37.542268" lon="-5.931042">
        <ele>7.57</ele>
        <time>2021-08-28T08:21:29Z</time>
      </trkpt>
      <trkpt lat="37.542094" lon="-5.930873">
        <ele>7.19</ele>
        <time>2021-08-28T08:21:33Z</time>
      </trkpt>
      <trkpt lat="37.541922" lon="-5.930702">
        <ele>7.05</ele>
        <time>2021-08-28T08:21:37Z</time>
      </trkpt>
      <trkpt lat="37.541733" lon="-5.930552">
        <ele>7.07</ele>
        <time>2021-08-28T08:21:41Z</time>
      </trkpt>
      <trkpt lat="37.541547" lon="-5.930409">
        <ele>6.79</ele>
        <time>2021-08-28T08:21:45Z</time>
      </trkpt>
      <trkpt lat="37.541353" lon="-5.930258">
        <ele>6.60</ele>
        <time>2021-08-28T08:21:49Z</time>
      </trkpt>
      <trkpt lat="37.541154" lon="-5.930108">
        <ele>6.87</ele>
        <time>2021-08-28T08:21:53Z</time>
      </trkpt>
      <trkpt lat="37.540951" lon="-5.929964">
        <ele>6.61</ele>
        <time>2021-08-28T08:21:57Z</time>
      </trkpt>
      <trkpt lat="37.540746" lon="-5.929823">
        <ele>6.96</ele>
        <time>2021-08-28T08:22:01Z</time>
      </trkpt>
      <trkpt lat="37.540547" lon="-5.929682">
        <ele>7.17</ele>
        <time>2021-08-28T08:22:05Z</time>
      </trkpt>
      <trkpt lat="37.540352" lon="-5.929551">
        <ele>6.51</ele>
        <time>2021-08-28T08:22:09Z</time>
      </trkpt>
      <trkpt lat="37.540160" lon="-5.929396">
        <ele>6.59</ele>
        <time>2021-08-28T08:22:13Z</time>
      </trkpt>
      <trkpt lat="37.539974" lon="-5.929250">
        <ele>7.05</ele>
        <time>2021-08-28T08:22:17Z</time>
      </trkpt>
      <trkpt lat="37.539812" lon="-5.929105">
        <ele>6.58</ele>
        <time>2021-08-28T08:22:21Z</time>
      </trkpt>
      <trkpt lat="37.539629" lon="-5.928986">
        <ele>7.15</ele>
        <time>2021-08-28T08:22:26Z</time>
      </trkpt>
      <trkpt lat="37.539474" lon="-5.929115">
        <ele>7.38</ele>
        <time>2021-08-28T08:22:31Z</time>
      </trkpt>
      <trkpt lat="37.539366" lon="-5.929304">
        <ele>7.56</ele>
        <time>2021-08-28T08:22:36Z</time>
      </trkpt>
      <trkpt lat="37.539243" lon="-5.929500">
        <ele>6.94</ele>
        <time>2021-08-28T08:22:41Z</time>
      </trkpt>
      <trkpt lat="37.539101" lon="-5.929718">
        <ele>8.68</ele>
        <time>2021-08-28T08:22:46Z</time>
      </trkpt>
      <trkpt lat="37.538965" lon="-5.929941">
        <ele>8.13</ele>
        <time>2021-08-28T08:22:51Z</time>
      </trkpt>
      <trkpt lat="37.538851" lon="-5.930124">
        <ele>6.59</ele>
        <time>2021-08-28T08:22:55Z</time>
      </trkpt>
      <trkpt lat="37.538733" lon="-5.930328">
        <ele>7.04</ele>
        <time>2021-08-28T08:22:59Z</time>
      </trkpt>
      <trkpt lat="37.538620" lon="-5.930532">
        <ele>7.56</ele>
        <time>2021-08-28T08:23:03Z</time>
      </trkpt>
      <trkpt lat="37.538510" lon="-5.930740">
        <ele>6.83</ele>
        <time>2021-08-28T08:23:07Z</time>
      </trkpt>
      <trkpt lat="37.538393" lon="-5.930957">
        <ele>7.96</ele>
        <time>2021-08-28T08:23:11Z</time>
      </trkpt>
      <trkpt lat="37.538280" lon="-5.931166">
        <ele>8.29</ele>
        <time>2021-08-28T08:23:15Z</time>
      </trkpt>
      <trkpt lat="37.538172" lon="-5.931379">
        <ele>7.04</ele>
        <time>2021-08-28T08:23:19Z</time>
      </trkpt>
      <trkpt lat="37.538060" lon="-5.931593">
        <ele>6.74</ele>
        <time>2021-08-28T08:23:23Z</time>
      </trkpt>
      <trkpt lat="37.537946" lon="-5.931812">
        <ele>7.08</ele>
        <time>2021-08-28T08:23:27Z</time>
      </trkpt>
      <trkpt lat="37.537835" lon="-5.932027">
        <ele>7.20</ele>
        <time>2021-08-28T08:23:31Z</time>
      </trkpt>
      <trkpt lat="37.537726" lon="-5.932246">
        <ele>6.63</ele>
        <time>2021-08-28T08:23:35Z</time>
      </trkpt>
      <trkpt lat="37.537610" lon="-5.932466">
        <ele>6.79</ele>
        <time>2021-08-28T08:23:39Z</time>
      </trkpt>
      <trkpt lat="37.537497" lon="-5.932686">
        <ele>6.58</ele>
        <time>2021-08-28T08:23:43Z</time>
      </trkpt>
      <trkpt lat="37.537380" lon="-5.932908">
        <ele>7.23</ele>
        <time>2021-08-28T08:23:47Z</time>
      </trkpt>
      <trkpt lat="37.537264" lon="-5.933137">
        <ele>7.14</ele>
        <time>2021-08-28T08:23:51Z</time>
      </trkpt>
      <trkpt lat="37.537148" lon="-5.933380">
        <ele>7.14</ele>
        <time>2021-08-28T08:23:55Z</time>
      </trkpt>
      <trkpt lat="37.537022" lon="-5.933611">
        <ele>7.18</ele>
        <time>2021-08-28T08:23:59Z</time>
      </trkpt>
      <trkpt lat="37.536902" lon="-5.933850">
        <ele>6.60</ele>
        <time>2021-08-28T08:24:03Z</time>
      </trkpt>
      <trkpt lat="37.536782" lon="-5.934083">
        <ele>6.32</ele>
        <time>2021-08-28T08:24:07Z</time>
      </trkpt>
      <trkpt lat="37.536664" lon="-5.934314">
        <ele>6.83</ele>
        <time>2021-08-28T08:24:11Z</time>
      </trkpt>
      <trkpt lat="37.536541" lon="-5.934557">
        <ele>7.06</ele>
        <time>2021-08-28T08:24:15Z</time>
      </trkpt>
      <trkpt lat="37.536412" lon="-5.934800">
        <ele>6.83</ele>
        <time>2021-08-28T08:24:19Z</time>
      </trkpt>
      <trkpt lat="37.536284" lon="-5.935051">
        <ele>6.78</ele>
        <time>2021-08-28T08:24:23Z</time>
      </trkpt>
      <trkpt lat="37.536160" lon="-5.935299">
        <ele>6.73</ele>
        <time>2021-08-28T08:24:27Z</time>
      </trkpt>
      <trkpt lat="37.536025" lon="-5.935543">
        <ele>6.64</ele>
        <time>2021-08-28T08:24:31Z</time>
      </trkpt>
      <trkpt lat="37.535911" lon="-5.935790">
        <ele>6.79</ele>
        <time>2021-08-28T08:24:35Z</time>
      </trkpt>
      <trkpt lat="37.535802" lon="-5.936051">
        <ele>7.29</ele>
        <time>2021-08-28T08:24:39Z</time>
      </trkpt>
      <trkpt lat="37.535699" lon="-5.936305">
        <ele>7.86</ele>
        <time>2021-08-28T08:24:43Z</time>
      </trkpt>
      <trkpt lat="37.535605" lon="-5.936560">
        <ele>7.31</ele>
        <time>2021-08-28T08:24:47Z</time>
      </trkpt>
      <trkpt lat="37.535508" lon="-5.936818">
        <ele>7.45</ele>
        <time>2021-08-28T08:24:51Z</time>
      </trkpt>
      <trkpt lat="37.535421" lon="-5.937067">
        <ele>7.48</ele>
        <time>2021-08-28T08:24:55Z</time>
      </trkpt>
      <trkpt lat="37.535330" lon="-5.937316">
        <ele>7.62</ele>
        <time>2021-08-28T08:24:59Z</time>
      </trkpt>
      <trkpt lat="37.535240" lon="-5.937570">
        <ele>7.02</ele>
        <time>2021-08-28T08:25:03Z</time>
      </trkpt>
      <trkpt lat="37.535147" lon="-5.937820">
        <ele>7.32</ele>
        <time>2021-08-28T08:25:07Z</time>
      </trkpt>
      <trkpt lat="37.535058" lon="-5.938070">
        <ele>7.37</ele>
        <time>2021-08-28T08:25:11Z</time>
      </trkpt>
      <trkpt lat="37.534966" lon="-5.938321">
        <ele>6.64</ele>
        <time>2021-08-28T08:25:15Z</time>
      </trkpt>
      <trkpt lat="37.534880" lon="-5.938562">
        <ele>6.21</ele>
        <time>2021-08-28T08:25:19Z</time>
      </trkpt>
      <trkpt lat="37.534791" lon="-5.938805">
        <ele>6.01</ele>
        <time>2021-08-28T08:25:23Z</time>
      </trkpt>
      <trkpt lat="37.534703" lon="-5.939054">
        <ele>6.57</ele>
        <time>2021-08-28T08:25:27Z</time>
      </trkpt>
      <trkpt lat="37.534616" lon="-5.939310">
        <ele>7.19</ele>
        <time>2021-08-28T08:25:31Z</time>
      </trkpt>
      <trkpt lat="37.534525" lon="-5.939566">
        <ele>7.21</ele>
        <time>2021-08-28T08:25:35Z</time>
      </trkpt>
      <trkpt lat="37.534436" lon="-5.939823">
        <ele>6.74</ele>
        <time>2021-08-28T08:25:39Z</time>
      </trkpt>
      <trkpt lat="37.534347" lon="-5.940086">
        <ele>6.63</ele>
        <time>2021-08-28T08:25:43Z</time>
      </trkpt>
      <trkpt lat="37.534254" lon="-5.940346">
        <ele>6.17</ele>
        <time>2021-08-28T08:25:47Z</time>
      </trkpt>
      <trkpt lat="37.534158" lon="-5.940606">
        <ele>6.54</ele>
        <time>2021-08-28T08:25:51Z</time>
      </trkpt>
      <trkpt lat="37.534056" lon="-5.940878">
        <ele>6.53</ele>
        <time>2021-08-28T08:25:55Z</time>
      </trkpt>
      <trkpt lat="37.533951" lon="-5.941149">
        <ele>7.11</ele>
        <time>2021-08-28T08:25:59Z</time>
      </trkpt>
      <trkpt lat="37.533844" lon="-5.941420">
        <ele>7.11</ele>
        <time>2021-08-28T08:26:03Z</time>
      </trkpt>
      <trkpt lat="37.533742" lon="-5.941693">
        <ele>7.15</ele>
        <time>2021-08-28T08:26:07Z</time>
      </trkpt>
      <trkpt lat="37.533634" lon="-5.941957">
        <ele>7.09</ele>
        <time>2021-08-28T08:26:11Z</time>
      </trkpt>
      <trkpt lat="37.533538" lon="-5.942214">
        <ele>7.07</ele>
        <time>2021-08-28T08:26:15Z</time>
      </trkpt>
      <trkpt lat="37.533458" lon="-5.942418">
        <ele>6.67</ele>
        <time>2021-08-28T08:26:18Z</time>
      </trkpt>
      <trkpt lat="37.533362" lon="-5.942671">
        <ele>6.65</ele>
        <time>2021-08-28T08:26:22Z</time>
      </trkpt>
      <trkpt lat="37.533261" lon="-5.942926">
        <ele>6.78</ele>
        <time>2021-08-28T08:26:26Z</time>
      </trkpt>
      <trkpt lat="37.533167" lon="-5.943176">
        <ele>6.79</ele>
        <time>2021-08-28T08:26:30Z</time>
      </trkpt>
      <trkpt lat="37.533075" lon="-5.943435">
        <ele>6.89</ele>
        <time>2021-08-28T08:26:34Z</time>
      </trkpt>
      <trkpt lat="37.532971" lon="-5.943686">
        <ele>6.87</ele>
        <time>2021-08-28T08:26:38Z</time>
      </trkpt>
      <trkpt lat="37.532876" lon="-5.943943">
        <ele>6.85</ele>
        <time>2021-08-28T08:26:42Z</time>
      </trkpt>
      <trkpt lat="37.532762" lon="-5.944189">
        <ele>7.05</ele>
        <time>2021-08-28T08:26:46Z</time>
      </trkpt>
      <trkpt lat="37.532633" lon="-5.944430">
        <ele>7.21</ele>
        <time>2021-08-28T08:26:50Z</time>
      </trkpt>
      <trkpt lat="37.532494" lon="-5.944656">
        <ele>7.48</ele>
        <time>2021-08-28T08:26:54Z</time>
      </trkpt>
      <trkpt lat="37.532347" lon="-5.944880">
        <ele>6.88</ele>
        <time>2021-08-28T08:26:58Z</time>
      </trkpt>
      <trkpt lat="37.532199" lon="-5.945102">
        <ele>6.81</ele>
        <time>2021-08-28T08:27:02Z</time>
      </trkpt>
      <trkpt lat="37.532054" lon="-5.945320">
        <ele>7.32</ele>
        <time>2021-08-28T08:27:06Z</time>
      </trkpt>
      <trkpt lat="37.531909" lon="-5.945537">
        <ele>7.01</ele>
        <time>2021-08-28T08:27:10Z</time>
      </trkpt>
      <trkpt lat="37.531761" lon="-5.945746">
        <ele>6.71</ele>
        <time>2021-08-28T08:27:14Z</time>
      </trkpt>
      <trkpt lat="37.531620" lon="-5.945958">
        <ele>7.12</ele>
        <time>2021-08-28T08:27:18Z</time>
      </trkpt>
      <trkpt lat="37.531485" lon="-5.946167">
        <ele>7.23</ele>
        <time>2021-08-28T08:27:22Z</time>
      </trkpt>
      <trkpt lat="37.531351" lon="-5.946369">
        <ele>6.80</ele>
        <time>2021-08-28T08:27:26Z</time>
      </trkpt>
      <trkpt lat="37.531210" lon="-5.946579">
        <ele>6.52</ele>
        <time>2021-08-28T08:27:30Z</time>
      </trkpt>
      <trkpt lat="37.531070" lon="-5.946791">
        <ele>5.93</ele>
        <time>2021-08-28T08:27:34Z</time>
      </trkpt>
      <trkpt lat="37.530923" lon="-5.947006">
        <ele>5.99</ele>
        <time>2021-08-28T08:27:38Z</time>
      </trkpt>
      <trkpt lat="37.530778" lon="-5.947218">
        <ele>5.55</ele>
        <time>2021-08-28T08:27:42Z</time>
      </trkpt>
      <trkpt lat="37.530641" lon="-5.947419">
        <ele>6.15</ele>
        <time>2021-08-28T08:27:46Z</time>
      </trkpt>
      <trkpt lat="37.530495" lon="-5.947611">
        <ele>6.46</ele>
        <time>2021-08-28T08:27:50Z</time>
      </trkpt>
      <trkpt lat="37.530347" lon="-5.947808">
        <ele>6.77</ele>
        <time>2021-08-28T08:27:54Z</time>
      </trkpt>
      <trkpt lat="37.530209" lon="-5.947980">
        <ele>6.58</ele>
        <time>2021-08-28T08:27:58Z</time>
      </trkpt>
      <trkpt lat="37.530192" lon="-5.947990">
        <ele>6.46</ele>
        <time>2021-08-28T08:28:34Z</time>
      </trkpt>
      <trkpt lat="37.530188" lon="-5.947993">
        <ele>6.24</ele>
        <time>2021-08-28T08:29:15Z</time>
      </trkpt>
      <trkpt lat="37.530250" lon="-5.947827">
        <ele>6.31</ele>
        <time>2021-08-28T08:31:50Z</time>
      </trkpt>
      <trkpt lat="37.530258" lon="-5.947839">
        <ele>6.17</ele>
        <time>2021-08-28T08:32:19Z</time>
      </trkpt>
      <trkpt lat="37.530139" lon="-5.948029">
        <ele>6.19</ele>
        <time>2021-08-28T08:32:33Z</time>
      </trkpt>
      <trkpt lat="37.530003" lon="-5.948237">
        <ele>6.18</ele>
        <time>2021-08-28T08:32:39Z</time>
      </trkpt>
      <trkpt lat="37.529848" lon="-5.948432">
        <ele>6.23</ele>
        <time>2021-08-28T08:32:45Z</time>
      </trkpt>
      <trkpt lat="37.529705" lon="-5.948611">
        <ele>6.23</ele>
        <time>2021-08-28T08:32:50Z</time>
      </trkpt>
      <trkpt lat="37.529558" lon="-5.948795">
        <ele>5.90</ele>
        <time>2021-08-28T08:32:55Z</time>
      </trkpt>
      <trkpt lat="37.529433" lon="-5.948959">
        <ele>5.98</ele>
        <time>2021-08-28T08:32:59Z</time>
      </trkpt>
      <trkpt lat="37.529305" lon="-5.949125">
        <ele>5.94</ele>
        <time>2021-08-28T08:33:03Z</time>
      </trkpt>
      <trkpt lat="37.529165" lon="-5.949295">
        <ele>5.91</ele>
        <time>2021-08-28T08:33:07Z</time>
      </trkpt>
      <trkpt lat="37.529020" lon="-5.949470">
        <ele>5.42</ele>
        <time>2021-08-28T08:33:11Z</time>
      </trkpt>
      <trkpt lat="37.528863" lon="-5.949640">
        <ele>4.86</ele>
        <time>2021-08-28T08:33:15Z</time>
      </trkpt>
      <trkpt lat="37.528698" lon="-5.949805">
        <ele>4.75</ele>
        <time>2021-08-28T08:33:19Z</time>
      </trkpt>
      <trkpt lat="37.528523" lon="-5.949965">
        <ele>4.97</ele>
        <time>2021-08-28T08:33:23Z</time>
      </trkpt>
      <trkpt lat="37.528351" lon="-5.950120">
        <ele>5.52</ele>
        <time>2021-08-28T08:33:27Z</time>
      </trkpt>
      <trkpt lat="37.528182" lon="-5.950285">
        <ele>6.47</ele>
        <time>2021-08-28T08:33:31Z</time>
      </trkpt>
      <trkpt lat="37.528013" lon="-5.950457">
        <ele>6.40</ele>
        <time>2021-08-28T08:33:35Z</time>
      </trkpt>
      <trkpt lat="37.527847" lon="-5.950635">
        <ele>6.59</ele>
        <time>2021-08-28T08:33:39Z</time>
      </trkpt>
      <trkpt lat="37.527684" lon="-5.950836">
        <ele>6.58</ele>
        <time>2021-08-28T08:33:43Z</time>
      </trkpt>
      <trkpt lat="37.527534" lon="-5.951039">
        <ele>6.12</ele>
        <time>2021-08-28T08:33:47Z</time>
      </trkpt>
      <trkpt lat="37.527385" lon="-5.951252">
        <ele>6.23</ele>
        <time>2021-08-28T08:33:51Z</time>
      </trkpt>
      <trkpt lat="37.527240" lon="-5.951486">
        <ele>6.55</ele>
        <time>2021-08-28T08:33:55Z</time>
      </trkpt>
      <trkpt lat="37.527109" lon="-5.951726">
        <ele>6.21</ele>
        <time>2021-08-28T08:33:59Z</time>
      </trkpt>
      <trkpt lat="37.526989" lon="-5.951972">
        <ele>5.70</ele>
        <time>2021-08-28T08:34:03Z</time>
      </trkpt>
      <trkpt lat="37.526887" lon="-5.952245">
        <ele>5.58</ele>
        <time>2021-08-28T08:34:07Z</time>
      </trkpt>
      <trkpt lat="37.526829" lon="-5.952462">
        <ele>5.78</ele>
        <time>2021-08-28T08:34:10Z</time>
      </trkpt>
      <trkpt lat="37.526791" lon="-5.952687">
        <ele>5.86</ele>
        <time>2021-08-28T08:34:13Z</time>
      </trkpt>
      <trkpt lat="37.526741" lon="-5.952982">
        <ele>6.46</ele>
        <time>2021-08-28T08:34:17Z</time>
      </trkpt>
      <trkpt lat="37.526685" lon="-5.953262">
        <ele>6.38</ele>
        <time>2021-08-28T08:34:21Z</time>
      </trkpt>
      <trkpt lat="37.526635" lon="-5.953546">
        <ele>6.26</ele>
        <time>2021-08-28T08:34:25Z</time>
      </trkpt>
      <trkpt lat="37.526594" lon="-5.953814">
        <ele>5.89</ele>
        <time>2021-08-28T08:34:29Z</time>
      </trkpt>
      <trkpt lat="37.526557" lon="-5.954073">
        <ele>5.79</ele>
        <time>2021-08-28T08:34:33Z</time>
      </trkpt>
      <trkpt lat="37.526525" lon="-5.954335">
        <ele>5.11</ele>
        <time>2021-08-28T08:34:37Z</time>
      </trkpt>
      <trkpt lat="37.526498" lon="-5.954599">
        <ele>5.17</ele>
        <time>2021-08-28T08:34:41Z</time>
      </trkpt>
      <trkpt lat="37.526478" lon="-5.954862">
        <ele>5.29</ele>
        <time>2021-08-28T08:34:45Z</time>
      </trkpt>
      <trkpt lat="37.526451" lon="-5.955133">
        <ele>5.12</ele>
        <time>2021-08-28T08:34:49Z</time>
      </trkpt>
      <trkpt lat="37.526426" lon="-5.955408">
        <ele>5.47</ele>
        <time>2021-08-28T08:34:53Z</time>
      </trkpt>
      <trkpt lat="37.526409" lon="-5.955669">
        <ele>5.52</ele>
        <time>2021-08-28T08:34:57Z</time>
      </trkpt>
      <trkpt lat="37.526391" lon="-5.955948">
        <ele>5.50</ele>
        <time>2021-08-28T08:35:01Z</time>
      </trkpt>
      <trkpt lat="37.526382" lon="-5.956234">
        <ele>5.49</ele>
        <time>2021-08-28T08:35:05Z</time>
      </trkpt>
      <trkpt lat="37.526366" lon="-5.956523">
        <ele>5.71</ele>
        <time>2021-08-28T08:35:09Z</time>
      </trkpt>
      <trkpt lat="37.526345" lon="-5.956815">
        <ele>7.00</ele>
        <time>2021-08-28T08:35:13Z</time>
      </trkpt>
      <trkpt lat="37.526336" lon="-5.957116">
        <ele>6.96</ele>
        <time>2021-08-28T08:35:17Z</time>
      </trkpt>
      <trkpt lat="37.526340" lon="-5.957397">
        <ele>6.66</ele>
        <time>2021-08-28T08:35:21Z</time>
      </trkpt>
      <trkpt lat="37.526342" lon="-5.957634">
        <ele>7.16</ele>
        <time>2021-08-28T08:35:25Z</time>
      </trkpt>
      <trkpt lat="37.526356" lon="-5.957889">
        <ele>6.77</ele>
        <time>2021-08-28T08:35:30Z</time>
      </trkpt>
      <trkpt lat="37.526367" lon="-5.958147">
        <ele>6.60</ele>
        <time>2021-08-28T08:35:35Z</time>
      </trkpt>
      <trkpt lat="37.526375" lon="-5.958427">
        <ele>6.62</ele>
        <time>2021-08-28T08:35:40Z</time>
      </trkpt>
      <trkpt lat="37.526383" lon="-5.958660">
        <ele>7.17</ele>
        <time>2021-08-28T08:35:44Z</time>
      </trkpt>
      <trkpt lat="37.526380" lon="-5.958943">
        <ele>7.96</ele>
        <time>2021-08-28T08:35:49Z</time>
      </trkpt>
      <trkpt lat="37.526391" lon="-5.959173">
        <ele>8.51</ele>
        <time>2021-08-28T08:35:53Z</time>
      </trkpt>
      <trkpt lat="37.526403" lon="-5.959401">
        <ele>8.72</ele>
        <time>2021-08-28T08:35:57Z</time>
      </trkpt>
      <trkpt lat="37.526416" lon="-5.959683">
        <ele>9.63</ele>
        <time>2021-08-28T08:36:02Z</time>
      </trkpt>
      <trkpt lat="37.526425" lon="-5.959966">
        <ele>10.49</ele>
        <time>2021-08-28T08:36:07Z</time>
      </trkpt>
      <trkpt lat="37.526428" lon="-5.960251">
        <ele>12.14</ele>
        <time>2021-08-28T08:36:12Z</time>
      </trkpt>
      <trkpt lat="37.526417" lon="-5.960478">
        <ele>12.34</ele>
        <time>2021-08-28T08:36:16Z</time>
      </trkpt>
      <trkpt lat="37.526391" lon="-5.960704">
        <ele>12.68</ele>
        <time>2021-08-28T08:36:20Z</time>
      </trkpt>
      <trkpt lat="37.526337" lon="-5.960973">
        <ele>13.13</ele>
        <time>2021-08-28T08:36:25Z</time>
      </trkpt>
      <trkpt lat="37.526291" lon="-5.961209">
        <ele>13.26</ele>
        <time>2021-08-28T08:36:29Z</time>
      </trkpt>
      <trkpt lat="37.526232" lon="-5.961440">
        <ele>13.19</ele>
        <time>2021-08-28T08:36:33Z</time>
      </trkpt>
      <trkpt lat="37.526169" lon="-5.961672">
        <ele>14.25</ele>
        <time>2021-08-28T08:36:37Z</time>
      </trkpt>
      <trkpt lat="37.526101" lon="-5.961900">
        <ele>14.91</ele>
        <time>2021-08-28T08:36:41Z</time>
      </trkpt>
      <trkpt lat="37.526040" lon="-5.962113">
        <ele>14.50</ele>
        <time>2021-08-28T08:36:45Z</time>
      </trkpt>
      <trkpt lat="37.525984" lon="-5.962332">
        <ele>14.60</ele>
        <time>2021-08-28T08:36:49Z</time>
      </trkpt>
      <trkpt lat="37.525922" lon="-5.962546">
        <ele>14.77</ele>
        <time>2021-08-28T08:36:53Z</time>
      </trkpt>
      <trkpt lat="37.525880" lon="-5.962824">
        <ele>15.57</ele>
        <time>2021-08-28T08:36:58Z</time>
      </trkpt>
      <trkpt lat="37.525855" lon="-5.963098">
        <ele>15.95</ele>
        <time>2021-08-28T08:37:03Z</time>
      </trkpt>
      <trkpt lat="37.525842" lon="-5.963325">
        <ele>16.58</ele>
        <time>2021-08-28T08:37:07Z</time>
      </trkpt>
      <trkpt lat="37.525832" lon="-5.963597">
        <ele>18.02</ele>
        <time>2021-08-28T08:37:12Z</time>
      </trkpt>
      <trkpt lat="37.525816" lon="-5.963862">
        <ele>18.37</ele>
        <time>2021-08-28T08:37:17Z</time>
      </trkpt>
      <trkpt lat="37.525796" lon="-5.964128">
        <ele>19.39</ele>
        <time>2021-08-28T08:37:22Z</time>
      </trkpt>
      <trkpt lat="37.525771" lon="-5.964405">
        <ele>20.23</ele>
        <time>2021-08-28T08:37:27Z</time>
      </trkpt>
      <trkpt lat="37.525748" lon="-5.964679">
        <ele>20.91</ele>
        <time>2021-08-28T08:37:32Z</time>
      </trkpt>
      <trkpt lat="37.525722" lon="-5.964954">
        <ele>21.55</ele>
        <time>2021-08-28T08:37:37Z</time>
      </trkpt>
      <trkpt lat="37.525698" lon="-5.965230">
        <ele>21.86</ele>
        <time>2021-08-28T08:37:42Z</time>
      </trkpt>
      <trkpt lat="37.525676" lon="-5.965498">
        <ele>22.86</ele>
        <time>2021-08-28T08:37:47Z</time>
      </trkpt>
      <trkpt lat="37.525660" lon="-5.965756">
        <ele>23.97</ele>
        <time>2021-08-28T08:37:52Z</time>
      </trkpt>
      <trkpt lat="37.525642" lon="-5.966011">
        <ele>25.13</ele>
        <time>2021-08-28T08:37:57Z</time>
      </trkpt>
      <trkpt lat="37.525621" lon="-5.966266">
        <ele>25.61</ele>
        <time>2021-08-28T08:38:02Z</time>
      </trkpt>
      <trkpt lat="37.525594" lon="-5.966529">
        <ele>26.28</ele>
        <time>2021-08-28T08:38:07Z</time>
      </trkpt>
      <trkpt lat="37.525577" lon="-5.966793">
        <ele>26.80</ele>
        <time>2021-08-28T08:38:12Z</time>
      </trkpt>
      <trkpt lat="37.525557" lon="-5.967055">
        <ele>27.90</ele>
        <time>2021-08-28T08:38:17Z</time>
      </trkpt>
      <trkpt lat="37.525533" lon="-5.967320">
        <ele>28.59</ele>
        <time>2021-08-28T08:38:22Z</time>
      </trkpt>
      <trkpt lat="37.525512" lon="-5.967585">
        <ele>29.02</ele>
        <time>2021-08-28T08:38:27Z</time>
      </trkpt>
      <trkpt lat="37.525487" lon="-5.967851">
        <ele>29.51</ele>
        <time>2021-08-28T08:38:32Z</time>
      </trkpt>
      <trkpt lat="37.525471" lon="-5.968115">
        <ele>30.28</ele>
        <time>2021-08-28T08:38:37Z</time>
      </trkpt>
      <trkpt lat="37.525467" lon="-5.968386">
        <ele>31.04</ele>
        <time>2021-08-28T08:38:42Z</time>
      </trkpt>
      <trkpt lat="37.525489" lon="-5.968617">
        <ele>31.66</ele>
        <time>2021-08-28T08:38:46Z</time>
      </trkpt>
      <trkpt lat="37.525515" lon="-5.968843">
        <ele>32.41</ele>
        <time>2021-08-28T08:38:50Z</time>
      </trkpt>
      <trkpt lat="37.525549" lon="-5.969074">
        <ele>33.00</ele>
        <time>2021-08-28T08:38:54Z</time>
      </trkpt>
      <trkpt lat="37.525583" lon="-5.969312">
        <ele>33.73</ele>
        <time>2021-08-28T08:38:58Z</time>
      </trkpt>
      <trkpt lat="37.525614" lon="-5.969554">
        <ele>33.61</ele>
        <time>2021-08-28T08:39:02Z</time>
      </trkpt>
      <trkpt lat="37.525664" lon="-5.969788">
        <ele>33.75</ele>
        <time>2021-08-28T08:39:06Z</time>
      </trkpt>
      <trkpt lat="37.525689" lon="-5.970034">
        <ele>34.76</ele>
        <time>2021-08-28T08:39:10Z</time>
      </trkpt>
      <trkpt lat="37.525687" lon="-5.970271">
        <ele>34.94</ele>
        <time>2021-08-28T08:39:14Z</time>
      </trkpt>
      <trkpt lat="37.525652" lon="-5.970494">
        <ele>35.18</ele>
        <time>2021-08-28T08:39:18Z</time>
      </trkpt>
      <trkpt lat="37.525600" lon="-5.970712">
        <ele>35.91</ele>
        <time>2021-08-28T08:39:22Z</time>
      </trkpt>
      <trkpt lat="37.525540" lon="-5.970979">
        <ele>36.72</ele>
        <time>2021-08-28T08:39:27Z</time>
      </trkpt>
      <trkpt lat="37.525488" lon="-5.971249">
        <ele>37.80</ele>
        <time>2021-08-28T08:39:32Z</time>
      </trkpt>
      <trkpt lat="37.525460" lon="-5.971475">
        <ele>38.37</ele>
        <time>2021-08-28T08:39:36Z</time>
      </trkpt>
      <trkpt lat="37.525475" lon="-5.971752">
        <ele>39.20</ele>
        <time>2021-08-28T08:39:41Z</time>
      </trkpt>
      <trkpt lat="37.525526" lon="-5.971978">
        <ele>40.18</ele>
        <time>2021-08-28T08:39:45Z</time>
      </trkpt>
      <trkpt lat="37.525589" lon="-5.972191">
        <ele>41.22</ele>
        <time>2021-08-28T08:39:49Z</time>
      </trkpt>
      <trkpt lat="37.525673" lon="-5.972448">
        <ele>41.64</ele>
        <time>2021-08-28T08:39:54Z</time>
      </trkpt>
      <trkpt lat="37.525697" lon="-5.972716">
        <ele>43.44</ele>
        <time>2021-08-28T08:39:59Z</time>
      </trkpt>
      <trkpt lat="37.525677" lon="-5.972956">
        <ele>44.98</ele>
        <time>2021-08-28T08:40:04Z</time>
      </trkpt>
      <trkpt lat="37.525645" lon="-5.973206">
        <ele>47.40</ele>
        <time>2021-08-28T08:40:10Z</time>
      </trkpt>
      <trkpt lat="37.525632" lon="-5.973468">
        <ele>48.55</ele>
        <time>2021-08-28T08:40:16Z</time>
      </trkpt>
      <trkpt lat="37.525589" lon="-5.973706">
        <ele>48.48</ele>
        <time>2021-08-28T08:40:21Z</time>
      </trkpt>
      <trkpt lat="37.525531" lon="-5.973945">
        <ele>48.32</ele>
        <time>2021-08-28T08:40:26Z</time>
      </trkpt>
      <trkpt lat="37.525466" lon="-5.974170">
        <ele>47.29</ele>
        <time>2021-08-28T08:40:31Z</time>
      </trkpt>
      <trkpt lat="37.525371" lon="-5.974387">
        <ele>46.29</ele>
        <time>2021-08-28T08:40:36Z</time>
      </trkpt>
      <trkpt lat="37.525244" lon="-5.974609">
        <ele>45.80</ele>
        <time>2021-08-28T08:40:41Z</time>
      </trkpt>
      <trkpt lat="37.525116" lon="-5.974770">
        <ele>46.96</ele>
        <time>2021-08-28T08:40:45Z</time>
      </trkpt>
      <trkpt lat="37.524989" lon="-5.974945">
        <ele>46.45</ele>
        <time>2021-08-28T08:40:49Z</time>
      </trkpt>
      <trkpt lat="37.524859" lon="-5.975159">
        <ele>45.78</ele>
        <time>2021-08-28T08:40:53Z</time>
      </trkpt>
      <trkpt lat="37.524717" lon="-5.975413">
        <ele>44.35</ele>
        <time>2021-08-28T08:40:57Z</time>
      </trkpt>
      <trkpt lat="37.524602" lon="-5.975624">
        <ele>42.83</ele>
        <time>2021-08-28T08:41:00Z</time>
      </trkpt>
      <trkpt lat="37.524471" lon="-5.975843">
        <ele>41.68</ele>
        <time>2021-08-28T08:41:03Z</time>
      </trkpt>
      <trkpt lat="37.524333" lon="-5.976053">
        <ele>40.82</ele>
        <time>2021-08-28T08:41:06Z</time>
      </trkpt>
      <trkpt lat="37.524206" lon="-5.976267">
        <ele>40.18</ele>
        <time>2021-08-28T08:41:09Z</time>
      </trkpt>
      <trkpt lat="37.524082" lon="-5.976483">
        <ele>39.81</ele>
        <time>2021-08-28T08:41:12Z</time>
      </trkpt>
      <trkpt lat="37.523945" lon="-5.976679">
        <ele>39.56</ele>
        <time>2021-08-28T08:41:15Z</time>
      </trkpt>
      <trkpt lat="37.523808" lon="-5.976882">
        <ele>39.30</ele>
        <time>2021-08-28T08:41:18Z</time>
      </trkpt>
      <trkpt lat="37.523671" lon="-5.977080">
        <ele>38.78</ele>
        <time>2021-08-28T08:41:21Z</time>
      </trkpt>
      <trkpt lat="37.523523" lon="-5.977271">
        <ele>38.21</ele>
        <time>2021-08-28T08:41:24Z</time>
      </trkpt>
      <trkpt lat="37.523367" lon="-5.977448">
        <ele>37.43</ele>
        <time>2021-08-28T08:41:27Z</time>
      </trkpt>
      <trkpt lat="37.523199" lon="-5.977627">
        <ele>36.03</ele>
        <time>2021-08-28T08:41:30Z</time>
      </trkpt>
      <trkpt lat="37.523038" lon="-5.977807">
        <ele>34.05</ele>
        <time>2021-08-28T08:41:33Z</time>
      </trkpt>
      <trkpt lat="37.522901" lon="-5.977955">
        <ele>32.70</ele>
        <time>2021-08-28T08:41:36Z</time>
      </trkpt>
      <trkpt lat="37.522750" lon="-5.978117">
        <ele>31.53</ele>
        <time>2021-08-28T08:41:40Z</time>
      </trkpt>
      <trkpt lat="37.522612" lon="-5.978308">
        <ele>30.74</ele>
        <time>2021-08-28T08:41:47Z</time>
      </trkpt>
      <trkpt lat="37.522433" lon="-5.978412">
        <ele>30.56</ele>
        <time>2021-08-28T08:41:52Z</time>
      </trkpt>
      <trkpt lat="37.522229" lon="-5.978471">
        <ele>29.87</ele>
        <time>2021-08-28T08:41:57Z</time>
      </trkpt>
      <trkpt lat="37.522051" lon="-5.978530">
        <ele>29.25</ele>
        <time>2021-08-28T08:42:01Z</time>
      </trkpt>
      <trkpt lat="37.521878" lon="-5.978595">
        <ele>29.72</ele>
        <time>2021-08-28T08:42:05Z</time>
      </trkpt>
      <trkpt lat="37.521706" lon="-5.978694">
        <ele>29.30</ele>
        <time>2021-08-28T08:42:09Z</time>
      </trkpt>
      <trkpt lat="37.521563" lon="-5.978844">
        <ele>29.10</ele>
        <time>2021-08-28T08:42:13Z</time>
      </trkpt>
      <trkpt lat="37.521452" lon="-5.979062">
        <ele>28.93</ele>
        <time>2021-08-28T08:42:17Z</time>
      </trkpt>
      <trkpt lat="37.521344" lon="-5.979277">
        <ele>30.01</ele>
        <time>2021-08-28T08:42:21Z</time>
      </trkpt>
      <trkpt lat="37.521262" lon="-5.979503">
        <ele>29.54</ele>
        <time>2021-08-28T08:42:25Z</time>
      </trkpt>
      <trkpt lat="37.521083" lon="-5.979643">
        <ele>29.37</ele>
        <time>2021-08-28T08:42:30Z</time>
      </trkpt>
      <trkpt lat="37.520905" lon="-5.979727">
        <ele>30.20</ele>
        <time>2021-08-28T08:42:35Z</time>
      </trkpt>
      <trkpt lat="37.520721" lon="-5.979749">
        <ele>30.61</ele>
        <time>2021-08-28T08:42:40Z</time>
      </trkpt>
      <trkpt lat="37.520507" lon="-5.979666">
        <ele>35.60</ele>
        <time>2021-08-28T08:42:46Z</time>
      </trkpt>
      <trkpt lat="37.520315" lon="-5.979646">
        <ele>38.43</ele>
        <time>2021-08-28T08:42:51Z</time>
      </trkpt>
      <trkpt lat="37.520128" lon="-5.979719">
        <ele>33.49</ele>
        <time>2021-08-28T08:42:57Z</time>
      </trkpt>
      <trkpt lat="37.519931" lon="-5.979781">
        <ele>33.32</ele>
        <time>2021-08-28T08:43:02Z</time>
      </trkpt>
      <trkpt lat="37.519752" lon="-5.979822">
        <ele>33.86</ele>
        <time>2021-08-28T08:43:06Z</time>
      </trkpt>
      <trkpt lat="37.519551" lon="-5.979856">
        <ele>34.05</ele>
        <time>2021-08-28T08:43:10Z</time>
      </trkpt>
      <trkpt lat="37.519327" lon="-5.979863">
        <ele>35.34</ele>
        <time>2021-08-28T08:43:14Z</time>
      </trkpt>
      <trkpt lat="37.519111" lon="-5.979900">
        <ele>33.04</ele>
        <time>2021-08-28T08:43:18Z</time>
      </trkpt>
      <trkpt lat="37.518883" lon="-5.979940">
        <ele>32.21</ele>
        <time>2021-08-28T08:43:22Z</time>
      </trkpt>
      <trkpt lat="37.518693" lon="-5.979984">
        <ele>33.95</ele>
        <time>2021-08-28T08:43:25Z</time>
      </trkpt>
      <trkpt lat="37.518462" lon="-5.980040">
        <ele>33.25</ele>
        <time>2021-08-28T08:43:29Z</time>
      </trkpt>
      <trkpt lat="37.518258" lon="-5.980083">
        <ele>30.15</ele>
        <time>2021-08-28T08:43:33Z</time>
      </trkpt>
      <trkpt lat="37.518032" lon="-5.980105">
        <ele>29.74</ele>
        <time>2021-08-28T08:43:37Z</time>
      </trkpt>
      <trkpt lat="37.517814" lon="-5.980122">
        <ele>28.46</ele>
        <time>2021-08-28T08:43:41Z</time>
      </trkpt>
      <trkpt lat="37.517604" lon="-5.980129">
        <ele>26.90</ele>
        <time>2021-08-28T08:43:45Z</time>
      </trkpt>
      <trkpt lat="37.517398" lon="-5.980127">
        <ele>27.93</ele>
        <time>2021-08-28T08:43:49Z</time>
      </trkpt>
      <trkpt lat="37.517216" lon="-5.980135">
        <ele>27.98</ele>
        <time>2021-08-28T08:43:53Z</time>
      </trkpt>
      <trkpt lat="37.517262" lon="-5.979903">
        <ele>26.84</ele>
        <time>2021-08-28T08:44:02Z</time>
      </trkpt>
      <trkpt lat="37.517400" lon="-5.979699">
        <ele>26.33</ele>
        <time>2021-08-28T08:44:07Z</time>
      </trkpt>
      <trkpt lat="37.517547" lon="-5.979511">
        <ele>24.98</ele>
        <time>2021-08-28T08:44:12Z</time>
      </trkpt>
      <trkpt lat="37.517689" lon="-5.979334">
        <ele>23.59</ele>
        <time>2021-08-28T08:44:17Z</time>
      </trkpt>
      <trkpt lat="37.517803" lon="-5.979127">
        <ele>23.83</ele>
        <time>2021-08-28T08:44:23Z</time>
      </trkpt>
      <trkpt lat="37.517670" lon="-5.978972">
        <ele>24.05</ele>
        <time>2021-08-28T08:44:28Z</time>
      </trkpt>
      <trkpt lat="37.517505" lon="-5.978792">
        <ele>24.59</ele>
        <time>2021-08-28T08:44:36Z</time>
      </trkpt>
      <trkpt lat="37.517348" lon="-5.978646">
        <ele>22.58</ele>
        <time>2021-08-28T08:44:41Z</time>
      </trkpt>
      <trkpt lat="37.517355" lon="-5.978396">
        <ele>21.66</ele>
        <time>2021-08-28T08:44:50Z</time>
      </trkpt>
      <trkpt lat="37.517489" lon="-5.978187">
        <ele>21.05</ele>
        <time>2021-08-28T08:44:56Z</time>
      </trkpt>
      <trkpt lat="37.517603" lon="-5.977989">
        <ele>19.51</ele>
        <time>2021-08-28T08:45:02Z</time>
      </trkpt>
      <trkpt lat="37.517720" lon="-5.977793">
        <ele>19.35</ele>
        <time>2021-08-28T08:45:08Z</time>
      </trkpt>
      <trkpt lat="37.517911" lon="-5.977730">
        <ele>19.70</ele>
        <time>2021-08-28T08:45:15Z</time>
      </trkpt>
      <trkpt lat="37.518044" lon="-5.977631">
        <ele>16.85</ele>
        <time>2021-08-28T08:46:40Z</time>
      </trkpt>
      <trkpt lat="37.518061" lon="-5.977636">
        <ele>16.30</ele>
        <time>2021-08-28T08:47:04Z</time>
      </trkpt>
      <trkpt lat="37.518263" lon="-5.977717">
        <ele>16.33</ele>
        <time>2021-08-28T08:47:19Z</time>
      </trkpt>
      <trkpt lat="37.518472" lon="-5.977736">
        <ele>14.43</ele>
        <time>2021-08-28T08:47:23Z</time>
      </trkpt>
      <trkpt lat="37.518623" lon="-5.977583">
        <ele>11.94</ele>
        <time>2021-08-28T08:47:28Z</time>
      </trkpt>
      <trkpt lat="37.518617" lon="-5.977332">
        <ele>11.44</ele>
        <time>2021-08-28T08:47:32Z</time>
      </trkpt>
      <trkpt lat="37.518621" lon="-5.977095">
        <ele>10.73</ele>
        <time>2021-08-28T08:47:38Z</time>
      </trkpt>
      <trkpt lat="37.518628" lon="-5.976833">
        <ele>8.35</ele>
        <time>2021-08-28T08:47:48Z</time>
      </trkpt>
      <trkpt lat="37.518615" lon="-5.976570">
        <ele>8.62</ele>
        <time>2021-08-28T08:47:53Z</time>
      </trkpt>
      <trkpt lat="37.518603" lon="-5.976303">
        <ele>7.84</ele>
        <time>2021-08-28T08:47:58Z</time>
      </trkpt>
      <trkpt lat="37.518592" lon="-5.976064">
        <ele>6.62</ele>
        <time>2021-08-28T08:48:03Z</time>
      </trkpt>
      <trkpt lat="37.518578" lon="-5.975807">
        <ele>4.75</ele>
        <time>2021-08-28T08:48:08Z</time>
      </trkpt>
      <trkpt lat="37.518580" lon="-5.975520">
        <ele>5.27</ele>
        <time>2021-08-28T08:48:13Z</time>
      </trkpt>
      <trkpt lat="37.518564" lon="-5.975288">
        <ele>5.41</ele>
        <time>2021-08-28T08:48:17Z</time>
      </trkpt>
      <trkpt lat="37.518571" lon="-5.975054">
        <ele>6.23</ele>
        <time>2021-08-28T08:48:21Z</time>
      </trkpt>
      <trkpt lat="37.518557" lon="-5.974797">
        <ele>7.47</ele>
        <time>2021-08-28T08:48:26Z</time>
      </trkpt>
      <trkpt lat="37.518541" lon="-5.974529">
        <ele>8.78</ele>
        <time>2021-08-28T08:48:31Z</time>
      </trkpt>
      <trkpt lat="37.518517" lon="-5.974296">
        <ele>9.48</ele>
        <time>2021-08-28T08:48:36Z</time>
      </trkpt>
      <trkpt lat="37.518471" lon="-5.974087">
        <ele>9.09</ele>
        <time>2021-08-28T08:51:15Z</time>
      </trkpt>
      <trkpt lat="37.518338" lon="-5.974253">
        <ele>10.95</ele>
        <time>2021-08-28T08:51:38Z</time>
      </trkpt>
      <trkpt lat="37.518160" lon="-5.974215">
        <ele>10.69</ele>
        <time>2021-08-28T08:51:43Z</time>
      </trkpt>
      <trkpt lat="37.517951" lon="-5.974253">
        <ele>10.53</ele>
        <time>2021-08-28T08:51:48Z</time>
      </trkpt>
      <trkpt lat="37.517766" lon="-5.974285">
        <ele>10.33</ele>
        <time>2021-08-28T08:51:52Z</time>
      </trkpt>
      <trkpt lat="37.517581" lon="-5.974334">
        <ele>9.80</ele>
        <time>2021-08-28T08:51:56Z</time>
      </trkpt>
      <trkpt lat="37.517378" lon="-5.974386">
        <ele>9.24</ele>
        <time>2021-08-28T08:52:00Z</time>
      </trkpt>
      <trkpt lat="37.517159" lon="-5.974423">
        <ele>9.07</ele>
        <time>2021-08-28T08:52:04Z</time>
      </trkpt>
      <trkpt lat="37.516923" lon="-5.974471">
        <ele>8.86</ele>
        <time>2021-08-28T08:52:08Z</time>
      </trkpt>
      <trkpt lat="37.516701" lon="-5.974516">
        <ele>8.17</ele>
        <time>2021-08-28T08:52:12Z</time>
      </trkpt>
      <trkpt lat="37.516474" lon="-5.974571">
        <ele>7.37</ele>
        <time>2021-08-28T08:52:16Z</time>
      </trkpt>
      <trkpt lat="37.516265" lon="-5.974608">
        <ele>6.82</ele>
        <time>2021-08-28T08:52:20Z</time>
      </trkpt>
      <trkpt lat="37.516053" lon="-5.974665">
        <ele>6.78</ele>
        <time>2021-08-28T08:52:24Z</time>
      </trkpt>
      <trkpt lat="37.515834" lon="-5.974698">
        <ele>6.65</ele>
        <time>2021-08-28T08:52:28Z</time>
      </trkpt>
      <trkpt lat="37.515631" lon="-5.974740">
        <ele>7.57</ele>
        <time>2021-08-28T08:52:32Z</time>
      </trkpt>
      <trkpt lat="37.515441" lon="-5.974775">
        <ele>8.21</ele>
        <time>2021-08-28T08:52:36Z</time>
      </trkpt>
      <trkpt lat="37.515253" lon="-5.974836">
        <ele>7.31</ele>
        <time>2021-08-28T08:52:41Z</time>
      </trkpt>
      <trkpt lat="37.515038" lon="-5.974864">
        <ele>6.94</ele>
        <time>2021-08-28T08:53:04Z</time>
      </trkpt>
      <trkpt lat="37.514849" lon="-5.974916">
        <ele>7.19</ele>
        <time>2021-08-28T08:53:09Z</time>
      </trkpt>
      <trkpt lat="37.514633" lon="-5.974975">
        <ele>7.15</ele>
        <time>2021-08-28T08:53:14Z</time>
      </trkpt>
      <trkpt lat="37.514451" lon="-5.975012">
        <ele>7.67</ele>
        <time>2021-08-28T08:53:18Z</time>
      </trkpt>
      <trkpt lat="37.514258" lon="-5.975074">
        <ele>7.80</ele>
        <time>2021-08-28T08:53:22Z</time>
      </trkpt>
      <trkpt lat="37.514045" lon="-5.975138">
        <ele>8.11</ele>
        <time>2021-08-28T08:53:26Z</time>
      </trkpt>
      <trkpt lat="37.513821" lon="-5.975205">
        <ele>8.22</ele>
        <time>2021-08-28T08:53:30Z</time>
      </trkpt>
      <trkpt lat="37.513595" lon="-5.975277">
        <ele>8.56</ele>
        <time>2021-08-28T08:53:34Z</time>
      </trkpt>
      <trkpt lat="37.513369" lon="-5.975340">
        <ele>8.89</ele>
        <time>2021-08-28T08:53:38Z</time>
      </trkpt>
      <trkpt lat="37.513142" lon="-5.975408">
        <ele>9.54</ele>
        <time>2021-08-28T08:53:42Z</time>
      </trkpt>
      <trkpt lat="37.512962" lon="-5.975453">
        <ele>9.73</ele>
        <time>2021-08-28T08:53:45Z</time>
      </trkpt>
      <trkpt lat="37.512730" lon="-5.975515">
        <ele>9.79</ele>
        <time>2021-08-28T08:53:49Z</time>
      </trkpt>
      <trkpt lat="37.512503" lon="-5.975572">
        <ele>10.36</ele>
        <time>2021-08-28T08:53:53Z</time>
      </trkpt>
      <trkpt lat="37.512276" lon="-5.975627">
        <ele>11.00</ele>
        <time>2021-08-28T08:53:57Z</time>
      </trkpt>
      <trkpt lat="37.512049" lon="-5.975681">
        <ele>10.86</ele>
        <time>2021-08-28T08:54:01Z</time>
      </trkpt>
      <trkpt lat="37.511826" lon="-5.975736">
        <ele>11.26</ele>
        <time>2021-08-28T08:54:05Z</time>
      </trkpt>
      <trkpt lat="37.511598" lon="-5.975789">
        <ele>10.96</ele>
        <time>2021-08-28T08:54:09Z</time>
      </trkpt>
      <trkpt lat="37.511420" lon="-5.975825">
        <ele>10.40</ele>
        <time>2021-08-28T08:54:12Z</time>
      </trkpt>
      <trkpt lat="37.511186" lon="-5.975891">
        <ele>10.45</ele>
        <time>2021-08-28T08:54:16Z</time>
      </trkpt>
      <trkpt lat="37.510956" lon="-5.975949">
        <ele>10.18</ele>
        <time>2021-08-28T08:54:20Z</time>
      </trkpt>
      <trkpt lat="37.510726" lon="-5.976018">
        <ele>10.60</ele>
        <time>2021-08-28T08:54:24Z</time>
      </trkpt>
      <trkpt lat="37.510499" lon="-5.976069">
        <ele>10.60</ele>
        <time>2021-08-28T08:54:28Z</time>
      </trkpt>
      <trkpt lat="37.510278" lon="-5.976125">
        <ele>10.48</ele>
        <time>2021-08-28T08:54:32Z</time>
      </trkpt>
      <trkpt lat="37.510059" lon="-5.976187">
        <ele>10.19</ele>
        <time>2021-08-28T08:54:36Z</time>
      </trkpt>
      <trkpt lat="37.509831" lon="-5.976235">
        <ele>9.59</ele>
        <time>2021-08-28T08:54:40Z</time>
      </trkpt>
      <trkpt lat="37.509636" lon="-5.976291">
        <ele>9.18</ele>
        <time>2021-08-28T08:54:44Z</time>
      </trkpt>
      <trkpt lat="37.509433" lon="-5.976347">
        <ele>9.08</ele>
        <time>2021-08-28T08:54:48Z</time>
      </trkpt>
      <trkpt lat="37.509224" lon="-5.976406">
        <ele>8.08</ele>
        <time>2021-08-28T08:54:52Z</time>
      </trkpt>
      <trkpt lat="37.508993" lon="-5.976468">
        <ele>7.62</ele>
        <time>2021-08-28T08:54:56Z</time>
      </trkpt>
      <trkpt lat="37.508810" lon="-5.976523">
        <ele>8.01</ele>
        <time>2021-08-28T08:54:59Z</time>
      </trkpt>
      <trkpt lat="37.508623" lon="-5.976563">
        <ele>7.90</ele>
        <time>2021-08-28T08:55:02Z</time>
      </trkpt>
      <trkpt lat="37.508433" lon="-5.976604">
        <ele>8.11</ele>
        <time>2021-08-28T08:55:05Z</time>
      </trkpt>
      <trkpt lat="37.508253" lon="-5.976651">
        <ele>8.20</ele>
        <time>2021-08-28T08:55:08Z</time>
      </trkpt>
      <trkpt lat="37.508017" lon="-5.976710">
        <ele>8.06</ele>
        <time>2021-08-28T08:55:12Z</time>
      </trkpt>
      <trkpt lat="37.507830" lon="-5.976758">
        <ele>7.56</ele>
        <time>2021-08-28T08:55:15Z</time>
      </trkpt>
      <trkpt lat="37.507646" lon="-5.976805">
        <ele>7.80</ele>
        <time>2021-08-28T08:55:18Z</time>
      </trkpt>
      <trkpt lat="37.507466" lon="-5.976854">
        <ele>8.22</ele>
        <time>2021-08-28T08:55:21Z</time>
      </trkpt>
      <trkpt lat="37.507233" lon="-5.976909">
        <ele>7.57</ele>
        <time>2021-08-28T08:55:25Z</time>
      </trkpt>
      <trkpt lat="37.507053" lon="-5.976956">
        <ele>6.99</ele>
        <time>2021-08-28T08:55:28Z</time>
      </trkpt>
      <trkpt lat="37.506812" lon="-5.977014">
        <ele>6.85</ele>
        <time>2021-08-28T08:55:32Z</time>
      </trkpt>
      <trkpt lat="37.506624" lon="-5.977063">
        <ele>7.59</ele>
        <time>2021-08-28T08:55:35Z</time>
      </trkpt>
      <trkpt lat="37.506431" lon="-5.977111">
        <ele>7.59</ele>
        <time>2021-08-28T08:55:38Z</time>
      </trkpt>
      <trkpt lat="37.506248" lon="-5.977154">
        <ele>7.44</ele>
        <time>2021-08-28T08:55:41Z</time>
      </trkpt>
      <trkpt lat="37.506065" lon="-5.977207">
        <ele>7.52</ele>
        <time>2021-08-28T08:55:44Z</time>
      </trkpt>
      <trkpt lat="37.505874" lon="-5.977260">
        <ele>7.47</ele>
        <time>2021-08-28T08:55:47Z</time>
      </trkpt>
      <trkpt lat="37.505680" lon="-5.977301">
        <ele>7.22</ele>
        <time>2021-08-28T08:55:50Z</time>
      </trkpt>
      <trkpt lat="37.505495" lon="-5.977348">
        <ele>7.53</ele>
        <time>2021-08-28T08:55:53Z</time>
      </trkpt>
      <trkpt lat="37.505308" lon="-5.977394">
        <ele>7.84</ele>
        <time>2021-08-28T08:55:56Z</time>
      </trkpt>
      <trkpt lat="37.505131" lon="-5.977441">
        <ele>7.83</ele>
        <time>2021-08-28T08:55:59Z</time>
      </trkpt>
      <trkpt lat="37.504947" lon="-5.977485">
        <ele>7.65</ele>
        <time>2021-08-28T08:56:02Z</time>
      </trkpt>
      <trkpt lat="37.504763" lon="-5.977535">
        <ele>8.17</ele>
        <time>2021-08-28T08:56:05Z</time>
      </trkpt>
      <trkpt lat="37.504528" lon="-5.977595">
        <ele>7.97</ele>
        <time>2021-08-28T08:56:09Z</time>
      </trkpt>
      <trkpt lat="37.504300" lon="-5.977646">
        <ele>7.63</ele>
        <time>2021-08-28T08:56:13Z</time>
      </trkpt>
      <trkpt lat="37.504120" lon="-5.977687">
        <ele>7.43</ele>
        <time>2021-08-28T08:56:16Z</time>
      </trkpt>
      <trkpt lat="37.503900" lon="-5.977746">
        <ele>7.08</ele>
        <time>2021-08-28T08:56:20Z</time>
      </trkpt>
      <trkpt lat="37.503702" lon="-5.977796">
        <ele>7.38</ele>
        <time>2021-08-28T08:56:24Z</time>
      </trkpt>
      <trkpt lat="37.503516" lon="-5.977910">
        <ele>7.53</ele>
        <time>2021-08-28T08:56:29Z</time>
      </trkpt>
      <trkpt lat="37.503423" lon="-5.978130">
        <ele>7.68</ele>
        <time>2021-08-28T08:56:35Z</time>
      </trkpt>
      <trkpt lat="37.503325" lon="-5.978352">
        <ele>8.28</ele>
        <time>2021-08-28T08:56:45Z</time>
      </trkpt>
      <trkpt lat="37.503143" lon="-5.978381">
        <ele>7.50</ele>
        <time>2021-08-28T08:56:49Z</time>
      </trkpt>
      <trkpt lat="37.502935" lon="-5.978335">
        <ele>7.25</ele>
        <time>2021-08-28T08:56:53Z</time>
      </trkpt>
      <trkpt lat="37.502707" lon="-5.978306">
        <ele>6.28</ele>
        <time>2021-08-28T08:56:57Z</time>
      </trkpt>
      <trkpt lat="37.502474" lon="-5.978284">
        <ele>6.57</ele>
        <time>2021-08-28T08:57:01Z</time>
      </trkpt>
      <trkpt lat="37.502235" lon="-5.978280">
        <ele>6.62</ele>
        <time>2021-08-28T08:57:05Z</time>
      </trkpt>
      <trkpt lat="37.501995" lon="-5.978298">
        <ele>6.55</ele>
        <time>2021-08-28T08:57:09Z</time>
      </trkpt>
      <trkpt lat="37.501756" lon="-5.978336">
        <ele>6.42</ele>
        <time>2021-08-28T08:57:13Z</time>
      </trkpt>
      <trkpt lat="37.501573" lon="-5.978364">
        <ele>6.24</ele>
        <time>2021-08-28T08:57:16Z</time>
      </trkpt>
      <trkpt lat="37.501337" lon="-5.978411">
        <ele>6.64</ele>
        <time>2021-08-28T08:57:20Z</time>
      </trkpt>
      <trkpt lat="37.501099" lon="-5.978473">
        <ele>6.35</ele>
        <time>2021-08-28T08:57:24Z</time>
      </trkpt>
      <trkpt lat="37.500908" lon="-5.978520">
        <ele>5.67</ele>
        <time>2021-08-28T08:57:27Z</time>
      </trkpt>
      <trkpt lat="37.500719" lon="-5.978570">
        <ele>5.66</ele>
        <time>2021-08-28T08:57:30Z</time>
      </trkpt>
      <trkpt lat="37.500531" lon="-5.978623">
        <ele>5.69</ele>
        <time>2021-08-28T08:57:33Z</time>
      </trkpt>
      <trkpt lat="37.500341" lon="-5.978670">
        <ele>5.98</ele>
        <time>2021-08-28T08:57:36Z</time>
      </trkpt>
      <trkpt lat="37.500157" lon="-5.978713">
        <ele>5.76</ele>
        <time>2021-08-28T08:57:39Z</time>
      </trkpt>
      <trkpt lat="37.499973" lon="-5.978757">
        <ele>5.61</ele>
        <time>2021-08-28T08:57:42Z</time>
      </trkpt>
      <trkpt lat="37.499791" lon="-5.978801">
        <ele>6.37</ele>
        <time>2021-08-28T08:57:45Z</time>
      </trkpt>
      <trkpt lat="37.499607" lon="-5.978844">
        <ele>6.90</ele>
        <time>2021-08-28T08:57:48Z</time>
      </trkpt>
      <trkpt lat="37.499417" lon="-5.978878">
        <ele>7.33</ele>
        <time>2021-08-28T08:57:51Z</time>
      </trkpt>
      <trkpt lat="37.499226" lon="-5.978909">
        <ele>7.60</ele>
        <time>2021-08-28T08:57:54Z</time>
      </trkpt>
      <trkpt lat="37.499032" lon="-5.978925">
        <ele>7.91</ele>
        <time>2021-08-28T08:57:57Z</time>
      </trkpt>
      <trkpt lat="37.498834" lon="-5.978940">
        <ele>7.60</ele>
        <time>2021-08-28T08:58:00Z</time>
      </trkpt>
      <trkpt lat="37.498635" lon="-5.978942">
        <ele>7.56</ele>
        <time>2021-08-28T08:58:03Z</time>
      </trkpt>
      <trkpt lat="37.498436" lon="-5.978929">
        <ele>7.48</ele>
        <time>2021-08-28T08:58:06Z</time>
      </trkpt>
      <trkpt lat="37.498230" lon="-5.978910">
        <ele>7.65</ele>
        <time>2021-08-28T08:58:09Z</time>
      </trkpt>
      <trkpt lat="37.498031" lon="-5.978886">
        <ele>7.72</ele>
        <time>2021-08-28T08:58:12Z</time>
      </trkpt>
      <trkpt lat="37.497827" lon="-5.978867">
        <ele>8.16</ele>
        <time>2021-08-28T08:58:15Z</time>
      </trkpt>
      <trkpt lat="37.497626" lon="-5.978848">
        <ele>8.23</ele>
        <time>2021-08-28T08:58:18Z</time>
      </trkpt>
      <trkpt lat="37.497424" lon="-5.978831">
        <ele>8.56</ele>
        <time>2021-08-28T08:58:21Z</time>
      </trkpt>
      <trkpt lat="37.497220" lon="-5.978797">
        <ele>9.13</ele>
        <time>2021-08-28T08:58:24Z</time>
      </trkpt>
      <trkpt lat="37.497025" lon="-5.978781">
        <ele>9.59</ele>
        <time>2021-08-28T08:58:27Z</time>
      </trkpt>
      <trkpt lat="37.496828" lon="-5.978758">
        <ele>10.01</ele>
        <time>2021-08-28T08:58:30Z</time>
      </trkpt>
      <trkpt lat="37.496633" lon="-5.978740">
        <ele>10.55</ele>
        <time>2021-08-28T08:58:33Z</time>
      </trkpt>
      <trkpt lat="37.496429" lon="-5.978714">
        <ele>9.86</ele>
        <time>2021-08-28T08:58:36Z</time>
      </trkpt>
      <trkpt lat="37.496231" lon="-5.978692">
        <ele>9.98</ele>
        <time>2021-08-28T08:58:39Z</time>
      </trkpt>
      <trkpt lat="37.496026" lon="-5.978666">
        <ele>9.90</ele>
        <time>2021-08-28T08:58:42Z</time>
      </trkpt>
      <trkpt lat="37.495824" lon="-5.978648">
        <ele>9.66</ele>
        <time>2021-08-28T08:58:45Z</time>
      </trkpt>
      <trkpt lat="37.495622" lon="-5.978624">
        <ele>8.96</ele>
        <time>2021-08-28T08:58:48Z</time>
      </trkpt>
      <trkpt lat="37.495421" lon="-5.978600">
        <ele>8.57</ele>
        <time>2021-08-28T08:58:51Z</time>
      </trkpt>
      <trkpt lat="37.495212" lon="-5.978579">
        <ele>8.79</ele>
        <time>2021-08-28T08:58:54Z</time>
      </trkpt>
      <trkpt lat="37.495010" lon="-5.978565">
        <ele>8.25</ele>
        <time>2021-08-28T08:58:57Z</time>
      </trkpt>
      <trkpt lat="37.494808" lon="-5.978540">
        <ele>7.91</ele>
        <time>2021-08-28T08:59:00Z</time>
      </trkpt>
      <trkpt lat="37.494601" lon="-5.978504">
        <ele>7.67</ele>
        <time>2021-08-28T08:59:03Z</time>
      </trkpt>
      <trkpt lat="37.494400" lon="-5.978477">
        <ele>6.75</ele>
        <time>2021-08-28T08:59:06Z</time>
      </trkpt>
      <trkpt lat="37.494209" lon="-5.978443">
        <ele>6.46</ele>
        <time>2021-08-28T08:59:09Z</time>
      </trkpt>
      <trkpt lat="37.493979" lon="-5.978407">
        <ele>6.00</ele>
        <time>2021-08-28T08:59:13Z</time>
      </trkpt>
      <trkpt lat="37.493745" lon="-5.978374">
        <ele>5.01</ele>
        <time>2021-08-28T08:59:17Z</time>
      </trkpt>
      <trkpt lat="37.493513" lon="-5.978352">
        <ele>4.09</ele>
        <time>2021-08-28T08:59:21Z</time>
      </trkpt>
      <trkpt lat="37.493302" lon="-5.978331">
        <ele>3.84</ele>
        <time>2021-08-28T08:59:25Z</time>
      </trkpt>
      <trkpt lat="37.493091" lon="-5.978292">
        <ele>3.62</ele>
        <time>2021-08-28T08:59:29Z</time>
      </trkpt>
      <trkpt lat="37.492873" lon="-5.978270">
        <ele>3.47</ele>
        <time>2021-08-28T08:59:33Z</time>
      </trkpt>
      <trkpt lat="37.492652" lon="-5.978238">
        <ele>2.97</ele>
        <time>2021-08-28T08:59:37Z</time>
      </trkpt>
      <trkpt lat="37.492420" lon="-5.978204">
        <ele>2.45</ele>
        <time>2021-08-28T08:59:41Z</time>
      </trkpt>
      <trkpt lat="37.492190" lon="-5.978163">
        <ele>2.98</ele>
        <time>2021-08-28T08:59:45Z</time>
      </trkpt>
      <trkpt lat="37.491961" lon="-5.978135">
        <ele>2.86</ele>
        <time>2021-08-28T08:59:49Z</time>
      </trkpt>
      <trkpt lat="37.491729" lon="-5.978112">
        <ele>2.89</ele>
        <time>2021-08-28T08:59:53Z</time>
      </trkpt>
      <trkpt lat="37.491549" lon="-5.978112">
        <ele>2.14</ele>
        <time>2021-08-28T08:59:56Z</time>
      </trkpt>
      <trkpt lat="37.491365" lon="-5.978082">
        <ele>1.79</ele>
        <time>2021-08-28T08:59:59Z</time>
      </trkpt>
      <trkpt lat="37.491183" lon="-5.978053">
        <ele>1.76</ele>
        <time>2021-08-28T09:00:02Z</time>
      </trkpt>
      <trkpt lat="37.491003" lon="-5.978028">
        <ele>2.28</ele>
        <time>2021-08-28T09:00:05Z</time>
      </trkpt>
      <trkpt lat="37.490819" lon="-5.978005">
        <ele>2.27</ele>
        <time>2021-08-28T09:00:08Z</time>
      </trkpt>
      <trkpt lat="37.490629" lon="-5.977984">
        <ele>2.16</ele>
        <time>2021-08-28T09:00:11Z</time>
      </trkpt>
      <trkpt lat="37.490440" lon="-5.977955">
        <ele>2.79</ele>
        <time>2021-08-28T09:00:14Z</time>
      </trkpt>
      <trkpt lat="37.490249" lon="-5.977946">
        <ele>3.37</ele>
        <time>2021-08-28T09:00:17Z</time>
      </trkpt>
      <trkpt lat="37.490049" lon="-5.977930">
        <ele>3.44</ele>
        <time>2021-08-28T09:00:20Z</time>
      </trkpt>
      <trkpt lat="37.489859" lon="-5.977910">
        <ele>4.50</ele>
        <time>2021-08-28T09:00:23Z</time>
      </trkpt>
      <trkpt lat="37.489660" lon="-5.977886">
        <ele>4.50</ele>
        <time>2021-08-28T09:00:26Z</time>
      </trkpt>
      <trkpt lat="37.489469" lon="-5.977863">
        <ele>5.50</ele>
        <time>2021-08-28T09:00:29Z</time>
      </trkpt>
      <trkpt lat="37.489278" lon="-5.977832">
        <ele>5.44</ele>
        <time>2021-08-28T09:00:32Z</time>
      </trkpt>
      <trkpt lat="37.489097" lon="-5.977835">
        <ele>4.84</ele>
        <time>2021-08-28T09:00:35Z</time>
      </trkpt>
      <trkpt lat="37.488911" lon="-5.977848">
        <ele>4.20</ele>
        <time>2021-08-28T09:00:38Z</time>
      </trkpt>
      <trkpt lat="37.488717" lon="-5.977856">
        <ele>3.51</ele>
        <time>2021-08-28T09:00:41Z</time>
      </trkpt>
      <trkpt lat="37.488528" lon="-5.977866">
        <ele>3.72</ele>
        <time>2021-08-28T09:00:44Z</time>
      </trkpt>
      <trkpt lat="37.488333" lon="-5.977854">
        <ele>4.23</ele>
        <time>2021-08-28T09:00:47Z</time>
      </trkpt>
      <trkpt lat="37.488143" lon="-5.977870">
        <ele>4.26</ele>
        <time>2021-08-28T09:00:50Z</time>
      </trkpt>
      <trkpt lat="37.487957" lon="-5.977903">
        <ele>3.54</ele>
        <time>2021-08-28T09:00:53Z</time>
      </trkpt>
      <trkpt lat="37.487771" lon="-5.977935">
        <ele>3.15</ele>
        <time>2021-08-28T09:00:56Z</time>
      </trkpt>
      <trkpt lat="37.487591" lon="-5.977973">
        <ele>2.93</ele>
        <time>2021-08-28T09:00:59Z</time>
      </trkpt>
      <trkpt lat="37.487409" lon="-5.978006">
        <ele>3.13</ele>
        <time>2021-08-28T09:01:02Z</time>
      </trkpt>
      <trkpt lat="37.487221" lon="-5.978035">
        <ele>3.20</ele>
        <time>2021-08-28T09:01:05Z</time>
      </trkpt>
      <trkpt lat="37.487035" lon="-5.978071">
        <ele>3.80</ele>
        <time>2021-08-28T09:01:08Z</time>
      </trkpt>
      <trkpt lat="37.486856" lon="-5.978097">
        <ele>3.44</ele>
        <time>2021-08-28T09:01:11Z</time>
      </trkpt>
      <trkpt lat="37.486665" lon="-5.978110">
        <ele>3.38</ele>
        <time>2021-08-28T09:01:14Z</time>
      </trkpt>
      <trkpt lat="37.486480" lon="-5.978125">
        <ele>3.98</ele>
        <time>2021-08-28T09:01:17Z</time>
      </trkpt>
      <trkpt lat="37.486297" lon="-5.978146">
        <ele>4.27</ele>
        <time>2021-08-28T09:01:20Z</time>
      </trkpt>
      <trkpt lat="37.486146" lon="-5.978271">
        <ele>3.91</ele>
        <time>2021-08-28T09:01:23Z</time>
      </trkpt>
      <trkpt lat="37.485972" lon="-5.978352">
        <ele>3.83</ele>
        <time>2021-08-28T09:01:26Z</time>
      </trkpt>
      <trkpt lat="37.485788" lon="-5.978375">
        <ele>4.09</ele>
        <time>2021-08-28T09:01:29Z</time>
      </trkpt>
      <trkpt lat="37.485574" lon="-5.978457">
        <ele>3.65</ele>
        <time>2021-08-28T09:01:33Z</time>
      </trkpt>
      <trkpt lat="37.485352" lon="-5.978542">
        <ele>3.45</ele>
        <time>2021-08-28T09:01:37Z</time>
      </trkpt>
      <trkpt lat="37.485158" lon="-5.978576">
        <ele>3.37</ele>
        <time>2021-08-28T09:01:40Z</time>
      </trkpt>
      <trkpt lat="37.484965" lon="-5.978596">
        <ele>3.85</ele>
        <time>2021-08-28T09:01:43Z</time>
      </trkpt>
      <trkpt lat="37.484771" lon="-5.978620">
        <ele>4.04</ele>
        <time>2021-08-28T09:01:46Z</time>
      </trkpt>
      <trkpt lat="37.484574" lon="-5.978635">
        <ele>4.47</ele>
        <time>2021-08-28T09:01:49Z</time>
      </trkpt>
      <trkpt lat="37.484385" lon="-5.978657">
        <ele>4.46</ele>
        <time>2021-08-28T09:01:52Z</time>
      </trkpt>
      <trkpt lat="37.484180" lon="-5.978690">
        <ele>4.41</ele>
        <time>2021-08-28T09:01:57Z</time>
      </trkpt>
      <trkpt lat="37.483987" lon="-5.978720">
        <ele>1.78</ele>
        <time>2021-08-28T09:02:22Z</time>
      </trkpt>
      <trkpt lat="37.483788" lon="-5.978752">
        <ele>1.89</ele>
        <time>2021-08-28T09:02:26Z</time>
      </trkpt>
      <trkpt lat="37.483551" lon="-5.978773">
        <ele>2.10</ele>
        <time>2021-08-28T09:02:30Z</time>
      </trkpt>
      <trkpt lat="37.483357" lon="-5.978788">
        <ele>2.71</ele>
        <time>2021-08-28T09:02:33Z</time>
      </trkpt>
      <trkpt lat="37.483176" lon="-5.978798">
        <ele>3.23</ele>
        <time>2021-08-28T09:02:36Z</time>
      </trkpt>
      <trkpt lat="37.482964" lon="-5.978810">
        <ele>3.16</ele>
        <time>2021-08-28T09:02:40Z</time>
      </trkpt>
      <trkpt lat="37.482761" lon="-5.978813">
        <ele>3.82</ele>
        <time>2021-08-28T09:02:44Z</time>
      </trkpt>
      <trkpt lat="37.482556" lon="-5.978810">
        <ele>3.89</ele>
        <time>2021-08-28T09:02:48Z</time>
      </trkpt>
      <trkpt lat="37.482355" lon="-5.978802">
        <ele>3.54</ele>
        <time>2021-08-28T09:02:52Z</time>
      </trkpt>
      <trkpt lat="37.482149" lon="-5.978802">
        <ele>2.86</ele>
        <time>2021-08-28T09:02:56Z</time>
      </trkpt>
      <trkpt lat="37.481942" lon="-5.978809">
        <ele>3.50</ele>
        <time>2021-08-28T09:03:00Z</time>
      </trkpt>
      <trkpt lat="37.481711" lon="-5.978810">
        <ele>3.92</ele>
        <time>2021-08-28T09:03:04Z</time>
      </trkpt>
      <trkpt lat="37.481527" lon="-5.978802">
        <ele>3.34</ele>
        <time>2021-08-28T09:03:07Z</time>
      </trkpt>
      <trkpt lat="37.481328" lon="-5.978805">
        <ele>3.33</ele>
        <time>2021-08-28T09:03:10Z</time>
      </trkpt>
      <trkpt lat="37.481120" lon="-5.978792">
        <ele>3.08</ele>
        <time>2021-08-28T09:03:13Z</time>
      </trkpt>
      <trkpt lat="37.480911" lon="-5.978800">
        <ele>3.50</ele>
        <time>2021-08-28T09:03:16Z</time>
      </trkpt>
      <trkpt lat="37.480724" lon="-5.978839">
        <ele>3.68</ele>
        <time>2021-08-28T09:03:19Z</time>
      </trkpt>
      <trkpt lat="37.480557" lon="-5.978953">
        <ele>3.83</ele>
        <time>2021-08-28T09:03:23Z</time>
      </trkpt>
      <trkpt lat="37.480356" lon="-5.979023">
        <ele>3.82</ele>
        <time>2021-08-28T09:03:27Z</time>
      </trkpt>
      <trkpt lat="37.480213" lon="-5.978883">
        <ele>2.97</ele>
        <time>2021-08-28T09:03:30Z</time>
      </trkpt>
      <trkpt lat="37.480043" lon="-5.978789">
        <ele>2.58</ele>
        <time>2021-08-28T09:03:33Z</time>
      </trkpt>
      <trkpt lat="37.479848" lon="-5.978791">
        <ele>2.57</ele>
        <time>2021-08-28T09:03:36Z</time>
      </trkpt>
      <trkpt lat="37.479649" lon="-5.978787">
        <ele>2.50</ele>
        <time>2021-08-28T09:03:39Z</time>
      </trkpt>
      <trkpt lat="37.479460" lon="-5.978781">
        <ele>2.18</ele>
        <time>2021-08-28T09:03:42Z</time>
      </trkpt>
      <trkpt lat="37.479279" lon="-5.978779">
        <ele>1.77</ele>
        <time>2021-08-28T09:03:45Z</time>
      </trkpt>
      <trkpt lat="37.479100" lon="-5.978802">
        <ele>1.65</ele>
        <time>2021-08-28T09:03:48Z</time>
      </trkpt>
      <trkpt lat="37.478916" lon="-5.978861">
        <ele>2.20</ele>
        <time>2021-08-28T09:03:51Z</time>
      </trkpt>
      <trkpt lat="37.478733" lon="-5.978899">
        <ele>2.50</ele>
        <time>2021-08-28T09:03:54Z</time>
      </trkpt>
      <trkpt lat="37.478561" lon="-5.978809">
        <ele>2.75</ele>
        <time>2021-08-28T09:03:57Z</time>
      </trkpt>
      <trkpt lat="37.478428" lon="-5.978631">
        <ele>1.84</ele>
        <time>2021-08-28T09:04:00Z</time>
      </trkpt>
      <trkpt lat="37.478254" lon="-5.978496">
        <ele>1.69</ele>
        <time>2021-08-28T09:04:03Z</time>
      </trkpt>
      <trkpt lat="37.478071" lon="-5.978409">
        <ele>1.07</ele>
        <time>2021-08-28T09:04:06Z</time>
      </trkpt>
      <trkpt lat="37.477880" lon="-5.978324">
        <ele>0.74</ele>
        <time>2021-08-28T09:04:09Z</time>
      </trkpt>
      <trkpt lat="37.477686" lon="-5.978239">
        <ele>0.51</ele>
        <time>2021-08-28T09:04:12Z</time>
      </trkpt>
      <trkpt lat="37.477499" lon="-5.978153">
        <ele>0.17</ele>
        <time>2021-08-28T09:04:15Z</time>
      </trkpt>
      <trkpt lat="37.477322" lon="-5.978064">
        <ele>-0.16</ele>
        <time>2021-08-28T09:04:18Z</time>
      </trkpt>
      <trkpt lat="37.477106" lon="-5.977945">
        <ele>-0.28</ele>
        <time>2021-08-28T09:04:22Z</time>
      </trkpt>
      <trkpt lat="37.476944" lon="-5.977845">
        <ele>-0.30</ele>
        <time>2021-08-28T09:04:25Z</time>
      </trkpt>
      <trkpt lat="37.476780" lon="-5.977735">
        <ele>-0.26</ele>
        <time>2021-08-28T09:04:28Z</time>
      </trkpt>
      <trkpt lat="37.476623" lon="-5.977616">
        <ele>0.35</ele>
        <time>2021-08-28T09:04:31Z</time>
      </trkpt>
      <trkpt lat="37.476467" lon="-5.977497">
        <ele>1.26</ele>
        <time>2021-08-28T09:04:34Z</time>
      </trkpt>
      <trkpt lat="37.476303" lon="-5.977367">
        <ele>0.96</ele>
        <time>2021-08-28T09:04:37Z</time>
      </trkpt>
      <trkpt lat="37.476143" lon="-5.977239">
        <ele>0.96</ele>
        <time>2021-08-28T09:04:40Z</time>
      </trkpt>
      <trkpt lat="37.475994" lon="-5.977102">
        <ele>0.67</ele>
        <time>2021-08-28T09:04:43Z</time>
      </trkpt>
      <trkpt lat="37.475844" lon="-5.976963">
        <ele>0.39</ele>
        <time>2021-08-28T09:04:46Z</time>
      </trkpt>
      <trkpt lat="37.475695" lon="-5.976827">
        <ele>1.10</ele>
        <time>2021-08-28T09:04:49Z</time>
      </trkpt>
      <trkpt lat="37.475552" lon="-5.976677">
        <ele>1.56</ele>
        <time>2021-08-28T09:04:52Z</time>
      </trkpt>
      <trkpt lat="37.475412" lon="-5.976534">
        <ele>1.76</ele>
        <time>2021-08-28T09:04:55Z</time>
      </trkpt>
      <trkpt lat="37.475262" lon="-5.976374">
        <ele>2.05</ele>
        <time>2021-08-28T09:04:58Z</time>
      </trkpt>
      <trkpt lat="37.475125" lon="-5.976203">
        <ele>2.01</ele>
        <time>2021-08-28T09:05:01Z</time>
      </trkpt>
      <trkpt lat="37.474986" lon="-5.976025">
        <ele>2.21</ele>
        <time>2021-08-28T09:05:04Z</time>
      </trkpt>
      <trkpt lat="37.474849" lon="-5.975844">
        <ele>2.66</ele>
        <time>2021-08-28T09:05:07Z</time>
      </trkpt>
      <trkpt lat="37.474716" lon="-5.975662">
        <ele>2.66</ele>
        <time>2021-08-28T09:05:10Z</time>
      </trkpt>
      <trkpt lat="37.474579" lon="-5.975476">
        <ele>2.42</ele>
        <time>2021-08-28T09:05:13Z</time>
      </trkpt>
      <trkpt lat="37.474433" lon="-5.975290">
        <ele>2.35</ele>
        <time>2021-08-28T09:05:16Z</time>
      </trkpt>
      <trkpt lat="37.474292" lon="-5.975105">
        <ele>2.46</ele>
        <time>2021-08-28T09:05:19Z</time>
      </trkpt>
      <trkpt lat="37.474161" lon="-5.974925">
        <ele>2.41</ele>
        <time>2021-08-28T09:05:22Z</time>
      </trkpt>
      <trkpt lat="37.474025" lon="-5.974744">
        <ele>1.50</ele>
        <time>2021-08-28T09:05:25Z</time>
      </trkpt>
      <trkpt lat="37.473887" lon="-5.974555">
        <ele>1.53</ele>
        <time>2021-08-28T09:05:28Z</time>
      </trkpt>
      <trkpt lat="37.473742" lon="-5.974377">
        <ele>1.20</ele>
        <time>2021-08-28T09:05:31Z</time>
      </trkpt>
      <trkpt lat="37.473606" lon="-5.974205">
        <ele>1.37</ele>
        <time>2021-08-28T09:05:34Z</time>
      </trkpt>
      <trkpt lat="37.473461" lon="-5.974040">
        <ele>0.96</ele>
        <time>2021-08-28T09:05:37Z</time>
      </trkpt>
      <trkpt lat="37.473307" lon="-5.973881">
        <ele>0.70</ele>
        <time>2021-08-28T09:05:40Z</time>
      </trkpt>
      <trkpt lat="37.473148" lon="-5.973733">
        <ele>0.68</ele>
        <time>2021-08-28T09:05:43Z</time>
      </trkpt>
      <trkpt lat="37.472984" lon="-5.973598">
        <ele>0.74</ele>
        <time>2021-08-28T09:05:46Z</time>
      </trkpt>
      <trkpt lat="37.472825" lon="-5.973471">
        <ele>0.55</ele>
        <time>2021-08-28T09:05:49Z</time>
      </trkpt>
      <trkpt lat="37.472660" lon="-5.973343">
        <ele>0.40</ele>
        <time>2021-08-28T09:05:52Z</time>
      </trkpt>
      <trkpt lat="37.472500" lon="-5.973228">
        <ele>0.88</ele>
        <time>2021-08-28T09:05:55Z</time>
      </trkpt>
      <trkpt lat="37.472302" lon="-5.973085">
        <ele>1.12</ele>
        <time>2021-08-28T09:05:59Z</time>
      </trkpt>
      <trkpt lat="37.472103" lon="-5.972946">
        <ele>1.16</ele>
        <time>2021-08-28T09:06:03Z</time>
      </trkpt>
      <trkpt lat="37.471942" lon="-5.972825">
        <ele>1.22</ele>
        <time>2021-08-28T09:06:06Z</time>
      </trkpt>
      <trkpt lat="37.471784" lon="-5.972697">
        <ele>1.66</ele>
        <time>2021-08-28T09:06:09Z</time>
      </trkpt>
      <trkpt lat="37.471625" lon="-5.972570">
        <ele>1.24</ele>
        <time>2021-08-28T09:06:12Z</time>
      </trkpt>
      <trkpt lat="37.471455" lon="-5.972440">
        <ele>1.08</ele>
        <time>2021-08-28T09:06:15Z</time>
      </trkpt>
      <trkpt lat="37.471285" lon="-5.972311">
        <ele>0.75</ele>
        <time>2021-08-28T09:06:18Z</time>
      </trkpt>
      <trkpt lat="37.471117" lon="-5.972196">
        <ele>0.79</ele>
        <time>2021-08-28T09:06:21Z</time>
      </trkpt>
      <trkpt lat="37.470951" lon="-5.972076">
        <ele>0.58</ele>
        <time>2021-08-28T09:06:24Z</time>
      </trkpt>
      <trkpt lat="37.470775" lon="-5.971959">
        <ele>0.68</ele>
        <time>2021-08-28T09:06:27Z</time>
      </trkpt>
      <trkpt lat="37.470610" lon="-5.971845">
        <ele>0.75</ele>
        <time>2021-08-28T09:06:30Z</time>
      </trkpt>
      <trkpt lat="37.470440" lon="-5.971754">
        <ele>0.39</ele>
        <time>2021-08-28T09:06:33Z</time>
      </trkpt>
      <trkpt lat="37.470258" lon="-5.971666">
        <ele>0.40</ele>
        <time>2021-08-28T09:06:36Z</time>
      </trkpt>
      <trkpt lat="37.470072" lon="-5.971576">
        <ele>1.18</ele>
        <time>2021-08-28T09:06:39Z</time>
      </trkpt>
      <trkpt lat="37.469882" lon="-5.971508">
        <ele>1.24</ele>
        <time>2021-08-28T09:06:42Z</time>
      </trkpt>
      <trkpt lat="37.469700" lon="-5.971467">
        <ele>1.95</ele>
        <time>2021-08-28T09:06:45Z</time>
      </trkpt>
      <trkpt lat="37.469509" lon="-5.971425">
        <ele>1.41</ele>
        <time>2021-08-28T09:06:48Z</time>
      </trkpt>
      <trkpt lat="37.469319" lon="-5.971389">
        <ele>1.29</ele>
        <time>2021-08-28T09:06:51Z</time>
      </trkpt>
      <trkpt lat="37.469119" lon="-5.971366">
        <ele>1.22</ele>
        <time>2021-08-28T09:06:54Z</time>
      </trkpt>
      <trkpt lat="37.468923" lon="-5.971353">
        <ele>1.13</ele>
        <time>2021-08-28T09:06:57Z</time>
      </trkpt>
      <trkpt lat="37.468726" lon="-5.971354">
        <ele>1.64</ele>
        <time>2021-08-28T09:07:00Z</time>
      </trkpt>
      <trkpt lat="37.468532" lon="-5.971369">
        <ele>2.01</ele>
        <time>2021-08-28T09:07:03Z</time>
      </trkpt>
      <trkpt lat="37.468344" lon="-5.971399">
        <ele>2.67</ele>
        <time>2021-08-28T09:07:06Z</time>
      </trkpt>
      <trkpt lat="37.468121" lon="-5.971435">
        <ele>2.27</ele>
        <time>2021-08-28T09:07:10Z</time>
      </trkpt>
      <trkpt lat="37.467912" lon="-5.971497">
        <ele>2.19</ele>
        <time>2021-08-28T09:07:14Z</time>
      </trkpt>
      <trkpt lat="37.467723" lon="-5.971540">
        <ele>2.53</ele>
        <time>2021-08-28T09:07:18Z</time>
      </trkpt>
      <trkpt lat="37.467589" lon="-5.971337">
        <ele>2.20</ele>
        <time>2021-08-28T09:07:23Z</time>
      </trkpt>
      <trkpt lat="37.467592" lon="-5.971058">
        <ele>1.83</ele>
        <time>2021-08-28T09:07:27Z</time>
      </trkpt>
      <trkpt lat="37.467592" lon="-5.970763">
        <ele>2.32</ele>
        <time>2021-08-28T09:07:31Z</time>
      </trkpt>
      <trkpt lat="37.467582" lon="-5.970480">
        <ele>2.65</ele>
        <time>2021-08-28T09:07:35Z</time>
      </trkpt>
      <trkpt lat="37.467529" lon="-5.970254">
        <ele>2.66</ele>
        <time>2021-08-28T09:07:39Z</time>
      </trkpt>
      <trkpt lat="37.467424" lon="-5.970043">
        <ele>2.70</ele>
        <time>2021-08-28T09:07:44Z</time>
      </trkpt>
      <trkpt lat="37.467364" lon="-5.969777">
        <ele>1.99</ele>
        <time>2021-08-28T09:07:49Z</time>
      </trkpt>
      <trkpt lat="37.467309" lon="-5.969529">
        <ele>2.54</ele>
        <time>2021-08-28T09:07:54Z</time>
      </trkpt>
      <trkpt lat="37.467275" lon="-5.969273">
        <ele>2.22</ele>
        <time>2021-08-28T09:07:59Z</time>
      </trkpt>
      <trkpt lat="37.467250" lon="-5.969040">
        <ele>2.66</ele>
        <time>2021-08-28T09:08:03Z</time>
      </trkpt>
      <trkpt lat="37.467214" lon="-5.968805">
        <ele>2.69</ele>
        <time>2021-08-28T09:08:07Z</time>
      </trkpt>
      <trkpt lat="37.467180" lon="-5.968577">
        <ele>2.71</ele>
        <time>2021-08-28T09:08:11Z</time>
      </trkpt>
      <trkpt lat="37.467130" lon="-5.968310">
        <ele>2.73</ele>
        <time>2021-08-28T09:08:16Z</time>
      </trkpt>
      <trkpt lat="37.466998" lon="-5.968099">
        <ele>2.69</ele>
        <time>2021-08-28T09:08:21Z</time>
      </trkpt>
      <trkpt lat="37.466833" lon="-5.967990">
        <ele>2.48</ele>
        <time>2021-08-28T09:08:25Z</time>
      </trkpt>
      <trkpt lat="37.466644" lon="-5.967950">
        <ele>2.58</ele>
        <time>2021-08-28T09:08:29Z</time>
      </trkpt>
      <trkpt lat="37.466456" lon="-5.967977">
        <ele>2.67</ele>
        <time>2021-08-28T09:08:33Z</time>
      </trkpt>
      <trkpt lat="37.466259" lon="-5.968020">
        <ele>3.24</ele>
        <time>2021-08-28T09:08:37Z</time>
      </trkpt>
      <trkpt lat="37.466073" lon="-5.968059">
        <ele>3.24</ele>
        <time>2021-08-28T09:08:41Z</time>
      </trkpt>
      <trkpt lat="37.465864" lon="-5.968119">
        <ele>3.20</ele>
        <time>2021-08-28T09:08:46Z</time>
      </trkpt>
      <trkpt lat="37.465685" lon="-5.968164">
        <ele>2.54</ele>
        <time>2021-08-28T09:08:51Z</time>
      </trkpt>
      <trkpt lat="37.465481" lon="-5.968211">
        <ele>3.34</ele>
        <time>2021-08-28T09:08:56Z</time>
      </trkpt>
      <trkpt lat="37.465266" lon="-5.968265">
        <ele>3.78</ele>
        <time>2021-08-28T09:09:01Z</time>
      </trkpt>
      <trkpt lat="37.465051" lon="-5.968321">
        <ele>3.90</ele>
        <time>2021-08-28T09:09:06Z</time>
      </trkpt>
      <trkpt lat="37.464872" lon="-5.968357">
        <ele>3.95</ele>
        <time>2021-08-28T09:09:10Z</time>
      </trkpt>
      <trkpt lat="37.464692" lon="-5.968406">
        <ele>4.44</ele>
        <time>2021-08-28T09:09:14Z</time>
      </trkpt>
      <trkpt lat="37.464498" lon="-5.968450">
        <ele>4.49</ele>
        <time>2021-08-28T09:09:18Z</time>
      </trkpt>
      <trkpt lat="37.464302" lon="-5.968497">
        <ele>4.72</ele>
        <time>2021-08-28T09:09:22Z</time>
      </trkpt>
      <trkpt lat="37.464098" lon="-5.968487">
        <ele>4.55</ele>
        <time>2021-08-28T09:09:26Z</time>
      </trkpt>
      <trkpt lat="37.463893" lon="-5.968484">
        <ele>4.19</ele>
        <time>2021-08-28T09:09:30Z</time>
      </trkpt>
      <trkpt lat="37.463681" lon="-5.968523">
        <ele>4.37</ele>
        <time>2021-08-28T09:09:34Z</time>
      </trkpt>
      <trkpt lat="37.463479" lon="-5.968576">
        <ele>4.17</ele>
        <time>2021-08-28T09:09:38Z</time>
      </trkpt>
      <trkpt lat="37.463263" lon="-5.968625">
        <ele>4.23</ele>
        <time>2021-08-28T09:09:42Z</time>
      </trkpt>
      <trkpt lat="37.463048" lon="-5.968691">
        <ele>5.30</ele>
        <time>2021-08-28T09:09:46Z</time>
      </trkpt>
      <trkpt lat="37.462830" lon="-5.968806">
        <ele>5.04</ele>
        <time>2021-08-28T09:09:50Z</time>
      </trkpt>
      <trkpt lat="37.462669" lon="-5.968923">
        <ele>5.03</ele>
        <time>2021-08-28T09:09:53Z</time>
      </trkpt>
      <trkpt lat="37.462451" lon="-5.969002">
        <ele>4.71</ele>
        <time>2021-08-28T09:09:57Z</time>
      </trkpt>
      <trkpt lat="37.462241" lon="-5.969057">
        <ele>4.13</ele>
        <time>2021-08-28T09:10:01Z</time>
      </trkpt>
      <trkpt lat="37.462040" lon="-5.969097">
        <ele>4.11</ele>
        <time>2021-08-28T09:10:05Z</time>
      </trkpt>
      <trkpt lat="37.461847" lon="-5.969149">
        <ele>4.47</ele>
        <time>2021-08-28T09:10:09Z</time>
      </trkpt>
      <trkpt lat="37.461636" lon="-5.969193">
        <ele>4.12</ele>
        <time>2021-08-28T09:10:13Z</time>
      </trkpt>
      <trkpt lat="37.461419" lon="-5.969246">
        <ele>3.84</ele>
        <time>2021-08-28T09:10:17Z</time>
      </trkpt>
      <trkpt lat="37.461210" lon="-5.969302">
        <ele>3.19</ele>
        <time>2021-08-28T09:10:21Z</time>
      </trkpt>
      <trkpt lat="37.460993" lon="-5.969350">
        <ele>3.43</ele>
        <time>2021-08-28T09:10:25Z</time>
      </trkpt>
      <trkpt lat="37.460786" lon="-5.969401">
        <ele>3.67</ele>
        <time>2021-08-28T09:10:29Z</time>
      </trkpt>
      <trkpt lat="37.460566" lon="-5.969449">
        <ele>3.68</ele>
        <time>2021-08-28T09:10:33Z</time>
      </trkpt>
      <trkpt lat="37.460341" lon="-5.969494">
        <ele>3.63</ele>
        <time>2021-08-28T09:10:37Z</time>
      </trkpt>
      <trkpt lat="37.460118" lon="-5.969525">
        <ele>3.35</ele>
        <time>2021-08-28T09:10:41Z</time>
      </trkpt>
      <trkpt lat="37.459894" lon="-5.969563">
        <ele>2.73</ele>
        <time>2021-08-28T09:10:45Z</time>
      </trkpt>
      <trkpt lat="37.459687" lon="-5.969635">
        <ele>2.72</ele>
        <time>2021-08-28T09:10:49Z</time>
      </trkpt>
      <trkpt lat="37.459475" lon="-5.969658">
        <ele>2.88</ele>
        <time>2021-08-28T09:10:53Z</time>
      </trkpt>
      <trkpt lat="37.459269" lon="-5.969685">
        <ele>4.09</ele>
        <time>2021-08-28T09:10:57Z</time>
      </trkpt>
      <trkpt lat="37.459053" lon="-5.969724">
        <ele>4.54</ele>
        <time>2021-08-28T09:11:01Z</time>
      </trkpt>
      <trkpt lat="37.458828" lon="-5.969765">
        <ele>4.59</ele>
        <time>2021-08-28T09:11:05Z</time>
      </trkpt>
      <trkpt lat="37.458609" lon="-5.969807">
        <ele>4.84</ele>
        <time>2021-08-28T09:11:09Z</time>
      </trkpt>
      <trkpt lat="37.458404" lon="-5.969847">
        <ele>5.25</ele>
        <time>2021-08-28T09:11:13Z</time>
      </trkpt>
      <trkpt lat="37.458199" lon="-5.969890">
        <ele>5.27</ele>
        <time>2021-08-28T09:11:17Z</time>
      </trkpt>
      <trkpt lat="37.457983" lon="-5.969929">
        <ele>5.53</ele>
        <time>2021-08-28T09:11:21Z</time>
      </trkpt>
      <trkpt lat="37.457768" lon="-5.969969">
        <ele>5.35</ele>
        <time>2021-08-28T09:11:25Z</time>
      </trkpt>
      <trkpt lat="37.457545" lon="-5.970008">
        <ele>5.38</ele>
        <time>2021-08-28T09:11:29Z</time>
      </trkpt>
      <trkpt lat="37.457315" lon="-5.970056">
        <ele>5.03</ele>
        <time>2021-08-28T09:11:33Z</time>
      </trkpt>
      <trkpt lat="37.457093" lon="-5.970096">
        <ele>5.13</ele>
        <time>2021-08-28T09:11:37Z</time>
      </trkpt>
      <trkpt lat="37.456896" lon="-5.970137">
        <ele>5.06</ele>
        <time>2021-08-28T09:11:41Z</time>
      </trkpt>
      <trkpt lat="37.456671" lon="-5.970174">
        <ele>5.55</ele>
        <time>2021-08-28T09:11:46Z</time>
      </trkpt>
      <trkpt lat="37.456480" lon="-5.970205">
        <ele>5.80</ele>
        <time>2021-08-28T09:11:50Z</time>
      </trkpt>
      <trkpt lat="37.456285" lon="-5.970233">
        <ele>5.91</ele>
        <time>2021-08-28T09:11:54Z</time>
      </trkpt>
      <trkpt lat="37.456083" lon="-5.970267">
        <ele>5.87</ele>
        <time>2021-08-28T09:11:58Z</time>
      </trkpt>
      <trkpt lat="37.455877" lon="-5.970317">
        <ele>5.62</ele>
        <time>2021-08-28T09:12:02Z</time>
      </trkpt>
      <trkpt lat="37.455668" lon="-5.970363">
        <ele>5.91</ele>
        <time>2021-08-28T09:12:06Z</time>
      </trkpt>
      <trkpt lat="37.455467" lon="-5.970462">
        <ele>5.97</ele>
        <time>2021-08-28T09:12:10Z</time>
      </trkpt>
      <trkpt lat="37.455279" lon="-5.970599">
        <ele>5.84</ele>
        <time>2021-08-28T09:12:14Z</time>
      </trkpt>
      <trkpt lat="37.455108" lon="-5.970777">
        <ele>5.45</ele>
        <time>2021-08-28T09:12:18Z</time>
      </trkpt>
      <trkpt lat="37.454962" lon="-5.971001">
        <ele>5.22</ele>
        <time>2021-08-28T09:12:22Z</time>
      </trkpt>
      <trkpt lat="37.454856" lon="-5.971253">
        <ele>4.63</ele>
        <time>2021-08-28T09:12:26Z</time>
      </trkpt>
      <trkpt lat="37.454799" lon="-5.971470">
        <ele>4.74</ele>
        <time>2021-08-28T09:12:29Z</time>
      </trkpt>
      <trkpt lat="37.454766" lon="-5.971695">
        <ele>5.06</ele>
        <time>2021-08-28T09:12:32Z</time>
      </trkpt>
      <trkpt lat="37.454751" lon="-5.971997">
        <ele>4.83</ele>
        <time>2021-08-28T09:12:36Z</time>
      </trkpt>
      <trkpt lat="37.454677" lon="-5.972247">
        <ele>5.09</ele>
        <time>2021-08-28T09:12:40Z</time>
      </trkpt>
      <trkpt lat="37.454528" lon="-5.972404">
        <ele>5.79</ele>
        <time>2021-08-28T09:12:45Z</time>
      </trkpt>
      <trkpt lat="37.454352" lon="-5.972514">
        <ele>6.79</ele>
        <time>2021-08-28T09:12:52Z</time>
      </trkpt>
      <trkpt lat="37.454173" lon="-5.972556">
        <ele>5.93</ele>
        <time>2021-08-28T09:12:57Z</time>
      </trkpt>
      <trkpt lat="37.453979" lon="-5.972423">
        <ele>4.59</ele>
        <time>2021-08-28T09:13:01Z</time>
      </trkpt>
      <trkpt lat="37.453858" lon="-5.972237">
        <ele>3.68</ele>
        <time>2021-08-28T09:13:05Z</time>
      </trkpt>
      <trkpt lat="37.453779" lon="-5.972013">
        <ele>3.67</ele>
        <time>2021-08-28T09:13:09Z</time>
      </trkpt>
      <trkpt lat="37.453670" lon="-5.971787">
        <ele>4.23</ele>
        <time>2021-08-28T09:13:14Z</time>
      </trkpt>
      <trkpt lat="37.453528" lon="-5.971610">
        <ele>4.23</ele>
        <time>2021-08-28T09:13:20Z</time>
      </trkpt>
      <trkpt lat="37.453400" lon="-5.971417">
        <ele>4.19</ele>
        <time>2021-08-28T09:13:26Z</time>
      </trkpt>
      <trkpt lat="37.453260" lon="-5.971270">
        <ele>3.19</ele>
        <time>2021-08-28T09:13:31Z</time>
      </trkpt>
      <trkpt lat="37.453095" lon="-5.971129">
        <ele>3.79</ele>
        <time>2021-08-28T09:13:36Z</time>
      </trkpt>
      <trkpt lat="37.452902" lon="-5.971022">
        <ele>3.97</ele>
        <time>2021-08-28T09:13:41Z</time>
      </trkpt>
      <trkpt lat="37.452692" lon="-5.970940">
        <ele>4.00</ele>
        <time>2021-08-28T09:13:46Z</time>
      </trkpt>
      <trkpt lat="37.452475" lon="-5.970903">
        <ele>4.20</ele>
        <time>2021-08-28T09:13:51Z</time>
      </trkpt>
      <trkpt lat="37.452263" lon="-5.970895">
        <ele>4.35</ele>
        <time>2021-08-28T09:13:56Z</time>
      </trkpt>
      <trkpt lat="37.452046" lon="-5.970903">
        <ele>5.11</ele>
        <time>2021-08-28T09:14:01Z</time>
      </trkpt>
      <trkpt lat="37.451832" lon="-5.970940">
        <ele>5.46</ele>
        <time>2021-08-28T09:14:06Z</time>
      </trkpt>
      <trkpt lat="37.451655" lon="-5.970996">
        <ele>5.38</ele>
        <time>2021-08-28T09:14:10Z</time>
      </trkpt>
      <trkpt lat="37.451456" lon="-5.971027">
        <ele>4.93</ele>
        <time>2021-08-28T09:14:14Z</time>
      </trkpt>
      <trkpt lat="37.451271" lon="-5.971057">
        <ele>4.57</ele>
        <time>2021-08-28T09:14:18Z</time>
      </trkpt>
      <trkpt lat="37.451050" lon="-5.971089">
        <ele>4.91</ele>
        <time>2021-08-28T09:14:23Z</time>
      </trkpt>
      <trkpt lat="37.450870" lon="-5.971115">
        <ele>5.37</ele>
        <time>2021-08-28T09:14:27Z</time>
      </trkpt>
      <trkpt lat="37.450679" lon="-5.971142">
        <ele>5.03</ele>
        <time>2021-08-28T09:14:31Z</time>
      </trkpt>
      <trkpt lat="37.450470" lon="-5.971174">
        <ele>5.53</ele>
        <time>2021-08-28T09:14:35Z</time>
      </trkpt>
      <trkpt lat="37.450266" lon="-5.971205">
        <ele>5.61</ele>
        <time>2021-08-28T09:14:39Z</time>
      </trkpt>
      <trkpt lat="37.450050" lon="-5.971232">
        <ele>5.51</ele>
        <time>2021-08-28T09:14:43Z</time>
      </trkpt>
      <trkpt lat="37.449834" lon="-5.971251">
        <ele>5.18</ele>
        <time>2021-08-28T09:14:47Z</time>
      </trkpt>
      <trkpt lat="37.449620" lon="-5.971273">
        <ele>5.24</ele>
        <time>2021-08-28T09:14:51Z</time>
      </trkpt>
      <trkpt lat="37.449397" lon="-5.971300">
        <ele>5.54</ele>
        <time>2021-08-28T09:14:55Z</time>
      </trkpt>
      <trkpt lat="37.449185" lon="-5.971324">
        <ele>5.51</ele>
        <time>2021-08-28T09:14:59Z</time>
      </trkpt>
      <trkpt lat="37.448972" lon="-5.971346">
        <ele>5.34</ele>
        <time>2021-08-28T09:15:03Z</time>
      </trkpt>
      <trkpt lat="37.448758" lon="-5.971367">
        <ele>5.10</ele>
        <time>2021-08-28T09:15:07Z</time>
      </trkpt>
      <trkpt lat="37.448538" lon="-5.971393">
        <ele>5.39</ele>
        <time>2021-08-28T09:15:11Z</time>
      </trkpt>
      <trkpt lat="37.448320" lon="-5.971419">
        <ele>5.56</ele>
        <time>2021-08-28T09:15:15Z</time>
      </trkpt>
      <trkpt lat="37.448104" lon="-5.971441">
        <ele>5.19</ele>
        <time>2021-08-28T09:15:19Z</time>
      </trkpt>
      <trkpt lat="37.447892" lon="-5.971475">
        <ele>5.08</ele>
        <time>2021-08-28T09:15:23Z</time>
      </trkpt>
      <trkpt lat="37.447673" lon="-5.971486">
        <ele>5.58</ele>
        <time>2021-08-28T09:15:27Z</time>
      </trkpt>
      <trkpt lat="37.447460" lon="-5.971510">
        <ele>5.53</ele>
        <time>2021-08-28T09:15:31Z</time>
      </trkpt>
      <trkpt lat="37.447251" lon="-5.971533">
        <ele>4.97</ele>
        <time>2021-08-28T09:15:35Z</time>
      </trkpt>
      <trkpt lat="37.447044" lon="-5.971545">
        <ele>5.06</ele>
        <time>2021-08-28T09:15:39Z</time>
      </trkpt>
      <trkpt lat="37.446827" lon="-5.971563">
        <ele>4.74</ele>
        <time>2021-08-28T09:15:43Z</time>
      </trkpt>
      <trkpt lat="37.446602" lon="-5.971581">
        <ele>5.58</ele>
        <time>2021-08-28T09:15:47Z</time>
      </trkpt>
      <trkpt lat="37.446366" lon="-5.971598">
        <ele>6.02</ele>
        <time>2021-08-28T09:15:51Z</time>
      </trkpt>
      <trkpt lat="37.446132" lon="-5.971635">
        <ele>6.18</ele>
        <time>2021-08-28T09:15:55Z</time>
      </trkpt>
      <trkpt lat="37.445905" lon="-5.971670">
        <ele>5.45</ele>
        <time>2021-08-28T09:15:59Z</time>
      </trkpt>
      <trkpt lat="37.445668" lon="-5.971697">
        <ele>5.02</ele>
        <time>2021-08-28T09:16:03Z</time>
      </trkpt>
      <trkpt lat="37.445486" lon="-5.971717">
        <ele>5.35</ele>
        <time>2021-08-28T09:16:06Z</time>
      </trkpt>
      <trkpt lat="37.445246" lon="-5.971745">
        <ele>5.28</ele>
        <time>2021-08-28T09:16:10Z</time>
      </trkpt>
      <trkpt lat="37.445008" lon="-5.971758">
        <ele>5.03</ele>
        <time>2021-08-28T09:16:14Z</time>
      </trkpt>
      <trkpt lat="37.444773" lon="-5.971777">
        <ele>4.51</ele>
        <time>2021-08-28T09:16:18Z</time>
      </trkpt>
      <trkpt lat="37.444543" lon="-5.971799">
        <ele>3.83</ele>
        <time>2021-08-28T09:16:22Z</time>
      </trkpt>
      <trkpt lat="37.444310" lon="-5.971822">
        <ele>4.19</ele>
        <time>2021-08-28T09:16:26Z</time>
      </trkpt>
      <trkpt lat="37.444073" lon="-5.971847">
        <ele>3.86</ele>
        <time>2021-08-28T09:16:30Z</time>
      </trkpt>
      <trkpt lat="37.443892" lon="-5.971862">
        <ele>4.30</ele>
        <time>2021-08-28T09:16:33Z</time>
      </trkpt>
      <trkpt lat="37.443711" lon="-5.971879">
        <ele>4.20</ele>
        <time>2021-08-28T09:16:36Z</time>
      </trkpt>
      <trkpt lat="37.443473" lon="-5.971902">
        <ele>4.05</ele>
        <time>2021-08-28T09:16:40Z</time>
      </trkpt>
      <trkpt lat="37.443237" lon="-5.971927">
        <ele>4.58</ele>
        <time>2021-08-28T09:16:44Z</time>
      </trkpt>
      <trkpt lat="37.443001" lon="-5.971946">
        <ele>4.58</ele>
        <time>2021-08-28T09:16:48Z</time>
      </trkpt>
      <trkpt lat="37.442819" lon="-5.971963">
        <ele>4.58</ele>
        <time>2021-08-28T09:16:51Z</time>
      </trkpt>
      <trkpt lat="37.442594" lon="-5.971992">
        <ele>5.20</ele>
        <time>2021-08-28T09:16:55Z</time>
      </trkpt>
      <trkpt lat="37.442359" lon="-5.972014">
        <ele>5.22</ele>
        <time>2021-08-28T09:16:59Z</time>
      </trkpt>
      <trkpt lat="37.442124" lon="-5.972038">
        <ele>5.30</ele>
        <time>2021-08-28T09:17:03Z</time>
      </trkpt>
      <trkpt lat="37.441893" lon="-5.972055">
        <ele>5.41</ele>
        <time>2021-08-28T09:17:07Z</time>
      </trkpt>
      <trkpt lat="37.441658" lon="-5.972076">
        <ele>5.38</ele>
        <time>2021-08-28T09:17:11Z</time>
      </trkpt>
      <trkpt lat="37.441421" lon="-5.972101">
        <ele>5.49</ele>
        <time>2021-08-28T09:17:15Z</time>
      </trkpt>
      <trkpt lat="37.441183" lon="-5.972136">
        <ele>5.46</ele>
        <time>2021-08-28T09:17:19Z</time>
      </trkpt>
      <trkpt lat="37.440947" lon="-5.972144">
        <ele>5.49</ele>
        <time>2021-08-28T09:17:23Z</time>
      </trkpt>
      <trkpt lat="37.440713" lon="-5.972073">
        <ele>5.42</ele>
        <time>2021-08-28T09:17:27Z</time>
      </trkpt>
      <trkpt lat="37.440479" lon="-5.972052">
        <ele>5.67</ele>
        <time>2021-08-28T09:17:31Z</time>
      </trkpt>
      <trkpt lat="37.440245" lon="-5.972074">
        <ele>6.04</ele>
        <time>2021-08-28T09:17:35Z</time>
      </trkpt>
      <trkpt lat="37.440018" lon="-5.972076">
        <ele>7.56</ele>
        <time>2021-08-28T09:17:39Z</time>
      </trkpt>
      <trkpt lat="37.439810" lon="-5.972062">
        <ele>8.41</ele>
        <time>2021-08-28T09:17:43Z</time>
      </trkpt>
      <trkpt lat="37.439620" lon="-5.972060">
        <ele>9.47</ele>
        <time>2021-08-28T09:17:47Z</time>
      </trkpt>
      <trkpt lat="37.439401" lon="-5.972064">
        <ele>11.11</ele>
        <time>2021-08-28T09:17:52Z</time>
      </trkpt>
      <trkpt lat="37.439210" lon="-5.972074">
        <ele>13.19</ele>
        <time>2021-08-28T09:17:57Z</time>
      </trkpt>
      <trkpt lat="37.439016" lon="-5.972093">
        <ele>15.18</ele>
        <time>2021-08-28T09:18:02Z</time>
      </trkpt>
      <trkpt lat="37.438814" lon="-5.972128">
        <ele>16.32</ele>
        <time>2021-08-28T09:18:07Z</time>
      </trkpt>
      <trkpt lat="37.438604" lon="-5.972181">
        <ele>16.46</ele>
        <time>2021-08-28T09:18:12Z</time>
      </trkpt>
      <trkpt lat="37.438428" lon="-5.972244">
        <ele>16.01</ele>
        <time>2021-08-28T09:18:16Z</time>
      </trkpt>
      <trkpt lat="37.438251" lon="-5.972318">
        <ele>15.75</ele>
        <time>2021-08-28T09:18:20Z</time>
      </trkpt>
      <trkpt lat="37.438083" lon="-5.972414">
        <ele>15.59</ele>
        <time>2021-08-28T09:18:24Z</time>
      </trkpt>
      <trkpt lat="37.437904" lon="-5.972523">
        <ele>14.84</ele>
        <time>2021-08-28T09:18:28Z</time>
      </trkpt>
      <trkpt lat="37.437709" lon="-5.972678">
        <ele>13.35</ele>
        <time>2021-08-28T09:18:32Z</time>
      </trkpt>
      <trkpt lat="37.437549" lon="-5.972819">
        <ele>12.10</ele>
        <time>2021-08-28T09:18:35Z</time>
      </trkpt>
      <trkpt lat="37.437377" lon="-5.972970">
        <ele>11.95</ele>
        <time>2021-08-28T09:18:38Z</time>
      </trkpt>
      <trkpt lat="37.437210" lon="-5.973129">
        <ele>10.86</ele>
        <time>2021-08-28T09:18:41Z</time>
      </trkpt>
      <trkpt lat="37.437036" lon="-5.973302">
        <ele>9.51</ele>
        <time>2021-08-28T09:18:44Z</time>
      </trkpt>
      <trkpt lat="37.436841" lon="-5.973470">
        <ele>8.33</ele>
        <time>2021-08-28T09:18:47Z</time>
      </trkpt>
      <trkpt lat="37.436660" lon="-5.973642">
        <ele>7.65</ele>
        <time>2021-08-28T09:18:50Z</time>
      </trkpt>
      <trkpt lat="37.436508" lon="-5.973781">
        <ele>8.29</ele>
        <time>2021-08-28T09:18:53Z</time>
      </trkpt>
      <trkpt lat="37.436439" lon="-5.973819">
        <ele>7.19</ele>
        <time>2021-08-28T09:19:24Z</time>
      </trkpt>
      <trkpt lat="37.436422" lon="-5.973836">
        <ele>11.36</ele>
        <time>2021-08-28T09:31:05Z</time>
      </trkpt>
      <trkpt lat="37.436428" lon="-5.973829">
        <ele>8.61</ele>
        <time>2021-08-28T09:32:21Z</time>
      </trkpt>
      <trkpt lat="37.436228" lon="-5.973866">
        <ele>8.35</ele>
        <time>2021-08-28T09:32:34Z</time>
      </trkpt>
      <trkpt lat="37.436057" lon="-5.973962">
        <ele>7.62</ele>
        <time>2021-08-28T09:32:39Z</time>
      </trkpt>
      <trkpt lat="37.435877" lon="-5.973996">
        <ele>6.77</ele>
        <time>2021-08-28T09:32:43Z</time>
      </trkpt>
      <trkpt lat="37.435697" lon="-5.973943">
        <ele>6.88</ele>
        <time>2021-08-28T09:32:47Z</time>
      </trkpt>
      <trkpt lat="37.435475" lon="-5.973863">
        <ele>7.68</ele>
        <time>2021-08-28T09:32:51Z</time>
      </trkpt>
      <trkpt lat="37.435261" lon="-5.973979">
        <ele>8.23</ele>
        <time>2021-08-28T09:32:55Z</time>
      </trkpt>
      <trkpt lat="37.435065" lon="-5.974088">
        <ele>9.12</ele>
        <time>2021-08-28T09:32:59Z</time>
      </trkpt>
      <trkpt lat="37.434879" lon="-5.974206">
        <ele>9.55</ele>
        <time>2021-08-28T09:33:04Z</time>
      </trkpt>
      <trkpt lat="37.434695" lon="-5.974345">
        <ele>10.02</ele>
        <time>2021-08-28T09:33:10Z</time>
      </trkpt>
      <trkpt lat="37.434522" lon="-5.974461">
        <ele>10.30</ele>
        <time>2021-08-28T09:33:15Z</time>
      </trkpt>
      <trkpt lat="37.434332" lon="-5.974577">
        <ele>10.16</ele>
        <time>2021-08-28T09:33:20Z</time>
      </trkpt>
      <trkpt lat="37.434134" lon="-5.974699">
        <ele>9.81</ele>
        <time>2021-08-28T09:33:25Z</time>
      </trkpt>
      <trkpt lat="37.433931" lon="-5.974820">
        <ele>9.49</ele>
        <time>2021-08-28T09:33:30Z</time>
      </trkpt>
      <trkpt lat="37.433758" lon="-5.974891">
        <ele>9.61</ele>
        <time>2021-08-28T09:33:34Z</time>
      </trkpt>
      <trkpt lat="37.433581" lon="-5.974982">
        <ele>8.64</ele>
        <time>2021-08-28T09:33:38Z</time>
      </trkpt>
      <trkpt lat="37.433392" lon="-5.975077">
        <ele>7.82</ele>
        <time>2021-08-28T09:33:42Z</time>
      </trkpt>
      <trkpt lat="37.433194" lon="-5.975197">
        <ele>6.96</ele>
        <time>2021-08-28T09:33:46Z</time>
      </trkpt>
      <trkpt lat="37.432991" lon="-5.975313">
        <ele>6.80</ele>
        <time>2021-08-28T09:33:50Z</time>
      </trkpt>
      <trkpt lat="37.432800" lon="-5.975428">
        <ele>6.27</ele>
        <time>2021-08-28T09:33:54Z</time>
      </trkpt>
      <trkpt lat="37.432628" lon="-5.975538">
        <ele>6.43</ele>
        <time>2021-08-28T09:33:58Z</time>
      </trkpt>
      <trkpt lat="37.432445" lon="-5.975662">
        <ele>7.05</ele>
        <time>2021-08-28T09:34:03Z</time>
      </trkpt>
      <trkpt lat="37.432282" lon="-5.975771">
        <ele>7.40</ele>
        <time>2021-08-28T09:34:08Z</time>
      </trkpt>
      <trkpt lat="37.432122" lon="-5.975877">
        <ele>6.92</ele>
        <time>2021-08-28T09:34:13Z</time>
      </trkpt>
      <trkpt lat="37.431953" lon="-5.975986">
        <ele>7.21</ele>
        <time>2021-08-28T09:34:18Z</time>
      </trkpt>
      <trkpt lat="37.431775" lon="-5.976100">
        <ele>7.36</ele>
        <time>2021-08-28T09:34:23Z</time>
      </trkpt>
      <trkpt lat="37.431592" lon="-5.976225">
        <ele>7.32</ele>
        <time>2021-08-28T09:34:28Z</time>
      </trkpt>
      <trkpt lat="37.431416" lon="-5.976334">
        <ele>7.92</ele>
        <time>2021-08-28T09:34:33Z</time>
      </trkpt>
      <trkpt lat="37.431237" lon="-5.976450">
        <ele>7.80</ele>
        <time>2021-08-28T09:34:39Z</time>
      </trkpt>
      <trkpt lat="37.431095" lon="-5.976560">
        <ele>6.66</ele>
        <time>2021-08-28T09:35:12Z</time>
      </trkpt>
      <trkpt lat="37.430911" lon="-5.976686">
        <ele>6.64</ele>
        <time>2021-08-28T09:35:38Z</time>
      </trkpt>
      <trkpt lat="37.430741" lon="-5.976786">
        <ele>6.69</ele>
        <time>2021-08-28T09:35:43Z</time>
      </trkpt>
      <trkpt lat="37.430544" lon="-5.976914">
        <ele>6.09</ele>
        <time>2021-08-28T09:35:48Z</time>
      </trkpt>
      <trkpt lat="37.430364" lon="-5.977032">
        <ele>5.55</ele>
        <time>2021-08-28T09:35:52Z</time>
      </trkpt>
      <trkpt lat="37.430184" lon="-5.977152">
        <ele>5.19</ele>
        <time>2021-08-28T09:35:56Z</time>
      </trkpt>
      <trkpt lat="37.429999" lon="-5.977270">
        <ele>4.75</ele>
        <time>2021-08-28T09:36:00Z</time>
      </trkpt>
      <trkpt lat="37.429819" lon="-5.977382">
        <ele>4.78</ele>
        <time>2021-08-28T09:36:04Z</time>
      </trkpt>
      <trkpt lat="37.429632" lon="-5.977483">
        <ele>5.86</ele>
        <time>2021-08-28T09:36:08Z</time>
      </trkpt>
      <trkpt lat="37.429443" lon="-5.977604">
        <ele>6.41</ele>
        <time>2021-08-28T09:36:12Z</time>
      </trkpt>
      <trkpt lat="37.429258" lon="-5.977722">
        <ele>7.49</ele>
        <time>2021-08-28T09:36:16Z</time>
      </trkpt>
      <trkpt lat="37.429080" lon="-5.977844">
        <ele>7.18</ele>
        <time>2021-08-28T09:36:20Z</time>
      </trkpt>
      <trkpt lat="37.428898" lon="-5.977959">
        <ele>6.67</ele>
        <time>2021-08-28T09:36:24Z</time>
      </trkpt>
      <trkpt lat="37.428711" lon="-5.978062">
        <ele>7.54</ele>
        <time>2021-08-28T09:36:28Z</time>
      </trkpt>
      <trkpt lat="37.428524" lon="-5.978161">
        <ele>7.68</ele>
        <time>2021-08-28T09:36:32Z</time>
      </trkpt>
      <trkpt lat="37.428327" lon="-5.978250">
        <ele>7.62</ele>
        <time>2021-08-28T09:36:36Z</time>
      </trkpt>
      <trkpt lat="37.428129" lon="-5.978348">
        <ele>7.34</ele>
        <time>2021-08-28T09:36:40Z</time>
      </trkpt>
      <trkpt lat="37.427955" lon="-5.978505">
        <ele>6.71</ele>
        <time>2021-08-28T09:36:44Z</time>
      </trkpt>
      <trkpt lat="37.427833" lon="-5.978720">
        <ele>5.63</ele>
        <time>2021-08-28T09:36:48Z</time>
      </trkpt>
      <trkpt lat="37.427653" lon="-5.978843">
        <ele>5.34</ele>
        <time>2021-08-28T09:36:52Z</time>
      </trkpt>
      <trkpt lat="37.427459" lon="-5.978888">
        <ele>5.94</ele>
        <time>2021-08-28T09:36:56Z</time>
      </trkpt>
      <trkpt lat="37.427254" lon="-5.978964">
        <ele>5.75</ele>
        <time>2021-08-28T09:37:00Z</time>
      </trkpt>
      <trkpt lat="37.427067" lon="-5.979069">
        <ele>6.14</ele>
        <time>2021-08-28T09:37:04Z</time>
      </trkpt>
      <trkpt lat="37.426898" lon="-5.979168">
        <ele>6.54</ele>
        <time>2021-08-28T09:37:08Z</time>
      </trkpt>
      <trkpt lat="37.426711" lon="-5.979300">
        <ele>6.16</ele>
        <time>2021-08-28T09:37:13Z</time>
      </trkpt>
      <trkpt lat="37.426550" lon="-5.979403">
        <ele>5.79</ele>
        <time>2021-08-28T09:37:17Z</time>
      </trkpt>
      <trkpt lat="37.426349" lon="-5.979529">
        <ele>4.87</ele>
        <time>2021-08-28T09:37:22Z</time>
      </trkpt>
      <trkpt lat="37.426187" lon="-5.979634">
        <ele>5.61</ele>
        <time>2021-08-28T09:37:26Z</time>
      </trkpt>
      <trkpt lat="37.426026" lon="-5.979740">
        <ele>4.78</ele>
        <time>2021-08-28T09:37:30Z</time>
      </trkpt>
      <trkpt lat="37.425858" lon="-5.979839">
        <ele>4.88</ele>
        <time>2021-08-28T09:37:34Z</time>
      </trkpt>
      <trkpt lat="37.425678" lon="-5.979940">
        <ele>5.69</ele>
        <time>2021-08-28T09:37:38Z</time>
      </trkpt>
      <trkpt lat="37.425508" lon="-5.980042">
        <ele>6.17</ele>
        <time>2021-08-28T09:37:42Z</time>
      </trkpt>
      <trkpt lat="37.425332" lon="-5.980158">
        <ele>6.11</ele>
        <time>2021-08-28T09:37:46Z</time>
      </trkpt>
      <trkpt lat="37.425167" lon="-5.980268">
        <ele>5.57</ele>
        <time>2021-08-28T09:37:50Z</time>
      </trkpt>
      <trkpt lat="37.425011" lon="-5.980387">
        <ele>5.40</ele>
        <time>2021-08-28T09:37:54Z</time>
      </trkpt>
      <trkpt lat="37.424847" lon="-5.980501">
        <ele>5.81</ele>
        <time>2021-08-28T09:37:59Z</time>
      </trkpt>
      <trkpt lat="37.424674" lon="-5.980611">
        <ele>5.51</ele>
        <time>2021-08-28T09:38:07Z</time>
      </trkpt>
      <trkpt lat="37.424490" lon="-5.980746">
        <ele>5.61</ele>
        <time>2021-08-28T09:38:13Z</time>
      </trkpt>
      <trkpt lat="37.424299" lon="-5.980874">
        <ele>4.84</ele>
        <time>2021-08-28T09:38:18Z</time>
      </trkpt>
      <trkpt lat="37.424113" lon="-5.981004">
        <ele>4.51</ele>
        <time>2021-08-28T09:38:23Z</time>
      </trkpt>
      <trkpt lat="37.423932" lon="-5.981138">
        <ele>3.38</ele>
        <time>2021-08-28T09:38:28Z</time>
      </trkpt>
      <trkpt lat="37.423743" lon="-5.981263">
        <ele>4.20</ele>
        <time>2021-08-28T09:38:33Z</time>
      </trkpt>
      <trkpt lat="37.423559" lon="-5.981392">
        <ele>5.21</ele>
        <time>2021-08-28T09:38:38Z</time>
      </trkpt>
      <trkpt lat="37.423374" lon="-5.981527">
        <ele>5.53</ele>
        <time>2021-08-28T09:38:43Z</time>
      </trkpt>
      <trkpt lat="37.423190" lon="-5.981668">
        <ele>5.71</ele>
        <time>2021-08-28T09:38:48Z</time>
      </trkpt>
      <trkpt lat="37.423002" lon="-5.981790">
        <ele>5.60</ele>
        <time>2021-08-28T09:38:53Z</time>
      </trkpt>
      <trkpt lat="37.422810" lon="-5.981911">
        <ele>5.58</ele>
        <time>2021-08-28T09:38:58Z</time>
      </trkpt>
      <trkpt lat="37.422627" lon="-5.982041">
        <ele>4.88</ele>
        <time>2021-08-28T09:39:03Z</time>
      </trkpt>
      <trkpt lat="37.422466" lon="-5.982146">
        <ele>3.99</ele>
        <time>2021-08-28T09:39:10Z</time>
      </trkpt>
      <trkpt lat="37.422377" lon="-5.982195">
        <ele>2.10</ele>
        <time>2021-08-28T09:40:10Z</time>
      </trkpt>
      <trkpt lat="37.422233" lon="-5.982390">
        <ele>3.12</ele>
        <time>2021-08-28T09:40:17Z</time>
      </trkpt>
      <trkpt lat="37.422122" lon="-5.982624">
        <ele>3.33</ele>
        <time>2021-08-28T09:40:22Z</time>
      </trkpt>
      <trkpt lat="37.421982" lon="-5.982847">
        <ele>3.68</ele>
        <time>2021-08-28T09:40:27Z</time>
      </trkpt>
      <trkpt lat="37.421841" lon="-5.983005">
        <ele>3.38</ele>
        <time>2021-08-28T09:40:31Z</time>
      </trkpt>
      <trkpt lat="37.421711" lon="-5.983191">
        <ele>3.14</ele>
        <time>2021-08-28T09:40:35Z</time>
      </trkpt>
      <trkpt lat="37.421524" lon="-5.983321">
        <ele>3.94</ele>
        <time>2021-08-28T09:40:39Z</time>
      </trkpt>
      <trkpt lat="37.421333" lon="-5.983327">
        <ele>4.04</ele>
        <time>2021-08-28T09:40:43Z</time>
      </trkpt>
      <trkpt lat="37.421146" lon="-5.983310">
        <ele>4.02</ele>
        <time>2021-08-28T09:40:47Z</time>
      </trkpt>
      <trkpt lat="37.420956" lon="-5.983460">
        <ele>4.41</ele>
        <time>2021-08-28T09:40:52Z</time>
      </trkpt>
      <trkpt lat="37.420784" lon="-5.983574">
        <ele>4.96</ele>
        <time>2021-08-28T09:40:57Z</time>
      </trkpt>
      <trkpt lat="37.420667" lon="-5.983748">
        <ele>4.37</ele>
        <time>2021-08-28T09:41:02Z</time>
      </trkpt>
      <trkpt lat="37.420423" lon="-5.983917">
        <ele>3.10</ele>
        <time>2021-08-28T09:41:07Z</time>
      </trkpt>
      <trkpt lat="37.420210" lon="-5.984047">
        <ele>2.95</ele>
        <time>2021-08-28T09:41:09.82Z</time>
      </trkpt>
      <trkpt lat="37.420054" lon="-5.984142">
        <ele>2.84</ele>
        <time>2021-08-28T09:41:11.89Z</time>
      </trkpt>
      <trkpt lat="37.419895" lon="-5.984239">
        <ele>2.73</ele>
        <time>2021-08-28T09:41:14Z</time>
      </trkpt>
      <trkpt lat="37.419711" lon="-5.984362">
        <ele>2.69</ele>
        <time>2021-08-28T09:41:15.93Z</time>
      </trkpt>
      <trkpt lat="37.419587" lon="-5.984445">
        <ele>2.67</ele>
        <time>2021-08-28T09:41:17.23Z</time>
      </trkpt>
      <trkpt lat="37.419410" lon="-5.984563">
        <ele>2.63</ele>
        <time>2021-08-28T09:41:19.09Z</time>
      </trkpt>
      <trkpt lat="37.419326" lon="-5.984620">
        <ele>2.61</ele>
        <time>2021-08-28T09:41:19.98Z</time>
      </trkpt>
      <trkpt lat="37.419287" lon="-5.984633">
        <ele>-1.01</ele>
        <time>2021-08-28T10:01:01Z</time>
      </trkpt>
      <trkpt lat="37.419213" lon="-5.984678">
        <ele>-1.02</ele>
        <time>2021-08-28T10:01:01.35Z</time>
      </trkpt>
      <trkpt lat="37.419040" lon="-5.984782">
        <ele>-1.05</ele>
        <time>2021-08-28T10:01:02.17Z</time>
      </trkpt>
      <trkpt lat="37.418929" lon="-5.984854">
        <ele>-1.08</ele>
        <time>2021-08-28T10:01:02.86Z</time>
      </trkpt>
      <trkpt lat="37.418780" lon="-5.984950">
        <ele>-1.11</ele>
        <time>2021-08-28T10:01:03.78Z</time>
      </trkpt>
      <trkpt lat="37.418674" lon="-5.985019">
        <ele>-1.14</ele>
        <time>2021-08-28T10:01:04.44Z</time>
      </trkpt>
      <trkpt lat="37.418552" lon="-5.985097">
        <ele>-1.16</ele>
        <time>2021-08-28T10:01:05.19Z</time>
      </trkpt>
      <trkpt lat="37.418390" lon="-5.985202">
        <ele>-1.20</ele>
        <time>2021-08-28T10:01:06.20Z</time>
      </trkpt>
      <trkpt lat="37.418261" lon="-5.985285">
        <ele>-1.23</ele>
        <time>2021-08-28T10:01:07Z</time>
      </trkpt>
      <trkpt lat="37.418169" lon="-5.985492">
        <ele>-1.17</ele>
        <time>2021-08-28T10:01:13Z</time>
      </trkpt>
      <trkpt lat="37.417930" lon="-5.985516">
        <ele>0.24</ele>
        <time>2021-08-28T10:01:19Z</time>
      </trkpt>
      <trkpt lat="37.417743" lon="-5.985589">
        <ele>0.40</ele>
        <time>2021-08-28T10:01:23Z</time>
      </trkpt>
      <trkpt lat="37.417564" lon="-5.985693">
        <ele>0.29</ele>
        <time>2021-08-28T10:01:27Z</time>
      </trkpt>
      <trkpt lat="37.417391" lon="-5.985809">
        <ele>0.12</ele>
        <time>2021-08-28T10:01:31Z</time>
      </trkpt>
      <trkpt lat="37.417211" lon="-5.985928">
        <ele>0.17</ele>
        <time>2021-08-28T10:01:35Z</time>
      </trkpt>
      <trkpt lat="37.417027" lon="-5.986047">
        <ele>-0.08</ele>
        <time>2021-08-28T10:01:39Z</time>
      </trkpt>
      <trkpt lat="37.416836" lon="-5.986174">
        <ele>0.24</ele>
        <time>2021-08-28T10:01:43Z</time>
      </trkpt>
      <trkpt lat="37.416638" lon="-5.986303">
        <ele>0.63</ele>
        <time>2021-08-28T10:01:47Z</time>
      </trkpt>
      <trkpt lat="37.416450" lon="-5.986431">
        <ele>0.25</ele>
        <time>2021-08-28T10:01:51Z</time>
      </trkpt>
      <trkpt lat="37.416253" lon="-5.986556">
        <ele>-0.36</ele>
        <time>2021-08-28T10:01:55Z</time>
      </trkpt>
      <trkpt lat="37.416063" lon="-5.986683">
        <ele>-0.33</ele>
        <time>2021-08-28T10:01:59Z</time>
      </trkpt>
      <trkpt lat="37.415881" lon="-5.986815">
        <ele>0.90</ele>
        <time>2021-08-28T10:02:03Z</time>
      </trkpt>
      <trkpt lat="37.415684" lon="-5.986946">
        <ele>1.33</ele>
        <time>2021-08-28T10:02:07Z</time>
      </trkpt>
      <trkpt lat="37.415487" lon="-5.987069">
        <ele>1.40</ele>
        <time>2021-08-28T10:02:11Z</time>
      </trkpt>
      <trkpt lat="37.415298" lon="-5.987213">
        <ele>1.51</ele>
        <time>2021-08-28T10:02:15Z</time>
      </trkpt>
      <trkpt lat="37.415096" lon="-5.987335">
        <ele>1.70</ele>
        <time>2021-08-28T10:02:19Z</time>
      </trkpt>
      <trkpt lat="37.414897" lon="-5.987459">
        <ele>2.56</ele>
        <time>2021-08-28T10:02:23Z</time>
      </trkpt>
      <trkpt lat="37.414723" lon="-5.987585">
        <ele>2.77</ele>
        <time>2021-08-28T10:02:27Z</time>
      </trkpt>
      <trkpt lat="37.414751" lon="-5.987825">
        <ele>2.33</ele>
        <time>2021-08-28T10:02:33Z</time>
      </trkpt>
      <trkpt lat="37.414805" lon="-5.988050">
        <ele>-0.43</ele>
        <time>2021-08-28T10:02:53Z</time>
      </trkpt>
      <trkpt lat="37.414790" lon="-5.988164">
        <ele>-0.60</ele>
        <time>2021-08-28T10:02:55.50Z</time>
      </trkpt>
      <trkpt lat="37.414675" lon="-5.988222">
        <ele>-0.91</ele>
        <time>2021-08-28T10:03:00Z</time>
      </trkpt>
      <trkpt lat="37.414469" lon="-5.988262">
        <ele>0.13</ele>
        <time>2021-08-28T10:03:05Z</time>
      </trkpt>
      <trkpt lat="37.414290" lon="-5.988297">
        <ele>0.83</ele>
        <time>2021-08-28T10:03:09Z</time>
      </trkpt>
      <trkpt lat="37.414100" lon="-5.988350">
        <ele>0.95</ele>
        <time>2021-08-28T10:03:13Z</time>
      </trkpt>
      <trkpt lat="37.413914" lon="-5.988404">
        <ele>0.48</ele>
        <time>2021-08-28T10:03:17Z</time>
      </trkpt>
      <trkpt lat="37.413789" lon="-5.988582">
        <ele>1.76</ele>
        <time>2021-08-28T10:03:22Z</time>
      </trkpt>
      <trkpt lat="37.413687" lon="-5.988782">
        <ele>0.81</ele>
        <time>2021-08-28T10:03:30Z</time>
      </trkpt>
      <trkpt lat="37.413563" lon="-5.988964">
        <ele>0.20</ele>
        <time>2021-08-28T10:03:42Z</time>
      </trkpt>
      <trkpt lat="37.413366" lon="-5.989015">
        <ele>0.72</ele>
        <time>2021-08-28T10:04:00Z</time>
      </trkpt>
      <trkpt lat="37.413165" lon="-5.988975">
        <ele>0.90</ele>
        <time>2021-08-28T10:04:04Z</time>
      </trkpt>
      <trkpt lat="37.412972" lon="-5.988993">
        <ele>1.92</ele>
        <time>2021-08-28T10:04:07Z</time>
      </trkpt>
      <trkpt lat="37.412742" lon="-5.989017">
        <ele>2.01</ele>
        <time>2021-08-28T10:04:11Z</time>
      </trkpt>
      <trkpt lat="37.412542" lon="-5.989136">
        <ele>2.53</ele>
        <time>2021-08-28T10:04:15Z</time>
      </trkpt>
      <trkpt lat="37.412353" lon="-5.989265">
        <ele>3.31</ele>
        <time>2021-08-28T10:04:19Z</time>
      </trkpt>
      <trkpt lat="37.412146" lon="-5.989378">
        <ele>4.06</ele>
        <time>2021-08-28T10:04:23Z</time>
      </trkpt>
      <trkpt lat="37.411937" lon="-5.989499">
        <ele>4.93</ele>
        <time>2021-08-28T10:04:27Z</time>
      </trkpt>
      <trkpt lat="37.411738" lon="-5.989651">
        <ele>4.12</ele>
        <time>2021-08-28T10:04:31Z</time>
      </trkpt>
      <trkpt lat="37.411536" lon="-5.989804">
        <ele>4.88</ele>
        <time>2021-08-28T10:04:35Z</time>
      </trkpt>
      <trkpt lat="37.411329" lon="-5.989948">
        <ele>5.58</ele>
        <time>2021-08-28T10:04:39Z</time>
      </trkpt>
      <trkpt lat="37.411127" lon="-5.990099">
        <ele>5.43</ele>
        <time>2021-08-28T10:04:43Z</time>
      </trkpt>
      <trkpt lat="37.410924" lon="-5.990247">
        <ele>5.29</ele>
        <time>2021-08-28T10:04:47Z</time>
      </trkpt>
      <trkpt lat="37.410733" lon="-5.990399">
        <ele>4.51</ele>
        <time>2021-08-28T10:04:51Z</time>
      </trkpt>
      <trkpt lat="37.410574" lon="-5.990514">
        <ele>2.67</ele>
        <time>2021-08-28T10:04:54Z</time>
      </trkpt>
      <trkpt lat="37.410373" lon="-5.990657">
        <ele>3.48</ele>
        <time>2021-08-28T10:04:58Z</time>
      </trkpt>
      <trkpt lat="37.410173" lon="-5.990809">
        <ele>2.76</ele>
        <time>2021-08-28T10:05:02Z</time>
      </trkpt>
      <trkpt lat="37.409972" lon="-5.990954">
        <ele>2.82</ele>
        <time>2021-08-28T10:05:06Z</time>
      </trkpt>
      <trkpt lat="37.409771" lon="-5.991108">
        <ele>2.54</ele>
        <time>2021-08-28T10:05:10Z</time>
      </trkpt>
      <trkpt lat="37.409571" lon="-5.991244">
        <ele>2.88</ele>
        <time>2021-08-28T10:05:14Z</time>
      </trkpt>
      <trkpt lat="37.409433" lon="-5.991441">
        <ele>3.18</ele>
        <time>2021-08-28T10:05:19Z</time>
      </trkpt>
      <trkpt lat="37.409270" lon="-5.991613">
        <ele>3.55</ele>
        <time>2021-08-28T10:05:24Z</time>
      </trkpt>
      <trkpt lat="37.409099" lon="-5.991728">
        <ele>3.70</ele>
        <time>2021-08-28T10:05:28Z</time>
      </trkpt>
      <trkpt lat="37.408911" lon="-5.991860">
        <ele>4.18</ele>
        <time>2021-08-28T10:05:32Z</time>
      </trkpt>
      <trkpt lat="37.408724" lon="-5.991997">
        <ele>3.75</ele>
        <time>2021-08-28T10:05:36Z</time>
      </trkpt>
      <trkpt lat="37.408520" lon="-5.992127">
        <ele>4.30</ele>
        <time>2021-08-28T10:05:40Z</time>
      </trkpt>
      <trkpt lat="37.408322" lon="-5.992282">
        <ele>3.83</ele>
        <time>2021-08-28T10:05:44Z</time>
      </trkpt>
      <trkpt lat="37.408124" lon="-5.992431">
        <ele>2.49</ele>
        <time>2021-08-28T10:05:48Z</time>
      </trkpt>
      <trkpt lat="37.407927" lon="-5.992585">
        <ele>2.43</ele>
        <time>2021-08-28T10:05:52Z</time>
      </trkpt>
      <trkpt lat="37.407728" lon="-5.992742">
        <ele>1.69</ele>
        <time>2021-08-28T10:05:56Z</time>
      </trkpt>
      <trkpt lat="37.407530" lon="-5.992869">
        <ele>1.63</ele>
        <time>2021-08-28T10:06:00Z</time>
      </trkpt>
      <trkpt lat="37.407328" lon="-5.993024">
        <ele>0.85</ele>
        <time>2021-08-28T10:06:04Z</time>
      </trkpt>
      <trkpt lat="37.407168" lon="-5.993138">
        <ele>1.55</ele>
        <time>2021-08-28T10:06:07Z</time>
      </trkpt>
      <trkpt lat="37.407007" lon="-5.993254">
        <ele>2.25</ele>
        <time>2021-08-28T10:06:10Z</time>
      </trkpt>
      <trkpt lat="37.406845" lon="-5.993366">
        <ele>3.42</ele>
        <time>2021-08-28T10:06:13Z</time>
      </trkpt>
      <trkpt lat="37.406647" lon="-5.993515">
        <ele>3.57</ele>
        <time>2021-08-28T10:06:17Z</time>
      </trkpt>
      <trkpt lat="37.406447" lon="-5.993666">
        <ele>3.69</ele>
        <time>2021-08-28T10:06:21Z</time>
      </trkpt>
      <trkpt lat="37.406295" lon="-5.993788">
        <ele>4.63</ele>
        <time>2021-08-28T10:06:24Z</time>
      </trkpt>
      <trkpt lat="37.406092" lon="-5.993924">
        <ele>4.79</ele>
        <time>2021-08-28T10:06:28Z</time>
      </trkpt>
      <trkpt lat="37.405898" lon="-5.994071">
        <ele>4.86</ele>
        <time>2021-08-28T10:06:32Z</time>
      </trkpt>
      <trkpt lat="37.405690" lon="-5.994208">
        <ele>6.31</ele>
        <time>2021-08-28T10:06:36Z</time>
      </trkpt>
      <trkpt lat="37.405502" lon="-5.994355">
        <ele>6.05</ele>
        <time>2021-08-28T10:06:40Z</time>
      </trkpt>
      <trkpt lat="37.405296" lon="-5.994497">
        <ele>5.86</ele>
        <time>2021-08-28T10:06:44Z</time>
      </trkpt>
      <trkpt lat="37.405104" lon="-5.994642">
        <ele>6.20</ele>
        <time>2021-08-28T10:06:48Z</time>
      </trkpt>
      <trkpt lat="37.404910" lon="-5.994788">
        <ele>5.06</ele>
        <time>2021-08-28T10:06:52Z</time>
      </trkpt>
      <trkpt lat="37.404713" lon="-5.994929">
        <ele>2.48</ele>
        <time>2021-08-28T10:06:56Z</time>
      </trkpt>
      <trkpt lat="37.404517" lon="-5.995051">
        <ele>2.02</ele>
        <time>2021-08-28T10:07:00Z</time>
      </trkpt>
      <trkpt lat="37.404336" lon="-5.995192">
        <ele>2.04</ele>
        <time>2021-08-28T10:07:04Z</time>
      </trkpt>
      <trkpt lat="37.404170" lon="-5.995323">
        <ele>1.99</ele>
        <time>2021-08-28T10:07:08Z</time>
      </trkpt>
      <trkpt lat="37.404017" lon="-5.995445">
        <ele>0.94</ele>
        <time>2021-08-28T10:07:13Z</time>
      </trkpt>
      <trkpt lat="37.404047" lon="-5.995408">
        <ele>0.27</ele>
        <time>2021-08-28T10:07:36Z</time>
      </trkpt>
      <trkpt lat="37.404012" lon="-5.995185">
        <ele>1.05</ele>
        <time>2021-08-28T10:07:48Z</time>
      </trkpt>
      <trkpt lat="37.404020" lon="-5.995120">
        <ele>3.51</ele>
        <time>2021-08-28T10:08:27Z</time>
      </trkpt>
      <trkpt lat="37.403948" lon="-5.994889">
        <ele>-0.73</ele>
        <time>2021-08-28T10:08:36Z</time>
      </trkpt>
      <trkpt lat="37.403821" lon="-5.994843">
        <ele>1.34</ele>
        <time>2021-08-28T10:09:49Z</time>
      </trkpt>
      <trkpt lat="37.403653" lon="-5.994938">
        <ele>0.88</ele>
        <time>2021-08-28T10:09:57Z</time>
      </trkpt>
      <trkpt lat="37.403534" lon="-5.995145">
        <ele>0.97</ele>
        <time>2021-08-28T10:10:03Z</time>
      </trkpt>
      <trkpt lat="37.403372" lon="-5.995291">
        <ele>0.90</ele>
        <time>2021-08-28T10:10:08Z</time>
      </trkpt>
      <trkpt lat="37.403176" lon="-5.995351">
        <ele>1.77</ele>
        <time>2021-08-28T10:10:14Z</time>
      </trkpt>
      <trkpt lat="37.403059" lon="-5.995135">
        <ele>2.72</ele>
        <time>2021-08-28T10:10:18Z</time>
      </trkpt>
      <trkpt lat="37.402918" lon="-5.994919">
        <ele>1.61</ele>
        <time>2021-08-28T10:10:22Z</time>
      </trkpt>
      <trkpt lat="37.402739" lon="-5.994822">
        <ele>-0.13</ele>
        <time>2021-08-28T10:10:25Z</time>
      </trkpt>
      <trkpt lat="37.402583" lon="-5.994706">
        <ele>0.54</ele>
        <time>2021-08-28T10:10:28Z</time>
      </trkpt>
      <trkpt lat="37.402408" lon="-5.994586">
        <ele>2.14</ele>
        <time>2021-08-28T10:10:31Z</time>
      </trkpt>
      <trkpt lat="37.402242" lon="-5.994471">
        <ele>2.30</ele>
        <time>2021-08-28T10:10:34Z</time>
      </trkpt>
      <trkpt lat="37.402064" lon="-5.994365">
        <ele>2.03</ele>
        <time>2021-08-28T10:10:37Z</time>
      </trkpt>
      <trkpt lat="37.401891" lon="-5.994254">
        <ele>2.32</ele>
        <time>2021-08-28T10:10:40Z</time>
      </trkpt>
      <trkpt lat="37.401705" lon="-5.994140">
        <ele>4.15</ele>
        <time>2021-08-28T10:10:43Z</time>
      </trkpt>
      <trkpt lat="37.401500" lon="-5.993980">
        <ele>2.72</ele>
        <time>2021-08-28T10:10:47Z</time>
      </trkpt>
      <trkpt lat="37.401329" lon="-5.993866">
        <ele>1.47</ele>
        <time>2021-08-28T10:10:50Z</time>
      </trkpt>
      <trkpt lat="37.401114" lon="-5.993729">
        <ele>0.22</ele>
        <time>2021-08-28T10:10:54Z</time>
      </trkpt>
      <trkpt lat="37.400949" lon="-5.993631">
        <ele>-2.47</ele>
        <time>2021-08-28T10:10:57Z</time>
      </trkpt>
      <trkpt lat="37.400752" lon="-5.993576">
        <ele>-4.44</ele>
        <time>2021-08-28T10:11:02Z</time>
      </trkpt>
      <trkpt lat="37.400540" lon="-5.993629">
        <ele>-2.95</ele>
        <time>2021-08-28T10:11:08Z</time>
      </trkpt>
      <trkpt lat="37.400362" lon="-5.993663">
        <ele>-2.11</ele>
        <time>2021-08-28T10:11:13Z</time>
      </trkpt>
      <trkpt lat="37.400168" lon="-5.993697">
        <ele>-3.86</ele>
        <time>2021-08-28T10:11:18Z</time>
      </trkpt>
      <trkpt lat="37.399957" lon="-5.993740">
        <ele>-4.67</ele>
        <time>2021-08-28T10:11:22Z</time>
      </trkpt>
      <trkpt lat="37.399726" lon="-5.993775">
        <ele>-4.93</ele>
        <time>2021-08-28T10:11:26Z</time>
      </trkpt>
      <trkpt lat="37.399546" lon="-5.993807">
        <ele>-4.62</ele>
        <time>2021-08-28T10:11:29Z</time>
      </trkpt>
      <trkpt lat="37.399337" lon="-5.993844">
        <ele>-4.35</ele>
        <time>2021-08-28T10:11:32Z</time>
      </trkpt>
      <trkpt lat="37.399111" lon="-5.993887">
        <ele>-4.40</ele>
        <time>2021-08-28T10:11:35Z</time>
      </trkpt>
      <trkpt lat="37.398895" lon="-5.993924">
        <ele>-4.95</ele>
        <time>2021-08-28T10:11:38Z</time>
      </trkpt>
      <trkpt lat="37.398692" lon="-5.993966">
        <ele>-5.28</ele>
        <time>2021-08-28T10:11:41Z</time>
      </trkpt>
      <trkpt lat="37.398497" lon="-5.994003">
        <ele>-4.92</ele>
        <time>2021-08-28T10:11:44Z</time>
      </trkpt>
      <trkpt lat="37.398299" lon="-5.994040">
        <ele>-4.05</ele>
        <time>2021-08-28T10:11:47Z</time>
      </trkpt>
      <trkpt lat="37.398108" lon="-5.994088">
        <ele>-4.24</ele>
        <time>2021-08-28T10:11:50Z</time>
      </trkpt>
      <trkpt lat="37.397925" lon="-5.994103">
        <ele>-3.96</ele>
        <time>2021-08-28T10:11:53Z</time>
      </trkpt>
      <trkpt lat="37.397693" lon="-5.994159">
        <ele>-4.05</ele>
        <time>2021-08-28T10:11:57Z</time>
      </trkpt>
      <trkpt lat="37.397482" lon="-5.994197">
        <ele>-5.02</ele>
        <time>2021-08-28T10:12:01Z</time>
      </trkpt>
      <trkpt lat="37.397297" lon="-5.994218">
        <ele>-4.72</ele>
        <time>2021-08-28T10:12:05Z</time>
      </trkpt>
      <trkpt lat="37.397113" lon="-5.994231">
        <ele>-2.84</ele>
        <time>2021-08-28T10:12:10Z</time>
      </trkpt>
      <trkpt lat="37.396921" lon="-5.994289">
        <ele>-2.06</ele>
        <time>2021-08-28T10:12:16Z</time>
      </trkpt>
      <trkpt lat="37.396747" lon="-5.994394">
        <ele>-1.22</ele>
        <time>2021-08-28T10:12:23Z</time>
      </trkpt>
      <trkpt lat="37.396550" lon="-5.994534">
        <ele>-1.46</ele>
        <time>2021-08-28T10:12:28Z</time>
      </trkpt>
      <trkpt lat="37.396372" lon="-5.994629">
        <ele>-1.51</ele>
        <time>2021-08-28T10:12:31Z</time>
      </trkpt>
      <trkpt lat="37.396164" lon="-5.994727">
        <ele>-0.51</ele>
        <time>2021-08-28T10:12:34Z</time>
      </trkpt>
      <trkpt lat="37.395946" lon="-5.994814">
        <ele>0.98</ele>
        <time>2021-08-28T10:12:37Z</time>
      </trkpt>
      <trkpt lat="37.395725" lon="-5.994910">
        <ele>0.17</ele>
        <time>2021-08-28T10:12:40Z</time>
      </trkpt>
      <trkpt lat="37.395493" lon="-5.994994">
        <ele>0.31</ele>
        <time>2021-08-28T10:12:43Z</time>
      </trkpt>
      <trkpt lat="37.395276" lon="-5.995073">
        <ele>0.70</ele>
        <time>2021-08-28T10:12:46Z</time>
      </trkpt>
      <trkpt lat="37.395079" lon="-5.995130">
        <ele>-0.31</ele>
        <time>2021-08-28T10:12:49Z</time>
      </trkpt>
      <trkpt lat="37.394897" lon="-5.995180">
        <ele>-2.76</ele>
        <time>2021-08-28T10:12:52Z</time>
      </trkpt>
      <trkpt lat="37.394709" lon="-5.995238">
        <ele>-2.21</ele>
        <time>2021-08-28T10:12:55Z</time>
      </trkpt>
      <trkpt lat="37.394515" lon="-5.995283">
        <ele>-1.28</ele>
        <time>2021-08-28T10:12:58Z</time>
      </trkpt>
      <trkpt lat="37.394320" lon="-5.995313">
        <ele>-0.76</ele>
        <time>2021-08-28T10:13:01Z</time>
      </trkpt>
      <trkpt lat="37.394091" lon="-5.995335">
        <ele>-1.65</ele>
        <time>2021-08-28T10:13:05Z</time>
      </trkpt>
      <trkpt lat="37.393900" lon="-5.995363">
        <ele>-0.16</ele>
        <time>2021-08-28T10:13:09Z</time>
      </trkpt>
      <trkpt lat="37.393679" lon="-5.995462">
        <ele>-0.68</ele>
        <time>2021-08-28T10:13:14Z</time>
      </trkpt>
      <trkpt lat="37.393529" lon="-5.995627">
        <ele>-4.16</ele>
        <time>2021-08-28T10:13:18Z</time>
      </trkpt>
      <trkpt lat="37.393293" lon="-5.995672">
        <ele>-5.02</ele>
        <time>2021-08-28T10:13:22Z</time>
      </trkpt>
      <trkpt lat="37.393062" lon="-5.995621">
        <ele>-1.13</ele>
        <time>2021-08-28T10:13:26Z</time>
      </trkpt>
      <trkpt lat="37.392871" lon="-5.995621">
        <ele>5.28</ele>
        <time>2021-08-28T10:13:31Z</time>
      </trkpt>
      <trkpt lat="37.392850" lon="-5.995644">
        <ele>10.94</ele>
        <time>2021-08-28T10:14:22Z</time>
      </trkpt>
      <trkpt lat="37.392749" lon="-5.995593">
        <ele>9.56</ele>
        <time>2021-08-28T10:14:24.58Z</time>
      </trkpt>
      <trkpt lat="37.392735" lon="-5.995457">
        <ele>8.27</ele>
        <time>2021-08-28T10:14:27Z</time>
      </trkpt>
      <trkpt lat="37.392730" lon="-5.995149">
        <ele>11.33</ele>
        <time>2021-08-28T10:14:31Z</time>
      </trkpt>
      <trkpt lat="37.392761" lon="-5.994842">
        <ele>11.41</ele>
        <time>2021-08-28T10:14:35Z</time>
      </trkpt>
      <trkpt lat="37.392790" lon="-5.994550">
        <ele>9.50</ele>
        <time>2021-08-28T10:14:39Z</time>
      </trkpt>
      <trkpt lat="37.392819" lon="-5.994261">
        <ele>7.00</ele>
        <time>2021-08-28T10:14:43Z</time>
      </trkpt>
      <trkpt lat="37.392833" lon="-5.994022">
        <ele>4.16</ele>
        <time>2021-08-28T10:14:47Z</time>
      </trkpt>
      <trkpt lat="37.392839" lon="-5.993771">
        <ele>4.86</ele>
        <time>2021-08-28T10:14:51Z</time>
      </trkpt>
      <trkpt lat="37.392829" lon="-5.993524">
        <ele>6.40</ele>
        <time>2021-08-28T10:14:55Z</time>
      </trkpt>
      <trkpt lat="37.392818" lon="-5.993268">
        <ele>9.17</ele>
        <time>2021-08-28T10:14:59Z</time>
      </trkpt>
      <trkpt lat="37.392821" lon="-5.992991">
        <ele>12.54</ele>
        <time>2021-08-28T10:15:03Z</time>
      </trkpt>
      <trkpt lat="37.392808" lon="-5.992709">
        <ele>14.69</ele>
        <time>2021-08-28T10:15:07Z</time>
      </trkpt>
      <trkpt lat="37.392815" lon="-5.992429">
        <ele>14.40</ele>
        <time>2021-08-28T10:15:11Z</time>
      </trkpt>
      <trkpt lat="37.392801" lon="-5.992166">
        <ele>11.63</ele>
        <time>2021-08-28T10:15:15Z</time>
      </trkpt>
      <trkpt lat="37.392766" lon="-5.991882">
        <ele>9.81</ele>
        <time>2021-08-28T10:15:20Z</time>
      </trkpt>
      <trkpt lat="37.392752" lon="-5.991632">
        <ele>9.49</ele>
        <time>2021-08-28T10:15:25Z</time>
      </trkpt>
      <trkpt lat="37.392689" lon="-5.991388">
        <ele>8.97</ele>
        <time>2021-08-28T10:15:30Z</time>
      </trkpt>
      <trkpt lat="37.392645" lon="-5.991142">
        <ele>9.11</ele>
        <time>2021-08-28T10:15:34Z</time>
      </trkpt>
      <trkpt lat="37.392626" lon="-5.990853">
        <ele>11.53</ele>
        <time>2021-08-28T10:15:38Z</time>
      </trkpt>
      <trkpt lat="37.392567" lon="-5.990584">
        <ele>13.50</ele>
        <time>2021-08-28T10:15:42Z</time>
      </trkpt>
      <trkpt lat="37.392498" lon="-5.990325">
        <ele>10.19</ele>
        <time>2021-08-28T10:15:46Z</time>
      </trkpt>
      <trkpt lat="37.392432" lon="-5.990091">
        <ele>9.58</ele>
        <time>2021-08-28T10:15:50Z</time>
      </trkpt>
      <trkpt lat="37.392333" lon="-5.989894">
        <ele>4.60</ele>
        <time>2021-08-28T10:15:57Z</time>
      </trkpt>
      <trkpt lat="37.392143" lon="-5.989874">
        <ele>0.20</ele>
        <time>2021-08-28T10:16:14Z</time>
      </trkpt>
      <trkpt lat="37.391954" lon="-5.989901">
        <ele>0.03</ele>
        <time>2021-08-28T10:16:18Z</time>
      </trkpt>
      <trkpt lat="37.391770" lon="-5.989914">
        <ele>-1.65</ele>
        <time>2021-08-28T10:16:22Z</time>
      </trkpt>
      <trkpt lat="37.391575" lon="-5.989946">
        <ele>-3.04</ele>
        <time>2021-08-28T10:16:27Z</time>
      </trkpt>
      <trkpt lat="37.391565" lon="-5.990190">
        <ele>-0.63</ele>
        <time>2021-08-28T10:16:33Z</time>
      </trkpt>
      <trkpt lat="37.391633" lon="-5.990405">
        <ele>3.27</ele>
        <time>2021-08-28T10:16:37Z</time>
      </trkpt>
      <trkpt lat="37.391638" lon="-5.990673">
        <ele>2.65</ele>
        <time>2021-08-28T10:16:42Z</time>
      </trkpt>
      <trkpt lat="37.391679" lon="-5.990937">
        <ele>2.94</ele>
        <time>2021-08-28T10:16:47Z</time>
      </trkpt>
      <trkpt lat="37.391495" lon="-5.991008">
        <ele>-0.53</ele>
        <time>2021-08-28T10:16:52Z</time>
      </trkpt>
      <trkpt lat="37.391284" lon="-5.991095">
        <ele>-0.50</ele>
        <time>2021-08-28T10:16:56Z</time>
      </trkpt>
      <trkpt lat="37.391075" lon="-5.991110">
        <ele>-2.44</ele>
        <time>2021-08-28T10:17:01Z</time>
      </trkpt>
      <trkpt lat="37.390868" lon="-5.991073">
        <ele>2.41</ele>
        <time>2021-08-28T10:17:07Z</time>
      </trkpt>
      <trkpt lat="37.390670" lon="-5.991142">
        <ele>5.51</ele>
        <time>2021-08-28T10:17:11Z</time>
      </trkpt>
      <trkpt lat="37.390501" lon="-5.991220">
        <ele>5.78</ele>
        <time>2021-08-28T10:17:15Z</time>
      </trkpt>
      <trkpt lat="37.390282" lon="-5.991204">
        <ele>6.74</ele>
        <time>2021-08-28T10:17:20Z</time>
      </trkpt>
      <trkpt lat="37.390086" lon="-5.991229">
        <ele>9.50</ele>
        <time>2021-08-28T10:17:25Z</time>
      </trkpt>
      <trkpt lat="37.389901" lon="-5.991302">
        <ele>10.63</ele>
        <time>2021-08-28T10:17:31Z</time>
      </trkpt>
      <trkpt lat="37.389813" lon="-5.991511">
        <ele>12.21</ele>
        <time>2021-08-28T10:17:37Z</time>
      </trkpt>
      <trkpt lat="37.389783" lon="-5.991754">
        <ele>11.17</ele>
        <time>2021-08-28T10:17:42Z</time>
      </trkpt>
      <trkpt lat="37.389814" lon="-5.991996">
        <ele>11.08</ele>
        <time>2021-08-28T10:17:46Z</time>
      </trkpt>
      <trkpt lat="37.389768" lon="-5.992222">
        <ele>12.03</ele>
        <time>2021-08-28T10:17:53Z</time>
      </trkpt>
      <trkpt lat="37.389730" lon="-5.992465">
        <ele>8.49</ele>
        <time>2021-08-28T10:18:00Z</time>
      </trkpt>
      <trkpt lat="37.389744" lon="-5.992692">
        <ele>3.55</ele>
        <time>2021-08-28T10:18:18Z</time>
      </trkpt>
      <trkpt lat="37.389796" lon="-5.992925">
        <ele>1.82</ele>
        <time>2021-08-28T10:18:36Z</time>
      </trkpt>
      <trkpt lat="37.389700" lon="-5.993172">
        <ele>2.91</ele>
        <time>2021-08-28T10:18:41Z</time>
      </trkpt>
      <trkpt lat="37.389502" lon="-5.993274">
        <ele>2.80</ele>
        <time>2021-08-28T10:18:46Z</time>
      </trkpt>
      <trkpt lat="37.389350" lon="-5.993435">
        <ele>3.72</ele>
        <time>2021-08-28T10:18:51Z</time>
      </trkpt>
      <trkpt lat="37.389357" lon="-5.993715">
        <ele>4.76</ele>
        <time>2021-08-28T10:18:56Z</time>
      </trkpt>
      <trkpt lat="37.389243" lon="-5.993929">
        <ele>6.33</ele>
        <time>2021-08-28T10:19:01Z</time>
      </trkpt>
      <trkpt lat="37.389046" lon="-5.994021">
        <ele>4.37</ele>
        <time>2021-08-28T10:19:07Z</time>
      </trkpt>
      <trkpt lat="37.388855" lon="-5.993967">
        <ele>0.85</ele>
        <time>2021-08-28T10:19:17Z</time>
      </trkpt>
      <trkpt lat="37.388672" lon="-5.993920">
        <ele>1.09</ele>
        <time>2021-08-28T10:19:22Z</time>
      </trkpt>
      <trkpt lat="37.388489" lon="-5.993874">
        <ele>1.24</ele>
        <time>2021-08-28T10:19:26Z</time>
      </trkpt>
      <trkpt lat="37.388284" lon="-5.993810">
        <ele>2.21</ele>
        <time>2021-08-28T10:19:30Z</time>
      </trkpt>
      <trkpt lat="37.388086" lon="-5.993713">
        <ele>1.69</ele>
        <time>2021-08-28T10:19:34Z</time>
      </trkpt>
      <trkpt lat="37.387900" lon="-5.993649">
        <ele>4.97</ele>
        <time>2021-08-28T10:19:38Z</time>
      </trkpt>
      <trkpt lat="37.387690" lon="-5.993545">
        <ele>5.92</ele>
        <time>2021-08-28T10:19:43Z</time>
      </trkpt>
      <trkpt lat="37.387510" lon="-5.993487">
        <ele>6.73</ele>
        <time>2021-08-28T10:19:47Z</time>
      </trkpt>
      <trkpt lat="37.387327" lon="-5.993460">
        <ele>8.97</ele>
        <time>2021-08-28T10:19:52Z</time>
      </trkpt>
      <trkpt lat="37.387138" lon="-5.993450">
        <ele>8.04</ele>
        <time>2021-08-28T10:19:58Z</time>
      </trkpt>
      <trkpt lat="37.387003" lon="-5.993430">
        <ele>5.46</ele>
        <time>2021-08-28T10:20:40Z</time>
      </trkpt>
      <trkpt lat="37.386819" lon="-5.993335">
        <ele>8.03</ele>
        <time>2021-08-28T10:20:48Z</time>
      </trkpt>
      <trkpt lat="37.386788" lon="-5.993084">
        <ele>7.71</ele>
        <time>2021-08-28T10:20:53Z</time>
      </trkpt>
      <trkpt lat="37.386812" lon="-5.992836">
        <ele>8.08</ele>
        <time>2021-08-28T10:20:59Z</time>
      </trkpt>
      <trkpt lat="37.386776" lon="-5.992580">
        <ele>8.96</ele>
        <time>2021-08-28T10:21:05Z</time>
      </trkpt>
      <trkpt lat="37.386586" lon="-5.992546">
        <ele>10.87</ele>
        <time>2021-08-28T10:21:10Z</time>
      </trkpt>
      <trkpt lat="37.386396" lon="-5.992525">
        <ele>11.28</ele>
        <time>2021-08-28T10:21:15Z</time>
      </trkpt>
      <trkpt lat="37.386239" lon="-5.992403">
        <ele>9.57</ele>
        <time>2021-08-28T10:21:20Z</time>
      </trkpt>
      <trkpt lat="37.386052" lon="-5.992332">
        <ele>5.19</ele>
        <time>2021-08-28T10:21:26Z</time>
      </trkpt>
      <trkpt lat="37.385868" lon="-5.992290">
        <ele>3.96</ele>
        <time>2021-08-28T10:21:31Z</time>
      </trkpt>
      <trkpt lat="37.385669" lon="-5.992276">
        <ele>4.32</ele>
        <time>2021-08-28T10:21:36Z</time>
      </trkpt>
      <trkpt lat="37.385466" lon="-5.992176">
        <ele>6.68</ele>
        <time>2021-08-28T10:21:41Z</time>
      </trkpt>
      <trkpt lat="37.385308" lon="-5.992040">
        <ele>11.90</ele>
        <time>2021-08-28T10:21:46Z</time>
      </trkpt>
      <trkpt lat="37.385152" lon="-5.991896">
        <ele>13.57</ele>
        <time>2021-08-28T10:21:52Z</time>
      </trkpt>
      <trkpt lat="37.384994" lon="-5.991727">
        <ele>8.29</ele>
        <time>2021-08-28T10:21:59Z</time>
      </trkpt>
      <trkpt lat="37.384816" lon="-5.991587">
        <ele>6.86</ele>
        <time>2021-08-28T10:22:05Z</time>
      </trkpt>
      <trkpt lat="37.384700" lon="-5.991413">
        <ele>6.09</ele>
        <time>2021-08-28T10:22:10Z</time>
      </trkpt>
      <trkpt lat="37.384593" lon="-5.991196">
        <ele>7.27</ele>
        <time>2021-08-28T10:22:17Z</time>
      </trkpt>
      <trkpt lat="37.384682" lon="-5.990994">
        <ele>9.31</ele>
        <time>2021-08-28T10:22:22Z</time>
      </trkpt>
      <trkpt lat="37.384489" lon="-5.990815">
        <ele>6.81</ele>
        <time>2021-08-28T10:22:41Z</time>
      </trkpt>
      <trkpt lat="37.384315" lon="-5.990757">
        <ele>3.39</ele>
        <time>2021-08-28T10:22:53Z</time>
      </trkpt>
      <trkpt lat="37.384201" lon="-5.990571">
        <ele>1.91</ele>
        <time>2021-08-28T10:23:01Z</time>
      </trkpt>
      <trkpt lat="37.384209" lon="-5.990336">
        <ele>12.01</ele>
        <time>2021-08-28T10:23:15Z</time>
      </trkpt>
      <trkpt lat="37.384238" lon="-5.990110">
        <ele>6.61</ele>
        <time>2021-08-28T10:23:27Z</time>
      </trkpt>
      <trkpt lat="37.384339" lon="-5.989920">
        <ele>4.30</ele>
        <time>2021-08-28T10:23:35Z</time>
      </trkpt>
      <trkpt lat="37.384434" lon="-5.989725">
        <ele>2.87</ele>
        <time>2021-08-28T10:23:41Z</time>
      </trkpt>
      <trkpt lat="37.384507" lon="-5.989511">
        <ele>2.23</ele>
        <time>2021-08-28T10:23:48Z</time>
      </trkpt>
      <trkpt lat="37.384598" lon="-5.989308">
        <ele>3.19</ele>
        <time>2021-08-28T10:23:53Z</time>
      </trkpt>
      <trkpt lat="37.384677" lon="-5.989102">
        <ele>4.22</ele>
        <time>2021-08-28T10:23:58Z</time>
      </trkpt>
      <trkpt lat="37.384769" lon="-5.988886">
        <ele>5.79</ele>
        <time>2021-08-28T10:24:06Z</time>
      </trkpt>
      <trkpt lat="37.384766" lon="-5.988660">
        <ele>0.79</ele>
        <time>2021-08-28T10:24:20Z</time>
      </trkpt>
      <trkpt lat="37.384582" lon="-5.988548">
        <ele>1.24</ele>
        <time>2021-08-28T10:24:27Z</time>
      </trkpt>
      <trkpt lat="37.384445" lon="-5.988388">
        <ele>0.04</ele>
        <time>2021-08-28T10:24:31Z</time>
      </trkpt>
      <trkpt lat="37.384296" lon="-5.988193">
        <ele>-0.59</ele>
        <time>2021-08-28T10:24:36Z</time>
      </trkpt>
      <trkpt lat="37.384174" lon="-5.988023">
        <ele>0.81</ele>
        <time>2021-08-28T10:24:41Z</time>
      </trkpt>
      <trkpt lat="37.384040" lon="-5.987858">
        <ele>3.97</ele>
        <time>2021-08-28T10:24:49Z</time>
      </trkpt>
      <trkpt lat="37.383825" lon="-5.987837">
        <ele>5.12</ele>
        <time>2021-08-28T10:24:56Z</time>
      </trkpt>
      <trkpt lat="37.383635" lon="-5.987858">
        <ele>3.35</ele>
        <time>2021-08-28T10:25:01Z</time>
      </trkpt>
      <trkpt lat="37.383488" lon="-5.987708">
        <ele>2.19</ele>
        <time>2021-08-28T10:25:06Z</time>
      </trkpt>
      <trkpt lat="37.383300" lon="-5.987652">
        <ele>0.34</ele>
        <time>2021-08-28T10:25:16Z</time>
      </trkpt>
      <trkpt lat="37.383126" lon="-5.987800">
        <ele>1.07</ele>
        <time>2021-08-28T10:25:21Z</time>
      </trkpt>
      <trkpt lat="37.382934" lon="-5.987904">
        <ele>1.32</ele>
        <time>2021-08-28T10:25:25Z</time>
      </trkpt>
      <trkpt lat="37.382737" lon="-5.988015">
        <ele>1.56</ele>
        <time>2021-08-28T10:25:29Z</time>
      </trkpt>
      <trkpt lat="37.382531" lon="-5.988120">
        <ele>2.10</ele>
        <time>2021-08-28T10:25:33Z</time>
      </trkpt>
      <trkpt lat="37.382332" lon="-5.988240">
        <ele>2.17</ele>
        <time>2021-08-28T10:25:37Z</time>
      </trkpt>
      <trkpt lat="37.382134" lon="-5.988355">
        <ele>2.07</ele>
        <time>2021-08-28T10:25:41Z</time>
      </trkpt>
      <trkpt lat="37.381932" lon="-5.988465">
        <ele>1.40</ele>
        <time>2021-08-28T10:25:45Z</time>
      </trkpt>
      <trkpt lat="37.381757" lon="-5.988398">
        <ele>2.89</ele>
        <time>2021-08-28T10:25:52Z</time>
      </trkpt>
      <trkpt lat="37.381762" lon="-5.988351">
        <ele>1.11</ele>
        <time>2021-08-28T10:26:49Z</time>
      </trkpt>
      <trkpt lat="37.381630" lon="-5.988149">
        <ele>1.39</ele>
        <time>2021-08-28T10:26:57Z</time>
      </trkpt>
      <trkpt lat="37.381508" lon="-5.987962">
        <ele>1.59</ele>
        <time>2021-08-28T10:27:04Z</time>
      </trkpt>
      <trkpt lat="37.381323" lon="-5.987881">
        <ele>3.02</ele>
        <time>2021-08-28T10:27:11Z</time>
      </trkpt>
      <trkpt lat="37.381134" lon="-5.987663">
        <ele>3.02</ele>
        <time>2021-08-28T10:27:15Z</time>
      </trkpt>
      <trkpt lat="37.381064" lon="-5.987430">
        <ele>4.73</ele>
        <time>2021-08-28T10:27:19Z</time>
      </trkpt>
      <trkpt lat="37.380988" lon="-5.987224">
        <ele>5.39</ele>
        <time>2021-08-28T10:27:23Z</time>
      </trkpt>
      <trkpt lat="37.380938" lon="-5.986946">
        <ele>-0.80</ele>
        <time>2021-08-28T10:27:28Z</time>
      </trkpt>
      <trkpt lat="37.380876" lon="-5.986713">
        <ele>-3.21</ele>
        <time>2021-08-28T10:27:32Z</time>
      </trkpt>
      <trkpt lat="37.380800" lon="-5.986454">
        <ele>-3.06</ele>
        <time>2021-08-28T10:27:36Z</time>
      </trkpt>
      <trkpt lat="37.380716" lon="-5.986238">
        <ele>-3.12</ele>
        <time>2021-08-28T10:27:39Z</time>
      </trkpt>
      <trkpt lat="37.380659" lon="-5.985978">
        <ele>-3.93</ele>
        <time>2021-08-28T10:27:42Z</time>
      </trkpt>
      <trkpt lat="37.380594" lon="-5.985734">
        <ele>-3.39</ele>
        <time>2021-08-28T10:27:45Z</time>
      </trkpt>
      <trkpt lat="37.380540" lon="-5.985509">
        <ele>-2.34</ele>
        <time>2021-08-28T10:27:48Z</time>
      </trkpt>
      <trkpt lat="37.380470" lon="-5.985246">
        <ele>-2.53</ele>
        <time>2021-08-28T10:27:52Z</time>
      </trkpt>
      <trkpt lat="37.380412" lon="-5.985002">
        <ele>-2.55</ele>
        <time>2021-08-28T10:27:56Z</time>
      </trkpt>
      <trkpt lat="37.380351" lon="-5.984775">
        <ele>-1.17</ele>
        <time>2021-08-28T10:28:00Z</time>
      </trkpt>
      <trkpt lat="37.380317" lon="-5.984537">
        <ele>0.28</ele>
        <time>2021-08-28T10:28:09Z</time>
      </trkpt>
      <trkpt lat="37.380262" lon="-5.984281">
        <ele>-1.97</ele>
        <time>2021-08-28T10:28:14Z</time>
      </trkpt>
      <trkpt lat="37.380170" lon="-5.984025">
        <ele>0.21</ele>
        <time>2021-08-28T10:28:19Z</time>
      </trkpt>
      <trkpt lat="37.380099" lon="-5.983809">
        <ele>2.93</ele>
        <time>2021-08-28T10:28:23Z</time>
      </trkpt>
      <trkpt lat="37.380014" lon="-5.983704">
        <ele>3.61</ele>
        <time>2021-08-28T10:28:26.05Z</time>
      </trkpt>
      <trkpt lat="37.379924" lon="-5.983720">
        <ele>4.04</ele>
        <time>2021-08-28T10:28:28Z</time>
      </trkpt>
      <trkpt lat="37.379760" lon="-5.983738">
        <ele>2.49</ele>
        <time>2021-08-28T10:28:32Z</time>
      </trkpt>
      <trkpt lat="37.379741" lon="-5.983687">
        <ele>2.32</ele>
        <time>2021-08-28T10:28:32.62Z</time>
      </trkpt>
      <trkpt lat="37.379713" lon="-5.983614">
        <ele>2.07</ele>
        <time>2021-08-28T10:28:33.52Z</time>
      </trkpt>
      <trkpt lat="37.379636" lon="-5.983413">
        <ele>1.38</ele>
        <time>2021-08-28T10:28:36Z</time>
      </trkpt>
      <trkpt lat="37.379499" lon="-5.983244">
        <ele>0.75</ele>
        <time>2021-08-28T10:28:39Z</time>
      </trkpt>
      <trkpt lat="37.379387" lon="-5.983263">
        <ele>0.86</ele>
        <time>2021-08-28T10:28:39.40Z</time>
      </trkpt>
      <trkpt lat="37.379339" lon="-5.983117">
        <ele>1.14</ele>
        <time>2021-08-28T10:28:40.41Z</time>
      </trkpt>
      <trkpt lat="37.379452" lon="-5.982925">
        <ele>1.58</ele>
        <time>2021-08-28T10:28:42Z</time>
      </trkpt>
      <trkpt lat="37.379439" lon="-5.982728">
        <ele>0.65</ele>
        <time>2021-08-28T10:28:45Z</time>
      </trkpt>
      <trkpt lat="37.379371" lon="-5.982459">
        <ele>-0.71</ele>
        <time>2021-08-28T10:28:48Z</time>
      </trkpt>
      <trkpt lat="37.379298" lon="-5.982219">
        <ele>-3.03</ele>
        <time>2021-08-28T10:28:51Z</time>
      </trkpt>
      <trkpt lat="37.379251" lon="-5.981949">
        <ele>-3.09</ele>
        <time>2021-08-28T10:28:54Z</time>
      </trkpt>
      <trkpt lat="37.379192" lon="-5.981712">
        <ele>1.55</ele>
        <time>2021-08-28T10:28:57Z</time>
      </trkpt>
      <trkpt lat="37.379131" lon="-5.981465">
        <ele>3.77</ele>
        <time>2021-08-28T10:29:00Z</time>
      </trkpt>
      <trkpt lat="37.379052" lon="-5.981209">
        <ele>5.66</ele>
        <time>2021-08-28T10:29:04Z</time>
      </trkpt>
      <trkpt lat="37.378984" lon="-5.980922">
        <ele>6.71</ele>
        <time>2021-08-28T10:29:08Z</time>
      </trkpt>
      <trkpt lat="37.378740" lon="-5.980004">
        <ele>7.94</ele>
        <time>2021-08-28T10:29:14Z</time>
      </trkpt>
      <trkpt lat="37.378447" lon="-5.979797">
        <ele>6.51</ele>
        <time>2021-08-28T10:29:15.33Z</time>
      </trkpt>
      <trkpt lat="37.378420" lon="-5.979778">
        <ele>6.37</ele>
        <time>2021-08-28T10:29:15.45Z</time>
      </trkpt>
      <trkpt lat="37.378392" lon="-5.979790">
        <ele>6.31</ele>
        <time>2021-08-28T10:29:15.51Z</time>
      </trkpt>
      <trkpt lat="37.378290" lon="-5.979830">
        <ele>6.07</ele>
        <time>2021-08-28T10:29:15.73Z</time>
      </trkpt>
      <trkpt lat="37.378149" lon="-5.979885">
        <ele>3.64</ele>
        <time>2021-08-28T10:29:18Z</time>
      </trkpt>
      <trkpt lat="37.378093" lon="-5.979904">
        <ele>3.99</ele>
        <time>2021-08-28T10:29:20.52Z</time>
      </trkpt>
      <trkpt lat="37.378039" lon="-5.979923">
        <ele>4.34</ele>
        <time>2021-08-28T10:29:23Z</time>
      </trkpt>
      <trkpt lat="37.377985" lon="-5.979451">
        <ele>176.443</ele>
        <time>2018-04-29T06:59:15Z</time>
      </trkpt>
      <trkpt lat="37.378238" lon="-5.979306">
        <ele>186.664</ele>
        <time>2018-04-29T07:00:30Z</time>
      </trkpt>
      <trkpt lat="37.378162" lon="-5.978908">
        <ele>208.710</ele>
        <time>2018-04-29T07:02:47Z</time>
      </trkpt>
      <trkpt lat="37.378376" lon="-5.978817">
        <ele>204.408</ele>
        <time>2018-04-29T07:02:56Z</time>
      </trkpt>
      <trkpt lat="37.378609" lon="-5.979691">
        <ele>173.946</ele>
        <time>2018-04-29T07:03:10Z</time>
      </trkpt>
      <trkpt lat="37.378906" lon="-5.979941">
        <ele>148.728</ele>
        <time>2018-04-29T07:03:16Z</time>
      </trkpt>
      <trkpt lat="37.379572" lon="-5.982746">
        <ele>88.748</ele>
        <time>2018-04-29T07:05:16Z</time>
      </trkpt>
      <trkpt lat="37.379425" lon="-5.983120">
        <ele>67.575</ele>
        <time>2018-04-29T07:05:21Z</time>
      </trkpt>
      <trkpt lat="37.379786" lon="-5.983450">
        <ele>54.476</ele>
        <time>2018-04-29T07:05:42Z</time>
      </trkpt>
      <trkpt lat="37.379983" lon="-5.984186">
        <ele>43.191</ele>
        <time>2018-04-29T07:05:54Z</time>
      </trkpt>
      <trkpt lat="37.380166" lon="-5.985423">
        <ele>23.483</ele>
        <time>2018-04-29T07:06:20Z</time>
      </trkpt>
      <trkpt lat="37.380805" lon="-5.987566">
        <ele>27.664</ele>
        <time>2018-04-29T07:07:01Z</time>
      </trkpt>
      <trkpt lat="37.380865" lon="-5.988979">
        <ele>16.014</ele>
        <time>2018-04-29T07:07:37Z</time>
      </trkpt>
      <trkpt lat="37.381416" lon="-5.989123">
        <ele>12.154</ele>
        <time>2018-04-29T07:07:57Z</time>
      </trkpt>
      <trkpt lat="37.381871" lon="-5.988520">
        <ele>15.809</ele>
        <time>2018-04-29T07:08:16Z</time>
      </trkpt>
      <trkpt lat="37.384924" lon="-5.986768">
        <ele>19.308</ele>
        <time>2018-04-29T07:09:31Z</time>
      </trkpt>
      <trkpt lat="37.385186" lon="-5.986435">
        <ele>15.183</ele>
        <time>2018-04-29T07:09:44Z</time>
      </trkpt>
      <trkpt lat="37.386395" lon="-5.985775">
        <ele>19.275</ele>
        <time>2018-04-29T07:11:31Z</time>
      </trkpt>
      <trkpt lat="37.387284" lon="-5.985101">
        <ele>31.295</ele>
        <time>2018-04-29T07:11:50Z</time>
      </trkpt>
      <trkpt lat="37.389309" lon="-5.984496">
        <ele>24.332</ele>
        <time>2018-04-29T07:12:35Z</time>
      </trkpt>
      <trkpt lat="37.390070" lon="-5.984072">
        <ele>31.443</ele>
        <time>2018-04-29T07:12:51Z</time>
      </trkpt>
      <trkpt lat="37.390926" lon="-5.983962">
        <ele>39.268</ele>
        <time>2018-04-29T07:13:07Z</time>
      </trkpt>
      <trkpt lat="37.392765" lon="-5.984010">
        <ele>41.250</ele>
        <time>2018-04-29T07:13:46Z</time>
      </trkpt>
      <trkpt lat="37.394138" lon="-5.983722">
        <ele>39.641</ele>
        <time>2018-04-29T07:14:20Z</time>
      </trkpt>
      <trkpt lat="37.396549" lon="-5.981855">
        <ele>33.252</ele>
        <time>2018-04-29T07:15:23Z</time>
      </trkpt>
      <trkpt lat="37.396751" lon="-5.981883">
        <ele>27.153</ele>
        <time>2018-04-29T07:15:27Z</time>
      </trkpt>
      <trkpt lat="37.397473" lon="-5.981418">
        <ele>25.208</ele>
        <time>2018-04-29T07:15:46Z</time>
      </trkpt>
      <trkpt lat="37.398638" lon="-5.981767">
        <ele>28.808</ele>
        <time>2018-04-29T07:16:14Z</time>
      </trkpt>
      <trkpt lat="37.399322" lon="-5.982945">
        <ele>6.587</ele>
        <time>2018-04-29T07:17:52Z</time>
      </trkpt>
      <trkpt lat="37.401496" lon="-5.981795">
        <ele>27.399</ele>
        <time>2018-04-29T07:19:24Z</time>
      </trkpt>
      <trkpt lat="37.402862" lon="-5.981416">
        <ele>22.449</ele>
        <time>2018-04-29T07:20:02Z</time>
      </trkpt>
      <trkpt lat="37.403339" lon="-5.981040">
        <ele>25.376</ele>
        <time>2018-04-29T07:20:15Z</time>
      </trkpt>
      <trkpt lat="37.403689" lon="-5.981274">
        <ele>14.217</ele>
        <time>2018-04-29T07:20:29Z</time>
      </trkpt>
      <trkpt lat="37.405908" lon="-5.981580">
        <ele>18.642</ele>
        <time>2018-04-29T07:21:26Z</time>
      </trkpt>
      <trkpt lat="37.406957" lon="-5.982313">
        <ele>29.934</ele>
        <time>2018-04-29T07:21:56Z</time>
      </trkpt>
      <trkpt lat="37.407147" lon="-5.982302">
        <ele>25.575</ele>
        <time>2018-04-29T07:22:09Z</time>
      </trkpt>
      <trkpt lat="37.407566" lon="-5.982766">
        <ele>27.115</ele>
        <time>2018-04-29T07:22:28Z</time>
      </trkpt>
      <trkpt lat="37.408295" lon="-5.983219">
        <ele>27.165</ele>
        <time>2018-04-29T07:22:45Z</time>
      </trkpt>
      <trkpt lat="37.409859" lon="-5.983057">
        <ele>31.711</ele>
        <time>2018-04-29T07:23:19Z</time>
      </trkpt>
      <trkpt lat="37.411768" lon="-5.983716">
        <ele>24.308</ele>
        <time>2018-04-29T07:24:10Z</time>
      </trkpt>
      <trkpt lat="37.412711" lon="-5.983554">
        <ele>14.353</ele>
        <time>2018-04-29T07:24:36Z</time>
      </trkpt>
      <trkpt lat="37.413303" lon="-5.982943">
        <ele>13.735</ele>
        <time>2018-04-29T07:24:57Z</time>
      </trkpt>
      <trkpt lat="37.413509" lon="-5.982943">
        <ele>11.745</ele>
        <time>2018-04-29T07:25:03Z</time>
      </trkpt>
      <trkpt lat="37.413775" lon="-5.983312">
        <ele>13.382</ele>
        <time>2018-04-29T07:25:15Z</time>
      </trkpt>
      <trkpt lat="37.413949" lon="-5.983313">
        <ele>5.493</ele>
        <time>2018-04-29T07:29:04Z</time>
      </trkpt>
      <trkpt lat="37.421320" lon="-5.982663">
        <ele>13.318</ele>
        <time>2018-04-29T07:31:48Z</time>
      </trkpt>
      <trkpt lat="37.422432" lon="-5.982038">
        <ele>23.020</ele>
        <time>2018-04-29T07:32:13Z</time>
      </trkpt>
      <trkpt lat="37.426963" lon="-5.978936">
        <ele>29.621</ele>
        <time>2018-04-29T07:33:51Z</time>
      </trkpt>
      <trkpt lat="37.427447" lon="-5.977969">
        <ele>28.095</ele>
        <time>2018-04-29T07:34:11Z</time>
      </trkpt>
      <trkpt lat="37.428571" lon="-5.977821">
        <ele>43.449</ele>
        <time>2018-04-29T07:34:38Z</time>
      </trkpt>
      <trkpt lat="37.431491" lon="-5.976038">
        <ele>17.423</ele>
        <time>2018-04-29T07:35:49Z</time>
      </trkpt>
      <trkpt lat="37.434719" lon="-5.973725">
        <ele>18.008</ele>
        <time>2018-04-29T07:37:02Z</time>
      </trkpt>
      <trkpt lat="37.435986" lon="-5.972423">
        <ele>13.111</ele>
        <time>2018-04-29T07:37:34Z</time>
      </trkpt>
      <trkpt lat="37.436381" lon="-5.972431">
        <ele>16.263</ele>
        <time>2018-04-29T07:37:43Z</time>
      </trkpt>
      <trkpt lat="37.436648" lon="-5.972794">
        <ele>16.683</ele>
        <time>2018-04-29T07:37:52Z</time>
      </trkpt>
      <trkpt lat="37.436658" lon="-5.973081">
        <ele>16.160</ele>
        <time>2018-04-29T07:37:56Z</time>
      </trkpt>
      <trkpt lat="37.436365" lon="-5.973745">
        <ele>16.731</ele>
        <time>2018-04-29T07:38:10Z</time>
      </trkpt>
      <trkpt lat="37.437932" lon="-5.972485">
        <ele>21.096</ele>
        <time>2018-04-29T07:38:53Z</time>
      </trkpt>
      <trkpt lat="37.438924" lon="-5.972093">
        <ele>25.868</ele>
        <time>2018-04-29T07:39:16Z</time>
      </trkpt>
      <trkpt lat="37.441188" lon="-5.972138">
        <ele>13.499</ele>
        <time>2018-04-29T07:39:52Z</time>
      </trkpt>
      <trkpt lat="37.452298" lon="-5.970913">
        <ele>14.789</ele>
        <time>2018-04-29T07:43:01Z</time>
      </trkpt>
      <trkpt lat="37.452929" lon="-5.971045">
        <ele>13.706</ele>
        <time>2018-04-29T07:43:12Z</time>
      </trkpt>
      <trkpt lat="37.453286" lon="-5.971297">
        <ele>13.626</ele>
        <time>2018-04-29T07:43:19Z</time>
      </trkpt>
      <trkpt lat="37.454099" lon="-5.972502">
        <ele>13.308</ele>
        <time>2018-04-29T07:43:43Z</time>
      </trkpt>
      <trkpt lat="37.454659" lon="-5.972244">
        <ele>19.310</ele>
        <time>2018-04-29T07:43:58Z</time>
      </trkpt>
      <trkpt lat="37.454983" lon="-5.970928">
        <ele>14.252</ele>
        <time>2018-04-29T07:44:18Z</time>
      </trkpt>
      <trkpt lat="37.455312" lon="-5.970523">
        <ele>12.782</ele>
        <time>2018-04-29T07:44:26Z</time>
      </trkpt>
      <trkpt lat="37.455707" lon="-5.970312">
        <ele>13.679</ele>
        <time>2018-04-29T07:44:33Z</time>
      </trkpt>
      <trkpt lat="37.459626" lon="-5.969658">
        <ele>14.410</ele>
        <time>2018-04-29T07:45:40Z</time>
      </trkpt>
      <trkpt lat="37.462515" lon="-5.968968">
        <ele>15.635</ele>
        <time>2018-04-29T07:46:30Z</time>
      </trkpt>
      <trkpt lat="37.463316" lon="-5.968571">
        <ele>14.387</ele>
        <time>2018-04-29T07:46:45Z</time>
      </trkpt>
      <trkpt lat="37.464320" lon="-5.968500">
        <ele>17.948</ele>
        <time>2018-04-29T07:47:02Z</time>
      </trkpt>
      <trkpt lat="37.466651" lon="-5.967947">
        <ele>12.339</ele>
        <time>2018-04-29T07:47:40Z</time>
      </trkpt>
      <trkpt lat="37.467038" lon="-5.968148">
        <ele>13.601</ele>
        <time>2018-04-29T07:47:47Z</time>
      </trkpt>
      <trkpt lat="37.467305" lon="-5.969066">
        <ele>11.321</ele>
        <time>2018-04-29T07:48:06Z</time>
      </trkpt>
      <trkpt lat="37.467423" lon="-5.968855">
        <ele>13.408</ele>
        <time>2018-04-29T07:48:19Z</time>
      </trkpt>
      <trkpt lat="37.467276" lon="-5.967902">
        <ele>12.285</ele>
        <time>2018-04-29T07:48:36Z</time>
      </trkpt>
      <trkpt lat="37.467427" lon="-5.967722">
        <ele>16.387</ele>
        <time>2018-04-29T07:48:42Z</time>
      </trkpt>
      <trkpt lat="37.470424" lon="-5.968052">
        <ele>12.487</ele>
        <time>2018-04-29T07:49:37Z</time>
      </trkpt>
      <trkpt lat="37.471078" lon="-5.967876">
        <ele>18.414</ele>
        <time>2018-04-29T07:49:50Z</time>
      </trkpt>
      <trkpt lat="37.471669" lon="-5.967893">
        <ele>17.435</ele>
        <time>2018-04-29T07:50:03Z</time>
      </trkpt>
      <trkpt lat="37.473115" lon="-5.968272">
        <ele>9.470</ele>
        <time>2018-04-29T07:50:28Z</time>
      </trkpt>
      <trkpt lat="37.475622" lon="-5.968154">
        <ele>10.822</ele>
        <time>2018-04-29T07:51:08Z</time>
      </trkpt>
      <trkpt lat="37.477252" lon="-5.967897">
        <ele>13.553</ele>
        <time>2018-04-29T07:51:36Z</time>
      </trkpt>
      <trkpt lat="37.479161" lon="-5.967985">
        <ele>7.453</ele>
        <time>2018-04-29T07:52:08Z</time>
      </trkpt>
      <trkpt lat="37.480354" lon="-5.967814">
        <ele>8.404</ele>
        <time>2018-04-29T07:52:28Z</time>
      </trkpt>
      <trkpt lat="37.480813" lon="-5.968360">
        <ele>10.314</ele>
        <time>2018-04-29T07:52:41Z</time>
      </trkpt>
      <trkpt lat="37.480826" lon="-5.969506">
        <ele>9.408</ele>
        <time>2018-04-29T07:53:01Z</time>
      </trkpt>
      <trkpt lat="37.481150" lon="-5.970125">
        <ele>8.437</ele>
        <time>2018-04-29T07:53:21Z</time>
      </trkpt>
      <trkpt lat="37.481287" lon="-5.972024">
        <ele>7.389</ele>
        <time>2018-04-29T07:53:47Z</time>
      </trkpt>
      <trkpt lat="37.480628" lon="-5.975225">
        <ele>9.419</ele>
        <time>2018-04-29T07:54:36Z</time>
      </trkpt>
      <trkpt lat="37.480840" lon="-5.975636">
        <ele>7.486</ele>
        <time>2018-04-29T07:54:46Z</time>
      </trkpt>
      <trkpt lat="37.480371" lon="-5.976927">
        <ele>6.717</ele>
        <time>2018-04-29T07:55:06Z</time>
      </trkpt>
      <trkpt lat="37.480083" lon="-5.977217">
        <ele>8.322</ele>
        <time>2018-04-29T07:55:15Z</time>
      </trkpt>
      <trkpt lat="37.479565" lon="-5.978323">
        <ele>13.634</ele>
        <time>2018-04-29T07:55:35Z</time>
      </trkpt>
      <trkpt lat="37.479577" lon="-5.978574">
        <ele>11.615</ele>
        <time>2018-04-29T07:55:42Z</time>
      </trkpt>
      <trkpt lat="37.482445" lon="-5.978711">
        <ele>11.357</ele>
        <time>2018-04-29T07:56:49Z</time>
      </trkpt>
      <trkpt lat="37.485130" lon="-5.978501">
        <ele>11.600</ele>
        <time>2018-04-29T07:57:41Z</time>
      </trkpt>
      <trkpt lat="37.485669" lon="-5.978262">
        <ele>12.220</ele>
        <time>2018-04-29T07:57:54Z</time>
      </trkpt>
      <trkpt lat="37.485812" lon="-5.977806">
        <ele>14.308</ele>
        <time>2018-04-29T07:58:05Z</time>
      </trkpt>
      <trkpt lat="37.485496" lon="-5.975821">
        <ele>16.737</ele>
        <time>2018-04-29T07:58:40Z</time>
      </trkpt>
      <trkpt lat="37.485669" lon="-5.975749">
        <ele>15.779</ele>
        <time>2018-04-29T07:58:45Z</time>
      </trkpt>
      <trkpt lat="37.485786" lon="-5.975961">
        <ele>15.459</ele>
        <time>2018-04-29T07:58:51Z</time>
      </trkpt>
      <trkpt lat="37.486001" lon="-5.975952">
        <ele>12.776</ele>
        <time>2018-04-29T07:58:57Z</time>
      </trkpt>
      <trkpt lat="37.487238" lon="-5.975721">
        <ele>16.327</ele>
        <time>2018-04-29T07:59:24Z</time>
      </trkpt>
      <trkpt lat="37.488605" lon="-5.975181">
        <ele>16.132</ele>
        <time>2018-04-29T07:59:54Z</time>
      </trkpt>
      <trkpt lat="37.488487" lon="-5.974159">
        <ele>14.754</ele>
        <time>2018-04-29T08:00:10Z</time>
      </trkpt>
      <trkpt lat="37.488587" lon="-5.973940">
        <ele>11.755</ele>
        <time>2018-04-29T08:00:16Z</time>
      </trkpt>
      <trkpt lat="37.498637" lon="-5.964980">
        <ele>11.738</ele>
        <time>2018-04-29T08:04:09Z</time>
      </trkpt>
      <trkpt lat="37.500068" lon="-5.963888">
        <ele>9.170</ele>
        <time>2018-04-29T08:04:42Z</time>
      </trkpt>
      <trkpt lat="37.507376" lon="-5.971917">
        <ele>8.417</ele>
        <time>2018-04-29T08:07:44Z</time>
      </trkpt>
      <trkpt lat="37.508665" lon="-5.973142">
        <ele>7.608</ele>
        <time>2018-04-29T08:08:10Z</time>
      </trkpt>
      <trkpt lat="37.510132" lon="-5.974223">
        <ele>13.955</ele>
        <time>2018-04-29T08:08:41Z</time>
      </trkpt>
      <trkpt lat="37.510233" lon="-5.974411">
        <ele>12.857</ele>
        <time>2018-04-29T08:08:45Z</time>
      </trkpt>
      <trkpt lat="37.510142" lon="-5.975989">
        <ele>16.017</ele>
        <time>2018-04-29T08:09:18Z</time>
      </trkpt>
      <trkpt lat="37.514357" lon="-5.975005">
        <ele>11.394</ele>
        <time>2018-04-29T08:10:33Z</time>
      </trkpt>
      <trkpt lat="37.517348" lon="-5.973586">
        <ele>13.685</ele>
        <time>2018-04-29T08:11:25Z</time>
      </trkpt>
      <trkpt lat="37.517781" lon="-5.973544">
        <ele>14.530</ele>
        <time>2018-04-29T08:11:33Z</time>
      </trkpt>
      <trkpt lat="37.518341" lon="-5.973860">
        <ele>10.452</ele>
        <time>2018-04-29T08:11:44Z</time>
      </trkpt>
      <trkpt lat="37.518511" lon="-5.974358">
        <ele>12.053</ele>
        <time>2018-04-29T08:11:52Z</time>
      </trkpt>
      <trkpt lat="37.518637" lon="-5.977262">
        <ele>10.795</ele>
        <time>2018-04-29T08:12:36Z</time>
      </trkpt>
      <trkpt lat="37.518532" lon="-5.977720">
        <ele>13.049</ele>
        <time>2018-04-29T08:12:47Z</time>
      </trkpt>
      <trkpt lat="37.517801" lon="-5.977745">
        <ele>20.723</ele>
        <time>2018-04-29T08:13:07Z</time>
      </trkpt>
      <trkpt lat="37.517647" lon="-5.977889">
        <ele>24.008</ele>
        <time>2018-04-29T08:13:13Z</time>
      </trkpt>
      <trkpt lat="37.517736" lon="-5.978102">
        <ele>27.691</ele>
        <time>2018-04-29T08:13:23Z</time>
      </trkpt>
      <trkpt lat="37.518227" lon="-5.978449">
        <ele>28.023</ele>
        <time>2018-04-29T08:13:41Z</time>
      </trkpt>
      <trkpt lat="37.518547" lon="-5.978128">
        <ele>32.223</ele>
        <time>2018-04-29T08:13:55Z</time>
      </trkpt>
      <trkpt lat="37.518732" lon="-5.978226">
        <ele>33.990</ele>
        <time>2018-04-29T08:14:01Z</time>
      </trkpt>
      <trkpt lat="37.520603" lon="-5.979673">
        <ele>38.671</ele>
        <time>2018-04-29T08:15:04Z</time>
      </trkpt>
      <trkpt lat="37.521166" lon="-5.979463">
        <ele>40.836</ele>
        <time>2018-04-29T08:15:18Z</time>
      </trkpt>
      <trkpt lat="37.521691" lon="-5.978696">
        <ele>37.818</ele>
        <time>2018-04-29T08:15:33Z</time>
      </trkpt>
      <trkpt lat="37.524098" lon="-5.977829">
        <ele>28.489</ele>
        <time>2018-04-29T08:16:19Z</time>
      </trkpt>
      <trkpt lat="37.525131" lon="-5.978132">
        <ele>32.728</ele>
        <time>2018-04-29T08:16:40Z</time>
      </trkpt>
      <trkpt lat="37.525881" lon="-5.977316">
        <ele>35.189</ele>
        <time>2018-04-29T08:17:10Z</time>
      </trkpt>
      <trkpt lat="37.526530" lon="-5.977742">
        <ele>37.317</ele>
        <time>2018-04-29T08:17:26Z</time>
      </trkpt>
      <trkpt lat="37.528273" lon="-5.977740">
        <ele>41.408</ele>
        <time>2018-04-29T08:18:21Z</time>
      </trkpt>
      <trkpt lat="37.529997" lon="-5.978152">
        <ele>39.454</ele>
        <time>2018-04-29T08:19:03Z</time>
      </trkpt>
      <trkpt lat="37.531718" lon="-5.978802">
        <ele>31.446</ele>
        <time>2018-04-29T08:19:38Z</time>
      </trkpt>
      <trkpt lat="37.537394" lon="-5.979769">
        <ele>27.376</ele>
        <time>2018-04-29T08:21:16Z</time>
      </trkpt>
      <trkpt lat="37.537764" lon="-5.979983">
        <ele>27.533</ele>
        <time>2018-04-29T08:21:25Z</time>
      </trkpt>
      <trkpt lat="37.540395" lon="-5.980425">
        <ele>28.484</ele>
        <time>2018-04-29T08:22:18Z</time>
      </trkpt>
      <trkpt lat="37.544087" lon="-5.981609">
        <ele>32.269</ele>
        <time>2018-04-29T08:23:37Z</time>
      </trkpt>
      <trkpt lat="37.549371" lon="-5.982715">
        <ele>33.661</ele>
        <time>2018-04-29T08:25:21Z</time>
      </trkpt>
      <trkpt lat="37.550875" lon="-5.983302">
        <ele>33.492</ele>
        <time>2018-04-29T08:26:01Z</time>
      </trkpt>
      <trkpt lat="37.552846" lon="-5.983852">
        <ele>33.599</ele>
        <time>2018-04-29T08:26:42Z</time>
      </trkpt>
      <trkpt lat="37.557267" lon="-5.984372">
        <ele>38.407</ele>
        <time>2018-04-29T08:28:13Z</time>
      </trkpt>
      <trkpt lat="37.559206" lon="-5.985024">
        <ele>37.527</ele>
        <time>2018-04-29T08:28:55Z</time>
      </trkpt>
      <trkpt lat="37.560068" lon="-5.985634">
        <ele>36.308</ele>
        <time>2018-04-29T08:29:16Z</time>
      </trkpt>
      <trkpt lat="37.561392" lon="-5.986219">
        <ele>38.431</ele>
        <time>2018-04-29T08:29:46Z</time>
      </trkpt>
      <trkpt lat="37.562914" lon="-5.986212">
        <ele>42.183</ele>
        <time>2018-04-29T08:31:20Z</time>
      </trkpt>
      <trkpt lat="37.567801" lon="-5.987860">
        <ele>48.323</ele>
        <time>2018-04-29T08:33:10Z</time>
      </trkpt>
      <trkpt lat="37.568161" lon="-5.987778">
        <ele>50.350</ele>
        <time>2018-04-29T08:33:22Z</time>
      </trkpt>
      <trkpt lat="37.568756" lon="-5.988388">
        <ele>50.491</ele>
        <time>2018-04-29T08:33:55Z</time>
      </trkpt>
      <trkpt lat="37.570373" lon="-5.989395">
        <ele>50.356</ele>
        <time>2018-04-29T08:34:40Z</time>
      </trkpt>
      <trkpt lat="37.570848" lon="-5.989920">
        <ele>49.628</ele>
        <time>2018-04-29T08:34:55Z</time>
      </trkpt>
      <trkpt lat="37.573074" lon="-5.991015">
        <ele>46.629</ele>
        <time>2018-04-29T08:35:51Z</time>
      </trkpt>
      <trkpt lat="37.574226" lon="-5.990893">
        <ele>50.912</ele>
        <time>2018-04-29T08:36:32Z</time>
      </trkpt>
      <trkpt lat="37.575373" lon="-5.991078">
        <ele>48.432</ele>
        <time>2018-04-29T08:37:33Z</time>
      </trkpt>
      <trkpt lat="37.576516" lon="-5.991057">
        <ele>50.305</ele>
        <time>2018-04-29T08:38:16Z</time>
      </trkpt>
      <trkpt lat="37.579737" lon="-5.990717">
        <ele>63.608</ele>
        <time>2018-04-29T08:39:59Z</time>
      </trkpt>
      <trkpt lat="37.580462" lon="-5.990825">
        <ele>61.183</ele>
        <time>2018-04-29T08:40:49Z</time>
      </trkpt>
      <trkpt lat="37.581421" lon="-5.990499">
        <ele>67.395</ele>
        <time>2018-04-29T08:41:17Z</time>
      </trkpt>
      <trkpt lat="37.586499" lon="-5.989558">
        <ele>73.415</ele>
        <time>2018-04-29T08:44:15Z</time>
      </trkpt>
      <trkpt lat="37.587739" lon="-5.986409">
        <ele>80.382</ele>
        <time>2018-04-29T08:45:25Z</time>
      </trkpt>
      <trkpt lat="37.588155" lon="-5.983722">
        <ele>88.593</ele>
        <time>2018-04-29T08:46:25Z</time>
      </trkpt>
      <trkpt lat="37.588213" lon="-5.982129">
        <ele>87.458</ele>
        <time>2018-04-29T08:46:53Z</time>
      </trkpt>
      <trkpt lat="37.588075" lon="-5.979704">
        <ele>82.780</ele>
        <time>2018-04-29T08:47:20Z</time>
      </trkpt>
      <trkpt lat="37.587393" lon="-5.976784">
        <ele>68.511</ele>
        <time>2018-04-29T08:47:54Z</time>
      </trkpt>
      <trkpt lat="37.587778" lon="-5.974375">
        <ele>78.461</ele>
        <time>2018-04-29T08:48:45Z</time>
      </trkpt>
      <trkpt lat="37.587410" lon="-5.970998">
        <ele>69.821</ele>
        <time>2018-04-29T08:49:46Z</time>
      </trkpt>
      <trkpt lat="37.585773" lon="-5.970152">
        <ele>68.413</ele>
        <time>2018-04-29T08:50:29Z</time>
      </trkpt>
      <trkpt lat="37.585513" lon="-5.969763">
        <ele>66.508</ele>
        <time>2018-04-29T08:50:35Z</time>
      </trkpt>
      <trkpt lat="37.585347" lon="-5.969048">
        <ele>64.278</ele>
        <time>2018-04-29T08:50:44Z</time>
      </trkpt>
      <trkpt lat="37.585028" lon="-5.968746">
        <ele>68.160</ele>
        <time>2018-04-29T08:50:55Z</time>
      </trkpt>
      <trkpt lat="37.584114" lon="-5.968456">
        <ele>72.340</ele>
        <time>2018-04-29T08:51:20Z</time>
      </trkpt>
      <trkpt lat="37.583350" lon="-5.967358">
        <ele>71.477</ele>
        <time>2018-04-29T08:52:20Z</time>
      </trkpt>
      <trkpt lat="37.583419" lon="-5.967122">
        <ele>78.138</ele>
        <time>2018-04-29T09:14:01Z</time>
      </trkpt>
      <trkpt lat="37.583245" lon="-5.967203">
        <ele>71.443</ele>
        <time>2018-04-29T09:15:49Z</time>
      </trkpt>
      <trkpt lat="37.582494" lon="-5.968756">
        <ele>63.565</ele>
        <time>2018-04-29T09:16:27Z</time>
      </trkpt>
      <trkpt lat="37.582205" lon="-5.970864">
        <ele>67.926</ele>
        <time>2018-04-29T09:16:56Z</time>
      </trkpt>
      <trkpt lat="37.581897" lon="-5.971727">
        <ele>68.746</ele>
        <time>2018-04-29T09:17:08Z</time>
      </trkpt>
      <trkpt lat="37.581460" lon="-5.972272">
        <ele>71.188</ele>
        <time>2018-04-29T09:17:20Z</time>
      </trkpt>
      <trkpt lat="37.579101" lon="-5.974071">
        <ele>77.516</ele>
        <time>2018-04-29T09:18:33Z</time>
      </trkpt>
      <trkpt lat="37.576833" lon="-5.976979">
        <ele>61.508</ele>
        <time>2018-04-29T09:19:23Z</time>
      </trkpt>
      <trkpt lat="37.576289" lon="-5.978006">
        <ele>61.496</ele>
        <time>2018-04-29T09:19:43Z</time>
      </trkpt>
      <trkpt lat="37.575351" lon="-5.980245">
        <ele>63.428</ele>
        <time>2018-04-29T09:20:28Z</time>
      </trkpt>
      <trkpt lat="37.573692" lon="-5.985102">
        <ele>57.418</ele>
        <time>2018-04-29T09:21:37Z</time>
      </trkpt>
      <trkpt lat="37.572896" lon="-5.988860">
        <ele>52.425</ele>
        <time>2018-04-29T09:22:27Z</time>
      </trkpt>
      <trkpt lat="37.572849" lon="-5.990877">
        <ele>47.546</ele>
        <time>2018-04-29T09:22:53Z</time>
      </trkpt>
      <trkpt lat="37.570932" lon="-5.989947">
        <ele>44.461</ele>
        <time>2018-04-29T09:23:38Z</time>
      </trkpt>
      <trkpt lat="37.570442" lon="-5.989453">
        <ele>46.463</ele>
        <time>2018-04-29T09:23:57Z</time>
      </trkpt>
      <trkpt lat="37.568655" lon="-5.988276">
        <ele>47.424</ele>
        <time>2018-04-29T09:24:38Z</time>
      </trkpt>
      <trkpt lat="37.568186" lon="-5.987783">
        <ele>47.424</ele>
        <time>2018-04-29T09:24:51Z</time>
      </trkpt>
      <trkpt lat="37.567812" lon="-5.987853">
        <ele>47.404</ele>
        <time>2018-04-29T09:25:03Z</time>
      </trkpt>
      <trkpt lat="37.562920" lon="-5.986221">
        <ele>36.514</ele>
        <time>2018-04-29T09:26:47Z</time>
      </trkpt>
      <trkpt lat="37.561516" lon="-5.986240">
        <ele>39.108</ele>
        <time>2018-04-29T09:27:16Z</time>
      </trkpt>
      <trkpt lat="37.560031" lon="-5.985570">
        <ele>36.284</ele>
        <time>2018-04-29T09:27:53Z</time>
      </trkpt>
      <trkpt lat="37.559347" lon="-5.985065">
        <ele>38.436</ele>
        <time>2018-04-29T09:28:14Z</time>
      </trkpt>
      <trkpt lat="37.557348" lon="-5.984395">
        <ele>40.486</ele>
        <time>2018-04-29T09:29:02Z</time>
      </trkpt>
      <trkpt lat="37.552406" lon="-5.983727">
        <ele>30.343</ele>
        <time>2018-04-29T09:30:42Z</time>
      </trkpt>
      <trkpt lat="37.550187" lon="-5.982992">
        <ele>36.164</ele>
        <time>2018-04-29T09:31:36Z</time>
      </trkpt>
      <trkpt lat="37.550045" lon="-5.983162">
        <ele>35.599</ele>
        <time>2018-04-29T09:31:43Z</time>
      </trkpt>
      <trkpt lat="37.549329" lon="-5.987447">
        <ele>31.121</ele>
        <time>2018-04-29T09:32:46Z</time>
      </trkpt>
      <trkpt lat="37.548655" lon="-5.992921">
        <ele>46.162</ele>
        <time>2018-04-29T09:34:43Z</time>
      </trkpt>
      <trkpt lat="37.548454" lon="-5.993338">
        <ele>48.425</ele>
        <time>2018-04-29T09:34:56Z</time>
      </trkpt>
      <trkpt lat="37.546842" lon="-5.993829">
        <ele>46.326</ele>
        <time>2018-04-29T09:35:36Z</time>
      </trkpt>
      <trkpt lat="37.545744" lon="-5.993105">
        <ele>46.408</ele>
        <time>2018-04-29T09:36:00Z</time>
      </trkpt>
      <trkpt lat="37.545338" lon="-5.993091">
        <ele>45.108</ele>
        <time>2018-04-29T09:36:07Z</time>
      </trkpt>
      <trkpt lat="37.544537" lon="-5.993850">
        <ele>44.544</ele>
        <time>2018-04-29T09:36:27Z</time>
      </trkpt>
      <trkpt lat="37.543725" lon="-5.995629">
        <ele>45.386</ele>
        <time>2018-04-29T09:36:59Z</time>
      </trkpt>
      <trkpt lat="37.542768" lon="-5.996685">
        <ele>44.416</ele>
        <time>2018-04-29T09:37:22Z</time>
      </trkpt>
      <trkpt lat="37.540853" lon="-5.997256">
        <ele>43.383</ele>
        <time>2018-04-29T09:37:59Z</time>
      </trkpt>
      <trkpt lat="37.538789" lon="-5.998620">
        <ele>42.464</ele>
        <time>2018-04-29T09:38:41Z</time>
      </trkpt>
      <trkpt lat="37.532564" lon="-6.001325">
        <ele>32.719</ele>
        <time>2018-04-29T09:40:26Z</time>
      </trkpt>
      <trkpt lat="37.530874" lon="-6.002584">
        <ele>30.491</ele>
        <time>2018-04-29T09:41:00Z</time>
      </trkpt>
      <trkpt lat="37.529354" lon="-6.001730">
        <ele>27.552</ele>
        <time>2018-04-29T09:41:28Z</time>
      </trkpt>
      <trkpt lat="37.529117" lon="-6.001719">
        <ele>27.245</ele>
        <time>2018-04-29T09:41:32Z</time>
      </trkpt>
      <trkpt lat="37.528129" lon="-6.002379">
        <ele>24.747</ele>
        <time>2018-04-29T09:41:52Z</time>
      </trkpt>
      <trkpt lat="37.526698" lon="-6.002230">
        <ele>19.411</ele>
        <time>2018-04-29T09:42:13Z</time>
      </trkpt>
      <trkpt lat="37.525582" lon="-6.002759">
        <ele>19.608</ele>
        <time>2018-04-29T09:42:32Z</time>
      </trkpt>
      <trkpt lat="37.525190" lon="-6.003370">
        <ele>18.586</ele>
        <time>2018-04-29T09:42:43Z</time>
      </trkpt>
      <trkpt lat="37.523463" lon="-6.009559">
        <ele>18.458</ele>
        <time>2018-04-29T09:44:16Z</time>
      </trkpt>
      <trkpt lat="37.523111" lon="-6.010211">
        <ele>16.428</ele>
        <time>2018-04-29T09:44:29Z</time>
      </trkpt>
      <trkpt lat="37.522250" lon="-6.010872">
        <ele>15.495</ele>
        <time>2018-04-29T09:44:50Z</time>
      </trkpt>
      <trkpt lat="37.518548" lon="-6.010971">
        <ele>16.636</ele>
        <time>2018-04-29T09:45:52Z</time>
      </trkpt>
      <trkpt lat="37.516248" lon="-6.013099">
        <ele>14.411</ele>
        <time>2018-04-29T09:46:42Z</time>
      </trkpt>
      <trkpt lat="37.515676" lon="-6.013468">
        <ele>14.483</ele>
        <time>2018-04-29T09:46:53Z</time>
      </trkpt>
      <trkpt lat="37.515476" lon="-6.013906">
        <ele>15.424</ele>
        <time>2018-04-29T09:47:01Z</time>
      </trkpt>
      <trkpt lat="37.514901" lon="-6.017868">
        <ele>12.562</ele>
        <time>2018-04-29T09:48:02Z</time>
      </trkpt>
      <trkpt lat="37.510482" lon="-6.019029">
        <ele>14.383</ele>
        <time>2018-04-29T09:49:41Z</time>
      </trkpt>
      <trkpt lat="37.506165" lon="-6.020816">
        <ele>15.411</ele>
        <time>2018-04-29T09:51:09Z</time>
      </trkpt>
      <trkpt lat="37.504228" lon="-6.021458">
        <ele>12.108</ele>
        <time>2018-04-29T09:51:43Z</time>
      </trkpt>
      <trkpt lat="37.499395" lon="-6.021462">
        <ele>8.418</ele>
        <time>2018-04-29T09:53:18Z</time>
      </trkpt>
      <trkpt lat="37.499065" lon="-6.021805">
        <ele>8.460</ele>
        <time>2018-04-29T09:54:26Z</time>
      </trkpt>
      <trkpt lat="37.498470" lon="-6.021715">
        <ele>8.320</ele>
        <time>2018-04-29T09:54:41Z</time>
      </trkpt>
      <trkpt lat="37.498134" lon="-6.021901">
        <ele>8.137</ele>
        <time>2018-04-29T09:54:49Z</time>
      </trkpt>
      <trkpt lat="37.497515" lon="-6.022908">
        <ele>5.548</ele>
        <time>2018-04-29T09:55:09Z</time>
      </trkpt>
      <trkpt lat="37.497327" lon="-6.022995">
        <ele>3.783</ele>
        <time>2018-04-29T09:55:14Z</time>
      </trkpt>
      <trkpt lat="37.497052" lon="-6.022635">
        <ele>5.065</ele>
        <time>2018-04-29T09:55:24Z</time>
      </trkpt>
      <trkpt lat="37.495129" lon="-6.021132">
        <ele>6.356</ele>
        <time>2018-04-29T09:56:05Z</time>
      </trkpt>
      <trkpt lat="37.491820" lon="-6.019529">
        <ele>5.128</ele>
        <time>2018-04-29T09:57:07Z</time>
      </trkpt>
      <trkpt lat="37.489438" lon="-6.019435">
        <ele>6.689</ele>
        <time>2018-04-29T09:57:51Z</time>
      </trkpt>
      <trkpt lat="37.488366" lon="-6.019257">
        <ele>6.417</ele>
        <time>2018-04-29T09:58:10Z</time>
      </trkpt>
      <trkpt lat="37.486102" lon="-6.019391">
        <ele>8.908</ele>
        <time>2018-04-29T09:58:50Z</time>
      </trkpt>
      <trkpt lat="37.484078" lon="-6.019261">
        <ele>5.444</ele>
        <time>2018-04-29T09:59:25Z</time>
      </trkpt>
      <trkpt lat="37.481455" lon="-6.019994">
        <ele>3.416</ele>
        <time>2018-04-29T10:00:11Z</time>
      </trkpt>
      <trkpt lat="37.480214" lon="-6.019961">
        <ele>3.496</ele>
        <time>2018-04-29T10:00:35Z</time>
      </trkpt>
      <trkpt lat="37.479656" lon="-6.016733">
        <ele>3.113</ele>
        <time>2018-04-29T10:01:27Z</time>
      </trkpt>
      <trkpt lat="37.478754" lon="-6.013352">
        <ele>2.484</ele>
        <time>2018-04-29T10:02:18Z</time>
      </trkpt>
      <trkpt lat="37.478099" lon="-6.012011">
        <ele>4.759</ele>
        <time>2018-04-29T10:02:41Z</time>
      </trkpt>
      <trkpt lat="37.477441" lon="-6.010113">
        <ele>4.321</ele>
        <time>2018-04-29T10:03:09Z</time>
      </trkpt>
      <trkpt lat="37.475594" lon="-6.006778">
        <ele>3.392</ele>
        <time>2018-04-29T10:05:10Z</time>
      </trkpt>
      <trkpt lat="37.474952" lon="-6.005076">
        <ele>3.465</ele>
        <time>2018-04-29T10:05:41Z</time>
      </trkpt>
      <trkpt lat="37.472707" lon="-6.005254">
        <ele>7.568</ele>
        <time>2018-04-29T10:06:30Z</time>
      </trkpt>
      <trkpt lat="37.469267" lon="-6.006459">
        <ele>4.414</ele>
        <time>2018-04-29T10:07:45Z</time>
      </trkpt>
      <trkpt lat="37.468421" lon="-6.006591">
        <ele>3.408</ele>
        <time>2018-04-29T10:08:01Z</time>
      </trkpt>
      <trkpt lat="37.467203" lon="-6.007433">
        <ele>7.498</ele>
        <time>2018-04-29T10:08:34Z</time>
      </trkpt>
      <trkpt lat="37.466739" lon="-6.006964">
        <ele>6.460</ele>
        <time>2018-04-29T10:08:46Z</time>
      </trkpt>
      <trkpt lat="37.465385" lon="-6.006230">
        <ele>1.720</ele>
        <time>2018-04-29T10:09:13Z</time>
      </trkpt>
      <trkpt lat="37.462840" lon="-6.004874">
        <ele>3.557</ele>
        <time>2018-04-29T10:09:57Z</time>
      </trkpt>
      <trkpt lat="37.462477" lon="-6.004842">
        <ele>1.658</ele>
        <time>2018-04-29T10:10:05Z</time>
      </trkpt>
      <trkpt lat="37.461207" lon="-6.004002">
        <ele>4.583</ele>
        <time>2018-04-29T10:10:31Z</time>
      </trkpt>
      <trkpt lat="37.438192" lon="-5.991816">
        <ele>0.395</ele>
        <time>2018-04-29T10:16:55Z</time>
      </trkpt>
      <trkpt lat="37.434273" lon="-5.990602">
        <ele>-3.416</ele>
        <time>2018-04-29T10:18:03Z</time>
      </trkpt>
      <trkpt lat="37.430780" lon="-5.989053">
        <ele>9.464</ele>
        <time>2018-04-29T10:19:11Z</time>
      </trkpt>
      <trkpt lat="37.424376" lon="-5.984697">
        <ele>11.806</ele>
        <time>2018-04-29T10:21:44Z</time>
      </trkpt>
      <trkpt lat="37.424565" lon="-5.983573">
        <ele>17.316</ele>
        <time>2018-04-29T10:22:02Z</time>
      </trkpt>
      <trkpt lat="37.424492" lon="-5.982565">
        <ele>10.908</ele>
        <time>2018-04-29T10:22:22Z</time>
      </trkpt>
      <trkpt lat="37.422216" lon="-5.982810">
        <ele>2.468</ele>
        <time>2018-04-29T10:23:11Z</time>
      </trkpt>
      <trkpt lat="37.421521" lon="-5.983332">
        <ele>5.580</ele>
        <time>2018-04-29T10:23:31Z</time>
      </trkpt>
      <trkpt lat="37.421016" lon="-5.982944">
        <ele>6.330</ele>
        <time>2018-04-29T10:24:00Z</time>
      </trkpt>
      <trkpt lat="37.419566" lon="-5.983028">
        <ele>4.427</ele>
        <time>2018-04-29T10:24:29Z</time>
      </trkpt>
      <trkpt lat="37.414495" lon="-5.983470">
        <ele>3.158</ele>
        <time>2018-04-29T10:26:00Z</time>
      </trkpt>
      <trkpt lat="37.414103" lon="-5.983564">
        <ele>5.453</ele>
        <time>2018-04-29T10:26:12Z</time>
      </trkpt>
      <trkpt lat="37.413663" lon="-5.984002">
        <ele>7.045</ele>
        <time>2018-04-29T10:26:39Z</time>
      </trkpt>
      <trkpt lat="37.413292" lon="-5.984092">
        <ele>6.486</ele>
        <time>2018-04-29T10:26:50Z</time>
      </trkpt>
      <trkpt lat="37.412761" lon="-5.983821">
        <ele>7.356</ele>
        <time>2018-04-29T10:27:08Z</time>
      </trkpt>
      <trkpt lat="37.411757" lon="-5.983984">
        <ele>7.759</ele>
        <time>2018-04-29T10:27:28Z</time>
      </trkpt>
      <trkpt lat="37.410367" lon="-5.984479">
        <ele>14.314</ele>
        <time>2018-04-29T10:27:58Z</time>
      </trkpt>
      <trkpt lat="37.409838" lon="-5.984985">
        <ele>-7.608</ele>
        <time>2018-04-29T10:45:52Z</time>
      </trkpt>
      <trkpt lat="37.409832" lon="-5.984783">
        <ele>6.187</ele>
        <time>2018-04-29T10:46:56Z</time>
      </trkpt>
      <trkpt lat="37.409621" lon="-5.984742">
        <ele>1.389</ele>
        <time>2018-04-29T10:47:53Z</time>
      </trkpt>
      <trkpt lat="37.408680" lon="-5.985134">
        <ele>7.649</ele>
        <time>2018-04-29T10:48:24Z</time>
      </trkpt>
      <trkpt lat="37.407708" lon="-5.985310">
        <ele>12.516</ele>
        <time>2018-04-29T10:48:57Z</time>
      </trkpt>
      <trkpt lat="37.407443" lon="-5.985605">
        <ele>12.797</ele>
        <time>2018-04-29T10:49:22Z</time>
      </trkpt>
      <trkpt lat="37.406457" lon="-5.985968">
        <ele>9.142</ele>
        <time>2018-04-29T10:49:48Z</time>
      </trkpt>
      <trkpt lat="37.403673" lon="-5.987654">
        <ele>1.484</ele>
        <time>2018-04-29T10:50:55Z</time>
      </trkpt>
      <trkpt lat="37.403105" lon="-5.987863">
        <ele>1.415</ele>
        <time>2018-04-29T10:51:15Z</time>
      </trkpt>
      <trkpt lat="37.402008" lon="-5.986060">
        <ele>-0.664</ele>
        <time>2018-04-29T10:52:09Z</time>
      </trkpt>
      <trkpt lat="37.400736" lon="-5.985255">
        <ele>2.706</ele>
        <time>2018-04-29T10:52:39Z</time>
      </trkpt>
      <trkpt lat="37.400097" lon="-5.984633">
        <ele>5.016</ele>
        <time>2018-04-29T10:53:01Z</time>
      </trkpt>
      <trkpt lat="37.399132" lon="-5.982468">
        <ele>1.508</ele>
        <time>2018-04-29T10:53:50Z</time>
      </trkpt>
      <trkpt lat="37.398741" lon="-5.981908">
        <ele>7.928</ele>
        <time>2018-04-29T10:54:06Z</time>
      </trkpt>
      <trkpt lat="37.397601" lon="-5.981546">
        <ele>3.740</ele>
        <time>2018-04-29T10:54:41Z</time>
      </trkpt>
      <trkpt lat="37.397018" lon="-5.981708">
        <ele>6.350</ele>
        <time>2018-04-29T10:54:57Z</time>
      </trkpt>
      <trkpt lat="37.396595" lon="-5.982119">
        <ele>0.037</ele>
        <time>2018-04-29T10:56:14Z</time>
      </trkpt>
      <trkpt lat="37.394413" lon="-5.983547">
        <ele>8.448</ele>
        <time>2018-04-29T10:57:10Z</time>
      </trkpt>
      <trkpt lat="37.393239" lon="-5.983787">
        <ele>19.593</ele>
        <time>2018-04-29T10:57:39Z</time>
      </trkpt>
      <trkpt lat="37.392643" lon="-5.984086">
        <ele>12.115</ele>
        <time>2018-04-29T10:57:51Z</time>
      </trkpt>
      <trkpt lat="37.390018" lon="-5.984097">
        <ele>9.116</ele>
        <time>2018-04-29T10:58:56Z</time>
      </trkpt>
      <trkpt lat="37.389379" lon="-5.984502">
        <ele>19.196</ele>
        <time>2018-04-29T10:59:08Z</time>
      </trkpt>
      <trkpt lat="37.388196" lon="-5.984763">
        <ele>16.631</ele>
        <time>2018-04-29T10:59:42Z</time>
      </trkpt>
      <trkpt lat="37.386602" lon="-5.985444">
        <ele>18.524</ele>
        <time>2018-04-29T11:00:20Z</time>
      </trkpt>
      <trkpt lat="37.384320" lon="-5.987218">
        <ele>0.408</ele>
        <time>2018-04-29T11:01:51Z</time>
      </trkpt>
      <trkpt lat="37.381752" lon="-5.988654">
        <ele>1.471</ele>
        <time>2018-04-29T11:02:53Z</time>
      </trkpt>
      <trkpt lat="37.381501" lon="-5.989243">
        <ele>-3.093</ele>
        <time>2018-04-29T11:03:11Z</time>
      </trkpt>
      <trkpt lat="37.380963" lon="-5.989094">
        <ele>-2.323</ele>
        <time>2018-04-29T11:04:11Z</time>
      </trkpt>
      <trkpt lat="37.380829" lon="-5.988925">
        <ele>-2.640</ele>
        <time>2018-04-29T11:05:55Z</time>
      </trkpt>
      <trkpt lat="37.379917" lon="-5.985082">
        <ele>-10.611</ele>
        <time>2018-04-29T11:07:25Z</time>
      </trkpt>
      <trkpt lat="37.379768" lon="-5.983640">
        <ele>5.236</ele>
        <time>2018-04-29T11:08:03Z</time>
      </trkpt>
      <trkpt lat="37.379455" lon="-5.983378">
        <ele>0.968</ele>
        <time>2018-04-29T11:08:14Z</time>
      </trkpt>
      <trkpt lat="37.379541" lon="-5.982922">
        <ele>6.369</ele>
        <time>2018-04-29T11:08:25Z</time>
      </trkpt>
      <trkpt lat="37.379427" lon="-5.982313">
        <ele>8.824</ele>
        <time>2018-04-29T11:08:32Z</time>
      </trkpt>
      <trkpt lat="37.378828" lon="-5.980344">
        <ele>6.404</ele>
        <time>2018-04-29T11:08:49Z</time>
      </trkpt>
      <trkpt lat="37.378554" lon="-5.979820">
        <ele>5.014</ele>
        <time>2018-04-29T11:08:53Z</time>
      </trkpt>
      <trkpt lat="37.378271" lon="-5.979799">
        <ele>4.808</ele>
        <time>2018-04-29T11:08:54Z</time>
      </trkpt>
      <trkpt lat="37.378548" lon="-5.979826">
        <ele>-385.515</ele>
        <time>2015-12-05T06:44:48Z</time>
      </trkpt>
      <trkpt lat="37.378749" lon="-5.979982">
        <ele>-4.765</ele>
        <time>2015-12-05T06:47:37Z</time>
      </trkpt>
      <trkpt lat="37.379013" lon="-5.981062">
        <ele>-5.911</ele>
        <time>2015-12-05T06:47:54Z</time>
      </trkpt>
      <trkpt lat="37.379612" lon="-5.982295">
        <ele>23.508</ele>
        <time>2015-12-05T06:48:46Z</time>
      </trkpt>
      <trkpt lat="37.379582" lon="-5.982788">
        <ele>25.572</ele>
        <time>2015-12-05T06:48:56Z</time>
      </trkpt>
      <trkpt lat="37.380177" lon="-5.983835">
        <ele>57.392</ele>
        <time>2015-12-05T06:49:45Z</time>
      </trkpt>
      <trkpt lat="37.380122" lon="-5.984335">
        <ele>64.736</ele>
        <time>2015-12-05T06:49:56Z</time>
      </trkpt>
      <trkpt lat="37.380670" lon="-5.988202">
        <ele>-24.219</ele>
        <time>2015-12-05T06:52:34Z</time>
      </trkpt>
      <trkpt lat="37.380868" lon="-5.988860">
        <ele>-24.043</ele>
        <time>2015-12-05T06:52:56Z</time>
      </trkpt>
      <trkpt lat="37.381223" lon="-5.989050">
        <ele>-21.751</ele>
        <time>2015-12-05T06:53:11Z</time>
      </trkpt>
      <trkpt lat="37.381407" lon="-5.989052">
        <ele>-22.053</ele>
        <time>2015-12-05T06:53:20Z</time>
      </trkpt>
      <trkpt lat="37.382962" lon="-5.987917">
        <ele>-24.181</ele>
        <time>2015-12-05T06:54:13Z</time>
      </trkpt>
      <trkpt lat="37.384950" lon="-5.986798">
        <ele>-29.798</ele>
        <time>2015-12-05T06:55:10Z</time>
      </trkpt>
      <trkpt lat="37.387277" lon="-5.985157">
        <ele>-3.715</ele>
        <time>2015-12-05T06:56:25Z</time>
      </trkpt>
      <trkpt lat="37.390355" lon="-5.984058">
        <ele>-3.826</ele>
        <time>2015-12-05T06:57:42Z</time>
      </trkpt>
      <trkpt lat="37.391973" lon="-5.983887">
        <ele>9.608</ele>
        <time>2015-12-05T06:58:22Z</time>
      </trkpt>
      <trkpt lat="37.393158" lon="-5.984018">
        <ele>-9.440</ele>
        <time>2015-12-05T06:58:55Z</time>
      </trkpt>
      <trkpt lat="37.394288" lon="-5.983498">
        <ele>3.740</ele>
        <time>2015-12-05T06:59:35Z</time>
      </trkpt>
      <trkpt lat="37.397537" lon="-5.981435">
        <ele>-4.454</ele>
        <time>2015-12-05T07:00:57Z</time>
      </trkpt>
      <trkpt lat="37.398347" lon="-5.981587">
        <ele>-0.857</ele>
        <time>2015-12-05T07:01:15Z</time>
      </trkpt>
      <trkpt lat="37.399425" lon="-5.982765">
        <ele>-3.161</ele>
        <time>2015-12-05T07:01:42Z</time>
      </trkpt>
      <trkpt lat="37.399620" lon="-5.982783">
        <ele>-6.519</ele>
        <time>2015-12-05T07:01:47Z</time>
      </trkpt>
      <trkpt lat="37.401897" lon="-5.981712">
        <ele>-4.621</ele>
        <time>2015-12-05T07:02:52Z</time>
      </trkpt>
      <trkpt lat="37.402703" lon="-5.981508">
        <ele>-10.549</ele>
        <time>2015-12-05T07:03:14Z</time>
      </trkpt>
      <trkpt lat="37.403215" lon="-5.981178">
        <ele>-6.731</ele>
        <time>2015-12-05T07:03:28Z</time>
      </trkpt>
      <trkpt lat="37.405678" lon="-5.981567">
        <ele>-8.861</ele>
        <time>2015-12-05T07:04:47Z</time>
      </trkpt>
      <trkpt lat="37.407213" lon="-5.982347">
        <ele>-23.807</ele>
        <time>2015-12-05T07:06:31Z</time>
      </trkpt>
      <trkpt lat="37.407582" lon="-5.982847">
        <ele>-20.308</ele>
        <time>2015-12-05T07:06:52Z</time>
      </trkpt>
      <trkpt lat="37.408293" lon="-5.983243">
        <ele>-14.164</ele>
        <time>2015-12-05T07:07:06Z</time>
      </trkpt>
      <trkpt lat="37.409762" lon="-5.983110">
        <ele>-16.454</ele>
        <time>2015-12-05T07:07:34Z</time>
      </trkpt>
      <trkpt lat="37.411302" lon="-5.983617">
        <ele>-21.948</ele>
        <time>2015-12-05T07:08:07Z</time>
      </trkpt>
      <trkpt lat="37.412070" lon="-5.983722">
        <ele>-20.381</ele>
        <time>2015-12-05T07:08:34Z</time>
      </trkpt>
      <trkpt lat="37.413348" lon="-5.982957">
        <ele>-28.315</ele>
        <time>2015-12-05T07:09:55Z</time>
      </trkpt>
      <trkpt lat="37.413552" lon="-5.982988">
        <ele>-35.763</ele>
        <time>2015-12-05T07:10:02Z</time>
      </trkpt>
      <trkpt lat="37.413808" lon="-5.983318">
        <ele>-38.125</ele>
        <time>2015-12-05T07:10:17Z</time>
      </trkpt>
      <trkpt lat="37.414182" lon="-5.983307">
        <ele>-38.413</ele>
        <time>2015-12-05T07:10:36Z</time>
      </trkpt>
      <trkpt lat="37.414002" lon="-5.983365">
        <ele>-36.958</ele>
        <time>2015-12-05T07:11:15Z</time>
      </trkpt>
      <trkpt lat="37.413488" lon="-5.984387">
        <ele>-35.152</ele>
        <time>2015-12-05T07:12:00Z</time>
      </trkpt>
      <trkpt lat="37.413640" lon="-5.987353">
        <ele>-53.417</ele>
        <time>2015-12-05T07:24:08Z</time>
      </trkpt>
      <trkpt lat="37.413547" lon="-5.985148">
        <ele>-25.108</ele>
        <time>2015-12-05T07:27:55Z</time>
      </trkpt>
      <trkpt lat="37.414212" lon="-5.983220">
        <ele>-44.116</ele>
        <time>2015-12-05T07:39:15Z</time>
      </trkpt>
      <trkpt lat="37.414315" lon="-5.983315">
        <ele>-39.116</ele>
        <time>2015-12-05T07:41:39Z</time>
      </trkpt>
      <trkpt lat="37.416485" lon="-5.983020">
        <ele>-30.330</ele>
        <time>2015-12-05T07:42:35Z</time>
      </trkpt>
      <trkpt lat="37.421423" lon="-5.982665">
        <ele>-42.133</ele>
        <time>2015-12-05T07:44:16Z</time>
      </trkpt>
      <trkpt lat="37.426705" lon="-5.979132">
        <ele>-2.827</ele>
        <time>2015-12-05T07:46:26Z</time>
      </trkpt>
      <trkpt lat="37.427042" lon="-5.978772">
        <ele>6.755</ele>
        <time>2015-12-05T07:46:35Z</time>
      </trkpt>
      <trkpt lat="37.427335" lon="-5.978103">
        <ele>-5.327</ele>
        <time>2015-12-05T07:46:47Z</time>
      </trkpt>
      <trkpt lat="37.428125" lon="-5.978078">
        <ele>-9.065</ele>
        <time>2015-12-05T07:47:03Z</time>
      </trkpt>
      <trkpt lat="37.428542" lon="-5.977883">
        <ele>-11.456</ele>
        <time>2015-12-05T07:47:11Z</time>
      </trkpt>
      <trkpt lat="37.433242" lon="-5.974855">
        <ele>-28.659</ele>
        <time>2015-12-05T07:48:46Z</time>
      </trkpt>
      <trkpt lat="37.434722" lon="-5.973743">
        <ele>-36.514</ele>
        <time>2015-12-05T07:49:17Z</time>
      </trkpt>
      <trkpt lat="37.435983" lon="-5.972492">
        <ele>-36.908</ele>
        <time>2015-12-05T07:49:52Z</time>
      </trkpt>
      <trkpt lat="37.436358" lon="-5.972448">
        <ele>-34.936</ele>
        <time>2015-12-05T07:50:00Z</time>
      </trkpt>
      <trkpt lat="37.436650" lon="-5.972790">
        <ele>-33.816</ele>
        <time>2015-12-05T07:50:09Z</time>
      </trkpt>
      <trkpt lat="37.436410" lon="-5.973675">
        <ele>-35.230</ele>
        <time>2015-12-05T07:50:27Z</time>
      </trkpt>
      <trkpt lat="37.436593" lon="-5.973657">
        <ele>-35.213</ele>
        <time>2015-12-05T07:50:36Z</time>
      </trkpt>
      <trkpt lat="37.437930" lon="-5.972522">
        <ele>-28.917</ele>
        <time>2015-12-05T07:51:19Z</time>
      </trkpt>
      <trkpt lat="37.438893" lon="-5.972122">
        <ele>-26.995</ele>
        <time>2015-12-05T07:51:44Z</time>
      </trkpt>
      <trkpt lat="37.440590" lon="-5.972023">
        <ele>-36.557</ele>
        <time>2015-12-05T07:52:12Z</time>
      </trkpt>
      <trkpt lat="37.441140" lon="-5.972143">
        <ele>-36.055</ele>
        <time>2015-12-05T07:52:24Z</time>
      </trkpt>
      <trkpt lat="37.452247" lon="-5.970932">
        <ele>-43.152</ele>
        <time>2015-12-05T07:55:44Z</time>
      </trkpt>
      <trkpt lat="37.453122" lon="-5.971165">
        <ele>-43.353</ele>
        <time>2015-12-05T07:56:00Z</time>
      </trkpt>
      <trkpt lat="37.453635" lon="-5.971707">
        <ele>-43.008</ele>
        <time>2015-12-05T07:56:12Z</time>
      </trkpt>
      <trkpt lat="37.453967" lon="-5.972382">
        <ele>-42.008</ele>
        <time>2015-12-05T07:56:24Z</time>
      </trkpt>
      <trkpt lat="37.454358" lon="-5.972470">
        <ele>-38.786</ele>
        <time>2015-12-05T07:56:35Z</time>
      </trkpt>
      <trkpt lat="37.454672" lon="-5.972202">
        <ele>-37.536</ele>
        <time>2015-12-05T07:56:48Z</time>
      </trkpt>
      <trkpt lat="37.454985" lon="-5.970962">
        <ele>-40.310</ele>
        <time>2015-12-05T07:57:12Z</time>
      </trkpt>
      <trkpt lat="37.455602" lon="-5.970370">
        <ele>-41.263</ele>
        <time>2015-12-05T07:57:28Z</time>
      </trkpt>
      <trkpt lat="37.459637" lon="-5.969633">
        <ele>-42.047</ele>
        <time>2015-12-05T07:58:48Z</time>
      </trkpt>
      <trkpt lat="37.462362" lon="-5.969000">
        <ele>-43.375</ele>
        <time>2015-12-05T07:59:44Z</time>
      </trkpt>
      <trkpt lat="37.463140" lon="-5.968632">
        <ele>-43.327</ele>
        <time>2015-12-05T08:00:01Z</time>
      </trkpt>
      <trkpt lat="37.466607" lon="-5.967958">
        <ele>-48.275</ele>
        <time>2015-12-05T08:10:50Z</time>
      </trkpt>
      <trkpt lat="37.467123" lon="-5.968222">
        <ele>-49.067</ele>
        <time>2015-12-05T08:11:07Z</time>
      </trkpt>
      <trkpt lat="37.467407" lon="-5.970173">
        <ele>-47.081</ele>
        <time>2015-12-05T08:13:49Z</time>
      </trkpt>
      <trkpt lat="37.467957" lon="-5.971317">
        <ele>-43.919</ele>
        <time>2015-12-05T08:14:54Z</time>
      </trkpt>
      <trkpt lat="37.469343" lon="-5.971288">
        <ele>-44.708</ele>
        <time>2015-12-05T08:15:33Z</time>
      </trkpt>
      <trkpt lat="37.470693" lon="-5.971787">
        <ele>-46.487</ele>
        <time>2015-12-05T08:16:05Z</time>
      </trkpt>
      <trkpt lat="37.473497" lon="-5.973943">
        <ele>-48.097</ele>
        <time>2015-12-05T08:17:15Z</time>
      </trkpt>
      <trkpt lat="37.475405" lon="-5.976395">
        <ele>-48.961</ele>
        <time>2015-12-05T08:18:07Z</time>
      </trkpt>
      <trkpt lat="37.476402" lon="-5.977332">
        <ele>-47.584</ele>
        <time>2015-12-05T08:18:31Z</time>
      </trkpt>
      <trkpt lat="37.477717" lon="-5.978145">
        <ele>-46.838</ele>
        <time>2015-12-05T08:18:59Z</time>
      </trkpt>
      <trkpt lat="37.478305" lon="-5.978348">
        <ele>-46.866</ele>
        <time>2015-12-05T08:19:11Z</time>
      </trkpt>
      <trkpt lat="37.478687" lon="-5.978272">
        <ele>-46.368</ele>
        <time>2015-12-05T08:19:19Z</time>
      </trkpt>
      <trkpt lat="37.479207" lon="-5.978615">
        <ele>-47.246</ele>
        <time>2015-12-05T08:19:32Z</time>
      </trkpt>
      <trkpt lat="37.480715" lon="-5.978760">
        <ele>-49.754</ele>
        <time>2015-12-05T08:20:06Z</time>
      </trkpt>
      <trkpt lat="37.483538" lon="-5.978723">
        <ele>-45.656</ele>
        <time>2015-12-05T08:21:05Z</time>
      </trkpt>
      <trkpt lat="37.485403" lon="-5.978462">
        <ele>-46.511</ele>
        <time>2015-12-05T08:21:41Z</time>
      </trkpt>
      <trkpt lat="37.486053" lon="-5.977950">
        <ele>-46.708</ele>
        <time>2015-12-05T08:22:00Z</time>
      </trkpt>
      <trkpt lat="37.486685" lon="-5.978043">
        <ele>-47.046</ele>
        <time>2015-12-05T08:22:15Z</time>
      </trkpt>
      <trkpt lat="37.488202" lon="-5.977790">
        <ele>-47.866</ele>
        <time>2015-12-05T08:22:47Z</time>
      </trkpt>
      <trkpt lat="37.489173" lon="-5.977778">
        <ele>-47.920</ele>
        <time>2015-12-05T08:23:07Z</time>
      </trkpt>
      <trkpt lat="37.497922" lon="-5.978808">
        <ele>-46.883</ele>
        <time>2015-12-05T08:25:48Z</time>
      </trkpt>
      <trkpt lat="37.499250" lon="-5.978842">
        <ele>-47.137</ele>
        <time>2015-12-05T08:26:09Z</time>
      </trkpt>
      <trkpt lat="37.501638" lon="-5.978250">
        <ele>-45.055</ele>
        <time>2015-12-05T08:26:48Z</time>
      </trkpt>
      <trkpt lat="37.502980" lon="-5.978087">
        <ele>-43.987</ele>
        <time>2015-12-05T08:27:10Z</time>
      </trkpt>
      <trkpt lat="37.503613" lon="-5.977760">
        <ele>-44.755</ele>
        <time>2015-12-05T08:27:22Z</time>
      </trkpt>
      <trkpt lat="37.513810" lon="-5.975195">
        <ele>-47.964</ele>
        <time>2015-12-05T08:30:15Z</time>
      </trkpt>
      <trkpt lat="37.515363" lon="-5.974608">
        <ele>-47.806</ele>
        <time>2015-12-05T08:30:43Z</time>
      </trkpt>
      <trkpt lat="37.517323" lon="-5.973577">
        <ele>-45.716</ele>
        <time>2015-12-05T08:31:23Z</time>
      </trkpt>
      <trkpt lat="37.517730" lon="-5.973508">
        <ele>-44.908</ele>
        <time>2015-12-05T08:31:31Z</time>
      </trkpt>
      <trkpt lat="37.518292" lon="-5.973833">
        <ele>-43.387</ele>
        <time>2015-12-05T08:31:43Z</time>
      </trkpt>
      <trkpt lat="37.518500" lon="-5.974277">
        <ele>-42.367</ele>
        <time>2015-12-05T08:31:51Z</time>
      </trkpt>
      <trkpt lat="37.518590" lon="-5.977602">
        <ele>-38.371</ele>
        <time>2015-12-05T08:32:47Z</time>
      </trkpt>
      <trkpt lat="37.517413" lon="-5.978562">
        <ele>-22.084</ele>
        <time>2015-12-05T08:33:54Z</time>
      </trkpt>
      <trkpt lat="37.517430" lon="-5.978905">
        <ele>-19.248</ele>
        <time>2015-12-05T08:35:56Z</time>
      </trkpt>
      <trkpt lat="37.517657" lon="-5.978980">
        <ele>-28.446</ele>
        <time>2015-12-05T08:55:38Z</time>
      </trkpt>
      <trkpt lat="37.517697" lon="-5.979212">
        <ele>-27.768</ele>
        <time>2015-12-05T08:55:48Z</time>
      </trkpt>
      <trkpt lat="37.517218" lon="-5.979925">
        <ele>-25.346</ele>
        <time>2015-12-05T08:56:19Z</time>
      </trkpt>
      <trkpt lat="37.517515" lon="-5.980123">
        <ele>-15.297</ele>
        <time>2015-12-05T08:56:46Z</time>
      </trkpt>
      <trkpt lat="37.520278" lon="-5.979748">
        <ele>15.223</ele>
        <time>2015-12-05T08:58:23Z</time>
      </trkpt>
      <trkpt lat="37.520868" lon="-5.979785">
        <ele>8.925</ele>
        <time>2015-12-05T08:58:39Z</time>
      </trkpt>
      <trkpt lat="37.521212" lon="-5.979492">
        <ele>6.308</ele>
        <time>2015-12-05T08:59:11Z</time>
      </trkpt>
      <trkpt lat="37.521642" lon="-5.978688">
        <ele>-0.820</ele>
        <time>2015-12-05T08:59:41Z</time>
      </trkpt>
      <trkpt lat="37.522597" lon="-5.978308">
        <ele>10.660</ele>
        <time>2015-12-05T09:00:11Z</time>
      </trkpt>
      <trkpt lat="37.523347" lon="-5.977402">
        <ele>11.254</ele>
        <time>2015-12-05T09:00:38Z</time>
      </trkpt>
      <trkpt lat="37.525180" lon="-5.974653">
        <ele>11.967</ele>
        <time>2015-12-05T09:02:02Z</time>
      </trkpt>
      <trkpt lat="37.525508" lon="-5.973822">
        <ele>12.481</ele>
        <time>2015-12-05T09:02:22Z</time>
      </trkpt>
      <trkpt lat="37.525665" lon="-5.972565">
        <ele>9.589</ele>
        <time>2015-12-05T09:02:46Z</time>
      </trkpt>
      <trkpt lat="37.525433" lon="-5.971528">
        <ele>-0.171</ele>
        <time>2015-12-05T09:02:58Z</time>
      </trkpt>
      <trkpt lat="37.525655" lon="-5.970148">
        <ele>-7.239</ele>
        <time>2015-12-05T09:03:13Z</time>
      </trkpt>
      <trkpt lat="37.525453" lon="-5.968203">
        <ele>-15.867</ele>
        <time>2015-12-05T09:03:37Z</time>
      </trkpt>
      <trkpt lat="37.525887" lon="-5.962685">
        <ele>-31.681</ele>
        <time>2015-12-05T09:04:44Z</time>
      </trkpt>
      <trkpt lat="37.526385" lon="-5.960602">
        <ele>-37.719</ele>
        <time>2015-12-05T09:05:12Z</time>
      </trkpt>
      <trkpt lat="37.526372" lon="-5.955728">
        <ele>-44.208</ele>
        <time>2015-12-05T09:06:03Z</time>
      </trkpt>
      <trkpt lat="37.526890" lon="-5.952168">
        <ele>-45.567</ele>
        <time>2015-12-05T09:06:52Z</time>
      </trkpt>
      <trkpt lat="37.527688" lon="-5.950787">
        <ele>-45.337</ele>
        <time>2015-12-05T09:07:16Z</time>
      </trkpt>
      <trkpt lat="37.529048" lon="-5.949405">
        <ele>-39.411</ele>
        <time>2015-12-05T09:07:47Z</time>
      </trkpt>
      <trkpt lat="37.530543" lon="-5.947578">
        <ele>-43.214</ele>
        <time>2015-12-05T09:08:32Z</time>
      </trkpt>
      <trkpt lat="37.532623" lon="-5.944445">
        <ele>-42.748</ele>
        <time>2015-12-05T09:09:36Z</time>
      </trkpt>
      <trkpt lat="37.535883" lon="-5.935880">
        <ele>-44.986</ele>
        <time>2015-12-05T09:11:56Z</time>
      </trkpt>
      <trkpt lat="37.538513" lon="-5.930735">
        <ele>-40.958</ele>
        <time>2015-12-05T09:13:24Z</time>
      </trkpt>
      <trkpt lat="37.539605" lon="-5.929013">
        <ele>-40.636</ele>
        <time>2015-12-05T09:13:56Z</time>
      </trkpt>
      <trkpt lat="37.541977" lon="-5.930735">
        <ele>-44.489</ele>
        <time>2015-12-05T09:14:48Z</time>
      </trkpt>
      <trkpt lat="37.546865" lon="-5.935360">
        <ele>-50.206</ele>
        <time>2015-12-05T09:16:33Z</time>
      </trkpt>
      <trkpt lat="37.547142" lon="-5.935803">
        <ele>-50.226</ele>
        <time>2015-12-05T09:16:41Z</time>
      </trkpt>
      <trkpt lat="37.547062" lon="-5.936313">
        <ele>-49.808</ele>
        <time>2015-12-05T09:16:49Z</time>
      </trkpt>
      <trkpt lat="37.545950" lon="-5.938322">
        <ele>-46.939</ele>
        <time>2015-12-05T09:17:25Z</time>
      </trkpt>
      <trkpt lat="37.545808" lon="-5.939050">
        <ele>-41.589</ele>
        <time>2015-12-05T09:17:40Z</time>
      </trkpt>
      <trkpt lat="37.545173" lon="-5.939912">
        <ele>-36.743</ele>
        <time>2015-12-05T09:18:05Z</time>
      </trkpt>
      <trkpt lat="37.544310" lon="-5.941855">
        <ele>-30.036</ele>
        <time>2015-12-05T09:19:11Z</time>
      </trkpt>
      <trkpt lat="37.544735" lon="-5.942362">
        <ele>-29.380</ele>
        <time>2015-12-05T09:19:26Z</time>
      </trkpt>
      <trkpt lat="37.546715" lon="-5.942208">
        <ele>-14.238</ele>
        <time>2015-12-05T09:20:18Z</time>
      </trkpt>
      <trkpt lat="37.546823" lon="-5.942390">
        <ele>-14.020</ele>
        <time>2015-12-05T09:20:24Z</time>
      </trkpt>
      <trkpt lat="37.546678" lon="-5.945928">
        <ele>-19.698</ele>
        <time>2015-12-05T09:22:05Z</time>
      </trkpt>
      <trkpt lat="37.553548" lon="-5.949665">
        <ele>-45.648</ele>
        <time>2015-12-05T09:26:47Z</time>
      </trkpt>
      <trkpt lat="37.558917" lon="-5.952962">
        <ele>-43.661</ele>
        <time>2015-12-05T09:28:43Z</time>
      </trkpt>
      <trkpt lat="37.559347" lon="-5.953772">
        <ele>-43.717</ele>
        <time>2015-12-05T09:28:59Z</time>
      </trkpt>
      <trkpt lat="37.559878" lon="-5.957162">
        <ele>-38.508</ele>
        <time>2015-12-05T09:29:51Z</time>
      </trkpt>
      <trkpt lat="37.559840" lon="-5.957663">
        <ele>-37.325</ele>
        <time>2015-12-05T09:30:00Z</time>
      </trkpt>
      <trkpt lat="37.560678" lon="-5.957030">
        <ele>-37.035</ele>
        <time>2015-12-05T09:30:25Z</time>
      </trkpt>
      <trkpt lat="37.561518" lon="-5.955937">
        <ele>-33.189</ele>
        <time>2015-12-05T09:30:50Z</time>
      </trkpt>
      <trkpt lat="37.561908" lon="-5.955988">
        <ele>-30.542</ele>
        <time>2015-12-05T09:31:04Z</time>
      </trkpt>
      <trkpt lat="37.563415" lon="-5.956720">
        <ele>-29.696</ele>
        <time>2015-12-05T09:31:40Z</time>
      </trkpt>
      <trkpt lat="37.565108" lon="-5.956068">
        <ele>-26.084</ele>
        <time>2015-12-05T09:32:23Z</time>
      </trkpt>
      <trkpt lat="37.565678" lon="-5.955985">
        <ele>-25.596</ele>
        <time>2015-12-05T09:32:35Z</time>
      </trkpt>
      <trkpt lat="37.568760" lon="-5.958112">
        <ele>-12.984</ele>
        <time>2015-12-05T09:33:57Z</time>
      </trkpt>
      <trkpt lat="37.570305" lon="-5.958377">
        <ele>-4.785</ele>
        <time>2015-12-05T09:34:46Z</time>
      </trkpt>
      <trkpt lat="37.571010" lon="-5.958898">
        <ele>-5.889</ele>
        <time>2015-12-05T09:35:04Z</time>
      </trkpt>
      <trkpt lat="37.572743" lon="-5.959478">
        <ele>-6.617</ele>
        <time>2015-12-05T09:35:40Z</time>
      </trkpt>
      <trkpt lat="37.572805" lon="-5.960253">
        <ele>-5.708</ele>
        <time>2015-12-05T09:36:02Z</time>
      </trkpt>
      <trkpt lat="37.573563" lon="-5.961710">
        <ele>-8.029</ele>
        <time>2015-12-05T09:36:23Z</time>
      </trkpt>
      <trkpt lat="37.574792" lon="-5.962715">
        <ele>-9.549</ele>
        <time>2015-12-05T09:36:48Z</time>
      </trkpt>
      <trkpt lat="37.574890" lon="-5.962957">
        <ele>-9.763</ele>
        <time>2015-12-05T09:36:52Z</time>
      </trkpt>
      <trkpt lat="37.574755" lon="-5.963460">
        <ele>-7.936</ele>
        <time>2015-12-05T09:37:00Z</time>
      </trkpt>
      <trkpt lat="37.574175" lon="-5.963888">
        <ele>-4.630</ele>
        <time>2015-12-05T09:37:12Z</time>
      </trkpt>
      <trkpt lat="37.574068" lon="-5.964388">
        <ele>-4.928</ele>
        <time>2015-12-05T09:37:19Z</time>
      </trkpt>
      <trkpt lat="37.574775" lon="-5.966198">
        <ele>-4.760</ele>
        <time>2015-12-05T09:37:45Z</time>
      </trkpt>
      <trkpt lat="37.575197" lon="-5.966685">
        <ele>-6.978</ele>
        <time>2015-12-05T09:37:55Z</time>
      </trkpt>
      <trkpt lat="37.575315" lon="-5.967203">
        <ele>-6.868</ele>
        <time>2015-12-05T09:38:03Z</time>
      </trkpt>
      <trkpt lat="37.575680" lon="-5.967698">
        <ele>-2.742</ele>
        <time>2015-12-05T09:38:15Z</time>
      </trkpt>
      <trkpt lat="37.577245" lon="-5.967898">
        <ele>-0.326</ele>
        <time>2015-12-05T09:38:57Z</time>
      </trkpt>
      <trkpt lat="37.578840" lon="-5.967112">
        <ele>9.508</ele>
        <time>2015-12-05T09:39:36Z</time>
      </trkpt>
      <trkpt lat="37.580282" lon="-5.967190">
        <ele>25.417</ele>
        <time>2015-12-05T09:40:10Z</time>
      </trkpt>
      <trkpt lat="37.581537" lon="-5.967057">
        <ele>25.187</ele>
        <time>2015-12-05T09:40:40Z</time>
      </trkpt>
      <trkpt lat="37.582707" lon="-5.967200">
        <ele>20.271</ele>
        <time>2015-12-05T09:41:04Z</time>
      </trkpt>
      <trkpt lat="37.583092" lon="-5.967042">
        <ele>19.574</ele>
        <time>2015-12-05T09:41:14Z</time>
      </trkpt>
      <trkpt lat="37.584080" lon="-5.968303">
        <ele>18.798</ele>
        <time>2015-12-05T09:41:51Z</time>
      </trkpt>
      <trkpt lat="37.585293" lon="-5.968920">
        <ele>18.776</ele>
        <time>2015-12-05T09:42:11Z</time>
      </trkpt>
      <trkpt lat="37.585690" lon="-5.970027">
        <ele>18.178</ele>
        <time>2015-12-05T09:42:23Z</time>
      </trkpt>
      <trkpt lat="37.587358" lon="-5.970990">
        <ele>25.166</ele>
        <time>2015-12-05T09:42:58Z</time>
      </trkpt>
      <trkpt lat="37.587763" lon="-5.974445">
        <ele>29.617</ele>
        <time>2015-12-05T09:44:10Z</time>
      </trkpt>
      <trkpt lat="37.587390" lon="-5.976657">
        <ele>17.687</ele>
        <time>2015-12-05T09:44:34Z</time>
      </trkpt>
      <trkpt lat="37.588100" lon="-5.979812">
        <ele>28.915</ele>
        <time>2015-12-05T09:45:42Z</time>
      </trkpt>
      <trkpt lat="37.588235" lon="-5.982352">
        <ele>29.808</ele>
        <time>2015-12-05T09:46:28Z</time>
      </trkpt>
      <trkpt lat="37.588157" lon="-5.983833">
        <ele>32.492</ele>
        <time>2015-12-05T09:46:58Z</time>
      </trkpt>
      <trkpt lat="37.587715" lon="-5.986578">
        <ele>22.072</ele>
        <time>2015-12-05T09:47:30Z</time>
      </trkpt>
      <trkpt lat="37.586745" lon="-5.989150">
        <ele>14.566</ele>
        <time>2015-12-05T09:47:56Z</time>
      </trkpt>
      <trkpt lat="37.586303" lon="-5.989683">
        <ele>11.559</ele>
        <time>2015-12-05T09:48:05Z</time>
      </trkpt>
      <trkpt lat="37.580883" lon="-5.990660">
        <ele>11.783</ele>
        <time>2015-12-05T09:49:41Z</time>
      </trkpt>
      <trkpt lat="37.579267" lon="-5.990823">
        <ele>6.871</ele>
        <time>2015-12-05T09:51:55Z</time>
      </trkpt>
      <trkpt lat="37.576135" lon="-5.991060">
        <ele>3.693</ele>
        <time>2015-12-05T09:53:48Z</time>
      </trkpt>
      <trkpt lat="37.574148" lon="-5.990857">
        <ele>3.811</ele>
        <time>2015-12-05T09:54:47Z</time>
      </trkpt>
      <trkpt lat="37.573137" lon="-5.990973">
        <ele>3.031</ele>
        <time>2015-12-05T09:55:10Z</time>
      </trkpt>
      <trkpt lat="37.573017" lon="-5.991707">
        <ele>1.461</ele>
        <time>2015-12-05T09:55:29Z</time>
      </trkpt>
      <trkpt lat="37.572240" lon="-5.991933">
        <ele>-1.707</ele>
        <time>2015-12-05T09:55:47Z</time>
      </trkpt>
      <trkpt lat="37.571517" lon="-5.992812">
        <ele>-3.208</ele>
        <time>2015-12-05T09:56:13Z</time>
      </trkpt>
      <trkpt lat="37.570105" lon="-5.993717">
        <ele>-4.834</ele>
        <time>2015-12-05T09:56:50Z</time>
      </trkpt>
      <trkpt lat="37.569887" lon="-5.993727">
        <ele>-5.054</ele>
        <time>2015-12-05T09:56:55Z</time>
      </trkpt>
      <trkpt lat="37.569595" lon="-5.993413">
        <ele>-6.698</ele>
        <time>2015-12-05T09:57:06Z</time>
      </trkpt>
      <trkpt lat="37.566875" lon="-5.992753">
        <ele>-8.611</ele>
        <time>2015-12-05T09:57:59Z</time>
      </trkpt>
      <trkpt lat="37.565827" lon="-5.992910">
        <ele>-7.735</ele>
        <time>2015-12-05T09:58:19Z</time>
      </trkpt>
      <trkpt lat="37.565105" lon="-5.993453">
        <ele>-7.373</ele>
        <time>2015-12-05T09:58:35Z</time>
      </trkpt>
      <trkpt lat="37.564443" lon="-5.993485">
        <ele>-7.855</ele>
        <time>2015-12-05T09:58:47Z</time>
      </trkpt>
      <trkpt lat="37.564268" lon="-5.993363">
        <ele>-7.413</ele>
        <time>2015-12-05T09:58:51Z</time>
      </trkpt>
      <trkpt lat="37.563873" lon="-5.992415">
        <ele>-7.011</ele>
        <time>2015-12-05T09:59:07Z</time>
      </trkpt>
      <trkpt lat="37.563385" lon="-5.991920">
        <ele>-7.421</ele>
        <time>2015-12-05T09:59:19Z</time>
      </trkpt>
      <trkpt lat="37.561978" lon="-5.991078">
        <ele>-8.803</ele>
        <time>2015-12-05T09:59:47Z</time>
      </trkpt>
      <trkpt lat="37.561112" lon="-5.990938">
        <ele>-8.908</ele>
        <time>2015-12-05T10:00:03Z</time>
      </trkpt>
      <trkpt lat="37.560035" lon="-5.991078">
        <ele>-8.172</ele>
        <time>2015-12-05T10:00:23Z</time>
      </trkpt>
      <trkpt lat="37.558732" lon="-5.991575">
        <ele>-8.682</ele>
        <time>2015-12-05T10:00:47Z</time>
      </trkpt>
      <trkpt lat="37.557702" lon="-5.991043">
        <ele>-9.496</ele>
        <time>2015-12-05T10:01:07Z</time>
      </trkpt>
      <trkpt lat="37.556055" lon="-5.991990">
        <ele>-8.779</ele>
        <time>2015-12-05T10:01:37Z</time>
      </trkpt>
      <trkpt lat="37.555055" lon="-5.991432">
        <ele>-8.943</ele>
        <time>2015-12-05T10:01:56Z</time>
      </trkpt>
      <trkpt lat="37.553918" lon="-5.991603">
        <ele>-8.831</ele>
        <time>2015-12-05T10:02:16Z</time>
      </trkpt>
      <trkpt lat="37.551907" lon="-5.991298">
        <ele>-9.873</ele>
        <time>2015-12-05T10:02:50Z</time>
      </trkpt>
      <trkpt lat="37.550748" lon="-5.992740">
        <ele>-9.561</ele>
        <time>2015-12-05T10:03:16Z</time>
      </trkpt>
      <trkpt lat="37.549768" lon="-5.992787">
        <ele>-9.797</ele>
        <time>2015-12-05T10:03:31Z</time>
      </trkpt>
      <trkpt lat="37.546905" lon="-5.993797">
        <ele>-7.023</ele>
        <time>2015-12-05T10:04:29Z</time>
      </trkpt>
      <trkpt lat="37.546497" lon="-5.993668">
        <ele>-6.225</ele>
        <time>2015-12-05T10:04:37Z</time>
      </trkpt>
      <trkpt lat="37.545755" lon="-5.993078">
        <ele>-6.608</ele>
        <time>2015-12-05T10:04:53Z</time>
      </trkpt>
      <trkpt lat="37.545328" lon="-5.993095">
        <ele>-5.680</ele>
        <time>2015-12-05T10:05:01Z</time>
      </trkpt>
      <trkpt lat="37.544617" lon="-5.993775">
        <ele>-5.490</ele>
        <time>2015-12-05T10:05:17Z</time>
      </trkpt>
      <trkpt lat="37.543553" lon="-5.995903">
        <ele>-5.414</ele>
        <time>2015-12-05T10:05:50Z</time>
      </trkpt>
      <trkpt lat="37.542707" lon="-5.996708">
        <ele>-6.887</ele>
        <time>2015-12-05T10:06:05Z</time>
      </trkpt>
      <trkpt lat="37.541002" lon="-5.997207">
        <ele>-9.351</ele>
        <time>2015-12-05T10:06:29Z</time>
      </trkpt>
      <trkpt lat="37.539152" lon="-5.998440">
        <ele>-11.439</ele>
        <time>2015-12-05T10:06:56Z</time>
      </trkpt>
      <trkpt lat="37.532463" lon="-6.001398">
        <ele>-24.551</ele>
        <time>2015-12-05T10:08:16Z</time>
      </trkpt>
      <trkpt lat="37.530938" lon="-6.002562">
        <ele>-26.449</ele>
        <time>2015-12-05T10:08:37Z</time>
      </trkpt>
      <trkpt lat="37.530682" lon="-6.002563">
        <ele>-26.773</ele>
        <time>2015-12-05T10:08:40Z</time>
      </trkpt>
      <trkpt lat="37.529217" lon="-6.001717">
        <ele>-27.885</ele>
        <time>2015-12-05T10:09:01Z</time>
      </trkpt>
      <trkpt lat="37.527990" lon="-6.002417">
        <ele>-29.013</ele>
        <time>2015-12-05T10:09:18Z</time>
      </trkpt>
      <trkpt lat="37.526678" lon="-6.002247">
        <ele>-34.308</ele>
        <time>2015-12-05T10:09:32Z</time>
      </trkpt>
      <trkpt lat="37.525535" lon="-6.002787">
        <ele>-35.538</ele>
        <time>2015-12-05T10:09:47Z</time>
      </trkpt>
      <trkpt lat="37.525113" lon="-6.003558">
        <ele>-35.738</ele>
        <time>2015-12-05T10:09:56Z</time>
      </trkpt>
      <trkpt lat="37.523508" lon="-6.009502">
        <ele>-37.582</ele>
        <time>2015-12-05T10:10:59Z</time>
      </trkpt>
      <trkpt lat="37.523140" lon="-6.010248">
        <ele>-37.645</ele>
        <time>2015-12-05T10:11:08Z</time>
      </trkpt>
      <trkpt lat="37.522602" lon="-6.010765">
        <ele>-35.959</ele>
        <time>2015-12-05T10:11:17Z</time>
      </trkpt>
      <trkpt lat="37.522160" lon="-6.010910">
        <ele>-35.497</ele>
        <time>2015-12-05T10:11:23Z</time>
      </trkpt>
      <trkpt lat="37.518492" lon="-6.010982">
        <ele>-37.449</ele>
        <time>2015-12-05T10:12:11Z</time>
      </trkpt>
      <trkpt lat="37.516247" lon="-6.013097">
        <ele>-37.197</ele>
        <time>2015-12-05T10:12:47Z</time>
      </trkpt>
      <trkpt lat="37.515652" lon="-6.013490">
        <ele>-37.224</ele>
        <time>2015-12-05T10:12:56Z</time>
      </trkpt>
      <trkpt lat="37.515443" lon="-6.013948">
        <ele>-37.204</ele>
        <time>2015-12-05T10:13:02Z</time>
      </trkpt>
      <trkpt lat="37.515022" lon="-6.017820">
        <ele>-40.214</ele>
        <time>2015-12-05T10:13:47Z</time>
      </trkpt>
      <trkpt lat="37.510743" lon="-6.018933">
        <ele>-43.208</ele>
        <time>2015-12-05T10:15:15Z</time>
      </trkpt>
      <trkpt lat="37.504465" lon="-6.021417">
        <ele>-38.823</ele>
        <time>2015-12-05T10:17:19Z</time>
      </trkpt>
      <trkpt lat="37.503148" lon="-6.021513">
        <ele>-39.373</ele>
        <time>2015-12-05T10:17:37Z</time>
      </trkpt>
      <trkpt lat="37.499380" lon="-6.021437">
        <ele>-43.017</ele>
        <time>2015-12-05T10:18:43Z</time>
      </trkpt>
      <trkpt lat="37.499108" lon="-6.021782">
        <ele>-42.640</ele>
        <time>2015-12-05T10:19:01Z</time>
      </trkpt>
      <trkpt lat="37.498333" lon="-6.021703">
        <ele>-43.294</ele>
        <time>2015-12-05T10:19:17Z</time>
      </trkpt>
      <trkpt lat="37.496967" lon="-6.023532">
        <ele>-46.982</ele>
        <time>2015-12-05T10:19:59Z</time>
      </trkpt>
      <trkpt lat="37.496535" lon="-6.023627">
        <ele>-46.974</ele>
        <time>2015-12-05T10:20:07Z</time>
      </trkpt>
      <trkpt lat="37.495860" lon="-6.024323">
        <ele>-47.422</ele>
        <time>2015-12-05T10:20:22Z</time>
      </trkpt>
      <trkpt lat="37.494890" lon="-6.024790">
        <ele>-48.785</ele>
        <time>2015-12-05T10:20:42Z</time>
      </trkpt>
      <trkpt lat="37.493855" lon="-6.024953">
        <ele>-49.589</ele>
        <time>2015-12-05T10:21:02Z</time>
      </trkpt>
      <trkpt lat="37.491225" lon="-6.024463">
        <ele>-52.017</ele>
        <time>2015-12-05T10:21:49Z</time>
      </trkpt>
      <trkpt lat="37.487038" lon="-6.023065">
        <ele>-53.208</ele>
        <time>2015-12-05T10:23:07Z</time>
      </trkpt>
      <trkpt lat="37.485983" lon="-6.022970">
        <ele>-51.419</ele>
        <time>2015-12-05T10:23:27Z</time>
      </trkpt>
      <trkpt lat="37.483993" lon="-6.023088">
        <ele>-51.769</ele>
        <time>2015-12-05T10:24:03Z</time>
      </trkpt>
      <trkpt lat="37.483320" lon="-6.022957">
        <ele>-51.653</ele>
        <time>2015-12-05T10:24:15Z</time>
      </trkpt>
      <trkpt lat="37.481920" lon="-6.021947">
        <ele>-52.816</ele>
        <time>2015-12-05T10:24:47Z</time>
      </trkpt>
      <trkpt lat="37.480145" lon="-6.020008">
        <ele>-54.320</ele>
        <time>2015-12-05T10:25:35Z</time>
      </trkpt>
      <trkpt lat="37.479237" lon="-6.019437">
        <ele>-55.268</ele>
        <time>2015-12-05T10:25:55Z</time>
      </trkpt>
      <trkpt lat="37.476988" lon="-6.018687">
        <ele>-51.850</ele>
        <time>2015-12-05T10:26:39Z</time>
      </trkpt>
      <trkpt lat="37.475455" lon="-6.018458">
        <ele>-51.548</ele>
        <time>2015-12-05T10:27:07Z</time>
      </trkpt>
      <trkpt lat="37.473652" lon="-6.017173">
        <ele>-47.199</ele>
        <time>2015-12-05T10:27:47Z</time>
      </trkpt>
      <trkpt lat="37.472675" lon="-6.016738">
        <ele>-45.407</ele>
        <time>2015-12-05T10:28:07Z</time>
      </trkpt>
      <trkpt lat="37.471825" lon="-6.016608">
        <ele>-45.127</ele>
        <time>2015-12-05T10:28:23Z</time>
      </trkpt>
      <trkpt lat="37.470322" lon="-6.016637">
        <ele>-46.608</ele>
        <time>2015-12-05T10:28:51Z</time>
      </trkpt>
      <trkpt lat="37.469655" lon="-6.016428">
        <ele>-48.390</ele>
        <time>2015-12-05T10:29:03Z</time>
      </trkpt>
      <trkpt lat="37.467712" lon="-6.015287">
        <ele>-47.260</ele>
        <time>2015-12-05T10:29:43Z</time>
      </trkpt>
      <trkpt lat="37.465963" lon="-6.014652">
        <ele>-44.164</ele>
        <time>2015-12-05T10:30:51Z</time>
      </trkpt>
      <trkpt lat="37.464803" lon="-6.013730">
        <ele>-42.927</ele>
        <time>2015-12-05T10:32:19Z</time>
      </trkpt>
      <trkpt lat="37.463815" lon="-6.013428">
        <ele>-40.811</ele>
        <time>2015-12-05T10:32:44Z</time>
      </trkpt>
      <trkpt lat="37.463342" lon="-6.011242">
        <ele>-36.279</ele>
        <time>2015-12-05T10:33:43Z</time>
      </trkpt>
      <trkpt lat="37.460673" lon="-6.010948">
        <ele>-15.751</ele>
        <time>2015-12-05T10:34:47Z</time>
      </trkpt>
      <trkpt lat="37.460278" lon="-6.011032">
        <ele>-16.849</ele>
        <time>2015-12-05T10:34:55Z</time>
      </trkpt>
      <trkpt lat="37.458800" lon="-6.013618">
        <ele>-26.217</ele>
        <time>2015-12-05T10:35:41Z</time>
      </trkpt>
      <trkpt lat="37.458005" lon="-6.013350">
        <ele>-34.087</ele>
        <time>2015-12-05T10:35:59Z</time>
      </trkpt>
      <trkpt lat="37.455645" lon="-6.013178">
        <ele>-41.815</ele>
        <time>2015-12-05T10:36:43Z</time>
      </trkpt>
      <trkpt lat="37.455147" lon="-6.012625">
        <ele>-44.108</ele>
        <time>2015-12-05T10:36:55Z</time>
      </trkpt>
      <trkpt lat="37.454907" lon="-6.011803">
        <ele>-45.512</ele>
        <time>2015-12-05T10:37:07Z</time>
      </trkpt>
      <trkpt lat="37.453377" lon="-6.001023">
        <ele>-55.232</ele>
        <time>2015-12-05T10:39:35Z</time>
      </trkpt>
      <trkpt lat="37.453357" lon="-6.000048">
        <ele>-53.356</ele>
        <time>2015-12-05T10:43:51Z</time>
      </trkpt>
      <trkpt lat="37.453217" lon="-5.999862">
        <ele>-53.079</ele>
        <time>2015-12-05T10:43:57Z</time>
      </trkpt>
      <trkpt lat="37.438025" lon="-5.991738">
        <ele>-55.473</ele>
        <time>2015-12-05T10:48:39Z</time>
      </trkpt>
      <trkpt lat="37.434333" lon="-5.990632">
        <ele>-55.241</ele>
        <time>2015-12-05T10:49:33Z</time>
      </trkpt>
      <trkpt lat="37.430847" lon="-5.989102">
        <ele>-46.613</ele>
        <time>2015-12-05T10:50:36Z</time>
      </trkpt>
      <trkpt lat="37.427138" lon="-5.986603">
        <ele>-55.781</ele>
        <time>2015-12-05T10:51:50Z</time>
      </trkpt>
      <trkpt lat="37.424665" lon="-5.984725">
        <ele>-33.297</ele>
        <time>2015-12-05T10:52:59Z</time>
      </trkpt>
      <trkpt lat="37.424548" lon="-5.984523">
        <ele>-32.723</ele>
        <time>2015-12-05T10:53:05Z</time>
      </trkpt>
      <trkpt lat="37.424613" lon="-5.982760">
        <ele>-31.025</ele>
        <time>2015-12-05T10:53:40Z</time>
      </trkpt>
      <trkpt lat="37.424473" lon="-5.982570">
        <ele>-30.408</ele>
        <time>2015-12-05T10:53:45Z</time>
      </trkpt>
      <trkpt lat="37.422112" lon="-5.982812">
        <ele>-43.610</ele>
        <time>2015-12-05T10:54:27Z</time>
      </trkpt>
      <trkpt lat="37.421535" lon="-5.983250">
        <ele>-43.220</ele>
        <time>2015-12-05T10:54:39Z</time>
      </trkpt>
      <trkpt lat="37.420823" lon="-5.982915">
        <ele>-44.094</ele>
        <time>2015-12-05T10:54:56Z</time>
      </trkpt>
      <trkpt lat="37.414920" lon="-5.983392">
        <ele>-48.477</ele>
        <time>2015-12-05T10:56:57Z</time>
      </trkpt>
      <trkpt lat="37.413397" lon="-5.983788">
        <ele>-43.131</ele>
        <time>2015-12-05T10:57:47Z</time>
      </trkpt>
      <trkpt lat="37.412768" lon="-5.983712">
        <ele>-40.519</ele>
        <time>2015-12-05T10:57:56Z</time>
      </trkpt>
      <trkpt lat="37.412152" lon="-5.983840">
        <ele>-41.321</ele>
        <time>2015-12-05T10:58:03Z</time>
      </trkpt>
      <trkpt lat="37.410575" lon="-5.984363">
        <ele>-33.599</ele>
        <time>2015-12-05T12:10:43Z</time>
      </trkpt>
      <trkpt lat="37.407838" lon="-5.985540">
        <ele>-23.355</ele>
        <time>2015-12-05T12:12:28Z</time>
      </trkpt>
      <trkpt lat="37.406845" lon="-5.985763">
        <ele>-18.007</ele>
        <time>2015-12-05T12:12:46Z</time>
      </trkpt>
      <trkpt lat="37.403198" lon="-5.987913">
        <ele>-25.517</ele>
        <time>2015-12-05T12:14:07Z</time>
      </trkpt>
      <trkpt lat="37.401838" lon="-5.986013">
        <ele>-32.008</ele>
        <time>2015-12-05T12:14:50Z</time>
      </trkpt>
      <trkpt lat="37.399945" lon="-5.984548">
        <ele>-25.656</ele>
        <time>2015-12-05T12:15:41Z</time>
      </trkpt>
      <trkpt lat="37.399172" lon="-5.982423">
        <ele>-17.766</ele>
        <time>2015-12-05T12:16:25Z</time>
      </trkpt>
      <trkpt lat="37.398893" lon="-5.982090">
        <ele>-15.460</ele>
        <time>2015-12-05T12:16:35Z</time>
      </trkpt>
      <trkpt lat="37.398192" lon="-5.981715">
        <ele>-11.133</ele>
        <time>2015-12-05T12:16:54Z</time>
      </trkpt>
      <trkpt lat="37.396020" lon="-5.982457">
        <ele>-16.737</ele>
        <time>2015-12-05T12:19:07Z</time>
      </trkpt>
      <trkpt lat="37.394392" lon="-5.983767">
        <ele>-39.355</ele>
        <time>2015-12-05T12:20:10Z</time>
      </trkpt>
      <trkpt lat="37.393138" lon="-5.984117">
        <ele>-31.817</ele>
        <time>2015-12-05T12:21:19Z</time>
      </trkpt>
      <trkpt lat="37.390833" lon="-5.984070">
        <ele>1.565</ele>
        <time>2015-12-05T12:22:49Z</time>
      </trkpt>
      <trkpt lat="37.389865" lon="-5.984292">
        <ele>14.013</ele>
        <time>2015-12-05T12:23:21Z</time>
      </trkpt>
      <trkpt lat="37.389153" lon="-5.984640">
        <ele>13.243</ele>
        <time>2015-12-05T12:23:48Z</time>
      </trkpt>
      <trkpt lat="37.388340" lon="-5.984692">
        <ele>4.207</ele>
        <time>2015-12-05T12:24:10Z</time>
      </trkpt>
      <trkpt lat="37.387402" lon="-5.985088">
        <ele>-0.408</ele>
        <time>2015-12-05T12:24:33Z</time>
      </trkpt>
      <trkpt lat="37.385467" lon="-5.986240">
        <ele>-7.782</ele>
        <time>2015-12-05T12:25:50Z</time>
      </trkpt>
      <trkpt lat="37.385025" lon="-5.986735">
        <ele>-21.152</ele>
        <time>2015-12-05T12:26:07Z</time>
      </trkpt>
      <trkpt lat="37.382058" lon="-5.988448">
        <ele>-40.186</ele>
        <time>2015-12-05T12:27:17Z</time>
      </trkpt>
      <trkpt lat="37.381730" lon="-5.988695">
        <ele>-37.029</ele>
        <time>2015-12-05T12:27:27Z</time>
      </trkpt>
      <trkpt lat="37.381600" lon="-5.989138">
        <ele>-39.183</ele>
        <time>2015-12-05T12:27:41Z</time>
      </trkpt>
      <trkpt lat="37.381398" lon="-5.989147">
        <ele>-38.071</ele>
        <time>2015-12-05T12:27:49Z</time>
      </trkpt>
      <trkpt lat="37.380850" lon="-5.988927">
        <ele>-40.643</ele>
        <time>2015-12-05T12:28:35Z</time>
      </trkpt>
      <trkpt lat="37.380817" lon="-5.987467">
        <ele>-39.261</ele>
        <time>2015-12-05T12:29:03Z</time>
      </trkpt>
      <trkpt lat="37.380123" lon="-5.984760">
        <ele>-41.194</ele>
        <time>2015-12-05T12:29:28Z</time>
      </trkpt>
      <trkpt lat="37.379540" lon="-5.983105">
        <ele>-43.257</ele>
        <time>2015-12-05T12:29:50Z</time>
      </trkpt>
      <trkpt lat="37.379543" lon="-5.982642">
        <ele>-42.922</ele>
        <time>2015-12-05T12:29:57Z</time>
      </trkpt>
      <trkpt lat="37.378552" lon="-5.979833">
        <ele>-29.108</ele>
        <time>2015-12-05T12:31:16Z</time>
      </trkpt>
      <trkpt lat="37.378854" lon="-5.980881">
        <ele>-30.220</ele>
        <time>2015-12-05T12:32:21Z</time>
      </trkpt>
      <trkpt lat="37.377480" lon="-5.981650">
        <ele>-23.130</ele>
        <time>2015-12-05T12:33:14Z</time>
      </trkpt>
      <trkpt lat="37.377183" lon="-5.980736">
        <ele>-18.854</ele>
        <time>2015-12-05T12:33:24Z</time>
      </trkpt>
    </trkseg>
  </trk>
</gpx>
